<?xml version="1.0" encoding="UTF-8" standalone="no" ?>
<gpx xmlns="http://www.topografix.com/GPX/1/1" xmlns:xsi="http://www.w3.org/2001/XMLSchema-instance" xsi:schemaLocation="http://www.topografix.com/GPX/1/1 http://www.topografix.com/GPX/1/1/gpx.xsd" version="1.1" creator="VisuGPX - https://www.visugpx.com">
  <metadata>
    <name>Champagnat Cyclisme sur route</name>
  </metadata>
  <trk>
    <name><![CDATA[Champagnat Cyclisme sur route_1]]></name>
    <trkseg>
      <trkpt lat="46.48268" lon="5.36834">
        <ele>265.8</ele>
        <time>2022-02-08T13:08:24Z</time>
      </trkpt>
      <trkpt lat="46.48248" lon="5.36812">
        <ele>263.8</ele>
        <time>2022-02-08T13:08:26Z</time>
      </trkpt>
      <trkpt lat="46.48237" lon="5.36803">
        <ele>262.8</ele>
        <time>2022-02-08T13:08:27Z</time>
      </trkpt>
      <trkpt lat="46.48215" lon="5.36784">
        <ele>261.2</ele>
        <time>2022-02-08T13:08:29Z</time>
      </trkpt>
      <trkpt lat="46.48193" lon="5.36766">
        <ele>259.6</ele>
        <time>2022-02-08T13:08:31Z</time>
      </trkpt>
      <trkpt lat="46.48182" lon="5.36757">
        <ele>259.2</ele>
        <time>2022-02-08T13:08:32Z</time>
      </trkpt>
      <trkpt lat="46.48172" lon="5.36748">
        <ele>258.4</ele>
        <time>2022-02-08T13:08:33Z</time>
      </trkpt>
      <trkpt lat="46.4815" lon="5.36731">
        <ele>257.2</ele>
        <time>2022-02-08T13:08:35Z</time>
      </trkpt>
      <trkpt lat="46.4814" lon="5.36722">
        <ele>256.2</ele>
        <time>2022-02-08T13:08:36Z</time>
      </trkpt>
      <trkpt lat="46.48123" lon="5.36709">
        <ele>254.4</ele>
        <time>2022-02-08T13:08:38Z</time>
      </trkpt>
      <trkpt lat="46.48116" lon="5.36703">
        <ele>253.8</ele>
        <time>2022-02-08T13:08:39Z</time>
      </trkpt>
      <trkpt lat="46.48111" lon="5.36697">
        <ele>252.8</ele>
        <time>2022-02-08T13:08:40Z</time>
      </trkpt>
      <trkpt lat="46.48108" lon="5.36689">
        <ele>252.6</ele>
        <time>2022-02-08T13:08:41Z</time>
      </trkpt>
      <trkpt lat="46.48109" lon="5.36682">
        <ele>251.2</ele>
        <time>2022-02-08T13:08:42Z</time>
      </trkpt>
      <trkpt lat="46.48113" lon="5.36675">
        <ele>250.8</ele>
        <time>2022-02-08T13:08:43Z</time>
      </trkpt>
      <trkpt lat="46.48119" lon="5.3667">
        <ele>250</ele>
        <time>2022-02-08T13:08:44Z</time>
      </trkpt>
      <trkpt lat="46.48131" lon="5.36657">
        <ele>248.8</ele>
        <time>2022-02-08T13:08:46Z</time>
      </trkpt>
      <trkpt lat="46.48144" lon="5.36645">
        <ele>248</ele>
        <time>2022-02-08T13:08:48Z</time>
      </trkpt>
      <trkpt lat="46.48151" lon="5.36638">
        <ele>247.4</ele>
        <time>2022-02-08T13:08:49Z</time>
      </trkpt>
      <trkpt lat="46.48181" lon="5.36612">
        <ele>246.4</ele>
        <time>2022-02-08T13:08:53Z</time>
      </trkpt>
      <trkpt lat="46.48189" lon="5.36609">
        <ele>246.4</ele>
        <time>2022-02-08T13:08:54Z</time>
      </trkpt>
      <trkpt lat="46.48198" lon="5.36607">
        <ele>246.2</ele>
        <time>2022-02-08T13:08:55Z</time>
      </trkpt>
      <trkpt lat="46.48213" lon="5.366">
        <ele>246.2</ele>
        <time>2022-02-08T13:08:57Z</time>
      </trkpt>
      <trkpt lat="46.48222" lon="5.36583">
        <ele>246</ele>
        <time>2022-02-08T13:08:59Z</time>
      </trkpt>
      <trkpt lat="46.48228" lon="5.36563">
        <ele>245.6</ele>
        <time>2022-02-08T13:09:01Z</time>
      </trkpt>
      <trkpt lat="46.48233" lon="5.36556">
        <ele>245.6</ele>
        <time>2022-02-08T13:09:02Z</time>
      </trkpt>
      <trkpt lat="46.48263" lon="5.36522">
        <ele>245.2</ele>
        <time>2022-02-08T13:09:07Z</time>
      </trkpt>
      <trkpt lat="46.48282" lon="5.36501">
        <ele>244.8</ele>
        <time>2022-02-08T13:09:10Z</time>
      </trkpt>
      <trkpt lat="46.48308" lon="5.36473">
        <ele>244.2</ele>
        <time>2022-02-08T13:09:14Z</time>
      </trkpt>
      <trkpt lat="46.48341" lon="5.36436">
        <ele>243</ele>
        <time>2022-02-08T13:09:19Z</time>
      </trkpt>
      <trkpt lat="46.48347" lon="5.36429">
        <ele>242.8</ele>
        <time>2022-02-08T13:09:20Z</time>
      </trkpt>
      <trkpt lat="46.48368" lon="5.36407">
        <ele>242</ele>
        <time>2022-02-08T13:09:23Z</time>
      </trkpt>
      <trkpt lat="46.48395" lon="5.36378">
        <ele>240.8</ele>
        <time>2022-02-08T13:09:27Z</time>
      </trkpt>
      <trkpt lat="46.48402" lon="5.36372">
        <ele>240.6</ele>
        <time>2022-02-08T13:09:28Z</time>
      </trkpt>
      <trkpt lat="46.48431" lon="5.36354">
        <ele>240</ele>
        <time>2022-02-08T13:09:32Z</time>
      </trkpt>
      <trkpt lat="46.48467" lon="5.36346">
        <ele>239.8</ele>
        <time>2022-02-08T13:09:37Z</time>
      </trkpt>
      <trkpt lat="46.48523" lon="5.36338">
        <ele>239.4</ele>
        <time>2022-02-08T13:09:45Z</time>
      </trkpt>
      <trkpt lat="46.48537" lon="5.36336">
        <ele>239.4</ele>
        <time>2022-02-08T13:09:47Z</time>
      </trkpt>
      <trkpt lat="46.48571" lon="5.36331">
        <ele>238.8</ele>
        <time>2022-02-08T13:09:52Z</time>
      </trkpt>
      <trkpt lat="46.48594" lon="5.36327">
        <ele>237.8</ele>
        <time>2022-02-08T13:09:55Z</time>
      </trkpt>
      <trkpt lat="46.48602" lon="5.36326">
        <ele>237.6</ele>
        <time>2022-02-08T13:09:56Z</time>
      </trkpt>
      <trkpt lat="46.4861" lon="5.36324">
        <ele>237.2</ele>
        <time>2022-02-08T13:09:57Z</time>
      </trkpt>
      <trkpt lat="46.48624" lon="5.36314">
        <ele>236.8</ele>
        <time>2022-02-08T13:09:59Z</time>
      </trkpt>
      <trkpt lat="46.4863" lon="5.36305">
        <ele>236.6</ele>
        <time>2022-02-08T13:10:00Z</time>
      </trkpt>
      <trkpt lat="46.48634" lon="5.36294">
        <ele>236.4</ele>
        <time>2022-02-08T13:10:01Z</time>
      </trkpt>
      <trkpt lat="46.48637" lon="5.36282">
        <ele>236.2</ele>
        <time>2022-02-08T13:10:02Z</time>
      </trkpt>
      <trkpt lat="46.48642" lon="5.36243">
        <ele>235.2</ele>
        <time>2022-02-08T13:10:05Z</time>
      </trkpt>
      <trkpt lat="46.48644" lon="5.36218">
        <ele>234</ele>
        <time>2022-02-08T13:10:07Z</time>
      </trkpt>
      <trkpt lat="46.48645" lon="5.36205">
        <ele>233.8</ele>
        <time>2022-02-08T13:10:08Z</time>
      </trkpt>
      <trkpt lat="46.48647" lon="5.36167">
        <ele>232.6</ele>
        <time>2022-02-08T13:10:11Z</time>
      </trkpt>
      <trkpt lat="46.48655" lon="5.36117">
        <ele>231.8</ele>
        <time>2022-02-08T13:10:15Z</time>
      </trkpt>
      <trkpt lat="46.48659" lon="5.36093">
        <ele>231.6</ele>
        <time>2022-02-08T13:10:17Z</time>
      </trkpt>
      <trkpt lat="46.48671" lon="5.3604">
        <ele>231</ele>
        <time>2022-02-08T13:10:22Z</time>
      </trkpt>
      <trkpt lat="46.48675" lon="5.3602">
        <ele>231</ele>
        <time>2022-02-08T13:10:24Z</time>
      </trkpt>
      <trkpt lat="46.48677" lon="5.36002">
        <ele>231.2</ele>
        <time>2022-02-08T13:10:26Z</time>
      </trkpt>
      <trkpt lat="46.48682" lon="5.35959">
        <ele>232.2</ele>
        <time>2022-02-08T13:10:31Z</time>
      </trkpt>
      <trkpt lat="46.48693" lon="5.359">
        <ele>232.6</ele>
        <time>2022-02-08T13:10:37Z</time>
      </trkpt>
      <trkpt lat="46.48712" lon="5.35853">
        <ele>232.4</ele>
        <time>2022-02-08T13:10:42Z</time>
      </trkpt>
      <trkpt lat="46.48741" lon="5.35782">
        <ele>231.2</ele>
        <time>2022-02-08T13:10:50Z</time>
      </trkpt>
      <trkpt lat="46.48745" lon="5.35773">
        <ele>231.2</ele>
        <time>2022-02-08T13:10:51Z</time>
      </trkpt>
      <trkpt lat="46.48757" lon="5.35746">
        <ele>230.6</ele>
        <time>2022-02-08T13:10:54Z</time>
      </trkpt>
      <trkpt lat="46.48773" lon="5.35711">
        <ele>230</ele>
        <time>2022-02-08T13:10:58Z</time>
      </trkpt>
      <trkpt lat="46.48802" lon="5.35643">
        <ele>229.8</ele>
        <time>2022-02-08T13:11:06Z</time>
      </trkpt>
      <trkpt lat="46.48806" lon="5.35634">
        <ele>229.8</ele>
        <time>2022-02-08T13:11:07Z</time>
      </trkpt>
      <trkpt lat="46.4882" lon="5.35601">
        <ele>230</ele>
        <time>2022-02-08T13:11:11Z</time>
      </trkpt>
      <trkpt lat="46.48828" lon="5.35585">
        <ele>230</ele>
        <time>2022-02-08T13:11:13Z</time>
      </trkpt>
      <trkpt lat="46.48858" lon="5.35518">
        <ele>230.4</ele>
        <time>2022-02-08T13:11:21Z</time>
      </trkpt>
      <trkpt lat="46.48862" lon="5.35509">
        <ele>230.2</ele>
        <time>2022-02-08T13:11:22Z</time>
      </trkpt>
      <trkpt lat="46.48893" lon="5.35447">
        <ele>230</ele>
        <time>2022-02-08T13:11:29Z</time>
      </trkpt>
      <trkpt lat="46.4892" lon="5.35383">
        <ele>229.6</ele>
        <time>2022-02-08T13:11:36Z</time>
      </trkpt>
      <trkpt lat="46.48929" lon="5.35365">
        <ele>229.4</ele>
        <time>2022-02-08T13:11:38Z</time>
      </trkpt>
      <trkpt lat="46.48944" lon="5.35329">
        <ele>229</ele>
        <time>2022-02-08T13:11:42Z</time>
      </trkpt>
      <trkpt lat="46.48968" lon="5.35271">
        <ele>228.8</ele>
        <time>2022-02-08T13:11:49Z</time>
      </trkpt>
      <trkpt lat="46.48986" lon="5.35231">
        <ele>229.2</ele>
        <time>2022-02-08T13:11:54Z</time>
      </trkpt>
      <trkpt lat="46.48989" lon="5.35223">
        <ele>229.2</ele>
        <time>2022-02-08T13:11:55Z</time>
      </trkpt>
      <trkpt lat="46.4901" lon="5.35176">
        <ele>229.4</ele>
        <time>2022-02-08T13:12:02Z</time>
      </trkpt>
      <trkpt lat="46.49033" lon="5.35125">
        <ele>230.2</ele>
        <time>2022-02-08T13:12:09Z</time>
      </trkpt>
      <trkpt lat="46.49038" lon="5.35108">
        <ele>230.4</ele>
        <time>2022-02-08T13:12:11Z</time>
      </trkpt>
      <trkpt lat="46.49046" lon="5.3507">
        <ele>230.8</ele>
        <time>2022-02-08T13:12:15Z</time>
      </trkpt>
      <trkpt lat="46.49059" lon="5.35009">
        <ele>230.4</ele>
        <time>2022-02-08T13:12:21Z</time>
      </trkpt>
      <trkpt lat="46.49074" lon="5.34932">
        <ele>229.6</ele>
        <time>2022-02-08T13:12:28Z</time>
      </trkpt>
      <trkpt lat="46.49078" lon="5.3491">
        <ele>229</ele>
        <time>2022-02-08T13:12:30Z</time>
      </trkpt>
      <trkpt lat="46.49091" lon="5.34842">
        <ele>227.8</ele>
        <time>2022-02-08T13:12:36Z</time>
      </trkpt>
      <trkpt lat="46.49095" lon="5.34819">
        <ele>227.4</ele>
        <time>2022-02-08T13:12:38Z</time>
      </trkpt>
      <trkpt lat="46.49106" lon="5.34763">
        <ele>226.6</ele>
        <time>2022-02-08T13:12:43Z</time>
      </trkpt>
      <trkpt lat="46.49112" lon="5.34728">
        <ele>226.2</ele>
        <time>2022-02-08T13:12:46Z</time>
      </trkpt>
      <trkpt lat="46.49121" lon="5.34682">
        <ele>225.4</ele>
        <time>2022-02-08T13:12:50Z</time>
      </trkpt>
      <trkpt lat="46.4913" lon="5.34641">
        <ele>225</ele>
        <time>2022-02-08T13:12:54Z</time>
      </trkpt>
      <trkpt lat="46.49139" lon="5.34596">
        <ele>225</ele>
        <time>2022-02-08T13:12:59Z</time>
      </trkpt>
      <trkpt lat="46.4915" lon="5.34538">
        <ele>225.6</ele>
        <time>2022-02-08T13:13:05Z</time>
      </trkpt>
      <trkpt lat="46.49161" lon="5.34484">
        <ele>225.6</ele>
        <time>2022-02-08T13:13:10Z</time>
      </trkpt>
      <trkpt lat="46.49176" lon="5.34403">
        <ele>225.2</ele>
        <time>2022-02-08T13:13:18Z</time>
      </trkpt>
      <trkpt lat="46.49184" lon="5.34363">
        <ele>225.2</ele>
        <time>2022-02-08T13:13:23Z</time>
      </trkpt>
      <trkpt lat="46.49192" lon="5.34315">
        <ele>225.8</ele>
        <time>2022-02-08T13:13:29Z</time>
      </trkpt>
      <trkpt lat="46.49204" lon="5.34256">
        <ele>226.2</ele>
        <time>2022-02-08T13:13:35Z</time>
      </trkpt>
      <trkpt lat="46.49218" lon="5.34182">
        <ele>225.4</ele>
        <time>2022-02-08T13:13:42Z</time>
      </trkpt>
      <trkpt lat="46.4923" lon="5.34115">
        <ele>225.4</ele>
        <time>2022-02-08T13:13:49Z</time>
      </trkpt>
      <trkpt lat="46.49239" lon="5.3407">
        <ele>226</ele>
        <time>2022-02-08T13:13:55Z</time>
      </trkpt>
      <trkpt lat="46.49242" lon="5.34058">
        <ele>226.6</ele>
        <time>2022-02-08T13:13:57Z</time>
      </trkpt>
      <trkpt lat="46.49245" lon="5.34037">
        <ele>227</ele>
        <time>2022-02-08T13:14:00Z</time>
      </trkpt>
      <trkpt lat="46.4925" lon="5.34012">
        <ele>227.6</ele>
        <time>2022-02-08T13:14:03Z</time>
      </trkpt>
      <trkpt lat="46.49255" lon="5.33986">
        <ele>228</ele>
        <time>2022-02-08T13:14:06Z</time>
      </trkpt>
      <trkpt lat="46.49268" lon="5.33925">
        <ele>228.4</ele>
        <time>2022-02-08T13:14:13Z</time>
      </trkpt>
      <trkpt lat="46.49279" lon="5.33862">
        <ele>228.2</ele>
        <time>2022-02-08T13:14:20Z</time>
      </trkpt>
      <trkpt lat="46.49293" lon="5.33794">
        <ele>228.2</ele>
        <time>2022-02-08T13:14:28Z</time>
      </trkpt>
      <trkpt lat="46.49304" lon="5.33719">
        <ele>228.2</ele>
        <time>2022-02-08T13:14:36Z</time>
      </trkpt>
      <trkpt lat="46.49307" lon="5.3364">
        <ele>227.8</ele>
        <time>2022-02-08T13:14:44Z</time>
      </trkpt>
      <trkpt lat="46.49308" lon="5.33632">
        <ele>227.8</ele>
        <time>2022-02-08T13:14:45Z</time>
      </trkpt>
      <trkpt lat="46.49316" lon="5.33583">
        <ele>227.4</ele>
        <time>2022-02-08T13:14:50Z</time>
      </trkpt>
      <trkpt lat="46.49321" lon="5.33547">
        <ele>227</ele>
        <time>2022-02-08T13:14:54Z</time>
      </trkpt>
      <trkpt lat="46.49321" lon="5.33538">
        <ele>227</ele>
        <time>2022-02-08T13:14:55Z</time>
      </trkpt>
      <trkpt lat="46.49313" lon="5.33465">
        <ele>226.6</ele>
        <time>2022-02-08T13:15:03Z</time>
      </trkpt>
      <trkpt lat="46.49298" lon="5.33381">
        <ele>226.6</ele>
        <time>2022-02-08T13:15:12Z</time>
      </trkpt>
      <trkpt lat="46.49289" lon="5.3334">
        <ele>226.4</ele>
        <time>2022-02-08T13:15:16Z</time>
      </trkpt>
      <trkpt lat="46.49281" lon="5.33299">
        <ele>226</ele>
        <time>2022-02-08T13:15:20Z</time>
      </trkpt>
      <trkpt lat="46.49275" lon="5.33268">
        <ele>225.2</ele>
        <time>2022-02-08T13:15:23Z</time>
      </trkpt>
      <trkpt lat="46.49265" lon="5.33228">
        <ele>224.4</ele>
        <time>2022-02-08T13:15:27Z</time>
      </trkpt>
      <trkpt lat="46.49262" lon="5.33221">
        <ele>224.2</ele>
        <time>2022-02-08T13:15:28Z</time>
      </trkpt>
      <trkpt lat="46.49253" lon="5.332">
        <ele>224</ele>
        <time>2022-02-08T13:15:30Z</time>
      </trkpt>
      <trkpt lat="46.49247" lon="5.33193">
        <ele>223.8</ele>
        <time>2022-02-08T13:15:31Z</time>
      </trkpt>
      <trkpt lat="46.49241" lon="5.33187">
        <ele>223.8</ele>
        <time>2022-02-08T13:15:32Z</time>
      </trkpt>
      <trkpt lat="46.49221" lon="5.33172">
        <ele>223.6</ele>
        <time>2022-02-08T13:15:35Z</time>
      </trkpt>
      <trkpt lat="46.49193" lon="5.33149">
        <ele>223.2</ele>
        <time>2022-02-08T13:15:39Z</time>
      </trkpt>
      <trkpt lat="46.49167" lon="5.33122">
        <ele>222.6</ele>
        <time>2022-02-08T13:15:43Z</time>
      </trkpt>
      <trkpt lat="46.49157" lon="5.33104">
        <ele>222.4</ele>
        <time>2022-02-08T13:15:45Z</time>
      </trkpt>
      <trkpt lat="46.4915" lon="5.33086">
        <ele>222.2</ele>
        <time>2022-02-08T13:15:47Z</time>
      </trkpt>
      <trkpt lat="46.49138" lon="5.33039">
        <ele>221.6</ele>
        <time>2022-02-08T13:15:52Z</time>
      </trkpt>
      <trkpt lat="46.49128" lon="5.32967">
        <ele>221.4</ele>
        <time>2022-02-08T13:15:59Z</time>
      </trkpt>
      <trkpt lat="46.49125" lon="5.32923">
        <ele>221.2</ele>
        <time>2022-02-08T13:16:03Z</time>
      </trkpt>
      <trkpt lat="46.49126" lon="5.32901">
        <ele>220.8</ele>
        <time>2022-02-08T13:16:05Z</time>
      </trkpt>
      <trkpt lat="46.49126" lon="5.3289">
        <ele>220.6</ele>
        <time>2022-02-08T13:16:06Z</time>
      </trkpt>
      <trkpt lat="46.49133" lon="5.3286">
        <ele>220.2</ele>
        <time>2022-02-08T13:16:09Z</time>
      </trkpt>
      <trkpt lat="46.49138" lon="5.32842">
        <ele>220.2</ele>
        <time>2022-02-08T13:16:11Z</time>
      </trkpt>
      <trkpt lat="46.49141" lon="5.32824">
        <ele>220</ele>
        <time>2022-02-08T13:16:13Z</time>
      </trkpt>
      <trkpt lat="46.49143" lon="5.32804">
        <ele>220</ele>
        <time>2022-02-08T13:16:15Z</time>
      </trkpt>
      <trkpt lat="46.49141" lon="5.32786">
        <ele>219.8</ele>
        <time>2022-02-08T13:16:17Z</time>
      </trkpt>
      <trkpt lat="46.49129" lon="5.32725">
        <ele>219.4</ele>
        <time>2022-02-08T13:16:24Z</time>
      </trkpt>
      <trkpt lat="46.49121" lon="5.32708">
        <ele>219.4</ele>
        <time>2022-02-08T13:16:26Z</time>
      </trkpt>
      <trkpt lat="46.49116" lon="5.32702">
        <ele>219.4</ele>
        <time>2022-02-08T13:16:27Z</time>
      </trkpt>
      <trkpt lat="46.4911" lon="5.32698">
        <ele>219.4</ele>
        <time>2022-02-08T13:16:28Z</time>
      </trkpt>
      <trkpt lat="46.49096" lon="5.32696">
        <ele>219.4</ele>
        <time>2022-02-08T13:16:30Z</time>
      </trkpt>
      <trkpt lat="46.49064" lon="5.32701">
        <ele>219.2</ele>
        <time>2022-02-08T13:16:34Z</time>
      </trkpt>
      <trkpt lat="46.49056" lon="5.32703">
        <ele>219</ele>
        <time>2022-02-08T13:16:35Z</time>
      </trkpt>
      <trkpt lat="46.4903" lon="5.32708">
        <ele>218.2</ele>
        <time>2022-02-08T13:16:38Z</time>
      </trkpt>
      <trkpt lat="46.49002" lon="5.32711">
        <ele>216.2</ele>
        <time>2022-02-08T13:16:41Z</time>
      </trkpt>
      <trkpt lat="46.48993" lon="5.32712">
        <ele>215.8</ele>
        <time>2022-02-08T13:16:42Z</time>
      </trkpt>
      <trkpt lat="46.48983" lon="5.32711">
        <ele>215.4</ele>
        <time>2022-02-08T13:16:43Z</time>
      </trkpt>
      <trkpt lat="46.48973" lon="5.32709">
        <ele>215.2</ele>
        <time>2022-02-08T13:16:44Z</time>
      </trkpt>
      <trkpt lat="46.48964" lon="5.32704">
        <ele>214.8</ele>
        <time>2022-02-08T13:16:45Z</time>
      </trkpt>
      <trkpt lat="46.48947" lon="5.32689">
        <ele>213.8</ele>
        <time>2022-02-08T13:16:47Z</time>
      </trkpt>
      <trkpt lat="46.4894" lon="5.32679">
        <ele>213</ele>
        <time>2022-02-08T13:16:48Z</time>
      </trkpt>
      <trkpt lat="46.48932" lon="5.32668">
        <ele>212.8</ele>
        <time>2022-02-08T13:16:49Z</time>
      </trkpt>
      <trkpt lat="46.48921" lon="5.32644">
        <ele>211.8</ele>
        <time>2022-02-08T13:16:51Z</time>
      </trkpt>
      <trkpt lat="46.4892" lon="5.3263">
        <ele>210.6</ele>
        <time>2022-02-08T13:16:52Z</time>
      </trkpt>
      <trkpt lat="46.48922" lon="5.32615">
        <ele>210.2</ele>
        <time>2022-02-08T13:16:53Z</time>
      </trkpt>
      <trkpt lat="46.48926" lon="5.32602">
        <ele>209.6</ele>
        <time>2022-02-08T13:16:54Z</time>
      </trkpt>
      <trkpt lat="46.48932" lon="5.32591">
        <ele>209.2</ele>
        <time>2022-02-08T13:16:55Z</time>
      </trkpt>
      <trkpt lat="46.4894" lon="5.32581">
        <ele>208.8</ele>
        <time>2022-02-08T13:16:56Z</time>
      </trkpt>
      <trkpt lat="46.48947" lon="5.3257">
        <ele>208.2</ele>
        <time>2022-02-08T13:16:57Z</time>
      </trkpt>
      <trkpt lat="46.48957" lon="5.32545">
        <ele>206.4</ele>
        <time>2022-02-08T13:16:59Z</time>
      </trkpt>
      <trkpt lat="46.48958" lon="5.32517">
        <ele>205.4</ele>
        <time>2022-02-08T13:17:01Z</time>
      </trkpt>
      <trkpt lat="46.48949" lon="5.32482">
        <ele>204</ele>
        <time>2022-02-08T13:17:04Z</time>
      </trkpt>
      <trkpt lat="46.48932" lon="5.32427">
        <ele>203</ele>
        <time>2022-02-08T13:17:09Z</time>
      </trkpt>
      <trkpt lat="46.48918" lon="5.32376">
        <ele>202.8</ele>
        <time>2022-02-08T13:17:14Z</time>
      </trkpt>
      <trkpt lat="46.48904" lon="5.32338">
        <ele>202.8</ele>
        <time>2022-02-08T13:17:18Z</time>
      </trkpt>
      <trkpt lat="46.489" lon="5.32331">
        <ele>202.8</ele>
        <time>2022-02-08T13:17:19Z</time>
      </trkpt>
      <trkpt lat="46.48881" lon="5.32302">
        <ele>203.2</ele>
        <time>2022-02-08T13:17:24Z</time>
      </trkpt>
      <trkpt lat="46.48865" lon="5.3228">
        <ele>204.6</ele>
        <time>2022-02-08T13:17:29Z</time>
      </trkpt>
      <trkpt lat="46.48862" lon="5.32276">
        <ele>204.8</ele>
        <time>2022-02-08T13:17:30Z</time>
      </trkpt>
      <trkpt lat="46.48859" lon="5.32272">
        <ele>205.6</ele>
        <time>2022-02-08T13:17:31Z</time>
      </trkpt>
      <trkpt lat="46.48848" lon="5.32255">
        <ele>207</ele>
        <time>2022-02-08T13:17:35Z</time>
      </trkpt>
      <trkpt lat="46.48846" lon="5.32251">
        <ele>207.2</ele>
        <time>2022-02-08T13:17:36Z</time>
      </trkpt>
      <trkpt lat="46.48838" lon="5.32235">
        <ele>208.2</ele>
        <time>2022-02-08T13:17:39Z</time>
      </trkpt>
      <trkpt lat="46.48836" lon="5.32229">
        <ele>208.4</ele>
        <time>2022-02-08T13:17:40Z</time>
      </trkpt>
      <trkpt lat="46.48832" lon="5.32214">
        <ele>209</ele>
        <time>2022-02-08T13:17:42Z</time>
      </trkpt>
      <trkpt lat="46.4883" lon="5.32198">
        <ele>209.2</ele>
        <time>2022-02-08T13:17:44Z</time>
      </trkpt>
      <trkpt lat="46.48827" lon="5.3216">
        <ele>209.4</ele>
        <time>2022-02-08T13:17:48Z</time>
      </trkpt>
      <trkpt lat="46.48826" lon="5.3214">
        <ele>209.2</ele>
        <time>2022-02-08T13:17:50Z</time>
      </trkpt>
      <trkpt lat="46.48829" lon="5.32119">
        <ele>208.8</ele>
        <time>2022-02-08T13:17:52Z</time>
      </trkpt>
      <trkpt lat="46.48834" lon="5.32088">
        <ele>208</ele>
        <time>2022-02-08T13:17:55Z</time>
      </trkpt>
      <trkpt lat="46.48843" lon="5.32047">
        <ele>207.6</ele>
        <time>2022-02-08T13:17:59Z</time>
      </trkpt>
      <trkpt lat="46.4885" lon="5.31985">
        <ele>207</ele>
        <time>2022-02-08T13:18:05Z</time>
      </trkpt>
      <trkpt lat="46.4885" lon="5.31975">
        <ele>207</ele>
        <time>2022-02-08T13:18:06Z</time>
      </trkpt>
      <trkpt lat="46.48845" lon="5.31901">
        <ele>206</ele>
        <time>2022-02-08T13:18:13Z</time>
      </trkpt>
      <trkpt lat="46.48843" lon="5.3189">
        <ele>205.8</ele>
        <time>2022-02-08T13:18:14Z</time>
      </trkpt>
      <trkpt lat="46.48841" lon="5.3188">
        <ele>205.6</ele>
        <time>2022-02-08T13:18:15Z</time>
      </trkpt>
      <trkpt lat="46.48832" lon="5.31863">
        <ele>205.2</ele>
        <time>2022-02-08T13:18:17Z</time>
      </trkpt>
      <trkpt lat="46.48826" lon="5.31858">
        <ele>204.8</ele>
        <time>2022-02-08T13:18:18Z</time>
      </trkpt>
      <trkpt lat="46.4882" lon="5.31854">
        <ele>204.4</ele>
        <time>2022-02-08T13:18:19Z</time>
      </trkpt>
      <trkpt lat="46.48813" lon="5.31851">
        <ele>204.4</ele>
        <time>2022-02-08T13:18:20Z</time>
      </trkpt>
      <trkpt lat="46.488" lon="5.31844">
        <ele>204.2</ele>
        <time>2022-02-08T13:18:22Z</time>
      </trkpt>
      <trkpt lat="46.48789" lon="5.31831">
        <ele>204</ele>
        <time>2022-02-08T13:18:24Z</time>
      </trkpt>
      <trkpt lat="46.48785" lon="5.31812">
        <ele>204</ele>
        <time>2022-02-08T13:18:26Z</time>
      </trkpt>
      <trkpt lat="46.48784" lon="5.31803">
        <ele>204</ele>
        <time>2022-02-08T13:18:27Z</time>
      </trkpt>
      <trkpt lat="46.4878" lon="5.31737">
        <ele>203.8</ele>
        <time>2022-02-08T13:18:34Z</time>
      </trkpt>
      <trkpt lat="46.48776" lon="5.31721">
        <ele>204</ele>
        <time>2022-02-08T13:18:36Z</time>
      </trkpt>
      <trkpt lat="46.48769" lon="5.31708">
        <ele>204</ele>
        <time>2022-02-08T13:18:38Z</time>
      </trkpt>
      <trkpt lat="46.48765" lon="5.31703">
        <ele>204.2</ele>
        <time>2022-02-08T13:18:39Z</time>
      </trkpt>
      <trkpt lat="46.48757" lon="5.31693">
        <ele>204.4</ele>
        <time>2022-02-08T13:18:41Z</time>
      </trkpt>
      <trkpt lat="46.48753" lon="5.31688">
        <ele>204.4</ele>
        <time>2022-02-08T13:18:42Z</time>
      </trkpt>
      <trkpt lat="46.48736" lon="5.31665">
        <ele>204.6</ele>
        <time>2022-02-08T13:18:46Z</time>
      </trkpt>
      <trkpt lat="46.48733" lon="5.3166">
        <ele>204.8</ele>
        <time>2022-02-08T13:18:47Z</time>
      </trkpt>
      <trkpt lat="46.48727" lon="5.31652">
        <ele>205</ele>
        <time>2022-02-08T13:18:49Z</time>
      </trkpt>
      <trkpt lat="46.4872" lon="5.31642">
        <ele>205.2</ele>
        <time>2022-02-08T13:18:51Z</time>
      </trkpt>
      <trkpt lat="46.48715" lon="5.31635">
        <ele>205.4</ele>
        <time>2022-02-08T13:18:52Z</time>
      </trkpt>
      <trkpt lat="46.4871" lon="5.31629">
        <ele>205.4</ele>
        <time>2022-02-08T13:18:53Z</time>
      </trkpt>
      <trkpt lat="46.48702" lon="5.31617">
        <ele>205</ele>
        <time>2022-02-08T13:18:55Z</time>
      </trkpt>
      <trkpt lat="46.48697" lon="5.31612">
        <ele>205</ele>
        <time>2022-02-08T13:18:56Z</time>
      </trkpt>
      <trkpt lat="46.48692" lon="5.31604">
        <ele>205</ele>
        <time>2022-02-08T13:18:57Z</time>
      </trkpt>
      <trkpt lat="46.4867" lon="5.31576">
        <ele>205</ele>
        <time>2022-02-08T13:19:01Z</time>
      </trkpt>
      <trkpt lat="46.48651" lon="5.31552">
        <ele>205</ele>
        <time>2022-02-08T13:19:05Z</time>
      </trkpt>
      <trkpt lat="46.48641" lon="5.31539">
        <ele>205</ele>
        <time>2022-02-08T13:19:07Z</time>
      </trkpt>
      <trkpt lat="46.4863" lon="5.31525">
        <ele>205</ele>
        <time>2022-02-08T13:19:09Z</time>
      </trkpt>
      <trkpt lat="46.48623" lon="5.31512">
        <ele>205</ele>
        <time>2022-02-08T13:19:11Z</time>
      </trkpt>
      <trkpt lat="46.4862" lon="5.31504">
        <ele>205</ele>
        <time>2022-02-08T13:19:12Z</time>
      </trkpt>
      <trkpt lat="46.48615" lon="5.31483">
        <ele>204.8</ele>
        <time>2022-02-08T13:19:14Z</time>
      </trkpt>
      <trkpt lat="46.48616" lon="5.31473">
        <ele>204.8</ele>
        <time>2022-02-08T13:19:15Z</time>
      </trkpt>
      <trkpt lat="46.48609" lon="5.31432">
        <ele>204.6</ele>
        <time>2022-02-08T13:19:19Z</time>
      </trkpt>
      <trkpt lat="46.48604" lon="5.31417">
        <ele>204.6</ele>
        <time>2022-02-08T13:19:21Z</time>
      </trkpt>
      <trkpt lat="46.48601" lon="5.31411">
        <ele>204.6</ele>
        <time>2022-02-08T13:19:22Z</time>
      </trkpt>
      <trkpt lat="46.48598" lon="5.31406">
        <ele>204.6</ele>
        <time>2022-02-08T13:19:23Z</time>
      </trkpt>
      <trkpt lat="46.48583" lon="5.31388">
        <ele>205.2</ele>
        <time>2022-02-08T13:19:27Z</time>
      </trkpt>
      <trkpt lat="46.48573" lon="5.31375">
        <ele>205.6</ele>
        <time>2022-02-08T13:19:30Z</time>
      </trkpt>
      <trkpt lat="46.48568" lon="5.31364">
        <ele>206.2</ele>
        <time>2022-02-08T13:19:32Z</time>
      </trkpt>
      <trkpt lat="46.48566" lon="5.31358">
        <ele>206.4</ele>
        <time>2022-02-08T13:19:33Z</time>
      </trkpt>
      <trkpt lat="46.48564" lon="5.31352">
        <ele>206.8</ele>
        <time>2022-02-08T13:19:34Z</time>
      </trkpt>
      <trkpt lat="46.48559" lon="5.31329">
        <ele>208</ele>
        <time>2022-02-08T13:19:38Z</time>
      </trkpt>
      <trkpt lat="46.48559" lon="5.31323">
        <ele>208.2</ele>
        <time>2022-02-08T13:19:39Z</time>
      </trkpt>
      <trkpt lat="46.48557" lon="5.31303">
        <ele>209.2</ele>
        <time>2022-02-08T13:19:42Z</time>
      </trkpt>
      <trkpt lat="46.48554" lon="5.31269">
        <ele>210</ele>
        <time>2022-02-08T13:19:47Z</time>
      </trkpt>
      <trkpt lat="46.48554" lon="5.31262">
        <ele>210.2</ele>
        <time>2022-02-08T13:19:48Z</time>
      </trkpt>
      <trkpt lat="46.48554" lon="5.31248">
        <ele>210.6</ele>
        <time>2022-02-08T13:19:50Z</time>
      </trkpt>
      <trkpt lat="46.48558" lon="5.31234">
        <ele>211</ele>
        <time>2022-02-08T13:19:52Z</time>
      </trkpt>
      <trkpt lat="46.48567" lon="5.31211">
        <ele>211.2</ele>
        <time>2022-02-08T13:19:56Z</time>
      </trkpt>
      <trkpt lat="46.48572" lon="5.312">
        <ele>211.6</ele>
        <time>2022-02-08T13:19:58Z</time>
      </trkpt>
      <trkpt lat="46.48585" lon="5.31173">
        <ele>212.6</ele>
        <time>2022-02-08T13:20:03Z</time>
      </trkpt>
      <trkpt lat="46.48601" lon="5.3114">
        <ele>213.4</ele>
        <time>2022-02-08T13:20:09Z</time>
      </trkpt>
      <trkpt lat="46.48606" lon="5.31129">
        <ele>213.6</ele>
        <time>2022-02-08T13:20:11Z</time>
      </trkpt>
      <trkpt lat="46.48624" lon="5.31091">
        <ele>214.6</ele>
        <time>2022-02-08T13:20:18Z</time>
      </trkpt>
      <trkpt lat="46.48629" lon="5.3108">
        <ele>215.2</ele>
        <time>2022-02-08T13:20:20Z</time>
      </trkpt>
      <trkpt lat="46.4864" lon="5.31059">
        <ele>215.8</ele>
        <time>2022-02-08T13:20:24Z</time>
      </trkpt>
      <trkpt lat="46.48653" lon="5.31033">
        <ele>217</ele>
        <time>2022-02-08T13:20:29Z</time>
      </trkpt>
      <trkpt lat="46.48655" lon="5.31028">
        <ele>217.2</ele>
        <time>2022-02-08T13:20:30Z</time>
      </trkpt>
      <trkpt lat="46.48674" lon="5.30989">
        <ele>218</ele>
        <time>2022-02-08T13:20:37Z</time>
      </trkpt>
      <trkpt lat="46.48686" lon="5.30966">
        <ele>218.4</ele>
        <time>2022-02-08T13:20:41Z</time>
      </trkpt>
      <trkpt lat="46.48703" lon="5.30931">
        <ele>218.2</ele>
        <time>2022-02-08T13:20:46Z</time>
      </trkpt>
      <trkpt lat="46.48708" lon="5.30925">
        <ele>218.2</ele>
        <time>2022-02-08T13:20:47Z</time>
      </trkpt>
      <trkpt lat="46.48718" lon="5.30912">
        <ele>218</ele>
        <time>2022-02-08T13:20:49Z</time>
      </trkpt>
      <trkpt lat="46.48723" lon="5.30893">
        <ele>217.6</ele>
        <time>2022-02-08T13:20:51Z</time>
      </trkpt>
      <trkpt lat="46.4872" lon="5.30873">
        <ele>217.2</ele>
        <time>2022-02-08T13:20:53Z</time>
      </trkpt>
      <trkpt lat="46.48717" lon="5.30864">
        <ele>216.6</ele>
        <time>2022-02-08T13:20:54Z</time>
      </trkpt>
      <trkpt lat="46.48712" lon="5.30856">
        <ele>216.6</ele>
        <time>2022-02-08T13:20:55Z</time>
      </trkpt>
      <trkpt lat="46.487" lon="5.30845">
        <ele>216</ele>
        <time>2022-02-08T13:20:57Z</time>
      </trkpt>
      <trkpt lat="46.48681" lon="5.30832">
        <ele>215.4</ele>
        <time>2022-02-08T13:21:00Z</time>
      </trkpt>
      <trkpt lat="46.48652" lon="5.30813">
        <ele>214.6</ele>
        <time>2022-02-08T13:21:04Z</time>
      </trkpt>
      <trkpt lat="46.48629" lon="5.30797">
        <ele>214</ele>
        <time>2022-02-08T13:21:07Z</time>
      </trkpt>
      <trkpt lat="46.48608" lon="5.30781">
        <ele>213.2</ele>
        <time>2022-02-08T13:21:10Z</time>
      </trkpt>
      <trkpt lat="46.48579" lon="5.30755">
        <ele>213</ele>
        <time>2022-02-08T13:21:15Z</time>
      </trkpt>
      <trkpt lat="46.48569" lon="5.30744">
        <ele>213.2</ele>
        <time>2022-02-08T13:21:17Z</time>
      </trkpt>
      <trkpt lat="46.48562" lon="5.30732">
        <ele>213.8</ele>
        <time>2022-02-08T13:21:19Z</time>
      </trkpt>
      <trkpt lat="46.48553" lon="5.30712">
        <ele>214.2</ele>
        <time>2022-02-08T13:21:22Z</time>
      </trkpt>
      <trkpt lat="46.4855" lon="5.30699">
        <ele>214.6</ele>
        <time>2022-02-08T13:21:24Z</time>
      </trkpt>
      <trkpt lat="46.48549" lon="5.30692">
        <ele>214.8</ele>
        <time>2022-02-08T13:21:25Z</time>
      </trkpt>
      <trkpt lat="46.48547" lon="5.30674">
        <ele>215</ele>
        <time>2022-02-08T13:21:28Z</time>
      </trkpt>
      <trkpt lat="46.48547" lon="5.30668">
        <ele>215</ele>
        <time>2022-02-08T13:21:29Z</time>
      </trkpt>
      <trkpt lat="46.48548" lon="5.30641">
        <ele>216</ele>
        <time>2022-02-08T13:21:33Z</time>
      </trkpt>
      <trkpt lat="46.48548" lon="5.30628">
        <ele>216.8</ele>
        <time>2022-02-08T13:21:35Z</time>
      </trkpt>
      <trkpt lat="46.4855" lon="5.30614">
        <ele>217.2</ele>
        <time>2022-02-08T13:21:37Z</time>
      </trkpt>
      <trkpt lat="46.48553" lon="5.30589">
        <ele>218</ele>
        <time>2022-02-08T13:21:41Z</time>
      </trkpt>
      <trkpt lat="46.48553" lon="5.30583">
        <ele>218.2</ele>
        <time>2022-02-08T13:21:42Z</time>
      </trkpt>
      <trkpt lat="46.48556" lon="5.30553">
        <ele>219.2</ele>
        <time>2022-02-08T13:21:47Z</time>
      </trkpt>
      <trkpt lat="46.48557" lon="5.30546">
        <ele>219.4</ele>
        <time>2022-02-08T13:21:48Z</time>
      </trkpt>
      <trkpt lat="46.48562" lon="5.30512">
        <ele>220.2</ele>
        <time>2022-02-08T13:21:53Z</time>
      </trkpt>
      <trkpt lat="46.48562" lon="5.30507">
        <ele>220.2</ele>
        <time>2022-02-08T13:21:54Z</time>
      </trkpt>
      <trkpt lat="46.48559" lon="5.30502">
        <ele>220.4</ele>
        <time>2022-02-08T13:21:55Z</time>
      </trkpt>
      <trkpt lat="46.48551" lon="5.30497">
        <ele>220.4</ele>
        <time>2022-02-08T13:21:57Z</time>
      </trkpt>
      <trkpt lat="46.48547" lon="5.30498">
        <ele>220.6</ele>
        <time>2022-02-08T13:21:58Z</time>
      </trkpt>
      <trkpt lat="46.48542" lon="5.30501">
        <ele>220.6</ele>
        <time>2022-02-08T13:21:59Z</time>
      </trkpt>
      <trkpt lat="46.48533" lon="5.30508">
        <ele>220.6</ele>
        <time>2022-02-08T13:22:01Z</time>
      </trkpt>
      <trkpt lat="46.48503" lon="5.30528">
        <ele>220.8</ele>
        <time>2022-02-08T13:22:07Z</time>
      </trkpt>
      <trkpt lat="46.48467" lon="5.30561">
        <ele>221.2</ele>
        <time>2022-02-08T13:22:14Z</time>
      </trkpt>
      <trkpt lat="46.48456" lon="5.30572">
        <ele>221.2</ele>
        <time>2022-02-08T13:22:16Z</time>
      </trkpt>
      <trkpt lat="46.48422" lon="5.30603">
        <ele>221</ele>
        <time>2022-02-08T13:22:22Z</time>
      </trkpt>
      <trkpt lat="46.48376" lon="5.30647">
        <ele>220.6</ele>
        <time>2022-02-08T13:22:30Z</time>
      </trkpt>
      <trkpt lat="46.48364" lon="5.30659">
        <ele>220.4</ele>
        <time>2022-02-08T13:22:32Z</time>
      </trkpt>
      <trkpt lat="46.4832" lon="5.30693">
        <ele>219.8</ele>
        <time>2022-02-08T13:22:39Z</time>
      </trkpt>
      <trkpt lat="46.48313" lon="5.30695">
        <ele>219.6</ele>
        <time>2022-02-08T13:22:40Z</time>
      </trkpt>
      <trkpt lat="46.48299" lon="5.30698">
        <ele>219.4</ele>
        <time>2022-02-08T13:22:42Z</time>
      </trkpt>
      <trkpt lat="46.48292" lon="5.30698">
        <ele>219.4</ele>
        <time>2022-02-08T13:22:43Z</time>
      </trkpt>
      <trkpt lat="46.48265" lon="5.30692">
        <ele>219.2</ele>
        <time>2022-02-08T13:22:47Z</time>
      </trkpt>
      <trkpt lat="46.48258" lon="5.3069">
        <ele>219.4</ele>
        <time>2022-02-08T13:22:48Z</time>
      </trkpt>
      <trkpt lat="46.48223" lon="5.30684">
        <ele>219.6</ele>
        <time>2022-02-08T13:22:54Z</time>
      </trkpt>
      <trkpt lat="46.48217" lon="5.30684">
        <ele>219.6</ele>
        <time>2022-02-08T13:22:55Z</time>
      </trkpt>
      <trkpt lat="46.48205" lon="5.30686">
        <ele>220.2</ele>
        <time>2022-02-08T13:22:57Z</time>
      </trkpt>
      <trkpt lat="46.482" lon="5.30689">
        <ele>220.2</ele>
        <time>2022-02-08T13:22:58Z</time>
      </trkpt>
      <trkpt lat="46.48194" lon="5.30691">
        <ele>220.4</ele>
        <time>2022-02-08T13:22:59Z</time>
      </trkpt>
      <trkpt lat="46.48163" lon="5.30709">
        <ele>221.4</ele>
        <time>2022-02-08T13:23:05Z</time>
      </trkpt>
      <trkpt lat="46.48157" lon="5.30711">
        <ele>221.6</ele>
        <time>2022-02-08T13:23:06Z</time>
      </trkpt>
      <trkpt lat="46.48125" lon="5.30729">
        <ele>222.6</ele>
        <time>2022-02-08T13:23:12Z</time>
      </trkpt>
      <trkpt lat="46.4812" lon="5.30733">
        <ele>222.8</ele>
        <time>2022-02-08T13:23:13Z</time>
      </trkpt>
      <trkpt lat="46.48077" lon="5.30756">
        <ele>223.8</ele>
        <time>2022-02-08T13:23:21Z</time>
      </trkpt>
      <trkpt lat="46.48071" lon="5.30759">
        <ele>224</ele>
        <time>2022-02-08T13:23:22Z</time>
      </trkpt>
      <trkpt lat="46.4806" lon="5.30765">
        <ele>224</ele>
        <time>2022-02-08T13:23:24Z</time>
      </trkpt>
      <trkpt lat="46.48029" lon="5.30782">
        <ele>224</ele>
        <time>2022-02-08T13:23:29Z</time>
      </trkpt>
      <trkpt lat="46.47979" lon="5.30808">
        <ele>223</ele>
        <time>2022-02-08T13:23:36Z</time>
      </trkpt>
      <trkpt lat="46.47972" lon="5.30811">
        <ele>222.8</ele>
        <time>2022-02-08T13:23:37Z</time>
      </trkpt>
      <trkpt lat="46.47949" lon="5.30817">
        <ele>222.4</ele>
        <time>2022-02-08T13:23:40Z</time>
      </trkpt>
      <trkpt lat="46.47941" lon="5.30817">
        <ele>222.4</ele>
        <time>2022-02-08T13:23:41Z</time>
      </trkpt>
      <trkpt lat="46.4791" lon="5.30812">
        <ele>222.2</ele>
        <time>2022-02-08T13:23:46Z</time>
      </trkpt>
      <trkpt lat="46.47881" lon="5.30801">
        <ele>223.6</ele>
        <time>2022-02-08T13:23:52Z</time>
      </trkpt>
      <trkpt lat="46.47872" lon="5.30799">
        <ele>224.2</ele>
        <time>2022-02-08T13:23:54Z</time>
      </trkpt>
      <trkpt lat="46.47855" lon="5.30797">
        <ele>225.4</ele>
        <time>2022-02-08T13:23:58Z</time>
      </trkpt>
      <trkpt lat="46.47847" lon="5.30792">
        <ele>226.2</ele>
        <time>2022-02-08T13:24:00Z</time>
      </trkpt>
      <trkpt lat="46.47843" lon="5.30788">
        <ele>226.4</ele>
        <time>2022-02-08T13:24:01Z</time>
      </trkpt>
      <trkpt lat="46.47838" lon="5.30783">
        <ele>226.6</ele>
        <time>2022-02-08T13:24:02Z</time>
      </trkpt>
      <trkpt lat="46.47833" lon="5.30778">
        <ele>227</ele>
        <time>2022-02-08T13:24:03Z</time>
      </trkpt>
      <trkpt lat="46.47822" lon="5.30772">
        <ele>227.2</ele>
        <time>2022-02-08T13:24:05Z</time>
      </trkpt>
      <trkpt lat="46.47813" lon="5.3077">
        <ele>227.2</ele>
        <time>2022-02-08T13:24:06Z</time>
      </trkpt>
      <trkpt lat="46.47774" lon="5.30773">
        <ele>227</ele>
        <time>2022-02-08T13:24:11Z</time>
      </trkpt>
      <trkpt lat="46.47724" lon="5.30781">
        <ele>225.4</ele>
        <time>2022-02-08T13:24:18Z</time>
      </trkpt>
      <trkpt lat="46.4771" lon="5.30783">
        <ele>225.4</ele>
        <time>2022-02-08T13:24:20Z</time>
      </trkpt>
      <trkpt lat="46.47667" lon="5.3079">
        <ele>226</ele>
        <time>2022-02-08T13:24:27Z</time>
      </trkpt>
      <trkpt lat="46.47632" lon="5.30796">
        <ele>226.4</ele>
        <time>2022-02-08T13:24:33Z</time>
      </trkpt>
      <trkpt lat="46.47606" lon="5.308">
        <ele>226.6</ele>
        <time>2022-02-08T13:24:37Z</time>
      </trkpt>
      <trkpt lat="46.47554" lon="5.30807">
        <ele>226.6</ele>
        <time>2022-02-08T13:24:45Z</time>
      </trkpt>
      <trkpt lat="46.47535" lon="5.30811">
        <ele>226.6</ele>
        <time>2022-02-08T13:24:48Z</time>
      </trkpt>
      <trkpt lat="46.47508" lon="5.30821">
        <ele>226.6</ele>
        <time>2022-02-08T13:24:52Z</time>
      </trkpt>
      <trkpt lat="46.47453" lon="5.3085">
        <ele>226.4</ele>
        <time>2022-02-08T13:25:00Z</time>
      </trkpt>
      <trkpt lat="46.47446" lon="5.30853">
        <ele>226.4</ele>
        <time>2022-02-08T13:25:01Z</time>
      </trkpt>
      <trkpt lat="46.47392" lon="5.3088">
        <ele>226</ele>
        <time>2022-02-08T13:25:09Z</time>
      </trkpt>
      <trkpt lat="46.47347" lon="5.30894">
        <ele>225.6</ele>
        <time>2022-02-08T13:25:16Z</time>
      </trkpt>
      <trkpt lat="46.47335" lon="5.30888">
        <ele>225.6</ele>
        <time>2022-02-08T13:25:18Z</time>
      </trkpt>
      <trkpt lat="46.47331" lon="5.30882">
        <ele>225.6</ele>
        <time>2022-02-08T13:25:19Z</time>
      </trkpt>
      <trkpt lat="46.47328" lon="5.30874">
        <ele>225.6</ele>
        <time>2022-02-08T13:25:20Z</time>
      </trkpt>
      <trkpt lat="46.47325" lon="5.30854">
        <ele>225.6</ele>
        <time>2022-02-08T13:25:22Z</time>
      </trkpt>
      <trkpt lat="46.47323" lon="5.3083">
        <ele>225.4</ele>
        <time>2022-02-08T13:25:24Z</time>
      </trkpt>
      <trkpt lat="46.4732" lon="5.30795">
        <ele>225</ele>
        <time>2022-02-08T13:25:27Z</time>
      </trkpt>
      <trkpt lat="46.47317" lon="5.3071">
        <ele>225</ele>
        <time>2022-02-08T13:25:35Z</time>
      </trkpt>
      <trkpt lat="46.47315" lon="5.30664">
        <ele>225.2</ele>
        <time>2022-02-08T13:25:40Z</time>
      </trkpt>
      <trkpt lat="46.47313" lon="5.30655">
        <ele>225.4</ele>
        <time>2022-02-08T13:25:41Z</time>
      </trkpt>
      <trkpt lat="46.4731" lon="5.30647">
        <ele>225.6</ele>
        <time>2022-02-08T13:25:42Z</time>
      </trkpt>
      <trkpt lat="46.47301" lon="5.30633">
        <ele>225.8</ele>
        <time>2022-02-08T13:25:44Z</time>
      </trkpt>
      <trkpt lat="46.47266" lon="5.30589">
        <ele>226</ele>
        <time>2022-02-08T13:25:51Z</time>
      </trkpt>
      <trkpt lat="46.47249" lon="5.30572">
        <ele>226.2</ele>
        <time>2022-02-08T13:25:54Z</time>
      </trkpt>
      <trkpt lat="46.47237" lon="5.30564">
        <ele>226</ele>
        <time>2022-02-08T13:25:56Z</time>
      </trkpt>
      <trkpt lat="46.47224" lon="5.30557">
        <ele>226</ele>
        <time>2022-02-08T13:25:58Z</time>
      </trkpt>
      <trkpt lat="46.47211" lon="5.30555">
        <ele>225.8</ele>
        <time>2022-02-08T13:26:00Z</time>
      </trkpt>
      <trkpt lat="46.47171" lon="5.30558">
        <ele>225.8</ele>
        <time>2022-02-08T13:26:06Z</time>
      </trkpt>
      <trkpt lat="46.47134" lon="5.30547">
        <ele>226.2</ele>
        <time>2022-02-08T13:26:12Z</time>
      </trkpt>
      <trkpt lat="46.47104" lon="5.30531">
        <ele>226.4</ele>
        <time>2022-02-08T13:26:17Z</time>
      </trkpt>
      <trkpt lat="46.47081" lon="5.30514">
        <ele>226.6</ele>
        <time>2022-02-08T13:26:21Z</time>
      </trkpt>
      <trkpt lat="46.47033" lon="5.30473">
        <ele>226.6</ele>
        <time>2022-02-08T13:26:29Z</time>
      </trkpt>
      <trkpt lat="46.47027" lon="5.30467">
        <ele>226.6</ele>
        <time>2022-02-08T13:26:30Z</time>
      </trkpt>
      <trkpt lat="46.46978" lon="5.30425">
        <ele>226.2</ele>
        <time>2022-02-08T13:26:38Z</time>
      </trkpt>
      <trkpt lat="46.46937" lon="5.30399">
        <ele>226</ele>
        <time>2022-02-08T13:26:44Z</time>
      </trkpt>
      <trkpt lat="46.46885" lon="5.30378">
        <ele>226</ele>
        <time>2022-02-08T13:26:52Z</time>
      </trkpt>
      <trkpt lat="46.46879" lon="5.30374">
        <ele>226</ele>
        <time>2022-02-08T13:26:53Z</time>
      </trkpt>
      <trkpt lat="46.46847" lon="5.30344">
        <ele>226</ele>
        <time>2022-02-08T13:26:59Z</time>
      </trkpt>
      <trkpt lat="46.46803" lon="5.30291">
        <ele>226.4</ele>
        <time>2022-02-08T13:27:08Z</time>
      </trkpt>
      <trkpt lat="46.46799" lon="5.30285">
        <ele>226.4</ele>
        <time>2022-02-08T13:27:09Z</time>
      </trkpt>
      <trkpt lat="46.46755" lon="5.30234">
        <ele>226.4</ele>
        <time>2022-02-08T13:27:18Z</time>
      </trkpt>
      <trkpt lat="46.4675" lon="5.30227">
        <ele>226.4</ele>
        <time>2022-02-08T13:27:19Z</time>
      </trkpt>
      <trkpt lat="46.46738" lon="5.30206">
        <ele>226.4</ele>
        <time>2022-02-08T13:27:22Z</time>
      </trkpt>
      <trkpt lat="46.46732" lon="5.30188">
        <ele>226.4</ele>
        <time>2022-02-08T13:27:24Z</time>
      </trkpt>
      <trkpt lat="46.46714" lon="5.30122">
        <ele>226</ele>
        <time>2022-02-08T13:27:31Z</time>
      </trkpt>
      <trkpt lat="46.46707" lon="5.30093">
        <ele>225.6</ele>
        <time>2022-02-08T13:27:34Z</time>
      </trkpt>
      <trkpt lat="46.46702" lon="5.30085">
        <ele>225.6</ele>
        <time>2022-02-08T13:27:35Z</time>
      </trkpt>
      <trkpt lat="46.46696" lon="5.3008">
        <ele>225.6</ele>
        <time>2022-02-08T13:27:36Z</time>
      </trkpt>
      <trkpt lat="46.46683" lon="5.30073">
        <ele>225.6</ele>
        <time>2022-02-08T13:27:38Z</time>
      </trkpt>
      <trkpt lat="46.4665" lon="5.3006">
        <ele>225.6</ele>
        <time>2022-02-08T13:27:43Z</time>
      </trkpt>
      <trkpt lat="46.46644" lon="5.30059">
        <ele>225.6</ele>
        <time>2022-02-08T13:27:44Z</time>
      </trkpt>
      <trkpt lat="46.46623" lon="5.30058">
        <ele>225.8</ele>
        <time>2022-02-08T13:27:47Z</time>
      </trkpt>
      <trkpt lat="46.4661" lon="5.30062">
        <ele>225.8</ele>
        <time>2022-02-08T13:27:49Z</time>
      </trkpt>
      <trkpt lat="46.46596" lon="5.30065">
        <ele>226</ele>
        <time>2022-02-08T13:27:51Z</time>
      </trkpt>
      <trkpt lat="46.46568" lon="5.30062">
        <ele>226.2</ele>
        <time>2022-02-08T13:27:55Z</time>
      </trkpt>
      <trkpt lat="46.46523" lon="5.3006">
        <ele>225.8</ele>
        <time>2022-02-08T13:28:01Z</time>
      </trkpt>
      <trkpt lat="46.46475" lon="5.30057">
        <ele>224.6</ele>
        <time>2022-02-08T13:28:07Z</time>
      </trkpt>
      <trkpt lat="46.46467" lon="5.30055">
        <ele>224.2</ele>
        <time>2022-02-08T13:28:08Z</time>
      </trkpt>
      <trkpt lat="46.46452" lon="5.30051">
        <ele>223.6</ele>
        <time>2022-02-08T13:28:10Z</time>
      </trkpt>
      <trkpt lat="46.46419" lon="5.30052">
        <ele>222.4</ele>
        <time>2022-02-08T13:28:14Z</time>
      </trkpt>
      <trkpt lat="46.46385" lon="5.30058">
        <ele>221.4</ele>
        <time>2022-02-08T13:28:18Z</time>
      </trkpt>
      <trkpt lat="46.46376" lon="5.3006">
        <ele>221.2</ele>
        <time>2022-02-08T13:28:19Z</time>
      </trkpt>
      <trkpt lat="46.46348" lon="5.30064">
        <ele>220.2</ele>
        <time>2022-02-08T13:28:22Z</time>
      </trkpt>
      <trkpt lat="46.46318" lon="5.30064">
        <ele>219</ele>
        <time>2022-02-08T13:28:25Z</time>
      </trkpt>
      <trkpt lat="46.46287" lon="5.3006">
        <ele>217</ele>
        <time>2022-02-08T13:28:28Z</time>
      </trkpt>
      <trkpt lat="46.46266" lon="5.30058">
        <ele>216.2</ele>
        <time>2022-02-08T13:28:30Z</time>
      </trkpt>
      <trkpt lat="46.46255" lon="5.30057">
        <ele>215.8</ele>
        <time>2022-02-08T13:28:31Z</time>
      </trkpt>
      <trkpt lat="46.46222" lon="5.30054">
        <ele>214.4</ele>
        <time>2022-02-08T13:28:34Z</time>
      </trkpt>
      <trkpt lat="46.46212" lon="5.30052">
        <ele>213.8</ele>
        <time>2022-02-08T13:28:35Z</time>
      </trkpt>
      <trkpt lat="46.46201" lon="5.30049">
        <ele>213.2</ele>
        <time>2022-02-08T13:28:36Z</time>
      </trkpt>
      <trkpt lat="46.46191" lon="5.30043">
        <ele>212.4</ele>
        <time>2022-02-08T13:28:37Z</time>
      </trkpt>
      <trkpt lat="46.46182" lon="5.30035">
        <ele>211.4</ele>
        <time>2022-02-08T13:28:38Z</time>
      </trkpt>
      <trkpt lat="46.46173" lon="5.30025">
        <ele>210.8</ele>
        <time>2022-02-08T13:28:39Z</time>
      </trkpt>
      <trkpt lat="46.46166" lon="5.30016">
        <ele>210</ele>
        <time>2022-02-08T13:28:40Z</time>
      </trkpt>
      <trkpt lat="46.46148" lon="5.2999">
        <ele>208.6</ele>
        <time>2022-02-08T13:28:43Z</time>
      </trkpt>
      <trkpt lat="46.46142" lon="5.29981">
        <ele>207.8</ele>
        <time>2022-02-08T13:28:45Z</time>
      </trkpt>
      <trkpt lat="46.46139" lon="5.29979">
        <ele>207</ele>
        <time>2022-02-08T13:28:46Z</time>
      </trkpt>
      <trkpt lat="46.46136" lon="5.29979">
        <ele>206.4</ele>
        <time>2022-02-08T13:28:47Z</time>
      </trkpt>
      <trkpt lat="46.4613" lon="5.29984">
        <ele>205.6</ele>
        <time>2022-02-08T13:28:49Z</time>
      </trkpt>
      <trkpt lat="46.46126" lon="5.29996">
        <ele>205</ele>
        <time>2022-02-08T13:28:51Z</time>
      </trkpt>
      <trkpt lat="46.4612" lon="5.30013">
        <ele>204.4</ele>
        <time>2022-02-08T13:28:53Z</time>
      </trkpt>
      <trkpt lat="46.46101" lon="5.30077">
        <ele>204</ele>
        <time>2022-02-08T13:29:00Z</time>
      </trkpt>
      <trkpt lat="46.46083" lon="5.30134">
        <ele>204.8</ele>
        <time>2022-02-08T13:29:07Z</time>
      </trkpt>
      <trkpt lat="46.46068" lon="5.30179">
        <ele>206</ele>
        <time>2022-02-08T13:29:14Z</time>
      </trkpt>
      <trkpt lat="46.4606" lon="5.30204">
        <ele>207</ele>
        <time>2022-02-08T13:29:18Z</time>
      </trkpt>
      <trkpt lat="46.46053" lon="5.30222">
        <ele>208</ele>
        <time>2022-02-08T13:29:21Z</time>
      </trkpt>
      <trkpt lat="46.4605" lon="5.30234">
        <ele>208.4</ele>
        <time>2022-02-08T13:29:23Z</time>
      </trkpt>
      <trkpt lat="46.46044" lon="5.30252">
        <ele>209.2</ele>
        <time>2022-02-08T13:29:26Z</time>
      </trkpt>
      <trkpt lat="46.46029" lon="5.30294">
        <ele>210.2</ele>
        <time>2022-02-08T13:29:33Z</time>
      </trkpt>
      <trkpt lat="46.46018" lon="5.30328">
        <ele>211.6</ele>
        <time>2022-02-08T13:29:39Z</time>
      </trkpt>
      <trkpt lat="46.46011" lon="5.3035">
        <ele>212.2</ele>
        <time>2022-02-08T13:29:43Z</time>
      </trkpt>
      <trkpt lat="46.46008" lon="5.30362">
        <ele>212.6</ele>
        <time>2022-02-08T13:29:45Z</time>
      </trkpt>
      <trkpt lat="46.46006" lon="5.30367">
        <ele>212.8</ele>
        <time>2022-02-08T13:29:46Z</time>
      </trkpt>
      <trkpt lat="46.45999" lon="5.30374">
        <ele>213.2</ele>
        <time>2022-02-08T13:29:48Z</time>
      </trkpt>
      <trkpt lat="46.45992" lon="5.30375">
        <ele>213.4</ele>
        <time>2022-02-08T13:29:50Z</time>
      </trkpt>
      <trkpt lat="46.45988" lon="5.30374">
        <ele>213.8</ele>
        <time>2022-02-08T13:29:51Z</time>
      </trkpt>
      <trkpt lat="46.45973" lon="5.30367">
        <ele>214.8</ele>
        <time>2022-02-08T13:29:55Z</time>
      </trkpt>
      <trkpt lat="46.4596" lon="5.30361">
        <ele>216</ele>
        <time>2022-02-08T13:29:58Z</time>
      </trkpt>
      <trkpt lat="46.45956" lon="5.30359">
        <ele>216</ele>
        <time>2022-02-08T13:29:59Z</time>
      </trkpt>
      <trkpt lat="46.45941" lon="5.3035">
        <ele>216.6</ele>
        <time>2022-02-08T13:30:03Z</time>
      </trkpt>
      <trkpt lat="46.45934" lon="5.30346">
        <ele>217</ele>
        <time>2022-02-08T13:30:05Z</time>
      </trkpt>
      <trkpt lat="46.45929" lon="5.30344">
        <ele>217.2</ele>
        <time>2022-02-08T13:30:06Z</time>
      </trkpt>
      <trkpt lat="46.45903" lon="5.30329">
        <ele>217.2</ele>
        <time>2022-02-08T13:30:11Z</time>
      </trkpt>
      <trkpt lat="46.45863" lon="5.30309">
        <ele>216.6</ele>
        <time>2022-02-08T13:30:17Z</time>
      </trkpt>
      <trkpt lat="46.45855" lon="5.30307">
        <ele>216.2</ele>
        <time>2022-02-08T13:30:18Z</time>
      </trkpt>
      <trkpt lat="46.45837" lon="5.30307">
        <ele>215.8</ele>
        <time>2022-02-08T13:30:20Z</time>
      </trkpt>
      <trkpt lat="46.4582" lon="5.30315">
        <ele>214.8</ele>
        <time>2022-02-08T13:30:22Z</time>
      </trkpt>
      <trkpt lat="46.45812" lon="5.3032">
        <ele>214.2</ele>
        <time>2022-02-08T13:30:23Z</time>
      </trkpt>
      <trkpt lat="46.45783" lon="5.30349">
        <ele>212.8</ele>
        <time>2022-02-08T13:30:27Z</time>
      </trkpt>
      <trkpt lat="46.45766" lon="5.30365">
        <ele>212.2</ele>
        <time>2022-02-08T13:30:29Z</time>
      </trkpt>
      <trkpt lat="46.45742" lon="5.30391">
        <ele>211.2</ele>
        <time>2022-02-08T13:30:32Z</time>
      </trkpt>
      <trkpt lat="46.45725" lon="5.30409">
        <ele>209.8</ele>
        <time>2022-02-08T13:30:34Z</time>
      </trkpt>
      <trkpt lat="46.45716" lon="5.30417">
        <ele>209.4</ele>
        <time>2022-02-08T13:30:35Z</time>
      </trkpt>
      <trkpt lat="46.45707" lon="5.30425">
        <ele>208.6</ele>
        <time>2022-02-08T13:30:36Z</time>
      </trkpt>
      <trkpt lat="46.45686" lon="5.30436">
        <ele>207.6</ele>
        <time>2022-02-08T13:30:38Z</time>
      </trkpt>
      <trkpt lat="46.45675" lon="5.30439">
        <ele>207</ele>
        <time>2022-02-08T13:30:39Z</time>
      </trkpt>
      <trkpt lat="46.45664" lon="5.30439">
        <ele>206.8</ele>
        <time>2022-02-08T13:30:40Z</time>
      </trkpt>
      <trkpt lat="46.45654" lon="5.30438">
        <ele>206.2</ele>
        <time>2022-02-08T13:30:41Z</time>
      </trkpt>
      <trkpt lat="46.45643" lon="5.30435">
        <ele>206</ele>
        <time>2022-02-08T13:30:42Z</time>
      </trkpt>
      <trkpt lat="46.45625" lon="5.30427">
        <ele>204.6</ele>
        <time>2022-02-08T13:30:44Z</time>
      </trkpt>
      <trkpt lat="46.45616" lon="5.3042">
        <ele>204.2</ele>
        <time>2022-02-08T13:30:45Z</time>
      </trkpt>
      <trkpt lat="46.45608" lon="5.30413">
        <ele>203.6</ele>
        <time>2022-02-08T13:30:46Z</time>
      </trkpt>
      <trkpt lat="46.45587" lon="5.30391">
        <ele>202.8</ele>
        <time>2022-02-08T13:30:49Z</time>
      </trkpt>
      <trkpt lat="46.45559" lon="5.30362">
        <ele>202.6</ele>
        <time>2022-02-08T13:30:53Z</time>
      </trkpt>
      <trkpt lat="46.45553" lon="5.30358">
        <ele>202.4</ele>
        <time>2022-02-08T13:30:54Z</time>
      </trkpt>
      <trkpt lat="46.45544" lon="5.30352">
        <ele>202.4</ele>
        <time>2022-02-08T13:30:55Z</time>
      </trkpt>
      <trkpt lat="46.45536" lon="5.3035">
        <ele>202.4</ele>
        <time>2022-02-08T13:30:56Z</time>
      </trkpt>
      <trkpt lat="46.45522" lon="5.30348">
        <ele>202.4</ele>
        <time>2022-02-08T13:30:58Z</time>
      </trkpt>
      <trkpt lat="46.45513" lon="5.30349">
        <ele>202.4</ele>
        <time>2022-02-08T13:30:59Z</time>
      </trkpt>
      <trkpt lat="46.45461" lon="5.30349">
        <ele>202.6</ele>
        <time>2022-02-08T13:31:06Z</time>
      </trkpt>
      <trkpt lat="46.45408" lon="5.30332">
        <ele>202.8</ele>
        <time>2022-02-08T13:31:14Z</time>
      </trkpt>
      <trkpt lat="46.454" lon="5.3033">
        <ele>202.8</ele>
        <time>2022-02-08T13:31:15Z</time>
      </trkpt>
      <trkpt lat="46.45367" lon="5.30324">
        <ele>203.4</ele>
        <time>2022-02-08T13:31:20Z</time>
      </trkpt>
      <trkpt lat="46.45361" lon="5.30325">
        <ele>203.4</ele>
        <time>2022-02-08T13:31:21Z</time>
      </trkpt>
      <trkpt lat="46.45348" lon="5.3033">
        <ele>203.6</ele>
        <time>2022-02-08T13:31:23Z</time>
      </trkpt>
      <trkpt lat="46.45332" lon="5.30341">
        <ele>203.8</ele>
        <time>2022-02-08T13:31:26Z</time>
      </trkpt>
      <trkpt lat="46.45315" lon="5.30352">
        <ele>204.2</ele>
        <time>2022-02-08T13:31:29Z</time>
      </trkpt>
      <trkpt lat="46.45302" lon="5.30354">
        <ele>204.6</ele>
        <time>2022-02-08T13:31:31Z</time>
      </trkpt>
      <trkpt lat="46.45289" lon="5.30352">
        <ele>204.8</ele>
        <time>2022-02-08T13:31:33Z</time>
      </trkpt>
      <trkpt lat="46.45253" lon="5.30344">
        <ele>205.6</ele>
        <time>2022-02-08T13:31:39Z</time>
      </trkpt>
      <trkpt lat="46.45209" lon="5.30334">
        <ele>205.8</ele>
        <time>2022-02-08T13:31:46Z</time>
      </trkpt>
      <trkpt lat="46.45203" lon="5.30335">
        <ele>205.8</ele>
        <time>2022-02-08T13:31:47Z</time>
      </trkpt>
      <trkpt lat="46.45197" lon="5.30337">
        <ele>205.8</ele>
        <time>2022-02-08T13:31:48Z</time>
      </trkpt>
      <trkpt lat="46.45187" lon="5.30344">
        <ele>206</ele>
        <time>2022-02-08T13:31:50Z</time>
      </trkpt>
      <trkpt lat="46.45171" lon="5.30365">
        <ele>206.6</ele>
        <time>2022-02-08T13:31:54Z</time>
      </trkpt>
      <trkpt lat="46.45168" lon="5.30372">
        <ele>206.8</ele>
        <time>2022-02-08T13:31:55Z</time>
      </trkpt>
      <trkpt lat="46.4516" lon="5.30397">
        <ele>207.8</ele>
        <time>2022-02-08T13:31:59Z</time>
      </trkpt>
      <trkpt lat="46.45158" lon="5.30403">
        <ele>208</ele>
        <time>2022-02-08T13:32:00Z</time>
      </trkpt>
      <trkpt lat="46.45148" lon="5.30435">
        <ele>209</ele>
        <time>2022-02-08T13:32:05Z</time>
      </trkpt>
      <trkpt lat="46.45146" lon="5.30441">
        <ele>209.2</ele>
        <time>2022-02-08T13:32:06Z</time>
      </trkpt>
      <trkpt lat="46.45133" lon="5.30473">
        <ele>210.2</ele>
        <time>2022-02-08T13:32:11Z</time>
      </trkpt>
      <trkpt lat="46.4513" lon="5.30479">
        <ele>210.2</ele>
        <time>2022-02-08T13:32:12Z</time>
      </trkpt>
      <trkpt lat="46.45123" lon="5.30489">
        <ele>210.6</ele>
        <time>2022-02-08T13:32:14Z</time>
      </trkpt>
      <trkpt lat="46.45111" lon="5.30499">
        <ele>211.2</ele>
        <time>2022-02-08T13:32:17Z</time>
      </trkpt>
      <trkpt lat="46.45106" lon="5.305">
        <ele>211.4</ele>
        <time>2022-02-08T13:32:18Z</time>
      </trkpt>
      <trkpt lat="46.45101" lon="5.305">
        <ele>211.6</ele>
        <time>2022-02-08T13:32:19Z</time>
      </trkpt>
      <trkpt lat="46.45083" lon="5.30498">
        <ele>212</ele>
        <time>2022-02-08T13:32:23Z</time>
      </trkpt>
      <trkpt lat="46.45074" lon="5.30496">
        <ele>212.4</ele>
        <time>2022-02-08T13:32:25Z</time>
      </trkpt>
      <trkpt lat="46.45058" lon="5.30494">
        <ele>213.6</ele>
        <time>2022-02-08T13:32:29Z</time>
      </trkpt>
      <trkpt lat="46.45054" lon="5.30493">
        <ele>214</ele>
        <time>2022-02-08T13:32:30Z</time>
      </trkpt>
      <trkpt lat="46.45038" lon="5.30489">
        <ele>214.8</ele>
        <time>2022-02-08T13:32:34Z</time>
      </trkpt>
      <trkpt lat="46.45021" lon="5.30487">
        <ele>215.8</ele>
        <time>2022-02-08T13:32:38Z</time>
      </trkpt>
      <trkpt lat="46.45017" lon="5.30487">
        <ele>216</ele>
        <time>2022-02-08T13:32:39Z</time>
      </trkpt>
      <trkpt lat="46.45004" lon="5.30487">
        <ele>217</ele>
        <time>2022-02-08T13:32:42Z</time>
      </trkpt>
      <trkpt lat="46.44986" lon="5.30491">
        <ele>217.6</ele>
        <time>2022-02-08T13:32:46Z</time>
      </trkpt>
      <trkpt lat="46.44981" lon="5.30492">
        <ele>217.8</ele>
        <time>2022-02-08T13:32:47Z</time>
      </trkpt>
      <trkpt lat="46.44976" lon="5.30493">
        <ele>218</ele>
        <time>2022-02-08T13:32:48Z</time>
      </trkpt>
      <trkpt lat="46.44971" lon="5.30495">
        <ele>218.2</ele>
        <time>2022-02-08T13:32:49Z</time>
      </trkpt>
      <trkpt lat="46.44952" lon="5.30503">
        <ele>218.8</ele>
        <time>2022-02-08T13:32:53Z</time>
      </trkpt>
      <trkpt lat="46.44931" lon="5.30509">
        <ele>219.2</ele>
        <time>2022-02-08T13:32:57Z</time>
      </trkpt>
      <trkpt lat="46.4491" lon="5.30514">
        <ele>219.4</ele>
        <time>2022-02-08T13:33:01Z</time>
      </trkpt>
      <trkpt lat="46.44876" lon="5.30516">
        <ele>220.4</ele>
        <time>2022-02-08T13:33:08Z</time>
      </trkpt>
      <trkpt lat="46.44866" lon="5.30517">
        <ele>221</ele>
        <time>2022-02-08T13:33:10Z</time>
      </trkpt>
      <trkpt lat="46.44848" lon="5.30518">
        <ele>221.6</ele>
        <time>2022-02-08T13:33:14Z</time>
      </trkpt>
      <trkpt lat="46.44824" lon="5.30518">
        <ele>222.4</ele>
        <time>2022-02-08T13:33:19Z</time>
      </trkpt>
      <trkpt lat="46.44814" lon="5.30518">
        <ele>222.6</ele>
        <time>2022-02-08T13:33:21Z</time>
      </trkpt>
      <trkpt lat="46.4479" lon="5.30517">
        <ele>223.8</ele>
        <time>2022-02-08T13:33:26Z</time>
      </trkpt>
      <trkpt lat="46.44785" lon="5.30517">
        <ele>224</ele>
        <time>2022-02-08T13:33:27Z</time>
      </trkpt>
      <trkpt lat="46.4477" lon="5.30516">
        <ele>224.8</ele>
        <time>2022-02-08T13:33:30Z</time>
      </trkpt>
      <trkpt lat="46.44748" lon="5.30517">
        <ele>225.4</ele>
        <time>2022-02-08T13:33:34Z</time>
      </trkpt>
      <trkpt lat="46.44708" lon="5.30514">
        <ele>226</ele>
        <time>2022-02-08T13:33:41Z</time>
      </trkpt>
      <trkpt lat="46.44696" lon="5.30514">
        <ele>226</ele>
        <time>2022-02-08T13:33:43Z</time>
      </trkpt>
      <trkpt lat="46.44639" lon="5.30516">
        <ele>226.2</ele>
        <time>2022-02-08T13:33:53Z</time>
      </trkpt>
      <trkpt lat="46.44589" lon="5.30517">
        <ele>226.6</ele>
        <time>2022-02-08T13:34:02Z</time>
      </trkpt>
      <trkpt lat="46.44564" lon="5.30526">
        <ele>227</ele>
        <time>2022-02-08T13:34:07Z</time>
      </trkpt>
      <trkpt lat="46.4456" lon="5.30528">
        <ele>227</ele>
        <time>2022-02-08T13:34:08Z</time>
      </trkpt>
      <trkpt lat="46.44556" lon="5.30531">
        <ele>227.2</ele>
        <time>2022-02-08T13:34:09Z</time>
      </trkpt>
      <trkpt lat="46.44541" lon="5.3054">
        <ele>228</ele>
        <time>2022-02-08T13:34:13Z</time>
      </trkpt>
      <trkpt lat="46.44517" lon="5.30554">
        <ele>229.2</ele>
        <time>2022-02-08T13:34:18Z</time>
      </trkpt>
      <trkpt lat="46.44476" lon="5.30568">
        <ele>230</ele>
        <time>2022-02-08T13:34:25Z</time>
      </trkpt>
      <trkpt lat="46.44463" lon="5.30569">
        <ele>230.2</ele>
        <time>2022-02-08T13:34:27Z</time>
      </trkpt>
      <trkpt lat="46.4444" lon="5.30567">
        <ele>230.4</ele>
        <time>2022-02-08T13:34:31Z</time>
      </trkpt>
      <trkpt lat="46.44433" lon="5.30568">
        <ele>230.4</ele>
        <time>2022-02-08T13:34:32Z</time>
      </trkpt>
      <trkpt lat="46.44422" lon="5.30573">
        <ele>230.6</ele>
        <time>2022-02-08T13:34:34Z</time>
      </trkpt>
      <trkpt lat="46.44417" lon="5.30577">
        <ele>230.6</ele>
        <time>2022-02-08T13:34:35Z</time>
      </trkpt>
      <trkpt lat="46.44386" lon="5.30595">
        <ele>231.2</ele>
        <time>2022-02-08T13:34:41Z</time>
      </trkpt>
      <trkpt lat="46.4438" lon="5.30597">
        <ele>231.4</ele>
        <time>2022-02-08T13:34:42Z</time>
      </trkpt>
      <trkpt lat="46.44362" lon="5.306">
        <ele>231.6</ele>
        <time>2022-02-08T13:34:45Z</time>
      </trkpt>
      <trkpt lat="46.4435" lon="5.30599">
        <ele>231.6</ele>
        <time>2022-02-08T13:34:47Z</time>
      </trkpt>
      <trkpt lat="46.44339" lon="5.30597">
        <ele>231.8</ele>
        <time>2022-02-08T13:34:49Z</time>
      </trkpt>
      <trkpt lat="46.44327" lon="5.30601">
        <ele>231.8</ele>
        <time>2022-02-08T13:34:51Z</time>
      </trkpt>
      <trkpt lat="46.44321" lon="5.30604">
        <ele>231.8</ele>
        <time>2022-02-08T13:34:52Z</time>
      </trkpt>
      <trkpt lat="46.44316" lon="5.30608">
        <ele>231.8</ele>
        <time>2022-02-08T13:34:53Z</time>
      </trkpt>
      <trkpt lat="46.44297" lon="5.30628">
        <ele>231.8</ele>
        <time>2022-02-08T13:34:57Z</time>
      </trkpt>
      <trkpt lat="46.44261" lon="5.30658">
        <ele>232</ele>
        <time>2022-02-08T13:35:04Z</time>
      </trkpt>
      <trkpt lat="46.44223" lon="5.30668">
        <ele>232</ele>
        <time>2022-02-08T13:35:10Z</time>
      </trkpt>
      <trkpt lat="46.44185" lon="5.30673">
        <ele>232.2</ele>
        <time>2022-02-08T13:35:16Z</time>
      </trkpt>
      <trkpt lat="46.44172" lon="5.30673">
        <ele>232.2</ele>
        <time>2022-02-08T13:35:18Z</time>
      </trkpt>
      <trkpt lat="46.44166" lon="5.30672">
        <ele>232.2</ele>
        <time>2022-02-08T13:35:19Z</time>
      </trkpt>
      <trkpt lat="46.44142" lon="5.30665">
        <ele>232.2</ele>
        <time>2022-02-08T13:35:23Z</time>
      </trkpt>
      <trkpt lat="46.44103" lon="5.3064">
        <ele>232.6</ele>
        <time>2022-02-08T13:35:30Z</time>
      </trkpt>
      <trkpt lat="46.44081" lon="5.30624">
        <ele>232.8</ele>
        <time>2022-02-08T13:35:34Z</time>
      </trkpt>
      <trkpt lat="46.44068" lon="5.30621">
        <ele>232.8</ele>
        <time>2022-02-08T13:35:36Z</time>
      </trkpt>
      <trkpt lat="46.44049" lon="5.30627">
        <ele>232.8</ele>
        <time>2022-02-08T13:35:39Z</time>
      </trkpt>
      <trkpt lat="46.44044" lon="5.30631">
        <ele>232.8</ele>
        <time>2022-02-08T13:35:40Z</time>
      </trkpt>
      <trkpt lat="46.44005" lon="5.30666">
        <ele>232.6</ele>
        <time>2022-02-08T13:35:47Z</time>
      </trkpt>
      <trkpt lat="46.44" lon="5.3067">
        <ele>232.4</ele>
        <time>2022-02-08T13:35:48Z</time>
      </trkpt>
      <trkpt lat="46.43989" lon="5.3067">
        <ele>232.2</ele>
        <time>2022-02-08T13:35:50Z</time>
      </trkpt>
      <trkpt lat="46.43985" lon="5.30657">
        <ele>232.2</ele>
        <time>2022-02-08T13:35:52Z</time>
      </trkpt>
      <trkpt lat="46.4399" lon="5.30633">
        <ele>232.2</ele>
        <time>2022-02-08T13:35:55Z</time>
      </trkpt>
      <trkpt lat="46.43994" lon="5.30589">
        <ele>232.4</ele>
        <time>2022-02-08T13:36:00Z</time>
      </trkpt>
      <trkpt lat="46.43994" lon="5.3058">
        <ele>232.4</ele>
        <time>2022-02-08T13:36:01Z</time>
      </trkpt>
      <trkpt lat="46.4399" lon="5.30529">
        <ele>232.6</ele>
        <time>2022-02-08T13:36:06Z</time>
      </trkpt>
      <trkpt lat="46.43982" lon="5.30444">
        <ele>233.2</ele>
        <time>2022-02-08T13:36:15Z</time>
      </trkpt>
      <trkpt lat="46.43981" lon="5.30435">
        <ele>233.2</ele>
        <time>2022-02-08T13:36:16Z</time>
      </trkpt>
      <trkpt lat="46.43975" lon="5.30365">
        <ele>233</ele>
        <time>2022-02-08T13:36:23Z</time>
      </trkpt>
      <trkpt lat="46.43962" lon="5.30285">
        <ele>232.2</ele>
        <time>2022-02-08T13:36:31Z</time>
      </trkpt>
      <trkpt lat="46.43942" lon="5.30207">
        <ele>231.6</ele>
        <time>2022-02-08T13:36:39Z</time>
      </trkpt>
      <trkpt lat="46.43937" lon="5.30189">
        <ele>231.6</ele>
        <time>2022-02-08T13:36:41Z</time>
      </trkpt>
      <trkpt lat="46.43916" lon="5.30118">
        <ele>231.6</ele>
        <time>2022-02-08T13:36:49Z</time>
      </trkpt>
      <trkpt lat="46.43887" lon="5.30043">
        <ele>231.6</ele>
        <time>2022-02-08T13:36:58Z</time>
      </trkpt>
      <trkpt lat="46.43883" lon="5.30036">
        <ele>231.6</ele>
        <time>2022-02-08T13:36:59Z</time>
      </trkpt>
      <trkpt lat="46.43873" lon="5.30024">
        <ele>231.6</ele>
        <time>2022-02-08T13:37:01Z</time>
      </trkpt>
      <trkpt lat="46.43862" lon="5.30014">
        <ele>231.6</ele>
        <time>2022-02-08T13:37:03Z</time>
      </trkpt>
      <trkpt lat="46.43814" lon="5.29981">
        <ele>231.6</ele>
        <time>2022-02-08T13:37:11Z</time>
      </trkpt>
      <trkpt lat="46.43773" lon="5.29952">
        <ele>231.8</ele>
        <time>2022-02-08T13:37:18Z</time>
      </trkpt>
      <trkpt lat="46.43742" lon="5.29932">
        <ele>230.2</ele>
        <time>2022-02-08T13:37:23Z</time>
      </trkpt>
      <trkpt lat="46.43735" lon="5.2993">
        <ele>231.8</ele>
        <time>2022-02-08T13:37:24Z</time>
      </trkpt>
      <trkpt lat="46.43728" lon="5.29929">
        <ele>231.8</ele>
        <time>2022-02-08T13:37:25Z</time>
      </trkpt>
      <trkpt lat="46.43707" lon="5.29929">
        <ele>231.4</ele>
        <time>2022-02-08T13:37:28Z</time>
      </trkpt>
      <trkpt lat="46.4365" lon="5.29926">
        <ele>231.2</ele>
        <time>2022-02-08T13:37:36Z</time>
      </trkpt>
      <trkpt lat="46.43643" lon="5.29925">
        <ele>231.2</ele>
        <time>2022-02-08T13:37:37Z</time>
      </trkpt>
      <trkpt lat="46.43597" lon="5.29923">
        <ele>231.2</ele>
        <time>2022-02-08T13:37:44Z</time>
      </trkpt>
      <trkpt lat="46.43569" lon="5.29926">
        <ele>231</ele>
        <time>2022-02-08T13:37:48Z</time>
      </trkpt>
      <trkpt lat="46.43561" lon="5.29929">
        <ele>231</ele>
        <time>2022-02-08T13:37:49Z</time>
      </trkpt>
      <trkpt lat="46.43553" lon="5.29933">
        <ele>231</ele>
        <time>2022-02-08T13:37:50Z</time>
      </trkpt>
      <trkpt lat="46.43536" lon="5.29946">
        <ele>230.8</ele>
        <time>2022-02-08T13:37:52Z</time>
      </trkpt>
      <trkpt lat="46.4352" lon="5.29962">
        <ele>230.4</ele>
        <time>2022-02-08T13:37:54Z</time>
      </trkpt>
      <trkpt lat="46.43501" lon="5.2998">
        <ele>228.8</ele>
        <time>2022-02-08T13:37:56Z</time>
      </trkpt>
      <trkpt lat="46.43492" lon="5.29988">
        <ele>228.2</ele>
        <time>2022-02-08T13:37:57Z</time>
      </trkpt>
      <trkpt lat="46.43482" lon="5.29996">
        <ele>227.2</ele>
        <time>2022-02-08T13:37:58Z</time>
      </trkpt>
      <trkpt lat="46.43472" lon="5.30004">
        <ele>226.2</ele>
        <time>2022-02-08T13:37:59Z</time>
      </trkpt>
      <trkpt lat="46.43461" lon="5.30011">
        <ele>225.6</ele>
        <time>2022-02-08T13:38:00Z</time>
      </trkpt>
      <trkpt lat="46.43449" lon="5.30017">
        <ele>224.4</ele>
        <time>2022-02-08T13:38:01Z</time>
      </trkpt>
      <trkpt lat="46.43437" lon="5.30019">
        <ele>224</ele>
        <time>2022-02-08T13:38:02Z</time>
      </trkpt>
      <trkpt lat="46.43427" lon="5.30019">
        <ele>223</ele>
        <time>2022-02-08T13:38:03Z</time>
      </trkpt>
      <trkpt lat="46.43415" lon="5.30019">
        <ele>222.6</ele>
        <time>2022-02-08T13:38:04Z</time>
      </trkpt>
      <trkpt lat="46.43403" lon="5.30019">
        <ele>221.4</ele>
        <time>2022-02-08T13:38:05Z</time>
      </trkpt>
      <trkpt lat="46.43377" lon="5.30022">
        <ele>220</ele>
        <time>2022-02-08T13:38:07Z</time>
      </trkpt>
      <trkpt lat="46.43358" lon="5.30028">
        <ele>219</ele>
        <time>2022-02-08T13:38:09Z</time>
      </trkpt>
      <trkpt lat="46.43324" lon="5.3004">
        <ele>217.4</ele>
        <time>2022-02-08T13:38:12Z</time>
      </trkpt>
      <trkpt lat="46.43311" lon="5.30041">
        <ele>217.2</ele>
        <time>2022-02-08T13:38:13Z</time>
      </trkpt>
      <trkpt lat="46.43285" lon="5.30044">
        <ele>216</ele>
        <time>2022-02-08T13:38:15Z</time>
      </trkpt>
      <trkpt lat="46.43263" lon="5.30049">
        <ele>214.2</ele>
        <time>2022-02-08T13:38:17Z</time>
      </trkpt>
      <trkpt lat="46.43245" lon="5.30047">
        <ele>212.6</ele>
        <time>2022-02-08T13:38:19Z</time>
      </trkpt>
      <trkpt lat="46.43234" lon="5.30041">
        <ele>212.4</ele>
        <time>2022-02-08T13:38:20Z</time>
      </trkpt>
      <trkpt lat="46.43212" lon="5.30027">
        <ele>212.2</ele>
        <time>2022-02-08T13:38:23Z</time>
      </trkpt>
      <trkpt lat="46.43207" lon="5.30025">
        <ele>212.2</ele>
        <time>2022-02-08T13:38:24Z</time>
      </trkpt>
      <trkpt lat="46.43185" lon="5.3002">
        <ele>214.6</ele>
        <time>2022-02-08T13:38:28Z</time>
      </trkpt>
      <trkpt lat="46.43177" lon="5.30018">
        <ele>216.2</ele>
        <time>2022-02-08T13:38:30Z</time>
      </trkpt>
      <trkpt lat="46.43167" lon="5.30016">
        <ele>217.4</ele>
        <time>2022-02-08T13:38:32Z</time>
      </trkpt>
      <trkpt lat="46.43159" lon="5.30015">
        <ele>218.6</ele>
        <time>2022-02-08T13:38:34Z</time>
      </trkpt>
      <trkpt lat="46.43155" lon="5.30014">
        <ele>219.6</ele>
        <time>2022-02-08T13:38:35Z</time>
      </trkpt>
      <trkpt lat="46.43151" lon="5.30013">
        <ele>220</ele>
        <time>2022-02-08T13:38:36Z</time>
      </trkpt>
      <trkpt lat="46.43139" lon="5.30009">
        <ele>221.4</ele>
        <time>2022-02-08T13:38:39Z</time>
      </trkpt>
      <trkpt lat="46.43128" lon="5.30005">
        <ele>222.6</ele>
        <time>2022-02-08T13:38:42Z</time>
      </trkpt>
      <trkpt lat="46.43117" lon="5.30001">
        <ele>223.6</ele>
        <time>2022-02-08T13:38:45Z</time>
      </trkpt>
      <trkpt lat="46.43113" lon="5.29999">
        <ele>224</ele>
        <time>2022-02-08T13:38:46Z</time>
      </trkpt>
      <trkpt lat="46.43101" lon="5.29994">
        <ele>225.4</ele>
        <time>2022-02-08T13:38:49Z</time>
      </trkpt>
      <trkpt lat="46.43084" lon="5.29991">
        <ele>226.4</ele>
        <time>2022-02-08T13:38:53Z</time>
      </trkpt>
      <trkpt lat="46.43076" lon="5.2999">
        <ele>226.8</ele>
        <time>2022-02-08T13:38:55Z</time>
      </trkpt>
      <trkpt lat="46.43061" lon="5.29991">
        <ele>227.4</ele>
        <time>2022-02-08T13:38:58Z</time>
      </trkpt>
      <trkpt lat="46.43056" lon="5.29992">
        <ele>227.4</ele>
        <time>2022-02-08T13:38:59Z</time>
      </trkpt>
      <trkpt lat="46.43023" lon="5.30004">
        <ele>227.8</ele>
        <time>2022-02-08T13:39:06Z</time>
      </trkpt>
      <trkpt lat="46.42978" lon="5.30012">
        <ele>228.6</ele>
        <time>2022-02-08T13:39:15Z</time>
      </trkpt>
      <trkpt lat="46.42973" lon="5.30013">
        <ele>228.6</ele>
        <time>2022-02-08T13:39:16Z</time>
      </trkpt>
      <trkpt lat="46.42931" lon="5.30013">
        <ele>229.2</ele>
        <time>2022-02-08T13:39:24Z</time>
      </trkpt>
      <trkpt lat="46.42887" lon="5.30008">
        <ele>229.8</ele>
        <time>2022-02-08T13:39:32Z</time>
      </trkpt>
      <trkpt lat="46.42876" lon="5.30007">
        <ele>230</ele>
        <time>2022-02-08T13:39:34Z</time>
      </trkpt>
      <trkpt lat="46.42836" lon="5.30002">
        <ele>230.4</ele>
        <time>2022-02-08T13:39:41Z</time>
      </trkpt>
      <trkpt lat="46.42819" lon="5.30005">
        <ele>230.6</ele>
        <time>2022-02-08T13:39:44Z</time>
      </trkpt>
      <trkpt lat="46.42808" lon="5.3001">
        <ele>230.6</ele>
        <time>2022-02-08T13:39:46Z</time>
      </trkpt>
      <trkpt lat="46.42799" lon="5.30017">
        <ele>230.8</ele>
        <time>2022-02-08T13:39:48Z</time>
      </trkpt>
      <trkpt lat="46.42795" lon="5.30021">
        <ele>231</ele>
        <time>2022-02-08T13:39:49Z</time>
      </trkpt>
      <trkpt lat="46.42781" lon="5.30036">
        <ele>231.6</ele>
        <time>2022-02-08T13:39:52Z</time>
      </trkpt>
      <trkpt lat="46.42771" lon="5.30047">
        <ele>231.8</ele>
        <time>2022-02-08T13:39:54Z</time>
      </trkpt>
      <trkpt lat="46.42744" lon="5.30066">
        <ele>232.2</ele>
        <time>2022-02-08T13:39:59Z</time>
      </trkpt>
      <trkpt lat="46.42733" lon="5.30072">
        <ele>232.4</ele>
        <time>2022-02-08T13:40:01Z</time>
      </trkpt>
      <trkpt lat="46.42711" lon="5.30082">
        <ele>232.6</ele>
        <time>2022-02-08T13:40:05Z</time>
      </trkpt>
      <trkpt lat="46.42687" lon="5.30092">
        <ele>233</ele>
        <time>2022-02-08T13:40:09Z</time>
      </trkpt>
      <trkpt lat="46.42658" lon="5.30106">
        <ele>233.4</ele>
        <time>2022-02-08T13:40:14Z</time>
      </trkpt>
      <trkpt lat="46.42611" lon="5.30123">
        <ele>233.2</ele>
        <time>2022-02-08T13:40:21Z</time>
      </trkpt>
      <trkpt lat="46.42586" lon="5.30132">
        <ele>233.2</ele>
        <time>2022-02-08T13:40:25Z</time>
      </trkpt>
      <trkpt lat="46.42581" lon="5.30134">
        <ele>233.2</ele>
        <time>2022-02-08T13:40:26Z</time>
      </trkpt>
      <trkpt lat="46.42575" lon="5.30137">
        <ele>233.2</ele>
        <time>2022-02-08T13:40:27Z</time>
      </trkpt>
      <trkpt lat="46.42529" lon="5.3016">
        <ele>233.2</ele>
        <time>2022-02-08T13:40:35Z</time>
      </trkpt>
      <trkpt lat="46.42512" lon="5.30167">
        <ele>233</ele>
        <time>2022-02-08T13:40:38Z</time>
      </trkpt>
      <trkpt lat="46.42501" lon="5.30163">
        <ele>232.8</ele>
        <time>2022-02-08T13:40:40Z</time>
      </trkpt>
      <trkpt lat="46.42491" lon="5.3015">
        <ele>232.6</ele>
        <time>2022-02-08T13:40:42Z</time>
      </trkpt>
      <trkpt lat="46.42487" lon="5.30141">
        <ele>232.4</ele>
        <time>2022-02-08T13:40:43Z</time>
      </trkpt>
      <trkpt lat="46.42471" lon="5.30116">
        <ele>231.4</ele>
        <time>2022-02-08T13:40:46Z</time>
      </trkpt>
      <trkpt lat="46.42452" lon="5.30091">
        <ele>231</ele>
        <time>2022-02-08T13:40:49Z</time>
      </trkpt>
      <trkpt lat="46.42433" lon="5.30065">
        <ele>230.4</ele>
        <time>2022-02-08T13:40:52Z</time>
      </trkpt>
      <trkpt lat="46.42404" lon="5.30034">
        <ele>229.4</ele>
        <time>2022-02-08T13:40:56Z</time>
      </trkpt>
      <trkpt lat="46.42379" lon="5.30011">
        <ele>227.8</ele>
        <time>2022-02-08T13:40:59Z</time>
      </trkpt>
      <trkpt lat="46.4236" lon="5.29997">
        <ele>226.6</ele>
        <time>2022-02-08T13:41:01Z</time>
      </trkpt>
      <trkpt lat="46.42351" lon="5.2999">
        <ele>226</ele>
        <time>2022-02-08T13:41:02Z</time>
      </trkpt>
      <trkpt lat="46.42333" lon="5.29976">
        <ele>225.4</ele>
        <time>2022-02-08T13:41:04Z</time>
      </trkpt>
      <trkpt lat="46.42313" lon="5.29959">
        <ele>223.6</ele>
        <time>2022-02-08T13:41:06Z</time>
      </trkpt>
      <trkpt lat="46.42295" lon="5.29945">
        <ele>222.2</ele>
        <time>2022-02-08T13:41:08Z</time>
      </trkpt>
      <trkpt lat="46.42275" lon="5.2993">
        <ele>221</ele>
        <time>2022-02-08T13:41:10Z</time>
      </trkpt>
      <trkpt lat="46.42253" lon="5.29912">
        <ele>220</ele>
        <time>2022-02-08T13:41:12Z</time>
      </trkpt>
      <trkpt lat="46.42222" lon="5.29885">
        <ele>218</ele>
        <time>2022-02-08T13:41:15Z</time>
      </trkpt>
      <trkpt lat="46.42201" lon="5.29868">
        <ele>216.8</ele>
        <time>2022-02-08T13:41:17Z</time>
      </trkpt>
      <trkpt lat="46.42193" lon="5.29861">
        <ele>215.2</ele>
        <time>2022-02-08T13:41:18Z</time>
      </trkpt>
      <trkpt lat="46.42172" lon="5.29843">
        <ele>213.8</ele>
        <time>2022-02-08T13:41:20Z</time>
      </trkpt>
      <trkpt lat="46.4215" lon="5.29822">
        <ele>212.6</ele>
        <time>2022-02-08T13:41:22Z</time>
      </trkpt>
      <trkpt lat="46.42134" lon="5.29802">
        <ele>210.8</ele>
        <time>2022-02-08T13:41:24Z</time>
      </trkpt>
      <trkpt lat="46.4212" lon="5.29783">
        <ele>210.2</ele>
        <time>2022-02-08T13:41:26Z</time>
      </trkpt>
      <trkpt lat="46.421" lon="5.29751">
        <ele>210.2</ele>
        <time>2022-02-08T13:41:30Z</time>
      </trkpt>
      <trkpt lat="46.42081" lon="5.29724">
        <ele>211.2</ele>
        <time>2022-02-08T13:41:35Z</time>
      </trkpt>
      <trkpt lat="46.42074" lon="5.29715">
        <ele>211.8</ele>
        <time>2022-02-08T13:41:37Z</time>
      </trkpt>
      <trkpt lat="46.42064" lon="5.297">
        <ele>213</ele>
        <time>2022-02-08T13:41:40Z</time>
      </trkpt>
      <trkpt lat="46.42052" lon="5.29683">
        <ele>214</ele>
        <time>2022-02-08T13:41:44Z</time>
      </trkpt>
      <trkpt lat="46.42039" lon="5.29666">
        <ele>215.2</ele>
        <time>2022-02-08T13:41:48Z</time>
      </trkpt>
      <trkpt lat="46.42031" lon="5.29653">
        <ele>215.8</ele>
        <time>2022-02-08T13:41:51Z</time>
      </trkpt>
      <trkpt lat="46.42028" lon="5.29649">
        <ele>216.2</ele>
        <time>2022-02-08T13:41:52Z</time>
      </trkpt>
      <trkpt lat="46.42018" lon="5.29636">
        <ele>217.6</ele>
        <time>2022-02-08T13:41:56Z</time>
      </trkpt>
      <trkpt lat="46.42015" lon="5.29632">
        <ele>218</ele>
        <time>2022-02-08T13:41:57Z</time>
      </trkpt>
      <trkpt lat="46.42004" lon="5.29617">
        <ele>219</ele>
        <time>2022-02-08T13:42:01Z</time>
      </trkpt>
      <trkpt lat="46.41995" lon="5.29602">
        <ele>220.2</ele>
        <time>2022-02-08T13:42:05Z</time>
      </trkpt>
      <trkpt lat="46.41988" lon="5.29592">
        <ele>221.2</ele>
        <time>2022-02-08T13:42:08Z</time>
      </trkpt>
      <trkpt lat="46.41979" lon="5.29577">
        <ele>222.2</ele>
        <time>2022-02-08T13:42:12Z</time>
      </trkpt>
      <trkpt lat="46.41974" lon="5.2957">
        <ele>222.6</ele>
        <time>2022-02-08T13:42:14Z</time>
      </trkpt>
      <trkpt lat="46.41968" lon="5.29558">
        <ele>223.4</ele>
        <time>2022-02-08T13:42:17Z</time>
      </trkpt>
      <trkpt lat="46.41958" lon="5.29539">
        <ele>224.4</ele>
        <time>2022-02-08T13:42:22Z</time>
      </trkpt>
      <trkpt lat="46.41952" lon="5.29527">
        <ele>225</ele>
        <time>2022-02-08T13:42:25Z</time>
      </trkpt>
      <trkpt lat="46.41949" lon="5.29518">
        <ele>225.4</ele>
        <time>2022-02-08T13:42:27Z</time>
      </trkpt>
      <trkpt lat="46.41943" lon="5.295">
        <ele>226.6</ele>
        <time>2022-02-08T13:42:31Z</time>
      </trkpt>
      <trkpt lat="46.4194" lon="5.29491">
        <ele>227.2</ele>
        <time>2022-02-08T13:42:33Z</time>
      </trkpt>
      <trkpt lat="46.41937" lon="5.29482">
        <ele>227.6</ele>
        <time>2022-02-08T13:42:35Z</time>
      </trkpt>
      <trkpt lat="46.4193" lon="5.29464">
        <ele>228.8</ele>
        <time>2022-02-08T13:42:39Z</time>
      </trkpt>
      <trkpt lat="46.41925" lon="5.29458">
        <ele>229.2</ele>
        <time>2022-02-08T13:42:41Z</time>
      </trkpt>
      <trkpt lat="46.4191" lon="5.29456">
        <ele>229.8</ele>
        <time>2022-02-08T13:42:45Z</time>
      </trkpt>
      <trkpt lat="46.41896" lon="5.2946">
        <ele>230.2</ele>
        <time>2022-02-08T13:42:48Z</time>
      </trkpt>
      <trkpt lat="46.41886" lon="5.29462">
        <ele>230.4</ele>
        <time>2022-02-08T13:42:50Z</time>
      </trkpt>
      <trkpt lat="46.41863" lon="5.29466">
        <ele>230.8</ele>
        <time>2022-02-08T13:42:54Z</time>
      </trkpt>
      <trkpt lat="46.4185" lon="5.29469">
        <ele>230.8</ele>
        <time>2022-02-08T13:42:56Z</time>
      </trkpt>
      <trkpt lat="46.41811" lon="5.29483">
        <ele>230.2</ele>
        <time>2022-02-08T13:43:01Z</time>
      </trkpt>
      <trkpt lat="46.41795" lon="5.2949">
        <ele>229.8</ele>
        <time>2022-02-08T13:43:03Z</time>
      </trkpt>
      <trkpt lat="46.4177" lon="5.29497">
        <ele>229.4</ele>
        <time>2022-02-08T13:43:06Z</time>
      </trkpt>
      <trkpt lat="46.41762" lon="5.29498">
        <ele>229.2</ele>
        <time>2022-02-08T13:43:07Z</time>
      </trkpt>
      <trkpt lat="46.41754" lon="5.29498">
        <ele>228.8</ele>
        <time>2022-02-08T13:43:08Z</time>
      </trkpt>
      <trkpt lat="46.41746" lon="5.29499">
        <ele>228.6</ele>
        <time>2022-02-08T13:43:09Z</time>
      </trkpt>
      <trkpt lat="46.41714" lon="5.29498">
        <ele>227.6</ele>
        <time>2022-02-08T13:43:13Z</time>
      </trkpt>
      <trkpt lat="46.41706" lon="5.29498">
        <ele>227.4</ele>
        <time>2022-02-08T13:43:14Z</time>
      </trkpt>
      <trkpt lat="46.41692" lon="5.29499">
        <ele>227.4</ele>
        <time>2022-02-08T13:43:16Z</time>
      </trkpt>
      <trkpt lat="46.4168" lon="5.29505">
        <ele>227.4</ele>
        <time>2022-02-08T13:43:18Z</time>
      </trkpt>
      <trkpt lat="46.41669" lon="5.29516">
        <ele>227.4</ele>
        <time>2022-02-08T13:43:20Z</time>
      </trkpt>
      <trkpt lat="46.41659" lon="5.29529">
        <ele>227.4</ele>
        <time>2022-02-08T13:43:22Z</time>
      </trkpt>
      <trkpt lat="46.41653" lon="5.29544">
        <ele>227.6</ele>
        <time>2022-02-08T13:43:24Z</time>
      </trkpt>
      <trkpt lat="46.4165" lon="5.29553">
        <ele>227.8</ele>
        <time>2022-02-08T13:43:25Z</time>
      </trkpt>
      <trkpt lat="46.41644" lon="5.29569">
        <ele>227.8</ele>
        <time>2022-02-08T13:43:27Z</time>
      </trkpt>
      <trkpt lat="46.41636" lon="5.29584">
        <ele>228</ele>
        <time>2022-02-08T13:43:29Z</time>
      </trkpt>
      <trkpt lat="46.41625" lon="5.29595">
        <ele>228</ele>
        <time>2022-02-08T13:43:31Z</time>
      </trkpt>
      <trkpt lat="46.41613" lon="5.29604">
        <ele>228</ele>
        <time>2022-02-08T13:43:33Z</time>
      </trkpt>
      <trkpt lat="46.41573" lon="5.29622">
        <ele>227.8</ele>
        <time>2022-02-08T13:43:39Z</time>
      </trkpt>
      <trkpt lat="46.41514" lon="5.29634">
        <ele>228.2</ele>
        <time>2022-02-08T13:43:48Z</time>
      </trkpt>
      <trkpt lat="46.41456" lon="5.29641">
        <ele>228.6</ele>
        <time>2022-02-08T13:43:57Z</time>
      </trkpt>
      <trkpt lat="46.4145" lon="5.29642">
        <ele>228.6</ele>
        <time>2022-02-08T13:43:58Z</time>
      </trkpt>
      <trkpt lat="46.41407" lon="5.29651">
        <ele>229</ele>
        <time>2022-02-08T13:44:05Z</time>
      </trkpt>
      <trkpt lat="46.41367" lon="5.29664">
        <ele>229.8</ele>
        <time>2022-02-08T13:44:12Z</time>
      </trkpt>
      <trkpt lat="46.41355" lon="5.29667">
        <ele>230</ele>
        <time>2022-02-08T13:44:14Z</time>
      </trkpt>
      <trkpt lat="46.41319" lon="5.2968">
        <ele>230.2</ele>
        <time>2022-02-08T13:44:20Z</time>
      </trkpt>
      <trkpt lat="46.41313" lon="5.29685">
        <ele>230.2</ele>
        <time>2022-02-08T13:44:21Z</time>
      </trkpt>
      <trkpt lat="46.41308" lon="5.29691">
        <ele>230.2</ele>
        <time>2022-02-08T13:44:22Z</time>
      </trkpt>
      <trkpt lat="46.41298" lon="5.29704">
        <ele>230.2</ele>
        <time>2022-02-08T13:44:24Z</time>
      </trkpt>
      <trkpt lat="46.41293" lon="5.29712">
        <ele>230.2</ele>
        <time>2022-02-08T13:44:25Z</time>
      </trkpt>
      <trkpt lat="46.41275" lon="5.29756">
        <ele>230.2</ele>
        <time>2022-02-08T13:44:30Z</time>
      </trkpt>
      <trkpt lat="46.41272" lon="5.29776">
        <ele>230.2</ele>
        <time>2022-02-08T13:44:32Z</time>
      </trkpt>
      <trkpt lat="46.41271" lon="5.29797">
        <ele>230.2</ele>
        <time>2022-02-08T13:44:34Z</time>
      </trkpt>
      <trkpt lat="46.41274" lon="5.29846">
        <ele>230.8</ele>
        <time>2022-02-08T13:44:39Z</time>
      </trkpt>
      <trkpt lat="46.41275" lon="5.29856">
        <ele>230.8</ele>
        <time>2022-02-08T13:44:40Z</time>
      </trkpt>
      <trkpt lat="46.41275" lon="5.29866">
        <ele>230.8</ele>
        <time>2022-02-08T13:44:41Z</time>
      </trkpt>
      <trkpt lat="46.41271" lon="5.29886">
        <ele>230.8</ele>
        <time>2022-02-08T13:44:43Z</time>
      </trkpt>
      <trkpt lat="46.41269" lon="5.29894">
        <ele>231</ele>
        <time>2022-02-08T13:44:44Z</time>
      </trkpt>
      <trkpt lat="46.41266" lon="5.29903">
        <ele>230.8</ele>
        <time>2022-02-08T13:44:45Z</time>
      </trkpt>
      <trkpt lat="46.41258" lon="5.29917">
        <ele>230.8</ele>
        <time>2022-02-08T13:44:47Z</time>
      </trkpt>
      <trkpt lat="46.41254" lon="5.29923">
        <ele>231</ele>
        <time>2022-02-08T13:44:48Z</time>
      </trkpt>
      <trkpt lat="46.4125" lon="5.29928">
        <ele>231</ele>
        <time>2022-02-08T13:44:49Z</time>
      </trkpt>
      <trkpt lat="46.41238" lon="5.29938">
        <ele>231</ele>
        <time>2022-02-08T13:44:52Z</time>
      </trkpt>
      <trkpt lat="46.41233" lon="5.29941">
        <ele>231</ele>
        <time>2022-02-08T13:44:53Z</time>
      </trkpt>
      <trkpt lat="46.41219" lon="5.29949">
        <ele>231.2</ele>
        <time>2022-02-08T13:44:56Z</time>
      </trkpt>
      <trkpt lat="46.41214" lon="5.29951">
        <ele>231.2</ele>
        <time>2022-02-08T13:44:57Z</time>
      </trkpt>
      <trkpt lat="46.41199" lon="5.29961">
        <ele>232.4</ele>
        <time>2022-02-08T13:45:00Z</time>
      </trkpt>
      <trkpt lat="46.41183" lon="5.29969">
        <ele>232.8</ele>
        <time>2022-02-08T13:45:03Z</time>
      </trkpt>
      <trkpt lat="46.41167" lon="5.29974">
        <ele>233</ele>
        <time>2022-02-08T13:45:06Z</time>
      </trkpt>
      <trkpt lat="46.41156" lon="5.29974">
        <ele>233</ele>
        <time>2022-02-08T13:45:08Z</time>
      </trkpt>
      <trkpt lat="46.41142" lon="5.29976">
        <ele>233.2</ele>
        <time>2022-02-08T13:45:10Z</time>
      </trkpt>
      <trkpt lat="46.41129" lon="5.29976">
        <ele>233.4</ele>
        <time>2022-02-08T13:45:12Z</time>
      </trkpt>
      <trkpt lat="46.41114" lon="5.29979">
        <ele>233.6</ele>
        <time>2022-02-08T13:45:14Z</time>
      </trkpt>
      <trkpt lat="46.41055" lon="5.29987">
        <ele>233.4</ele>
        <time>2022-02-08T13:45:22Z</time>
      </trkpt>
      <trkpt lat="46.41018" lon="5.29996">
        <ele>233</ele>
        <time>2022-02-08T13:45:28Z</time>
      </trkpt>
      <trkpt lat="46.40997" lon="5.29997">
        <ele>233.4</ele>
        <time>2022-02-08T13:45:32Z</time>
      </trkpt>
      <trkpt lat="46.40986" lon="5.29998">
        <ele>233.4</ele>
        <time>2022-02-08T13:45:34Z</time>
      </trkpt>
      <trkpt lat="46.40979" lon="5.29998">
        <ele>233.6</ele>
        <time>2022-02-08T13:45:35Z</time>
      </trkpt>
      <trkpt lat="46.40962" lon="5.29997">
        <ele>233.6</ele>
        <time>2022-02-08T13:45:38Z</time>
      </trkpt>
      <trkpt lat="46.4093" lon="5.29997">
        <ele>233.6</ele>
        <time>2022-02-08T13:45:43Z</time>
      </trkpt>
      <trkpt lat="46.40919" lon="5.29995">
        <ele>233.6</ele>
        <time>2022-02-08T13:45:45Z</time>
      </trkpt>
      <trkpt lat="46.40875" lon="5.29992">
        <ele>233.6</ele>
        <time>2022-02-08T13:45:52Z</time>
      </trkpt>
      <trkpt lat="46.40851" lon="5.29988">
        <ele>234</ele>
        <time>2022-02-08T13:45:56Z</time>
      </trkpt>
      <trkpt lat="46.40845" lon="5.29987">
        <ele>234.2</ele>
        <time>2022-02-08T13:45:57Z</time>
      </trkpt>
      <trkpt lat="46.40833" lon="5.29982">
        <ele>234.4</ele>
        <time>2022-02-08T13:45:59Z</time>
      </trkpt>
      <trkpt lat="46.40826" lon="5.29981">
        <ele>234.6</ele>
        <time>2022-02-08T13:46:00Z</time>
      </trkpt>
      <trkpt lat="46.40811" lon="5.29977">
        <ele>234.8</ele>
        <time>2022-02-08T13:46:02Z</time>
      </trkpt>
      <trkpt lat="46.40785" lon="5.29966">
        <ele>235</ele>
        <time>2022-02-08T13:46:06Z</time>
      </trkpt>
      <trkpt lat="46.40772" lon="5.29961">
        <ele>235</ele>
        <time>2022-02-08T13:46:08Z</time>
      </trkpt>
      <trkpt lat="46.40759" lon="5.29957">
        <ele>235</ele>
        <time>2022-02-08T13:46:10Z</time>
      </trkpt>
      <trkpt lat="46.4074" lon="5.2995">
        <ele>234.4</ele>
        <time>2022-02-08T13:46:13Z</time>
      </trkpt>
      <trkpt lat="46.40718" lon="5.29934">
        <ele>234.2</ele>
        <time>2022-02-08T13:46:17Z</time>
      </trkpt>
      <trkpt lat="46.40713" lon="5.29931">
        <ele>234.2</ele>
        <time>2022-02-08T13:46:18Z</time>
      </trkpt>
      <trkpt lat="46.40677" lon="5.29906">
        <ele>234.6</ele>
        <time>2022-02-08T13:46:25Z</time>
      </trkpt>
      <trkpt lat="46.40671" lon="5.29902">
        <ele>234.8</ele>
        <time>2022-02-08T13:46:26Z</time>
      </trkpt>
      <trkpt lat="46.40652" lon="5.29885">
        <ele>234.6</ele>
        <time>2022-02-08T13:46:30Z</time>
      </trkpt>
      <trkpt lat="46.40644" lon="5.29876">
        <ele>234.8</ele>
        <time>2022-02-08T13:46:32Z</time>
      </trkpt>
      <trkpt lat="46.4064" lon="5.29872">
        <ele>234.8</ele>
        <time>2022-02-08T13:46:33Z</time>
      </trkpt>
      <trkpt lat="46.40623" lon="5.29851">
        <ele>235.2</ele>
        <time>2022-02-08T13:46:37Z</time>
      </trkpt>
      <trkpt lat="46.40609" lon="5.29839">
        <ele>235.2</ele>
        <time>2022-02-08T13:46:40Z</time>
      </trkpt>
      <trkpt lat="46.40599" lon="5.29832">
        <ele>235.4</ele>
        <time>2022-02-08T13:46:42Z</time>
      </trkpt>
      <trkpt lat="46.40588" lon="5.29828">
        <ele>235.4</ele>
        <time>2022-02-08T13:46:44Z</time>
      </trkpt>
      <trkpt lat="46.40582" lon="5.29828">
        <ele>235.4</ele>
        <time>2022-02-08T13:46:45Z</time>
      </trkpt>
      <trkpt lat="46.40545" lon="5.29822">
        <ele>235.4</ele>
        <time>2022-02-08T13:46:51Z</time>
      </trkpt>
      <trkpt lat="46.40495" lon="5.2982">
        <ele>235.8</ele>
        <time>2022-02-08T13:46:59Z</time>
      </trkpt>
      <trkpt lat="46.4049" lon="5.29819">
        <ele>235.8</ele>
        <time>2022-02-08T13:47:00Z</time>
      </trkpt>
      <trkpt lat="46.40433" lon="5.29814">
        <ele>235.8</ele>
        <time>2022-02-08T13:47:09Z</time>
      </trkpt>
      <trkpt lat="46.40375" lon="5.29807">
        <ele>235.4</ele>
        <time>2022-02-08T13:47:18Z</time>
      </trkpt>
      <trkpt lat="46.40318" lon="5.29799">
        <ele>235.4</ele>
        <time>2022-02-08T13:47:27Z</time>
      </trkpt>
      <trkpt lat="46.40311" lon="5.29798">
        <ele>235.4</ele>
        <time>2022-02-08T13:47:28Z</time>
      </trkpt>
      <trkpt lat="46.40274" lon="5.29792">
        <ele>235.2</ele>
        <time>2022-02-08T13:47:34Z</time>
      </trkpt>
      <trkpt lat="46.40213" lon="5.29784">
        <ele>235.2</ele>
        <time>2022-02-08T13:47:44Z</time>
      </trkpt>
      <trkpt lat="46.40187" lon="5.2978">
        <ele>235.2</ele>
        <time>2022-02-08T13:47:49Z</time>
      </trkpt>
      <trkpt lat="46.40142" lon="5.29779">
        <ele>235.4</ele>
        <time>2022-02-08T13:47:56Z</time>
      </trkpt>
      <trkpt lat="46.40087" lon="5.29787">
        <ele>235.6</ele>
        <time>2022-02-08T13:48:04Z</time>
      </trkpt>
      <trkpt lat="46.4003" lon="5.29794">
        <ele>235.4</ele>
        <time>2022-02-08T13:48:12Z</time>
      </trkpt>
      <trkpt lat="46.40016" lon="5.29796">
        <ele>235.4</ele>
        <time>2022-02-08T13:48:14Z</time>
      </trkpt>
      <trkpt lat="46.39958" lon="5.29802">
        <ele>235</ele>
        <time>2022-02-08T13:48:22Z</time>
      </trkpt>
      <trkpt lat="46.3995" lon="5.29804">
        <ele>235</ele>
        <time>2022-02-08T13:48:23Z</time>
      </trkpt>
      <trkpt lat="46.39909" lon="5.29809">
        <ele>233.8</ele>
        <time>2022-02-08T13:48:28Z</time>
      </trkpt>
      <trkpt lat="46.399" lon="5.29811">
        <ele>233.6</ele>
        <time>2022-02-08T13:48:29Z</time>
      </trkpt>
      <trkpt lat="46.39873" lon="5.29815">
        <ele>232.6</ele>
        <time>2022-02-08T13:48:32Z</time>
      </trkpt>
      <trkpt lat="46.39845" lon="5.29814">
        <ele>231.6</ele>
        <time>2022-02-08T13:48:35Z</time>
      </trkpt>
      <trkpt lat="46.39813" lon="5.29816">
        <ele>230</ele>
        <time>2022-02-08T13:48:38Z</time>
      </trkpt>
      <trkpt lat="46.39802" lon="5.29818">
        <ele>229.6</ele>
        <time>2022-02-08T13:48:39Z</time>
      </trkpt>
      <trkpt lat="46.3979" lon="5.2982">
        <ele>228.8</ele>
        <time>2022-02-08T13:48:40Z</time>
      </trkpt>
      <trkpt lat="46.39766" lon="5.29824">
        <ele>227.6</ele>
        <time>2022-02-08T13:48:42Z</time>
      </trkpt>
      <trkpt lat="46.3974" lon="5.29827">
        <ele>226.8</ele>
        <time>2022-02-08T13:48:44Z</time>
      </trkpt>
      <trkpt lat="46.39727" lon="5.29829">
        <ele>225.6</ele>
        <time>2022-02-08T13:48:45Z</time>
      </trkpt>
      <trkpt lat="46.39701" lon="5.2983">
        <ele>223</ele>
        <time>2022-02-08T13:48:47Z</time>
      </trkpt>
      <trkpt lat="46.39673" lon="5.29827">
        <ele>221.2</ele>
        <time>2022-02-08T13:48:49Z</time>
      </trkpt>
      <trkpt lat="46.3966" lon="5.29821">
        <ele>219.4</ele>
        <time>2022-02-08T13:48:50Z</time>
      </trkpt>
      <trkpt lat="46.39648" lon="5.2981">
        <ele>218.8</ele>
        <time>2022-02-08T13:48:51Z</time>
      </trkpt>
      <trkpt lat="46.39637" lon="5.29797">
        <ele>217.4</ele>
        <time>2022-02-08T13:48:52Z</time>
      </trkpt>
      <trkpt lat="46.39617" lon="5.29769">
        <ele>215.2</ele>
        <time>2022-02-08T13:48:54Z</time>
      </trkpt>
      <trkpt lat="46.39598" lon="5.29742">
        <ele>213</ele>
        <time>2022-02-08T13:48:56Z</time>
      </trkpt>
      <trkpt lat="46.39588" lon="5.29732">
        <ele>212</ele>
        <time>2022-02-08T13:48:57Z</time>
      </trkpt>
      <trkpt lat="46.39577" lon="5.29724">
        <ele>211.4</ele>
        <time>2022-02-08T13:48:58Z</time>
      </trkpt>
      <trkpt lat="46.39566" lon="5.29719">
        <ele>210.2</ele>
        <time>2022-02-08T13:48:59Z</time>
      </trkpt>
      <trkpt lat="46.39555" lon="5.29717">
        <ele>210</ele>
        <time>2022-02-08T13:49:00Z</time>
      </trkpt>
      <trkpt lat="46.39515" lon="5.29716">
        <ele>209.2</ele>
        <time>2022-02-08T13:49:04Z</time>
      </trkpt>
      <trkpt lat="46.39506" lon="5.29715">
        <ele>209.2</ele>
        <time>2022-02-08T13:49:05Z</time>
      </trkpt>
      <trkpt lat="46.39467" lon="5.29712">
        <ele>209.4</ele>
        <time>2022-02-08T13:49:10Z</time>
      </trkpt>
      <trkpt lat="46.39448" lon="5.2971">
        <ele>210.4</ele>
        <time>2022-02-08T13:49:13Z</time>
      </trkpt>
      <trkpt lat="46.39437" lon="5.2971">
        <ele>211</ele>
        <time>2022-02-08T13:49:15Z</time>
      </trkpt>
      <trkpt lat="46.39426" lon="5.29713">
        <ele>211.4</ele>
        <time>2022-02-08T13:49:17Z</time>
      </trkpt>
      <trkpt lat="46.39417" lon="5.29716">
        <ele>212.2</ele>
        <time>2022-02-08T13:49:19Z</time>
      </trkpt>
      <trkpt lat="46.39413" lon="5.29719">
        <ele>212.6</ele>
        <time>2022-02-08T13:49:20Z</time>
      </trkpt>
      <trkpt lat="46.39405" lon="5.29726">
        <ele>213.8</ele>
        <time>2022-02-08T13:49:22Z</time>
      </trkpt>
      <trkpt lat="46.39392" lon="5.29741">
        <ele>214.6</ele>
        <time>2022-02-08T13:49:26Z</time>
      </trkpt>
      <trkpt lat="46.39389" lon="5.29744">
        <ele>215</ele>
        <time>2022-02-08T13:49:27Z</time>
      </trkpt>
      <trkpt lat="46.39383" lon="5.29751">
        <ele>216.2</ele>
        <time>2022-02-08T13:49:29Z</time>
      </trkpt>
      <trkpt lat="46.3937" lon="5.29764">
        <ele>217.4</ele>
        <time>2022-02-08T13:49:33Z</time>
      </trkpt>
      <trkpt lat="46.39364" lon="5.29771">
        <ele>218.4</ele>
        <time>2022-02-08T13:49:35Z</time>
      </trkpt>
      <trkpt lat="46.39357" lon="5.29787">
        <ele>219.6</ele>
        <time>2022-02-08T13:49:38Z</time>
      </trkpt>
      <trkpt lat="46.39355" lon="5.29792">
        <ele>219.8</ele>
        <time>2022-02-08T13:49:39Z</time>
      </trkpt>
      <trkpt lat="46.39348" lon="5.29817">
        <ele>220.8</ele>
        <time>2022-02-08T13:49:43Z</time>
      </trkpt>
      <trkpt lat="46.39343" lon="5.29836">
        <ele>221.4</ele>
        <time>2022-02-08T13:49:46Z</time>
      </trkpt>
      <trkpt lat="46.39336" lon="5.29854">
        <ele>222</ele>
        <time>2022-02-08T13:49:49Z</time>
      </trkpt>
      <trkpt lat="46.3933" lon="5.29865">
        <ele>222.4</ele>
        <time>2022-02-08T13:49:51Z</time>
      </trkpt>
      <trkpt lat="46.39327" lon="5.29871">
        <ele>222.6</ele>
        <time>2022-02-08T13:49:52Z</time>
      </trkpt>
      <trkpt lat="46.39318" lon="5.29886">
        <ele>223</ele>
        <time>2022-02-08T13:49:55Z</time>
      </trkpt>
      <trkpt lat="46.39315" lon="5.29891">
        <ele>223</ele>
        <time>2022-02-08T13:49:56Z</time>
      </trkpt>
      <trkpt lat="46.39308" lon="5.29898">
        <ele>223.6</ele>
        <time>2022-02-08T13:49:58Z</time>
      </trkpt>
      <trkpt lat="46.39303" lon="5.29901">
        <ele>223.8</ele>
        <time>2022-02-08T13:49:59Z</time>
      </trkpt>
      <trkpt lat="46.39287" lon="5.2991">
        <ele>224.2</ele>
        <time>2022-02-08T13:50:03Z</time>
      </trkpt>
      <trkpt lat="46.39272" lon="5.29913">
        <ele>224.4</ele>
        <time>2022-02-08T13:50:06Z</time>
      </trkpt>
      <trkpt lat="46.39233" lon="5.29923">
        <ele>224.8</ele>
        <time>2022-02-08T13:50:13Z</time>
      </trkpt>
      <trkpt lat="46.39194" lon="5.29931">
        <ele>224</ele>
        <time>2022-02-08T13:50:19Z</time>
      </trkpt>
      <trkpt lat="46.39164" lon="5.29934">
        <ele>223.2</ele>
        <time>2022-02-08T13:50:23Z</time>
      </trkpt>
      <trkpt lat="46.39156" lon="5.29933">
        <ele>223</ele>
        <time>2022-02-08T13:50:24Z</time>
      </trkpt>
      <trkpt lat="46.39148" lon="5.29929">
        <ele>223</ele>
        <time>2022-02-08T13:50:25Z</time>
      </trkpt>
      <trkpt lat="46.39132" lon="5.29919">
        <ele>222.6</ele>
        <time>2022-02-08T13:50:27Z</time>
      </trkpt>
      <trkpt lat="46.39125" lon="5.29913">
        <ele>222.2</ele>
        <time>2022-02-08T13:50:28Z</time>
      </trkpt>
      <trkpt lat="46.39092" lon="5.29888">
        <ele>221.2</ele>
        <time>2022-02-08T13:50:32Z</time>
      </trkpt>
      <trkpt lat="46.39082" lon="5.29883">
        <ele>220.8</ele>
        <time>2022-02-08T13:50:33Z</time>
      </trkpt>
      <trkpt lat="46.39051" lon="5.2987">
        <ele>220.2</ele>
        <time>2022-02-08T13:50:36Z</time>
      </trkpt>
      <trkpt lat="46.3904" lon="5.29867">
        <ele>219</ele>
        <time>2022-02-08T13:50:37Z</time>
      </trkpt>
      <trkpt lat="46.39029" lon="5.29864">
        <ele>218.4</ele>
        <time>2022-02-08T13:50:38Z</time>
      </trkpt>
      <trkpt lat="46.39017" lon="5.29861">
        <ele>218</ele>
        <time>2022-02-08T13:50:39Z</time>
      </trkpt>
      <trkpt lat="46.39005" lon="5.29859">
        <ele>217</ele>
        <time>2022-02-08T13:50:40Z</time>
      </trkpt>
      <trkpt lat="46.3898" lon="5.29858">
        <ele>215.4</ele>
        <time>2022-02-08T13:50:42Z</time>
      </trkpt>
      <trkpt lat="46.38955" lon="5.29857">
        <ele>213.2</ele>
        <time>2022-02-08T13:50:44Z</time>
      </trkpt>
      <trkpt lat="46.38932" lon="5.29856">
        <ele>211.6</ele>
        <time>2022-02-08T13:50:46Z</time>
      </trkpt>
      <trkpt lat="46.3891" lon="5.29856">
        <ele>210</ele>
        <time>2022-02-08T13:50:48Z</time>
      </trkpt>
      <trkpt lat="46.38899" lon="5.29855">
        <ele>209.2</ele>
        <time>2022-02-08T13:50:49Z</time>
      </trkpt>
      <trkpt lat="46.38889" lon="5.29854">
        <ele>209</ele>
        <time>2022-02-08T13:50:50Z</time>
      </trkpt>
      <trkpt lat="46.38849" lon="5.29852">
        <ele>207.8</ele>
        <time>2022-02-08T13:50:54Z</time>
      </trkpt>
      <trkpt lat="46.3884" lon="5.29852">
        <ele>207.8</ele>
        <time>2022-02-08T13:50:55Z</time>
      </trkpt>
      <trkpt lat="46.38789" lon="5.2985">
        <ele>207.2</ele>
        <time>2022-02-08T13:51:01Z</time>
      </trkpt>
      <trkpt lat="46.38758" lon="5.29849">
        <ele>207</ele>
        <time>2022-02-08T13:51:05Z</time>
      </trkpt>
      <trkpt lat="46.38752" lon="5.29846">
        <ele>207</ele>
        <time>2022-02-08T13:51:06Z</time>
      </trkpt>
      <trkpt lat="46.38747" lon="5.29839">
        <ele>207</ele>
        <time>2022-02-08T13:51:07Z</time>
      </trkpt>
      <trkpt lat="46.38745" lon="5.29831">
        <ele>207</ele>
        <time>2022-02-08T13:51:08Z</time>
      </trkpt>
      <trkpt lat="46.38746" lon="5.29822">
        <ele>207</ele>
        <time>2022-02-08T13:51:09Z</time>
      </trkpt>
      <trkpt lat="46.38751" lon="5.29806">
        <ele>207</ele>
        <time>2022-02-08T13:51:11Z</time>
      </trkpt>
      <trkpt lat="46.38758" lon="5.29779">
        <ele>207</ele>
        <time>2022-02-08T13:51:14Z</time>
      </trkpt>
      <trkpt lat="46.3876" lon="5.2976">
        <ele>207</ele>
        <time>2022-02-08T13:51:16Z</time>
      </trkpt>
      <trkpt lat="46.38758" lon="5.29741">
        <ele>207.4</ele>
        <time>2022-02-08T13:51:18Z</time>
      </trkpt>
      <trkpt lat="46.38755" lon="5.29732">
        <ele>207.4</ele>
        <time>2022-02-08T13:51:19Z</time>
      </trkpt>
      <trkpt lat="46.38752" lon="5.29724">
        <ele>207.4</ele>
        <time>2022-02-08T13:51:20Z</time>
      </trkpt>
      <trkpt lat="46.38748" lon="5.29717">
        <ele>207.4</ele>
        <time>2022-02-08T13:51:21Z</time>
      </trkpt>
      <trkpt lat="46.38743" lon="5.2971">
        <ele>207.4</ele>
        <time>2022-02-08T13:51:22Z</time>
      </trkpt>
      <trkpt lat="46.38738" lon="5.29705">
        <ele>207.4</ele>
        <time>2022-02-08T13:51:23Z</time>
      </trkpt>
      <trkpt lat="46.38723" lon="5.29692">
        <ele>207.4</ele>
        <time>2022-02-08T13:51:26Z</time>
      </trkpt>
      <trkpt lat="46.38714" lon="5.29686">
        <ele>207.6</ele>
        <time>2022-02-08T13:51:28Z</time>
      </trkpt>
      <trkpt lat="46.38697" lon="5.29669">
        <ele>209.2</ele>
        <time>2022-02-08T13:51:33Z</time>
      </trkpt>
      <trkpt lat="46.38694" lon="5.29665">
        <ele>209.2</ele>
        <time>2022-02-08T13:51:34Z</time>
      </trkpt>
      <trkpt lat="46.38688" lon="5.29657">
        <ele>209.8</ele>
        <time>2022-02-08T13:51:36Z</time>
      </trkpt>
      <trkpt lat="46.38683" lon="5.29643">
        <ele>210.4</ele>
        <time>2022-02-08T13:51:39Z</time>
      </trkpt>
      <trkpt lat="46.38681" lon="5.29615">
        <ele>211.6</ele>
        <time>2022-02-08T13:51:44Z</time>
      </trkpt>
      <trkpt lat="46.38679" lon="5.29591">
        <ele>212.6</ele>
        <time>2022-02-08T13:51:48Z</time>
      </trkpt>
      <trkpt lat="46.38678" lon="5.29571">
        <ele>213.4</ele>
        <time>2022-02-08T13:51:52Z</time>
      </trkpt>
      <trkpt lat="46.38678" lon="5.29566">
        <ele>213.8</ele>
        <time>2022-02-08T13:51:53Z</time>
      </trkpt>
      <trkpt lat="46.38677" lon="5.29538">
        <ele>215.2</ele>
        <time>2022-02-08T13:51:58Z</time>
      </trkpt>
      <trkpt lat="46.38678" lon="5.29516">
        <ele>216.4</ele>
        <time>2022-02-08T13:52:02Z</time>
      </trkpt>
      <trkpt lat="46.3868" lon="5.29492">
        <ele>217.4</ele>
        <time>2022-02-08T13:52:07Z</time>
      </trkpt>
      <trkpt lat="46.38681" lon="5.29474">
        <ele>218.4</ele>
        <time>2022-02-08T13:52:11Z</time>
      </trkpt>
      <trkpt lat="46.38681" lon="5.29469">
        <ele>218.6</ele>
        <time>2022-02-08T13:52:12Z</time>
      </trkpt>
      <trkpt lat="46.38683" lon="5.29446">
        <ele>219.8</ele>
        <time>2022-02-08T13:52:17Z</time>
      </trkpt>
      <trkpt lat="46.38685" lon="5.29426">
        <ele>221.2</ele>
        <time>2022-02-08T13:52:21Z</time>
      </trkpt>
      <trkpt lat="46.38684" lon="5.29389">
        <ele>222.4</ele>
        <time>2022-02-08T13:52:29Z</time>
      </trkpt>
      <trkpt lat="46.38685" lon="5.29364">
        <ele>223.4</ele>
        <time>2022-02-08T13:52:34Z</time>
      </trkpt>
      <trkpt lat="46.38684" lon="5.29339">
        <ele>224.6</ele>
        <time>2022-02-08T13:52:39Z</time>
      </trkpt>
      <trkpt lat="46.38678" lon="5.29319">
        <ele>225.2</ele>
        <time>2022-02-08T13:52:43Z</time>
      </trkpt>
      <trkpt lat="46.38668" lon="5.29309">
        <ele>225.4</ele>
        <time>2022-02-08T13:52:46Z</time>
      </trkpt>
      <trkpt lat="46.38664" lon="5.29306">
        <ele>225.6</ele>
        <time>2022-02-08T13:52:47Z</time>
      </trkpt>
      <trkpt lat="46.3866" lon="5.29303">
        <ele>225.6</ele>
        <time>2022-02-08T13:52:48Z</time>
      </trkpt>
      <trkpt lat="46.38649" lon="5.293">
        <ele>225.6</ele>
        <time>2022-02-08T13:52:50Z</time>
      </trkpt>
      <trkpt lat="46.38641" lon="5.29299">
        <ele>225.6</ele>
        <time>2022-02-08T13:52:51Z</time>
      </trkpt>
      <trkpt lat="46.38606" lon="5.29298">
        <ele>224.8</ele>
        <time>2022-02-08T13:52:55Z</time>
      </trkpt>
      <trkpt lat="46.38595" lon="5.29297">
        <ele>224.2</ele>
        <time>2022-02-08T13:52:56Z</time>
      </trkpt>
      <trkpt lat="46.38573" lon="5.29292">
        <ele>222.8</ele>
        <time>2022-02-08T13:52:58Z</time>
      </trkpt>
      <trkpt lat="46.38562" lon="5.29286">
        <ele>222.2</ele>
        <time>2022-02-08T13:52:59Z</time>
      </trkpt>
      <trkpt lat="46.38552" lon="5.29278">
        <ele>221</ele>
        <time>2022-02-08T13:53:00Z</time>
      </trkpt>
      <trkpt lat="46.38534" lon="5.2926">
        <ele>219.2</ele>
        <time>2022-02-08T13:53:02Z</time>
      </trkpt>
      <trkpt lat="46.38526" lon="5.29253">
        <ele>218.6</ele>
        <time>2022-02-08T13:53:03Z</time>
      </trkpt>
      <trkpt lat="46.38518" lon="5.29247">
        <ele>217.4</ele>
        <time>2022-02-08T13:53:04Z</time>
      </trkpt>
      <trkpt lat="46.3851" lon="5.29245">
        <ele>216.2</ele>
        <time>2022-02-08T13:53:05Z</time>
      </trkpt>
      <trkpt lat="46.38495" lon="5.29255">
        <ele>214.2</ele>
        <time>2022-02-08T13:53:07Z</time>
      </trkpt>
      <trkpt lat="46.38484" lon="5.29275">
        <ele>212.8</ele>
        <time>2022-02-08T13:53:09Z</time>
      </trkpt>
      <trkpt lat="46.38478" lon="5.29285">
        <ele>212.2</ele>
        <time>2022-02-08T13:53:10Z</time>
      </trkpt>
      <trkpt lat="46.38472" lon="5.29294">
        <ele>211.4</ele>
        <time>2022-02-08T13:53:11Z</time>
      </trkpt>
      <trkpt lat="46.38464" lon="5.293">
        <ele>211</ele>
        <time>2022-02-08T13:53:12Z</time>
      </trkpt>
      <trkpt lat="46.38456" lon="5.29302">
        <ele>210.6</ele>
        <time>2022-02-08T13:53:13Z</time>
      </trkpt>
      <trkpt lat="46.38448" lon="5.293">
        <ele>210.2</ele>
        <time>2022-02-08T13:53:14Z</time>
      </trkpt>
      <trkpt lat="46.38441" lon="5.29294">
        <ele>210</ele>
        <time>2022-02-08T13:53:15Z</time>
      </trkpt>
      <trkpt lat="46.38435" lon="5.29286">
        <ele>209.8</ele>
        <time>2022-02-08T13:53:16Z</time>
      </trkpt>
      <trkpt lat="46.38417" lon="5.2926">
        <ele>209.4</ele>
        <time>2022-02-08T13:53:19Z</time>
      </trkpt>
      <trkpt lat="46.38404" lon="5.29243">
        <ele>209</ele>
        <time>2022-02-08T13:53:21Z</time>
      </trkpt>
      <trkpt lat="46.3839" lon="5.29231">
        <ele>209</ele>
        <time>2022-02-08T13:53:23Z</time>
      </trkpt>
      <trkpt lat="46.38339" lon="5.29196">
        <ele>208.6</ele>
        <time>2022-02-08T13:53:30Z</time>
      </trkpt>
      <trkpt lat="46.38318" lon="5.29183">
        <ele>208.6</ele>
        <time>2022-02-08T13:53:33Z</time>
      </trkpt>
      <trkpt lat="46.38296" lon="5.29172">
        <ele>208.6</ele>
        <time>2022-02-08T13:53:36Z</time>
      </trkpt>
      <trkpt lat="46.38281" lon="5.29169">
        <ele>208.6</ele>
        <time>2022-02-08T13:53:38Z</time>
      </trkpt>
      <trkpt lat="46.38267" lon="5.29171">
        <ele>208.4</ele>
        <time>2022-02-08T13:53:40Z</time>
      </trkpt>
      <trkpt lat="46.38253" lon="5.29178">
        <ele>208.4</ele>
        <time>2022-02-08T13:53:42Z</time>
      </trkpt>
      <trkpt lat="46.38212" lon="5.29201">
        <ele>208.2</ele>
        <time>2022-02-08T13:53:48Z</time>
      </trkpt>
      <trkpt lat="46.38198" lon="5.29208">
        <ele>208.2</ele>
        <time>2022-02-08T13:53:50Z</time>
      </trkpt>
      <trkpt lat="46.38185" lon="5.2922">
        <ele>208.4</ele>
        <time>2022-02-08T13:53:52Z</time>
      </trkpt>
      <trkpt lat="46.38161" lon="5.29245">
        <ele>208.6</ele>
        <time>2022-02-08T13:53:56Z</time>
      </trkpt>
      <trkpt lat="46.38147" lon="5.29252">
        <ele>208.6</ele>
        <time>2022-02-08T13:53:58Z</time>
      </trkpt>
      <trkpt lat="46.38132" lon="5.29255">
        <ele>208.6</ele>
        <time>2022-02-08T13:54:00Z</time>
      </trkpt>
      <trkpt lat="46.38118" lon="5.29254">
        <ele>208.6</ele>
        <time>2022-02-08T13:54:02Z</time>
      </trkpt>
      <trkpt lat="46.38105" lon="5.29252">
        <ele>208.6</ele>
        <time>2022-02-08T13:54:04Z</time>
      </trkpt>
      <trkpt lat="46.38092" lon="5.29255">
        <ele>208.8</ele>
        <time>2022-02-08T13:54:06Z</time>
      </trkpt>
      <trkpt lat="46.38059" lon="5.29273">
        <ele>209.8</ele>
        <time>2022-02-08T13:54:12Z</time>
      </trkpt>
      <trkpt lat="46.38051" lon="5.2928">
        <ele>210.2</ele>
        <time>2022-02-08T13:54:14Z</time>
      </trkpt>
      <trkpt lat="46.38047" lon="5.29284">
        <ele>210.4</ele>
        <time>2022-02-08T13:54:15Z</time>
      </trkpt>
      <trkpt lat="46.38036" lon="5.29294">
        <ele>211.4</ele>
        <time>2022-02-08T13:54:18Z</time>
      </trkpt>
      <trkpt lat="46.38023" lon="5.29308">
        <ele>212.8</ele>
        <time>2022-02-08T13:54:22Z</time>
      </trkpt>
      <trkpt lat="46.38014" lon="5.29319">
        <ele>213.8</ele>
        <time>2022-02-08T13:54:25Z</time>
      </trkpt>
      <trkpt lat="46.3801" lon="5.29323">
        <ele>213.8</ele>
        <time>2022-02-08T13:54:26Z</time>
      </trkpt>
      <trkpt lat="46.38007" lon="5.29327">
        <ele>214.4</ele>
        <time>2022-02-08T13:54:27Z</time>
      </trkpt>
      <trkpt lat="46.37998" lon="5.29333">
        <ele>215.2</ele>
        <time>2022-02-08T13:54:29Z</time>
      </trkpt>
      <trkpt lat="46.37985" lon="5.2934">
        <ele>216</ele>
        <time>2022-02-08T13:54:32Z</time>
      </trkpt>
      <trkpt lat="46.37976" lon="5.29344">
        <ele>216.4</ele>
        <time>2022-02-08T13:54:34Z</time>
      </trkpt>
      <trkpt lat="46.37955" lon="5.29352">
        <ele>217.6</ele>
        <time>2022-02-08T13:54:39Z</time>
      </trkpt>
      <trkpt lat="46.37951" lon="5.29353">
        <ele>217.8</ele>
        <time>2022-02-08T13:54:40Z</time>
      </trkpt>
      <trkpt lat="46.37939" lon="5.29356">
        <ele>218.8</ele>
        <time>2022-02-08T13:54:43Z</time>
      </trkpt>
      <trkpt lat="46.37926" lon="5.29359">
        <ele>220</ele>
        <time>2022-02-08T13:54:46Z</time>
      </trkpt>
      <trkpt lat="46.37917" lon="5.29361">
        <ele>220.4</ele>
        <time>2022-02-08T13:54:48Z</time>
      </trkpt>
      <trkpt lat="46.3791" lon="5.29363">
        <ele>221</ele>
        <time>2022-02-08T13:54:50Z</time>
      </trkpt>
      <trkpt lat="46.37897" lon="5.29366">
        <ele>222</ele>
        <time>2022-02-08T13:54:53Z</time>
      </trkpt>
      <trkpt lat="46.37883" lon="5.29372">
        <ele>223</ele>
        <time>2022-02-08T13:54:57Z</time>
      </trkpt>
      <trkpt lat="46.37878" lon="5.29374">
        <ele>223</ele>
        <time>2022-02-08T13:54:58Z</time>
      </trkpt>
      <trkpt lat="46.37863" lon="5.29379">
        <ele>224.2</ele>
        <time>2022-02-08T13:55:02Z</time>
      </trkpt>
      <trkpt lat="46.37851" lon="5.29385">
        <ele>224.8</ele>
        <time>2022-02-08T13:55:05Z</time>
      </trkpt>
      <trkpt lat="46.37837" lon="5.29394">
        <ele>225.4</ele>
        <time>2022-02-08T13:55:09Z</time>
      </trkpt>
      <trkpt lat="46.37833" lon="5.29397">
        <ele>225.6</ele>
        <time>2022-02-08T13:55:10Z</time>
      </trkpt>
      <trkpt lat="46.37816" lon="5.29412">
        <ele>226.6</ele>
        <time>2022-02-08T13:55:15Z</time>
      </trkpt>
      <trkpt lat="46.37795" lon="5.29431">
        <ele>227.6</ele>
        <time>2022-02-08T13:55:20Z</time>
      </trkpt>
      <trkpt lat="46.37778" lon="5.29448">
        <ele>227.8</ele>
        <time>2022-02-08T13:55:24Z</time>
      </trkpt>
      <trkpt lat="46.37766" lon="5.29461">
        <ele>228</ele>
        <time>2022-02-08T13:55:27Z</time>
      </trkpt>
      <trkpt lat="46.37762" lon="5.29465">
        <ele>228</ele>
        <time>2022-02-08T13:55:28Z</time>
      </trkpt>
      <trkpt lat="46.37749" lon="5.29474">
        <ele>228.2</ele>
        <time>2022-02-08T13:55:31Z</time>
      </trkpt>
      <trkpt lat="46.37745" lon="5.29475">
        <ele>228.4</ele>
        <time>2022-02-08T13:55:32Z</time>
      </trkpt>
      <trkpt lat="46.37733" lon="5.29477">
        <ele>228.8</ele>
        <time>2022-02-08T13:55:35Z</time>
      </trkpt>
      <trkpt lat="46.37721" lon="5.29477">
        <ele>229.8</ele>
        <time>2022-02-08T13:55:38Z</time>
      </trkpt>
      <trkpt lat="46.37717" lon="5.29477">
        <ele>230</ele>
        <time>2022-02-08T13:55:39Z</time>
      </trkpt>
      <trkpt lat="46.37709" lon="5.29477">
        <ele>231</ele>
        <time>2022-02-08T13:55:41Z</time>
      </trkpt>
      <trkpt lat="46.37688" lon="5.29478">
        <ele>232.2</ele>
        <time>2022-02-08T13:55:46Z</time>
      </trkpt>
      <trkpt lat="46.37676" lon="5.29479">
        <ele>232.8</ele>
        <time>2022-02-08T13:55:49Z</time>
      </trkpt>
      <trkpt lat="46.37672" lon="5.29479">
        <ele>233.2</ele>
        <time>2022-02-08T13:55:50Z</time>
      </trkpt>
      <trkpt lat="46.37655" lon="5.29475">
        <ele>234.2</ele>
        <time>2022-02-08T13:55:54Z</time>
      </trkpt>
      <trkpt lat="46.37647" lon="5.29471">
        <ele>234.6</ele>
        <time>2022-02-08T13:55:56Z</time>
      </trkpt>
      <trkpt lat="46.37634" lon="5.29464">
        <ele>235.4</ele>
        <time>2022-02-08T13:55:59Z</time>
      </trkpt>
      <trkpt lat="46.37608" lon="5.29453">
        <ele>235.8</ele>
        <time>2022-02-08T13:56:04Z</time>
      </trkpt>
      <trkpt lat="46.37572" lon="5.29442">
        <ele>235.6</ele>
        <time>2022-02-08T13:56:10Z</time>
      </trkpt>
      <trkpt lat="46.37546" lon="5.29432">
        <ele>235.2</ele>
        <time>2022-02-08T13:56:14Z</time>
      </trkpt>
      <trkpt lat="46.3754" lon="5.29427">
        <ele>235</ele>
        <time>2022-02-08T13:56:15Z</time>
      </trkpt>
      <trkpt lat="46.37535" lon="5.29422">
        <ele>235</ele>
        <time>2022-02-08T13:56:16Z</time>
      </trkpt>
      <trkpt lat="46.37515" lon="5.29398">
        <ele>234.8</ele>
        <time>2022-02-08T13:56:20Z</time>
      </trkpt>
      <trkpt lat="46.37479" lon="5.29346">
        <ele>235.2</ele>
        <time>2022-02-08T13:56:28Z</time>
      </trkpt>
      <trkpt lat="46.37456" lon="5.29294">
        <ele>235.8</ele>
        <time>2022-02-08T13:56:35Z</time>
      </trkpt>
      <trkpt lat="46.37429" lon="5.29252">
        <ele>236</ele>
        <time>2022-02-08T13:56:41Z</time>
      </trkpt>
      <trkpt lat="46.3742" lon="5.29238">
        <ele>236</ele>
        <time>2022-02-08T13:56:43Z</time>
      </trkpt>
      <trkpt lat="46.37414" lon="5.29222">
        <ele>235.8</ele>
        <time>2022-02-08T13:56:45Z</time>
      </trkpt>
      <trkpt lat="46.37403" lon="5.29187">
        <ele>235.8</ele>
        <time>2022-02-08T13:56:49Z</time>
      </trkpt>
      <trkpt lat="46.37399" lon="5.2918">
        <ele>235.8</ele>
        <time>2022-02-08T13:56:50Z</time>
      </trkpt>
      <trkpt lat="46.37395" lon="5.29172">
        <ele>235.8</ele>
        <time>2022-02-08T13:56:51Z</time>
      </trkpt>
      <trkpt lat="46.37362" lon="5.29118">
        <ele>236.2</ele>
        <time>2022-02-08T13:56:59Z</time>
      </trkpt>
      <trkpt lat="46.37357" lon="5.29102">
        <ele>236.4</ele>
        <time>2022-02-08T13:57:01Z</time>
      </trkpt>
      <trkpt lat="46.37353" lon="5.29085">
        <ele>236.8</ele>
        <time>2022-02-08T13:57:03Z</time>
      </trkpt>
      <trkpt lat="46.37351" lon="5.29076">
        <ele>236.8</ele>
        <time>2022-02-08T13:57:04Z</time>
      </trkpt>
      <trkpt lat="46.37346" lon="5.29061">
        <ele>237</ele>
        <time>2022-02-08T13:57:06Z</time>
      </trkpt>
      <trkpt lat="46.37341" lon="5.29055">
        <ele>237</ele>
        <time>2022-02-08T13:57:07Z</time>
      </trkpt>
      <trkpt lat="46.37337" lon="5.2905">
        <ele>237.2</ele>
        <time>2022-02-08T13:57:08Z</time>
      </trkpt>
      <trkpt lat="46.3732" lon="5.29039">
        <ele>237.4</ele>
        <time>2022-02-08T13:57:11Z</time>
      </trkpt>
      <trkpt lat="46.37297" lon="5.2903">
        <ele>237.8</ele>
        <time>2022-02-08T13:57:15Z</time>
      </trkpt>
      <trkpt lat="46.37286" lon="5.29027">
        <ele>238.2</ele>
        <time>2022-02-08T13:57:17Z</time>
      </trkpt>
      <trkpt lat="46.3728" lon="5.29028">
        <ele>238.4</ele>
        <time>2022-02-08T13:57:18Z</time>
      </trkpt>
      <trkpt lat="46.37268" lon="5.2903">
        <ele>238.6</ele>
        <time>2022-02-08T13:57:20Z</time>
      </trkpt>
      <trkpt lat="46.37263" lon="5.29033">
        <ele>238.6</ele>
        <time>2022-02-08T13:57:21Z</time>
      </trkpt>
      <trkpt lat="46.37257" lon="5.29037">
        <ele>238.8</ele>
        <time>2022-02-08T13:57:22Z</time>
      </trkpt>
      <trkpt lat="46.37252" lon="5.29042">
        <ele>239</ele>
        <time>2022-02-08T13:57:23Z</time>
      </trkpt>
      <trkpt lat="46.37232" lon="5.29058">
        <ele>239.4</ele>
        <time>2022-02-08T13:57:27Z</time>
      </trkpt>
      <trkpt lat="46.37208" lon="5.29061">
        <ele>239.8</ele>
        <time>2022-02-08T13:57:31Z</time>
      </trkpt>
      <trkpt lat="46.37196" lon="5.29062">
        <ele>240</ele>
        <time>2022-02-08T13:57:33Z</time>
      </trkpt>
      <trkpt lat="46.37172" lon="5.2906">
        <ele>240.4</ele>
        <time>2022-02-08T13:57:37Z</time>
      </trkpt>
      <trkpt lat="46.37166" lon="5.29056">
        <ele>240.6</ele>
        <time>2022-02-08T13:57:38Z</time>
      </trkpt>
      <trkpt lat="46.37162" lon="5.2905">
        <ele>240.6</ele>
        <time>2022-02-08T13:57:39Z</time>
      </trkpt>
      <trkpt lat="46.37157" lon="5.29034">
        <ele>240.6</ele>
        <time>2022-02-08T13:57:41Z</time>
      </trkpt>
      <trkpt lat="46.37155" lon="5.29025">
        <ele>240.8</ele>
        <time>2022-02-08T13:57:42Z</time>
      </trkpt>
      <trkpt lat="46.37144" lon="5.29012">
        <ele>240.8</ele>
        <time>2022-02-08T13:57:44Z</time>
      </trkpt>
      <trkpt lat="46.37131" lon="5.29007">
        <ele>240.8</ele>
        <time>2022-02-08T13:57:46Z</time>
      </trkpt>
      <trkpt lat="46.37117" lon="5.29007">
        <ele>240.8</ele>
        <time>2022-02-08T13:57:48Z</time>
      </trkpt>
      <trkpt lat="46.37061" lon="5.29014">
        <ele>240.6</ele>
        <time>2022-02-08T13:57:56Z</time>
      </trkpt>
      <trkpt lat="46.37053" lon="5.29015">
        <ele>240.6</ele>
        <time>2022-02-08T13:57:57Z</time>
      </trkpt>
      <trkpt lat="46.3704" lon="5.2902">
        <ele>240.4</ele>
        <time>2022-02-08T13:57:59Z</time>
      </trkpt>
      <trkpt lat="46.37036" lon="5.29026">
        <ele>240.4</ele>
        <time>2022-02-08T13:58:00Z</time>
      </trkpt>
      <trkpt lat="46.37033" lon="5.29034">
        <ele>240.4</ele>
        <time>2022-02-08T13:58:01Z</time>
      </trkpt>
      <trkpt lat="46.37033" lon="5.29053">
        <ele>240.2</ele>
        <time>2022-02-08T13:58:03Z</time>
      </trkpt>
      <trkpt lat="46.37043" lon="5.29101">
        <ele>240.2</ele>
        <time>2022-02-08T13:58:08Z</time>
      </trkpt>
      <trkpt lat="46.3705" lon="5.29141">
        <ele>240.2</ele>
        <time>2022-02-08T13:58:12Z</time>
      </trkpt>
      <trkpt lat="46.37049" lon="5.2915">
        <ele>240.2</ele>
        <time>2022-02-08T13:58:13Z</time>
      </trkpt>
      <trkpt lat="46.37045" lon="5.29157">
        <ele>240.2</ele>
        <time>2022-02-08T13:58:14Z</time>
      </trkpt>
      <trkpt lat="46.37039" lon="5.29161">
        <ele>240.2</ele>
        <time>2022-02-08T13:58:15Z</time>
      </trkpt>
      <trkpt lat="46.37032" lon="5.29163">
        <ele>240.2</ele>
        <time>2022-02-08T13:58:16Z</time>
      </trkpt>
      <trkpt lat="46.37018" lon="5.29163">
        <ele>240.2</ele>
        <time>2022-02-08T13:58:18Z</time>
      </trkpt>
      <trkpt lat="46.36964" lon="5.29162">
        <ele>240</ele>
        <time>2022-02-08T13:58:25Z</time>
      </trkpt>
      <trkpt lat="46.36942" lon="5.29154">
        <ele>240</ele>
        <time>2022-02-08T13:58:28Z</time>
      </trkpt>
      <trkpt lat="46.36936" lon="5.29149">
        <ele>240</ele>
        <time>2022-02-08T13:58:29Z</time>
      </trkpt>
      <trkpt lat="46.36929" lon="5.29143">
        <ele>239.8</ele>
        <time>2022-02-08T13:58:30Z</time>
      </trkpt>
      <trkpt lat="46.36906" lon="5.29115">
        <ele>239.6</ele>
        <time>2022-02-08T13:58:34Z</time>
      </trkpt>
      <trkpt lat="46.36877" lon="5.29086">
        <ele>239.2</ele>
        <time>2022-02-08T13:58:39Z</time>
      </trkpt>
      <trkpt lat="46.36844" lon="5.29069">
        <ele>239</ele>
        <time>2022-02-08T13:58:44Z</time>
      </trkpt>
      <trkpt lat="46.36808" lon="5.29067">
        <ele>238.6</ele>
        <time>2022-02-08T13:58:49Z</time>
      </trkpt>
      <trkpt lat="46.36788" lon="5.29074">
        <ele>238.2</ele>
        <time>2022-02-08T13:58:52Z</time>
      </trkpt>
      <trkpt lat="46.36783" lon="5.29075">
        <ele>238</ele>
        <time>2022-02-08T13:58:53Z</time>
      </trkpt>
      <trkpt lat="46.36774" lon="5.29076">
        <ele>237.4</ele>
        <time>2022-02-08T13:58:56Z</time>
      </trkpt>
      <trkpt lat="46.36774" lon="5.29076">
        <ele>237</ele>
        <time>2022-02-08T13:58:58Z</time>
      </trkpt>
      <trkpt lat="46.3677" lon="5.29072">
        <ele>236.2</ele>
        <time>2022-02-08T13:59:07Z</time>
      </trkpt>
      <trkpt lat="46.36759" lon="5.29059">
        <ele>236.2</ele>
        <time>2022-02-08T13:59:11Z</time>
      </trkpt>
      <trkpt lat="46.36734" lon="5.29028">
        <ele>236.4</ele>
        <time>2022-02-08T13:59:17Z</time>
      </trkpt>
      <trkpt lat="46.36729" lon="5.29023">
        <ele>236.4</ele>
        <time>2022-02-08T13:59:18Z</time>
      </trkpt>
      <trkpt lat="46.36716" lon="5.29016">
        <ele>236.6</ele>
        <time>2022-02-08T13:59:20Z</time>
      </trkpt>
      <trkpt lat="46.36702" lon="5.29015">
        <ele>236.4</ele>
        <time>2022-02-08T13:59:22Z</time>
      </trkpt>
      <trkpt lat="46.36687" lon="5.29017">
        <ele>236.4</ele>
        <time>2022-02-08T13:59:24Z</time>
      </trkpt>
      <trkpt lat="46.36628" lon="5.29025">
        <ele>236</ele>
        <time>2022-02-08T13:59:32Z</time>
      </trkpt>
      <trkpt lat="46.36621" lon="5.29026">
        <ele>236</ele>
        <time>2022-02-08T13:59:33Z</time>
      </trkpt>
      <trkpt lat="46.36563" lon="5.29036">
        <ele>236</ele>
        <time>2022-02-08T13:59:41Z</time>
      </trkpt>
      <trkpt lat="46.3654" lon="5.29038">
        <ele>235.8</ele>
        <time>2022-02-08T13:59:44Z</time>
      </trkpt>
      <trkpt lat="46.36502" lon="5.29042">
        <ele>235.8</ele>
        <time>2022-02-08T13:59:49Z</time>
      </trkpt>
      <trkpt lat="46.3646" lon="5.29044">
        <ele>236.2</ele>
        <time>2022-02-08T13:59:55Z</time>
      </trkpt>
      <trkpt lat="46.36402" lon="5.29049">
        <ele>236.6</ele>
        <time>2022-02-08T14:00:03Z</time>
      </trkpt>
      <trkpt lat="46.36395" lon="5.2905">
        <ele>236.6</ele>
        <time>2022-02-08T14:00:04Z</time>
      </trkpt>
      <trkpt lat="46.36338" lon="5.2906">
        <ele>236.6</ele>
        <time>2022-02-08T14:00:12Z</time>
      </trkpt>
      <trkpt lat="46.36325" lon="5.29062">
        <ele>236.6</ele>
        <time>2022-02-08T14:00:14Z</time>
      </trkpt>
      <trkpt lat="46.36281" lon="5.29071">
        <ele>237.2</ele>
        <time>2022-02-08T14:00:21Z</time>
      </trkpt>
      <trkpt lat="46.36269" lon="5.29073">
        <ele>237.2</ele>
        <time>2022-02-08T14:00:23Z</time>
      </trkpt>
      <trkpt lat="46.36263" lon="5.29075">
        <ele>237.2</ele>
        <time>2022-02-08T14:00:24Z</time>
      </trkpt>
      <trkpt lat="46.36253" lon="5.29082">
        <ele>237.6</ele>
        <time>2022-02-08T14:00:26Z</time>
      </trkpt>
      <trkpt lat="46.36248" lon="5.29087">
        <ele>237.8</ele>
        <time>2022-02-08T14:00:27Z</time>
      </trkpt>
      <trkpt lat="46.36244" lon="5.29094">
        <ele>237.8</ele>
        <time>2022-02-08T14:00:28Z</time>
      </trkpt>
      <trkpt lat="46.36234" lon="5.29115">
        <ele>238.2</ele>
        <time>2022-02-08T14:00:31Z</time>
      </trkpt>
      <trkpt lat="46.36229" lon="5.29119">
        <ele>238.2</ele>
        <time>2022-02-08T14:00:32Z</time>
      </trkpt>
      <trkpt lat="46.36223" lon="5.29122">
        <ele>238.2</ele>
        <time>2022-02-08T14:00:33Z</time>
      </trkpt>
      <trkpt lat="46.36217" lon="5.29124">
        <ele>238.4</ele>
        <time>2022-02-08T14:00:34Z</time>
      </trkpt>
      <trkpt lat="46.36212" lon="5.29125">
        <ele>238.4</ele>
        <time>2022-02-08T14:00:35Z</time>
      </trkpt>
      <trkpt lat="46.36204" lon="5.29133">
        <ele>238.8</ele>
        <time>2022-02-08T14:00:37Z</time>
      </trkpt>
      <trkpt lat="46.36202" lon="5.29149">
        <ele>239</ele>
        <time>2022-02-08T14:00:39Z</time>
      </trkpt>
      <trkpt lat="46.36202" lon="5.29157">
        <ele>239</ele>
        <time>2022-02-08T14:00:40Z</time>
      </trkpt>
      <trkpt lat="46.36203" lon="5.29176">
        <ele>239.2</ele>
        <time>2022-02-08T14:00:42Z</time>
      </trkpt>
      <trkpt lat="46.36208" lon="5.29196">
        <ele>239.2</ele>
        <time>2022-02-08T14:00:44Z</time>
      </trkpt>
      <trkpt lat="46.36223" lon="5.29242">
        <ele>239</ele>
        <time>2022-02-08T14:00:48Z</time>
      </trkpt>
      <trkpt lat="46.36232" lon="5.29284">
        <ele>238</ele>
        <time>2022-02-08T14:00:51Z</time>
      </trkpt>
      <trkpt lat="46.36234" lon="5.29298">
        <ele>237</ele>
        <time>2022-02-08T14:00:52Z</time>
      </trkpt>
      <trkpt lat="46.36236" lon="5.29312">
        <ele>236.2</ele>
        <time>2022-02-08T14:00:53Z</time>
      </trkpt>
      <trkpt lat="46.36238" lon="5.2934">
        <ele>234.8</ele>
        <time>2022-02-08T14:00:55Z</time>
      </trkpt>
      <trkpt lat="46.36241" lon="5.29366">
        <ele>234</ele>
        <time>2022-02-08T14:00:57Z</time>
      </trkpt>
      <trkpt lat="46.36243" lon="5.29378">
        <ele>233.8</ele>
        <time>2022-02-08T14:00:58Z</time>
      </trkpt>
      <trkpt lat="46.3625" lon="5.29434">
        <ele>233.4</ele>
        <time>2022-02-08T14:01:03Z</time>
      </trkpt>
      <trkpt lat="46.36251" lon="5.29444">
        <ele>233.6</ele>
        <time>2022-02-08T14:01:04Z</time>
      </trkpt>
      <trkpt lat="46.36248" lon="5.29461">
        <ele>233.8</ele>
        <time>2022-02-08T14:01:06Z</time>
      </trkpt>
      <trkpt lat="46.36239" lon="5.29469">
        <ele>234</ele>
        <time>2022-02-08T14:01:08Z</time>
      </trkpt>
      <trkpt lat="46.36233" lon="5.29471">
        <ele>234.2</ele>
        <time>2022-02-08T14:01:09Z</time>
      </trkpt>
      <trkpt lat="46.36223" lon="5.29476">
        <ele>234.8</ele>
        <time>2022-02-08T14:01:11Z</time>
      </trkpt>
      <trkpt lat="46.36214" lon="5.29484">
        <ele>235.6</ele>
        <time>2022-02-08T14:01:13Z</time>
      </trkpt>
      <trkpt lat="46.36199" lon="5.29496">
        <ele>236.6</ele>
        <time>2022-02-08T14:01:16Z</time>
      </trkpt>
      <trkpt lat="46.36187" lon="5.2951">
        <ele>237.4</ele>
        <time>2022-02-08T14:01:19Z</time>
      </trkpt>
      <trkpt lat="46.36182" lon="5.29513">
        <ele>237.8</ele>
        <time>2022-02-08T14:01:20Z</time>
      </trkpt>
      <trkpt lat="46.36159" lon="5.29525">
        <ele>238.8</ele>
        <time>2022-02-08T14:01:24Z</time>
      </trkpt>
      <trkpt lat="46.36152" lon="5.29527">
        <ele>239</ele>
        <time>2022-02-08T14:01:25Z</time>
      </trkpt>
      <trkpt lat="46.36106" lon="5.29534">
        <ele>238.8</ele>
        <time>2022-02-08T14:01:31Z</time>
      </trkpt>
      <trkpt lat="46.36049" lon="5.2954">
        <ele>237.8</ele>
        <time>2022-02-08T14:01:38Z</time>
      </trkpt>
      <trkpt lat="46.36025" lon="5.29543">
        <ele>237.8</ele>
        <time>2022-02-08T14:01:41Z</time>
      </trkpt>
      <trkpt lat="46.36009" lon="5.29544">
        <ele>237.6</ele>
        <time>2022-02-08T14:01:43Z</time>
      </trkpt>
      <trkpt lat="46.35978" lon="5.29549">
        <ele>237.6</ele>
        <time>2022-02-08T14:01:47Z</time>
      </trkpt>
      <trkpt lat="46.35917" lon="5.29554">
        <ele>237.6</ele>
        <time>2022-02-08T14:01:55Z</time>
      </trkpt>
      <trkpt lat="46.3591" lon="5.29554">
        <ele>237.6</ele>
        <time>2022-02-08T14:01:56Z</time>
      </trkpt>
      <trkpt lat="46.35897" lon="5.29553">
        <ele>237.6</ele>
        <time>2022-02-08T14:01:58Z</time>
      </trkpt>
      <trkpt lat="46.35877" lon="5.29547">
        <ele>237.8</ele>
        <time>2022-02-08T14:02:01Z</time>
      </trkpt>
      <trkpt lat="46.35865" lon="5.29544">
        <ele>238.2</ele>
        <time>2022-02-08T14:02:03Z</time>
      </trkpt>
      <trkpt lat="46.35841" lon="5.29543">
        <ele>239</ele>
        <time>2022-02-08T14:02:07Z</time>
      </trkpt>
      <trkpt lat="46.35824" lon="5.29542">
        <ele>240</ele>
        <time>2022-02-08T14:02:10Z</time>
      </trkpt>
      <trkpt lat="46.35792" lon="5.29541">
        <ele>240.8</ele>
        <time>2022-02-08T14:02:15Z</time>
      </trkpt>
      <trkpt lat="46.3578" lon="5.2954">
        <ele>241.2</ele>
        <time>2022-02-08T14:02:17Z</time>
      </trkpt>
      <trkpt lat="46.35768" lon="5.29538">
        <ele>241.6</ele>
        <time>2022-02-08T14:02:19Z</time>
      </trkpt>
      <trkpt lat="46.35757" lon="5.29537">
        <ele>241.8</ele>
        <time>2022-02-08T14:02:21Z</time>
      </trkpt>
      <trkpt lat="46.35726" lon="5.29538">
        <ele>242.2</ele>
        <time>2022-02-08T14:02:26Z</time>
      </trkpt>
      <trkpt lat="46.3572" lon="5.29541">
        <ele>242.4</ele>
        <time>2022-02-08T14:02:27Z</time>
      </trkpt>
      <trkpt lat="46.35696" lon="5.29554">
        <ele>242.8</ele>
        <time>2022-02-08T14:02:31Z</time>
      </trkpt>
      <trkpt lat="46.35691" lon="5.2956">
        <ele>243</ele>
        <time>2022-02-08T14:02:32Z</time>
      </trkpt>
      <trkpt lat="46.35681" lon="5.29569">
        <ele>243.2</ele>
        <time>2022-02-08T14:02:34Z</time>
      </trkpt>
      <trkpt lat="46.35662" lon="5.29588">
        <ele>243.6</ele>
        <time>2022-02-08T14:02:38Z</time>
      </trkpt>
      <trkpt lat="46.35626" lon="5.29611">
        <ele>243.6</ele>
        <time>2022-02-08T14:02:44Z</time>
      </trkpt>
      <trkpt lat="46.35571" lon="5.29637">
        <ele>243.6</ele>
        <time>2022-02-08T14:02:53Z</time>
      </trkpt>
      <trkpt lat="46.35558" lon="5.29641">
        <ele>243.6</ele>
        <time>2022-02-08T14:02:55Z</time>
      </trkpt>
      <trkpt lat="46.35516" lon="5.29648">
        <ele>243.6</ele>
        <time>2022-02-08T14:03:01Z</time>
      </trkpt>
      <trkpt lat="46.35509" lon="5.2965">
        <ele>243.4</ele>
        <time>2022-02-08T14:03:02Z</time>
      </trkpt>
      <trkpt lat="46.35495" lon="5.29657">
        <ele>243.4</ele>
        <time>2022-02-08T14:03:04Z</time>
      </trkpt>
      <trkpt lat="46.35485" lon="5.29673">
        <ele>243.2</ele>
        <time>2022-02-08T14:03:06Z</time>
      </trkpt>
      <trkpt lat="46.35481" lon="5.29681">
        <ele>243.2</ele>
        <time>2022-02-08T14:03:07Z</time>
      </trkpt>
      <trkpt lat="46.35476" lon="5.29689">
        <ele>243</ele>
        <time>2022-02-08T14:03:08Z</time>
      </trkpt>
      <trkpt lat="46.35463" lon="5.29697">
        <ele>243</ele>
        <time>2022-02-08T14:03:10Z</time>
      </trkpt>
      <trkpt lat="46.35441" lon="5.29693">
        <ele>242.8</ele>
        <time>2022-02-08T14:03:13Z</time>
      </trkpt>
      <trkpt lat="46.35383" lon="5.29673">
        <ele>243.6</ele>
        <time>2022-02-08T14:03:21Z</time>
      </trkpt>
      <trkpt lat="46.35368" lon="5.29667">
        <ele>243.8</ele>
        <time>2022-02-08T14:03:23Z</time>
      </trkpt>
      <trkpt lat="46.35309" lon="5.2965">
        <ele>244.2</ele>
        <time>2022-02-08T14:03:31Z</time>
      </trkpt>
      <trkpt lat="46.35301" lon="5.29648">
        <ele>244.2</ele>
        <time>2022-02-08T14:03:32Z</time>
      </trkpt>
      <trkpt lat="46.35241" lon="5.29643">
        <ele>244</ele>
        <time>2022-02-08T14:03:40Z</time>
      </trkpt>
      <trkpt lat="46.35189" lon="5.29651">
        <ele>243.6</ele>
        <time>2022-02-08T14:03:47Z</time>
      </trkpt>
      <trkpt lat="46.35163" lon="5.29657">
        <ele>242.8</ele>
        <time>2022-02-08T14:03:52Z</time>
      </trkpt>
      <trkpt lat="46.35145" lon="5.29658">
        <ele>242.2</ele>
        <time>2022-02-08T14:03:55Z</time>
      </trkpt>
      <trkpt lat="46.35133" lon="5.29659">
        <ele>242</ele>
        <time>2022-02-08T14:03:57Z</time>
      </trkpt>
      <trkpt lat="46.35112" lon="5.29661">
        <ele>240.8</ele>
        <time>2022-02-08T14:04:00Z</time>
      </trkpt>
      <trkpt lat="46.35098" lon="5.29662">
        <ele>240.4</ele>
        <time>2022-02-08T14:04:02Z</time>
      </trkpt>
      <trkpt lat="46.35083" lon="5.29661">
        <ele>240.4</ele>
        <time>2022-02-08T14:04:04Z</time>
      </trkpt>
      <trkpt lat="46.35068" lon="5.29658">
        <ele>240.2</ele>
        <time>2022-02-08T14:04:06Z</time>
      </trkpt>
      <trkpt lat="46.35061" lon="5.29655">
        <ele>240.2</ele>
        <time>2022-02-08T14:04:07Z</time>
      </trkpt>
      <trkpt lat="46.35021" lon="5.29636">
        <ele>240.4</ele>
        <time>2022-02-08T14:04:13Z</time>
      </trkpt>
      <trkpt lat="46.34977" lon="5.29632">
        <ele>241.8</ele>
        <time>2022-02-08T14:04:20Z</time>
      </trkpt>
      <trkpt lat="46.3497" lon="5.29634">
        <ele>242.2</ele>
        <time>2022-02-08T14:04:21Z</time>
      </trkpt>
      <trkpt lat="46.34958" lon="5.29642">
        <ele>242.6</ele>
        <time>2022-02-08T14:04:23Z</time>
      </trkpt>
      <trkpt lat="46.34952" lon="5.29647">
        <ele>242.8</ele>
        <time>2022-02-08T14:04:24Z</time>
      </trkpt>
      <trkpt lat="46.34947" lon="5.29653">
        <ele>242.8</ele>
        <time>2022-02-08T14:04:25Z</time>
      </trkpt>
      <trkpt lat="46.3494" lon="5.29659">
        <ele>243</ele>
        <time>2022-02-08T14:04:26Z</time>
      </trkpt>
      <trkpt lat="46.34926" lon="5.29665">
        <ele>243</ele>
        <time>2022-02-08T14:04:28Z</time>
      </trkpt>
      <trkpt lat="46.34911" lon="5.29661">
        <ele>243</ele>
        <time>2022-02-08T14:04:30Z</time>
      </trkpt>
      <trkpt lat="46.34904" lon="5.29657">
        <ele>243</ele>
        <time>2022-02-08T14:04:31Z</time>
      </trkpt>
      <trkpt lat="46.34854" lon="5.29624">
        <ele>243.2</ele>
        <time>2022-02-08T14:04:39Z</time>
      </trkpt>
      <trkpt lat="46.34819" lon="5.29613">
        <ele>243.6</ele>
        <time>2022-02-08T14:04:44Z</time>
      </trkpt>
      <trkpt lat="46.34812" lon="5.29613">
        <ele>243.8</ele>
        <time>2022-02-08T14:04:45Z</time>
      </trkpt>
      <trkpt lat="46.34764" lon="5.29617">
        <ele>243.8</ele>
        <time>2022-02-08T14:04:52Z</time>
      </trkpt>
      <trkpt lat="46.34749" lon="5.29621">
        <ele>243.6</ele>
        <time>2022-02-08T14:04:54Z</time>
      </trkpt>
      <trkpt lat="46.34728" lon="5.29634">
        <ele>243.4</ele>
        <time>2022-02-08T14:04:57Z</time>
      </trkpt>
      <trkpt lat="46.34713" lon="5.29642">
        <ele>243</ele>
        <time>2022-02-08T14:04:59Z</time>
      </trkpt>
      <trkpt lat="46.34698" lon="5.29644">
        <ele>242.8</ele>
        <time>2022-02-08T14:05:01Z</time>
      </trkpt>
      <trkpt lat="46.34657" lon="5.29636">
        <ele>241.8</ele>
        <time>2022-02-08T14:05:06Z</time>
      </trkpt>
      <trkpt lat="46.34649" lon="5.29635">
        <ele>241.8</ele>
        <time>2022-02-08T14:05:07Z</time>
      </trkpt>
      <trkpt lat="46.34592" lon="5.29621">
        <ele>241</ele>
        <time>2022-02-08T14:05:14Z</time>
      </trkpt>
      <trkpt lat="46.34568" lon="5.29617">
        <ele>241</ele>
        <time>2022-02-08T14:05:17Z</time>
      </trkpt>
      <trkpt lat="46.34521" lon="5.29609">
        <ele>240.4</ele>
        <time>2022-02-08T14:05:23Z</time>
      </trkpt>
      <trkpt lat="46.3447" lon="5.29597">
        <ele>240.8</ele>
        <time>2022-02-08T14:05:30Z</time>
      </trkpt>
      <trkpt lat="46.34458" lon="5.29585">
        <ele>240.8</ele>
        <time>2022-02-08T14:05:32Z</time>
      </trkpt>
      <trkpt lat="46.34455" lon="5.29577">
        <ele>241</ele>
        <time>2022-02-08T14:05:33Z</time>
      </trkpt>
      <trkpt lat="46.34455" lon="5.29568">
        <ele>241</ele>
        <time>2022-02-08T14:05:34Z</time>
      </trkpt>
      <trkpt lat="46.34456" lon="5.29551">
        <ele>241.4</ele>
        <time>2022-02-08T14:05:36Z</time>
      </trkpt>
      <trkpt lat="46.34462" lon="5.29517">
        <ele>242</ele>
        <time>2022-02-08T14:05:40Z</time>
      </trkpt>
      <trkpt lat="46.34467" lon="5.29485">
        <ele>242.8</ele>
        <time>2022-02-08T14:05:44Z</time>
      </trkpt>
      <trkpt lat="46.34468" lon="5.29478">
        <ele>243</ele>
        <time>2022-02-08T14:05:45Z</time>
      </trkpt>
      <trkpt lat="46.34468" lon="5.29472">
        <ele>243.2</ele>
        <time>2022-02-08T14:05:46Z</time>
      </trkpt>
      <trkpt lat="46.34469" lon="5.29463">
        <ele>243.6</ele>
        <time>2022-02-08T14:05:48Z</time>
      </trkpt>
      <trkpt lat="46.34469" lon="5.29462">
        <ele>244</ele>
        <time>2022-02-08T14:05:51Z</time>
      </trkpt>
      <trkpt lat="46.34465" lon="5.29453">
        <ele>244.8</ele>
        <time>2022-02-08T14:06:41Z</time>
      </trkpt>
      <trkpt lat="46.34461" lon="5.29447">
        <ele>244.8</ele>
        <time>2022-02-08T14:06:43Z</time>
      </trkpt>
      <trkpt lat="46.3445" lon="5.29436">
        <ele>245</ele>
        <time>2022-02-08T14:06:46Z</time>
      </trkpt>
      <trkpt lat="46.34447" lon="5.2943">
        <ele>245</ele>
        <time>2022-02-08T14:06:47Z</time>
      </trkpt>
      <trkpt lat="46.34443" lon="5.29424">
        <ele>245.2</ele>
        <time>2022-02-08T14:06:48Z</time>
      </trkpt>
      <trkpt lat="46.34436" lon="5.2941">
        <ele>245.4</ele>
        <time>2022-02-08T14:06:50Z</time>
      </trkpt>
      <trkpt lat="46.34432" lon="5.29403">
        <ele>245.4</ele>
        <time>2022-02-08T14:06:51Z</time>
      </trkpt>
      <trkpt lat="46.34407" lon="5.2936">
        <ele>245.8</ele>
        <time>2022-02-08T14:06:57Z</time>
      </trkpt>
      <trkpt lat="46.34394" lon="5.29349">
        <ele>245.8</ele>
        <time>2022-02-08T14:06:59Z</time>
      </trkpt>
      <trkpt lat="46.3438" lon="5.29343">
        <ele>245.6</ele>
        <time>2022-02-08T14:07:01Z</time>
      </trkpt>
      <trkpt lat="46.34352" lon="5.2933">
        <ele>245.6</ele>
        <time>2022-02-08T14:07:05Z</time>
      </trkpt>
      <trkpt lat="46.34345" lon="5.29325">
        <ele>245.4</ele>
        <time>2022-02-08T14:07:06Z</time>
      </trkpt>
      <trkpt lat="46.34325" lon="5.29309">
        <ele>245.2</ele>
        <time>2022-02-08T14:07:09Z</time>
      </trkpt>
      <trkpt lat="46.3431" lon="5.29302">
        <ele>245</ele>
        <time>2022-02-08T14:07:11Z</time>
      </trkpt>
      <trkpt lat="46.34279" lon="5.29291">
        <ele>244.4</ele>
        <time>2022-02-08T14:07:15Z</time>
      </trkpt>
      <trkpt lat="46.34256" lon="5.29285">
        <ele>244.2</ele>
        <time>2022-02-08T14:07:18Z</time>
      </trkpt>
      <trkpt lat="46.34233" lon="5.29279">
        <ele>243.8</ele>
        <time>2022-02-08T14:07:21Z</time>
      </trkpt>
      <trkpt lat="46.34196" lon="5.29263">
        <ele>243.6</ele>
        <time>2022-02-08T14:07:26Z</time>
      </trkpt>
      <trkpt lat="46.34188" lon="5.29261">
        <ele>243.6</ele>
        <time>2022-02-08T14:07:27Z</time>
      </trkpt>
      <trkpt lat="46.34172" lon="5.29261">
        <ele>243.4</ele>
        <time>2022-02-08T14:07:29Z</time>
      </trkpt>
      <trkpt lat="46.34155" lon="5.29264">
        <ele>243.2</ele>
        <time>2022-02-08T14:07:31Z</time>
      </trkpt>
      <trkpt lat="46.34114" lon="5.29273">
        <ele>242.6</ele>
        <time>2022-02-08T14:07:36Z</time>
      </trkpt>
      <trkpt lat="46.34099" lon="5.29285">
        <ele>242.2</ele>
        <time>2022-02-08T14:07:38Z</time>
      </trkpt>
      <trkpt lat="46.34093" lon="5.29294">
        <ele>242.2</ele>
        <time>2022-02-08T14:07:39Z</time>
      </trkpt>
      <trkpt lat="46.34088" lon="5.29303">
        <ele>242.2</ele>
        <time>2022-02-08T14:07:40Z</time>
      </trkpt>
      <trkpt lat="46.3407" lon="5.29343">
        <ele>242.2</ele>
        <time>2022-02-08T14:07:44Z</time>
      </trkpt>
      <trkpt lat="46.34057" lon="5.29358">
        <ele>242.2</ele>
        <time>2022-02-08T14:07:46Z</time>
      </trkpt>
      <trkpt lat="46.34051" lon="5.29363">
        <ele>242.2</ele>
        <time>2022-02-08T14:07:47Z</time>
      </trkpt>
      <trkpt lat="46.34044" lon="5.29368">
        <ele>242.4</ele>
        <time>2022-02-08T14:07:48Z</time>
      </trkpt>
      <trkpt lat="46.3403" lon="5.29373">
        <ele>242.4</ele>
        <time>2022-02-08T14:07:50Z</time>
      </trkpt>
      <trkpt lat="46.34016" lon="5.29378">
        <ele>242.6</ele>
        <time>2022-02-08T14:07:52Z</time>
      </trkpt>
      <trkpt lat="46.34004" lon="5.29387">
        <ele>242.8</ele>
        <time>2022-02-08T14:07:54Z</time>
      </trkpt>
      <trkpt lat="46.33998" lon="5.29392">
        <ele>243</ele>
        <time>2022-02-08T14:07:55Z</time>
      </trkpt>
      <trkpt lat="46.33983" lon="5.29409">
        <ele>243.4</ele>
        <time>2022-02-08T14:07:58Z</time>
      </trkpt>
      <trkpt lat="46.33978" lon="5.29415">
        <ele>243.4</ele>
        <time>2022-02-08T14:07:59Z</time>
      </trkpt>
      <trkpt lat="46.3396" lon="5.29452">
        <ele>244</ele>
        <time>2022-02-08T14:08:04Z</time>
      </trkpt>
      <trkpt lat="46.33956" lon="5.29468">
        <ele>244.4</ele>
        <time>2022-02-08T14:08:06Z</time>
      </trkpt>
      <trkpt lat="46.33948" lon="5.29493">
        <ele>245.2</ele>
        <time>2022-02-08T14:08:09Z</time>
      </trkpt>
      <trkpt lat="46.33944" lon="5.295">
        <ele>245.4</ele>
        <time>2022-02-08T14:08:10Z</time>
      </trkpt>
      <trkpt lat="46.33939" lon="5.29506">
        <ele>245.6</ele>
        <time>2022-02-08T14:08:11Z</time>
      </trkpt>
      <trkpt lat="46.33933" lon="5.29511">
        <ele>245.8</ele>
        <time>2022-02-08T14:08:12Z</time>
      </trkpt>
      <trkpt lat="46.33927" lon="5.29513">
        <ele>245.8</ele>
        <time>2022-02-08T14:08:13Z</time>
      </trkpt>
      <trkpt lat="46.33906" lon="5.29516">
        <ele>246</ele>
        <time>2022-02-08T14:08:16Z</time>
      </trkpt>
      <trkpt lat="46.33855" lon="5.29516">
        <ele>245.8</ele>
        <time>2022-02-08T14:08:23Z</time>
      </trkpt>
      <trkpt lat="46.33803" lon="5.29513">
        <ele>245.4</ele>
        <time>2022-02-08T14:08:30Z</time>
      </trkpt>
      <trkpt lat="46.33772" lon="5.29492">
        <ele>245.6</ele>
        <time>2022-02-08T14:08:35Z</time>
      </trkpt>
      <trkpt lat="46.33735" lon="5.29453">
        <ele>245.8</ele>
        <time>2022-02-08T14:08:41Z</time>
      </trkpt>
      <trkpt lat="46.33696" lon="5.29398">
        <ele>246</ele>
        <time>2022-02-08T14:08:49Z</time>
      </trkpt>
      <trkpt lat="46.33685" lon="5.29383">
        <ele>246.2</ele>
        <time>2022-02-08T14:08:51Z</time>
      </trkpt>
      <trkpt lat="46.33676" lon="5.29373">
        <ele>246.2</ele>
        <time>2022-02-08T14:08:53Z</time>
      </trkpt>
      <trkpt lat="46.33662" lon="5.29365">
        <ele>246.4</ele>
        <time>2022-02-08T14:08:55Z</time>
      </trkpt>
      <trkpt lat="46.33643" lon="5.29363">
        <ele>246.6</ele>
        <time>2022-02-08T14:08:58Z</time>
      </trkpt>
      <trkpt lat="46.33634" lon="5.29364">
        <ele>246.6</ele>
        <time>2022-02-08T14:08:59Z</time>
      </trkpt>
      <trkpt lat="46.33593" lon="5.2937">
        <ele>246.6</ele>
        <time>2022-02-08T14:09:05Z</time>
      </trkpt>
      <trkpt lat="46.33586" lon="5.29369">
        <ele>246.6</ele>
        <time>2022-02-08T14:09:06Z</time>
      </trkpt>
      <trkpt lat="46.33566" lon="5.29364">
        <ele>246.8</ele>
        <time>2022-02-08T14:09:09Z</time>
      </trkpt>
      <trkpt lat="46.33552" lon="5.29359">
        <ele>246.8</ele>
        <time>2022-02-08T14:09:11Z</time>
      </trkpt>
      <trkpt lat="46.33497" lon="5.29339">
        <ele>247.6</ele>
        <time>2022-02-08T14:09:19Z</time>
      </trkpt>
      <trkpt lat="46.3349" lon="5.29336">
        <ele>247.6</ele>
        <time>2022-02-08T14:09:20Z</time>
      </trkpt>
      <trkpt lat="46.33445" lon="5.29308">
        <ele>247.4</ele>
        <time>2022-02-08T14:09:27Z</time>
      </trkpt>
      <trkpt lat="46.33432" lon="5.29295">
        <ele>247.2</ele>
        <time>2022-02-08T14:09:29Z</time>
      </trkpt>
      <trkpt lat="46.33425" lon="5.29285">
        <ele>246.8</ele>
        <time>2022-02-08T14:09:31Z</time>
      </trkpt>
      <trkpt lat="46.33421" lon="5.29277">
        <ele>246.4</ele>
        <time>2022-02-08T14:09:33Z</time>
      </trkpt>
      <trkpt lat="46.33418" lon="5.29275">
        <ele>246.2</ele>
        <time>2022-02-08T14:09:34Z</time>
      </trkpt>
      <trkpt lat="46.3341" lon="5.29289">
        <ele>246</ele>
        <time>2022-02-08T14:09:37Z</time>
      </trkpt>
      <trkpt lat="46.33398" lon="5.2932">
        <ele>246</ele>
        <time>2022-02-08T14:09:41Z</time>
      </trkpt>
      <trkpt lat="46.33391" lon="5.29338">
        <ele>245.8</ele>
        <time>2022-02-08T14:09:43Z</time>
      </trkpt>
      <trkpt lat="46.33379" lon="5.29368">
        <ele>245.4</ele>
        <time>2022-02-08T14:09:46Z</time>
      </trkpt>
      <trkpt lat="46.3336" lon="5.29433">
        <ele>245.4</ele>
        <time>2022-02-08T14:09:52Z</time>
      </trkpt>
      <trkpt lat="46.33345" lon="5.29512">
        <ele>245.2</ele>
        <time>2022-02-08T14:09:59Z</time>
      </trkpt>
      <trkpt lat="46.33343" lon="5.29523">
        <ele>245.2</ele>
        <time>2022-02-08T14:10:00Z</time>
      </trkpt>
      <trkpt lat="46.33332" lon="5.29588">
        <ele>244.6</ele>
        <time>2022-02-08T14:10:06Z</time>
      </trkpt>
      <trkpt lat="46.33329" lon="5.29609">
        <ele>244.4</ele>
        <time>2022-02-08T14:10:08Z</time>
      </trkpt>
      <trkpt lat="46.33317" lon="5.29686">
        <ele>243.8</ele>
        <time>2022-02-08T14:10:15Z</time>
      </trkpt>
      <trkpt lat="46.3331" lon="5.29732">
        <ele>243.6</ele>
        <time>2022-02-08T14:10:19Z</time>
      </trkpt>
      <trkpt lat="46.33308" lon="5.29743">
        <ele>243.6</ele>
        <time>2022-02-08T14:10:20Z</time>
      </trkpt>
      <trkpt lat="46.33303" lon="5.29776">
        <ele>242.6</ele>
        <time>2022-02-08T14:10:23Z</time>
      </trkpt>
      <trkpt lat="46.33292" lon="5.29841">
        <ele>241.6</ele>
        <time>2022-02-08T14:10:29Z</time>
      </trkpt>
      <trkpt lat="46.3329" lon="5.29852">
        <ele>241.4</ele>
        <time>2022-02-08T14:10:30Z</time>
      </trkpt>
      <trkpt lat="46.33277" lon="5.29933">
        <ele>240.6</ele>
        <time>2022-02-08T14:10:37Z</time>
      </trkpt>
      <trkpt lat="46.33271" lon="5.29968">
        <ele>240.2</ele>
        <time>2022-02-08T14:10:40Z</time>
      </trkpt>
      <trkpt lat="46.33263" lon="5.30014">
        <ele>239.6</ele>
        <time>2022-02-08T14:10:44Z</time>
      </trkpt>
      <trkpt lat="46.33255" lon="5.3007">
        <ele>238.8</ele>
        <time>2022-02-08T14:10:49Z</time>
      </trkpt>
      <trkpt lat="46.33243" lon="5.30142">
        <ele>238.6</ele>
        <time>2022-02-08T14:10:56Z</time>
      </trkpt>
      <trkpt lat="46.33242" lon="5.30152">
        <ele>238.6</ele>
        <time>2022-02-08T14:10:57Z</time>
      </trkpt>
      <trkpt lat="46.33231" lon="5.30222">
        <ele>238.8</ele>
        <time>2022-02-08T14:11:04Z</time>
      </trkpt>
      <trkpt lat="46.33222" lon="5.30268">
        <ele>238.6</ele>
        <time>2022-02-08T14:11:08Z</time>
      </trkpt>
      <trkpt lat="46.3322" lon="5.3028">
        <ele>238.6</ele>
        <time>2022-02-08T14:11:09Z</time>
      </trkpt>
      <trkpt lat="46.33204" lon="5.30361">
        <ele>237.2</ele>
        <time>2022-02-08T14:11:15Z</time>
      </trkpt>
      <trkpt lat="46.33195" lon="5.30404">
        <ele>236.2</ele>
        <time>2022-02-08T14:11:18Z</time>
      </trkpt>
      <trkpt lat="46.33189" lon="5.30433">
        <ele>234.8</ele>
        <time>2022-02-08T14:11:20Z</time>
      </trkpt>
      <trkpt lat="46.33185" lon="5.30448">
        <ele>234.4</ele>
        <time>2022-02-08T14:11:21Z</time>
      </trkpt>
      <trkpt lat="46.33179" lon="5.30478">
        <ele>233.6</ele>
        <time>2022-02-08T14:11:23Z</time>
      </trkpt>
      <trkpt lat="46.3317" lon="5.30524">
        <ele>232</ele>
        <time>2022-02-08T14:11:26Z</time>
      </trkpt>
      <trkpt lat="46.33164" lon="5.30554">
        <ele>230.8</ele>
        <time>2022-02-08T14:11:28Z</time>
      </trkpt>
      <trkpt lat="46.33158" lon="5.30585">
        <ele>229.6</ele>
        <time>2022-02-08T14:11:30Z</time>
      </trkpt>
      <trkpt lat="46.33152" lon="5.30616">
        <ele>228.6</ele>
        <time>2022-02-08T14:11:32Z</time>
      </trkpt>
      <trkpt lat="46.33143" lon="5.30662">
        <ele>227.2</ele>
        <time>2022-02-08T14:11:35Z</time>
      </trkpt>
      <trkpt lat="46.33134" lon="5.30705">
        <ele>226</ele>
        <time>2022-02-08T14:11:38Z</time>
      </trkpt>
      <trkpt lat="46.33131" lon="5.30719">
        <ele>225.8</ele>
        <time>2022-02-08T14:11:39Z</time>
      </trkpt>
      <trkpt lat="46.33115" lon="5.308">
        <ele>225</ele>
        <time>2022-02-08T14:11:45Z</time>
      </trkpt>
      <trkpt lat="46.33113" lon="5.30812">
        <ele>225</ele>
        <time>2022-02-08T14:11:46Z</time>
      </trkpt>
      <trkpt lat="46.33097" lon="5.30898">
        <ele>224.4</ele>
        <time>2022-02-08T14:11:53Z</time>
      </trkpt>
      <trkpt lat="46.33094" lon="5.3091">
        <ele>224.2</ele>
        <time>2022-02-08T14:11:54Z</time>
      </trkpt>
      <trkpt lat="46.3309" lon="5.30934">
        <ele>224</ele>
        <time>2022-02-08T14:11:56Z</time>
      </trkpt>
      <trkpt lat="46.33074" lon="5.31015">
        <ele>223</ele>
        <time>2022-02-08T14:12:03Z</time>
      </trkpt>
      <trkpt lat="46.33069" lon="5.31038">
        <ele>222.8</ele>
        <time>2022-02-08T14:12:05Z</time>
      </trkpt>
      <trkpt lat="46.33057" lon="5.31096">
        <ele>221.8</ele>
        <time>2022-02-08T14:12:10Z</time>
      </trkpt>
      <trkpt lat="46.33047" lon="5.31148">
        <ele>221</ele>
        <time>2022-02-08T14:12:15Z</time>
      </trkpt>
      <trkpt lat="46.33044" lon="5.31159">
        <ele>220.8</ele>
        <time>2022-02-08T14:12:16Z</time>
      </trkpt>
      <trkpt lat="46.33031" lon="5.3122">
        <ele>220</ele>
        <time>2022-02-08T14:12:21Z</time>
      </trkpt>
      <trkpt lat="46.33026" lon="5.31244">
        <ele>219.8</ele>
        <time>2022-02-08T14:12:23Z</time>
      </trkpt>
      <trkpt lat="46.33024" lon="5.31256">
        <ele>219.6</ele>
        <time>2022-02-08T14:12:24Z</time>
      </trkpt>
      <trkpt lat="46.33013" lon="5.3131">
        <ele>219</ele>
        <time>2022-02-08T14:12:29Z</time>
      </trkpt>
      <trkpt lat="46.33009" lon="5.31319">
        <ele>218.8</ele>
        <time>2022-02-08T14:12:30Z</time>
      </trkpt>
      <trkpt lat="46.33004" lon="5.31326">
        <ele>218.8</ele>
        <time>2022-02-08T14:12:31Z</time>
      </trkpt>
      <trkpt lat="46.32999" lon="5.31333">
        <ele>218.6</ele>
        <time>2022-02-08T14:12:32Z</time>
      </trkpt>
      <trkpt lat="46.3299" lon="5.31344">
        <ele>218.6</ele>
        <time>2022-02-08T14:12:34Z</time>
      </trkpt>
      <trkpt lat="46.3298" lon="5.31354">
        <ele>218.6</ele>
        <time>2022-02-08T14:12:36Z</time>
      </trkpt>
      <trkpt lat="46.32973" lon="5.31368">
        <ele>218.6</ele>
        <time>2022-02-08T14:12:38Z</time>
      </trkpt>
      <trkpt lat="46.32972" lon="5.31386">
        <ele>218.6</ele>
        <time>2022-02-08T14:12:40Z</time>
      </trkpt>
      <trkpt lat="46.32975" lon="5.31395">
        <ele>218.6</ele>
        <time>2022-02-08T14:12:41Z</time>
      </trkpt>
      <trkpt lat="46.32979" lon="5.31403">
        <ele>218.8</ele>
        <time>2022-02-08T14:12:42Z</time>
      </trkpt>
      <trkpt lat="46.32988" lon="5.31419">
        <ele>218.8</ele>
        <time>2022-02-08T14:12:44Z</time>
      </trkpt>
      <trkpt lat="46.32991" lon="5.31429">
        <ele>218.8</ele>
        <time>2022-02-08T14:12:45Z</time>
      </trkpt>
      <trkpt lat="46.32998" lon="5.31469">
        <ele>218.8</ele>
        <time>2022-02-08T14:12:49Z</time>
      </trkpt>
      <trkpt lat="46.32999" lon="5.3148">
        <ele>218.8</ele>
        <time>2022-02-08T14:12:50Z</time>
      </trkpt>
      <trkpt lat="46.33003" lon="5.31553">
        <ele>218.6</ele>
        <time>2022-02-08T14:12:57Z</time>
      </trkpt>
      <trkpt lat="46.33016" lon="5.31601">
        <ele>219</ele>
        <time>2022-02-08T14:13:02Z</time>
      </trkpt>
      <trkpt lat="46.33043" lon="5.31676">
        <ele>219</ele>
        <time>2022-02-08T14:13:10Z</time>
      </trkpt>
      <trkpt lat="46.33046" lon="5.31685">
        <ele>218.8</ele>
        <time>2022-02-08T14:13:11Z</time>
      </trkpt>
      <trkpt lat="46.33067" lon="5.31762">
        <ele>218.2</ele>
        <time>2022-02-08T14:13:19Z</time>
      </trkpt>
      <trkpt lat="46.33069" lon="5.31772">
        <ele>218.4</ele>
        <time>2022-02-08T14:13:20Z</time>
      </trkpt>
      <trkpt lat="46.33088" lon="5.31848">
        <ele>218.6</ele>
        <time>2022-02-08T14:13:28Z</time>
      </trkpt>
      <trkpt lat="46.33093" lon="5.31867">
        <ele>218.6</ele>
        <time>2022-02-08T14:13:30Z</time>
      </trkpt>
      <trkpt lat="46.33112" lon="5.31949">
        <ele>218.4</ele>
        <time>2022-02-08T14:13:39Z</time>
      </trkpt>
      <trkpt lat="46.33115" lon="5.31958">
        <ele>218.4</ele>
        <time>2022-02-08T14:13:40Z</time>
      </trkpt>
      <trkpt lat="46.33123" lon="5.31984">
        <ele>218.4</ele>
        <time>2022-02-08T14:13:43Z</time>
      </trkpt>
      <trkpt lat="46.3313" lon="5.32011">
        <ele>218.4</ele>
        <time>2022-02-08T14:13:46Z</time>
      </trkpt>
      <trkpt lat="46.3314" lon="5.32049">
        <ele>218.4</ele>
        <time>2022-02-08T14:13:50Z</time>
      </trkpt>
      <trkpt lat="46.33143" lon="5.32068">
        <ele>218.6</ele>
        <time>2022-02-08T14:13:52Z</time>
      </trkpt>
      <trkpt lat="46.33162" lon="5.32148">
        <ele>218.8</ele>
        <time>2022-02-08T14:14:01Z</time>
      </trkpt>
      <trkpt lat="46.33166" lon="5.32164">
        <ele>218.8</ele>
        <time>2022-02-08T14:14:03Z</time>
      </trkpt>
      <trkpt lat="46.33189" lon="5.32229">
        <ele>219.8</ele>
        <time>2022-02-08T14:14:11Z</time>
      </trkpt>
      <trkpt lat="46.33222" lon="5.32296">
        <ele>220</ele>
        <time>2022-02-08T14:14:20Z</time>
      </trkpt>
      <trkpt lat="46.33245" lon="5.32338">
        <ele>220</ele>
        <time>2022-02-08T14:14:26Z</time>
      </trkpt>
      <trkpt lat="46.33259" lon="5.32366">
        <ele>220.6</ele>
        <time>2022-02-08T14:14:30Z</time>
      </trkpt>
      <trkpt lat="46.33281" lon="5.32408">
        <ele>221.2</ele>
        <time>2022-02-08T14:14:36Z</time>
      </trkpt>
      <trkpt lat="46.33285" lon="5.32414">
        <ele>221.2</ele>
        <time>2022-02-08T14:14:37Z</time>
      </trkpt>
      <trkpt lat="46.3332" lon="5.32483">
        <ele>221.6</ele>
        <time>2022-02-08T14:14:47Z</time>
      </trkpt>
      <trkpt lat="46.33355" lon="5.32551">
        <ele>221.8</ele>
        <time>2022-02-08T14:14:57Z</time>
      </trkpt>
      <trkpt lat="46.33363" lon="5.32564">
        <ele>222</ele>
        <time>2022-02-08T14:14:59Z</time>
      </trkpt>
      <trkpt lat="46.33375" lon="5.32583">
        <ele>222.2</ele>
        <time>2022-02-08T14:15:02Z</time>
      </trkpt>
      <trkpt lat="46.3339" lon="5.32611">
        <ele>223.4</ele>
        <time>2022-02-08T14:15:06Z</time>
      </trkpt>
      <trkpt lat="46.33419" lon="5.32661">
        <ele>223.8</ele>
        <time>2022-02-08T14:15:13Z</time>
      </trkpt>
      <trkpt lat="46.33455" lon="5.32703">
        <ele>224</ele>
        <time>2022-02-08T14:15:20Z</time>
      </trkpt>
      <trkpt lat="46.33482" lon="5.32724">
        <ele>224.4</ele>
        <time>2022-02-08T14:15:25Z</time>
      </trkpt>
      <trkpt lat="46.33492" lon="5.32731">
        <ele>224.6</ele>
        <time>2022-02-08T14:15:27Z</time>
      </trkpt>
      <trkpt lat="46.33541" lon="5.32764">
        <ele>224.8</ele>
        <time>2022-02-08T14:15:36Z</time>
      </trkpt>
      <trkpt lat="46.33594" lon="5.32796">
        <ele>224</ele>
        <time>2022-02-08T14:15:45Z</time>
      </trkpt>
      <trkpt lat="46.33619" lon="5.32813">
        <ele>223.6</ele>
        <time>2022-02-08T14:15:49Z</time>
      </trkpt>
      <trkpt lat="46.33624" lon="5.32818">
        <ele>223.4</ele>
        <time>2022-02-08T14:15:50Z</time>
      </trkpt>
      <trkpt lat="46.33629" lon="5.32825">
        <ele>223.4</ele>
        <time>2022-02-08T14:15:51Z</time>
      </trkpt>
      <trkpt lat="46.33634" lon="5.32831">
        <ele>223.4</ele>
        <time>2022-02-08T14:15:52Z</time>
      </trkpt>
      <trkpt lat="46.33649" lon="5.32863">
        <ele>223.2</ele>
        <time>2022-02-08T14:15:56Z</time>
      </trkpt>
      <trkpt lat="46.33667" lon="5.32923">
        <ele>223</ele>
        <time>2022-02-08T14:16:03Z</time>
      </trkpt>
      <trkpt lat="46.33671" lon="5.3295">
        <ele>223</ele>
        <time>2022-02-08T14:16:06Z</time>
      </trkpt>
      <trkpt lat="46.33672" lon="5.32981">
        <ele>223</ele>
        <time>2022-02-08T14:16:09Z</time>
      </trkpt>
      <trkpt lat="46.33671" lon="5.33046">
        <ele>222.8</ele>
        <time>2022-02-08T14:16:15Z</time>
      </trkpt>
      <trkpt lat="46.33671" lon="5.33067">
        <ele>222.4</ele>
        <time>2022-02-08T14:16:17Z</time>
      </trkpt>
      <trkpt lat="46.3367" lon="5.33119">
        <ele>222.4</ele>
        <time>2022-02-08T14:16:22Z</time>
      </trkpt>
      <trkpt lat="46.33671" lon="5.3316">
        <ele>222.4</ele>
        <time>2022-02-08T14:16:26Z</time>
      </trkpt>
      <trkpt lat="46.33674" lon="5.3318">
        <ele>222.4</ele>
        <time>2022-02-08T14:16:28Z</time>
      </trkpt>
      <trkpt lat="46.33688" lon="5.33229">
        <ele>222.2</ele>
        <time>2022-02-08T14:16:33Z</time>
      </trkpt>
      <trkpt lat="46.33717" lon="5.33303">
        <ele>222</ele>
        <time>2022-02-08T14:16:41Z</time>
      </trkpt>
      <trkpt lat="46.33724" lon="5.3332">
        <ele>222</ele>
        <time>2022-02-08T14:16:43Z</time>
      </trkpt>
      <trkpt lat="46.33751" lon="5.3339">
        <ele>221.6</ele>
        <time>2022-02-08T14:16:51Z</time>
      </trkpt>
      <trkpt lat="46.33757" lon="5.33406">
        <ele>221.6</ele>
        <time>2022-02-08T14:16:53Z</time>
      </trkpt>
      <trkpt lat="46.33764" lon="5.33422">
        <ele>221.4</ele>
        <time>2022-02-08T14:16:55Z</time>
      </trkpt>
      <trkpt lat="46.33774" lon="5.33456">
        <ele>221.6</ele>
        <time>2022-02-08T14:16:59Z</time>
      </trkpt>
      <trkpt lat="46.33775" lon="5.33465">
        <ele>221.6</ele>
        <time>2022-02-08T14:17:00Z</time>
      </trkpt>
      <trkpt lat="46.33777" lon="5.33519">
        <ele>221.6</ele>
        <time>2022-02-08T14:17:06Z</time>
      </trkpt>
      <trkpt lat="46.33777" lon="5.336">
        <ele>222.2</ele>
        <time>2022-02-08T14:17:15Z</time>
      </trkpt>
      <trkpt lat="46.33776" lon="5.33618">
        <ele>222.4</ele>
        <time>2022-02-08T14:17:17Z</time>
      </trkpt>
      <trkpt lat="46.33777" lon="5.33643">
        <ele>222.6</ele>
        <time>2022-02-08T14:17:20Z</time>
      </trkpt>
      <trkpt lat="46.33776" lon="5.33691">
        <ele>223.2</ele>
        <time>2022-02-08T14:17:26Z</time>
      </trkpt>
      <trkpt lat="46.33774" lon="5.33729">
        <ele>223.8</ele>
        <time>2022-02-08T14:17:31Z</time>
      </trkpt>
      <trkpt lat="46.33772" lon="5.33754">
        <ele>224.6</ele>
        <time>2022-02-08T14:17:35Z</time>
      </trkpt>
      <trkpt lat="46.33771" lon="5.3376">
        <ele>225</ele>
        <time>2022-02-08T14:17:36Z</time>
      </trkpt>
      <trkpt lat="46.33769" lon="5.33779">
        <ele>226</ele>
        <time>2022-02-08T14:17:39Z</time>
      </trkpt>
      <trkpt lat="46.33767" lon="5.33797">
        <ele>226.8</ele>
        <time>2022-02-08T14:17:42Z</time>
      </trkpt>
      <trkpt lat="46.33765" lon="5.33815">
        <ele>227.2</ele>
        <time>2022-02-08T14:17:45Z</time>
      </trkpt>
      <trkpt lat="46.33763" lon="5.33845">
        <ele>228.4</ele>
        <time>2022-02-08T14:17:50Z</time>
      </trkpt>
      <trkpt lat="46.33762" lon="5.3385">
        <ele>228.6</ele>
        <time>2022-02-08T14:17:51Z</time>
      </trkpt>
      <trkpt lat="46.3376" lon="5.33873">
        <ele>229.6</ele>
        <time>2022-02-08T14:17:55Z</time>
      </trkpt>
      <trkpt lat="46.33758" lon="5.33895">
        <ele>231</ele>
        <time>2022-02-08T14:17:59Z</time>
      </trkpt>
      <trkpt lat="46.33757" lon="5.33912">
        <ele>231.4</ele>
        <time>2022-02-08T14:18:02Z</time>
      </trkpt>
      <trkpt lat="46.33757" lon="5.33923">
        <ele>232.2</ele>
        <time>2022-02-08T14:18:04Z</time>
      </trkpt>
      <trkpt lat="46.33759" lon="5.3395">
        <ele>233.2</ele>
        <time>2022-02-08T14:18:09Z</time>
      </trkpt>
      <trkpt lat="46.3376" lon="5.3396">
        <ele>234</ele>
        <time>2022-02-08T14:18:11Z</time>
      </trkpt>
      <trkpt lat="46.33761" lon="5.3397">
        <ele>234.6</ele>
        <time>2022-02-08T14:18:13Z</time>
      </trkpt>
      <trkpt lat="46.33764" lon="5.34001">
        <ele>236</ele>
        <time>2022-02-08T14:18:19Z</time>
      </trkpt>
      <trkpt lat="46.33764" lon="5.34006">
        <ele>236.2</ele>
        <time>2022-02-08T14:18:20Z</time>
      </trkpt>
      <trkpt lat="46.33766" lon="5.34027">
        <ele>237</ele>
        <time>2022-02-08T14:18:24Z</time>
      </trkpt>
      <trkpt lat="46.3377" lon="5.34051">
        <ele>238.2</ele>
        <time>2022-02-08T14:18:29Z</time>
      </trkpt>
      <trkpt lat="46.33773" lon="5.34082">
        <ele>239.8</ele>
        <time>2022-02-08T14:18:35Z</time>
      </trkpt>
      <trkpt lat="46.33774" lon="5.34098">
        <ele>240.4</ele>
        <time>2022-02-08T14:18:38Z</time>
      </trkpt>
      <trkpt lat="46.33775" lon="5.34109">
        <ele>240.8</ele>
        <time>2022-02-08T14:18:40Z</time>
      </trkpt>
      <trkpt lat="46.33778" lon="5.34144">
        <ele>242</ele>
        <time>2022-02-08T14:18:46Z</time>
      </trkpt>
      <trkpt lat="46.33779" lon="5.34162">
        <ele>242.4</ele>
        <time>2022-02-08T14:18:49Z</time>
      </trkpt>
      <trkpt lat="46.33779" lon="5.34197">
        <ele>243</ele>
        <time>2022-02-08T14:18:54Z</time>
      </trkpt>
      <trkpt lat="46.33779" lon="5.3422">
        <ele>243.2</ele>
        <time>2022-02-08T14:18:57Z</time>
      </trkpt>
      <trkpt lat="46.33778" lon="5.34279">
        <ele>243.4</ele>
        <time>2022-02-08T14:19:04Z</time>
      </trkpt>
      <trkpt lat="46.3378" lon="5.34296">
        <ele>243.4</ele>
        <time>2022-02-08T14:19:06Z</time>
      </trkpt>
      <trkpt lat="46.33784" lon="5.34313">
        <ele>243.4</ele>
        <time>2022-02-08T14:19:08Z</time>
      </trkpt>
      <trkpt lat="46.33786" lon="5.3432">
        <ele>243.4</ele>
        <time>2022-02-08T14:19:09Z</time>
      </trkpt>
      <trkpt lat="46.33806" lon="5.34358">
        <ele>243.6</ele>
        <time>2022-02-08T14:19:15Z</time>
      </trkpt>
      <trkpt lat="46.33813" lon="5.3437">
        <ele>244.2</ele>
        <time>2022-02-08T14:19:17Z</time>
      </trkpt>
      <trkpt lat="46.3383" lon="5.34398">
        <ele>245</ele>
        <time>2022-02-08T14:19:22Z</time>
      </trkpt>
      <trkpt lat="46.33833" lon="5.34403">
        <ele>245.2</ele>
        <time>2022-02-08T14:19:23Z</time>
      </trkpt>
      <trkpt lat="46.33852" lon="5.34447">
        <ele>246.2</ele>
        <time>2022-02-08T14:19:30Z</time>
      </trkpt>
      <trkpt lat="46.33857" lon="5.34469">
        <ele>246.6</ele>
        <time>2022-02-08T14:19:33Z</time>
      </trkpt>
      <trkpt lat="46.33858" lon="5.34485">
        <ele>246.8</ele>
        <time>2022-02-08T14:19:35Z</time>
      </trkpt>
      <trkpt lat="46.33859" lon="5.34559">
        <ele>247.4</ele>
        <time>2022-02-08T14:19:44Z</time>
      </trkpt>
      <trkpt lat="46.33859" lon="5.34577">
        <ele>247.6</ele>
        <time>2022-02-08T14:19:46Z</time>
      </trkpt>
      <trkpt lat="46.33857" lon="5.34629">
        <ele>248</ele>
        <time>2022-02-08T14:19:52Z</time>
      </trkpt>
      <trkpt lat="46.3385" lon="5.34711">
        <ele>248.4</ele>
        <time>2022-02-08T14:20:01Z</time>
      </trkpt>
      <trkpt lat="46.33849" lon="5.3472">
        <ele>248.4</ele>
        <time>2022-02-08T14:20:02Z</time>
      </trkpt>
      <trkpt lat="46.33843" lon="5.34765">
        <ele>248.6</ele>
        <time>2022-02-08T14:20:07Z</time>
      </trkpt>
      <trkpt lat="46.33838" lon="5.34792">
        <ele>248.6</ele>
        <time>2022-02-08T14:20:10Z</time>
      </trkpt>
      <trkpt lat="46.33828" lon="5.34854">
        <ele>248.8</ele>
        <time>2022-02-08T14:20:17Z</time>
      </trkpt>
      <trkpt lat="46.33821" lon="5.34933">
        <ele>249.2</ele>
        <time>2022-02-08T14:20:26Z</time>
      </trkpt>
      <trkpt lat="46.3382" lon="5.34985">
        <ele>249.6</ele>
        <time>2022-02-08T14:20:32Z</time>
      </trkpt>
      <trkpt lat="46.3382" lon="5.35003">
        <ele>249.8</ele>
        <time>2022-02-08T14:20:34Z</time>
      </trkpt>
      <trkpt lat="46.33817" lon="5.35082">
        <ele>250.4</ele>
        <time>2022-02-08T14:20:43Z</time>
      </trkpt>
      <trkpt lat="46.33816" lon="5.351">
        <ele>250.4</ele>
        <time>2022-02-08T14:20:45Z</time>
      </trkpt>
      <trkpt lat="46.33815" lon="5.35108">
        <ele>250.6</ele>
        <time>2022-02-08T14:20:46Z</time>
      </trkpt>
      <trkpt lat="46.33811" lon="5.35151">
        <ele>251.2</ele>
        <time>2022-02-08T14:20:51Z</time>
      </trkpt>
      <trkpt lat="46.33804" lon="5.35212">
        <ele>251.8</ele>
        <time>2022-02-08T14:20:58Z</time>
      </trkpt>
      <trkpt lat="46.33803" lon="5.35228">
        <ele>252</ele>
        <time>2022-02-08T14:21:00Z</time>
      </trkpt>
      <trkpt lat="46.33806" lon="5.35279">
        <ele>252.4</ele>
        <time>2022-02-08T14:21:06Z</time>
      </trkpt>
      <trkpt lat="46.33807" lon="5.35287">
        <ele>252.4</ele>
        <time>2022-02-08T14:21:07Z</time>
      </trkpt>
      <trkpt lat="46.33811" lon="5.35303">
        <ele>252.6</ele>
        <time>2022-02-08T14:21:09Z</time>
      </trkpt>
      <trkpt lat="46.33816" lon="5.35318">
        <ele>252.8</ele>
        <time>2022-02-08T14:21:11Z</time>
      </trkpt>
      <trkpt lat="46.33818" lon="5.35325">
        <ele>252.8</ele>
        <time>2022-02-08T14:21:12Z</time>
      </trkpt>
      <trkpt lat="46.3383" lon="5.35368">
        <ele>253.8</ele>
        <time>2022-02-08T14:21:18Z</time>
      </trkpt>
      <trkpt lat="46.33834" lon="5.35382">
        <ele>254</ele>
        <time>2022-02-08T14:21:20Z</time>
      </trkpt>
      <trkpt lat="46.33847" lon="5.35437">
        <ele>255.2</ele>
        <time>2022-02-08T14:21:28Z</time>
      </trkpt>
      <trkpt lat="46.33855" lon="5.35465">
        <ele>256.2</ele>
        <time>2022-02-08T14:21:32Z</time>
      </trkpt>
      <trkpt lat="46.33866" lon="5.35498">
        <ele>257</ele>
        <time>2022-02-08T14:21:37Z</time>
      </trkpt>
      <trkpt lat="46.3387" lon="5.35512">
        <ele>257.4</ele>
        <time>2022-02-08T14:21:39Z</time>
      </trkpt>
      <trkpt lat="46.33876" lon="5.35539">
        <ele>258.6</ele>
        <time>2022-02-08T14:21:43Z</time>
      </trkpt>
      <trkpt lat="46.3388" lon="5.35559">
        <ele>259</ele>
        <time>2022-02-08T14:21:46Z</time>
      </trkpt>
      <trkpt lat="46.33886" lon="5.35609">
        <ele>259.6</ele>
        <time>2022-02-08T14:21:53Z</time>
      </trkpt>
      <trkpt lat="46.33887" lon="5.35623">
        <ele>260</ele>
        <time>2022-02-08T14:21:55Z</time>
      </trkpt>
      <trkpt lat="46.33888" lon="5.35676">
        <ele>261</ele>
        <time>2022-02-08T14:22:03Z</time>
      </trkpt>
      <trkpt lat="46.33887" lon="5.35712">
        <ele>262</ele>
        <time>2022-02-08T14:22:09Z</time>
      </trkpt>
      <trkpt lat="46.33888" lon="5.35729">
        <ele>262.6</ele>
        <time>2022-02-08T14:22:12Z</time>
      </trkpt>
      <trkpt lat="46.33888" lon="5.3574">
        <ele>263.2</ele>
        <time>2022-02-08T14:22:14Z</time>
      </trkpt>
      <trkpt lat="46.33892" lon="5.35775">
        <ele>264.4</ele>
        <time>2022-02-08T14:22:20Z</time>
      </trkpt>
      <trkpt lat="46.33893" lon="5.35781">
        <ele>264.6</ele>
        <time>2022-02-08T14:22:21Z</time>
      </trkpt>
      <trkpt lat="46.33896" lon="5.35803">
        <ele>265.4</ele>
        <time>2022-02-08T14:22:25Z</time>
      </trkpt>
      <trkpt lat="46.33902" lon="5.35836">
        <ele>266.6</ele>
        <time>2022-02-08T14:22:31Z</time>
      </trkpt>
      <trkpt lat="46.33903" lon="5.35841">
        <ele>266.8</ele>
        <time>2022-02-08T14:22:32Z</time>
      </trkpt>
      <trkpt lat="46.33912" lon="5.35873">
        <ele>268</ele>
        <time>2022-02-08T14:22:38Z</time>
      </trkpt>
      <trkpt lat="46.33916" lon="5.35888">
        <ele>268.6</ele>
        <time>2022-02-08T14:22:41Z</time>
      </trkpt>
      <trkpt lat="46.3392" lon="5.35897">
        <ele>269</ele>
        <time>2022-02-08T14:22:43Z</time>
      </trkpt>
      <trkpt lat="46.33928" lon="5.35921">
        <ele>270.2</ele>
        <time>2022-02-08T14:22:48Z</time>
      </trkpt>
      <trkpt lat="46.33934" lon="5.3594">
        <ele>271</ele>
        <time>2022-02-08T14:22:52Z</time>
      </trkpt>
      <trkpt lat="46.33935" lon="5.35945">
        <ele>271.2</ele>
        <time>2022-02-08T14:22:53Z</time>
      </trkpt>
      <trkpt lat="46.33943" lon="5.35968">
        <ele>272.4</ele>
        <time>2022-02-08T14:22:58Z</time>
      </trkpt>
      <trkpt lat="46.33945" lon="5.35973">
        <ele>272.6</ele>
        <time>2022-02-08T14:22:59Z</time>
      </trkpt>
      <trkpt lat="46.33958" lon="5.36012">
        <ele>273.4</ele>
        <time>2022-02-08T14:23:07Z</time>
      </trkpt>
      <trkpt lat="46.33968" lon="5.36034">
        <ele>274.8</ele>
        <time>2022-02-08T14:23:12Z</time>
      </trkpt>
      <trkpt lat="46.33977" lon="5.36051">
        <ele>276</ele>
        <time>2022-02-08T14:23:16Z</time>
      </trkpt>
      <trkpt lat="46.33981" lon="5.36059">
        <ele>276.4</ele>
        <time>2022-02-08T14:23:18Z</time>
      </trkpt>
      <trkpt lat="46.33992" lon="5.36079">
        <ele>277</ele>
        <time>2022-02-08T14:23:23Z</time>
      </trkpt>
      <trkpt lat="46.33999" lon="5.36091">
        <ele>278</ele>
        <time>2022-02-08T14:23:26Z</time>
      </trkpt>
      <trkpt lat="46.34002" lon="5.36095">
        <ele>278.2</ele>
        <time>2022-02-08T14:23:27Z</time>
      </trkpt>
      <trkpt lat="46.34012" lon="5.36112">
        <ele>279.2</ele>
        <time>2022-02-08T14:23:31Z</time>
      </trkpt>
      <trkpt lat="46.34022" lon="5.36125">
        <ele>279.8</ele>
        <time>2022-02-08T14:23:34Z</time>
      </trkpt>
      <trkpt lat="46.34044" lon="5.36146">
        <ele>280.2</ele>
        <time>2022-02-08T14:23:39Z</time>
      </trkpt>
      <trkpt lat="46.34076" lon="5.36164">
        <ele>280.2</ele>
        <time>2022-02-08T14:23:45Z</time>
      </trkpt>
      <trkpt lat="46.34121" lon="5.3618">
        <ele>279.6</ele>
        <time>2022-02-08T14:23:53Z</time>
      </trkpt>
      <trkpt lat="46.34156" lon="5.36208">
        <ele>279.8</ele>
        <time>2022-02-08T14:24:00Z</time>
      </trkpt>
      <trkpt lat="46.34184" lon="5.3625">
        <ele>280</ele>
        <time>2022-02-08T14:24:07Z</time>
      </trkpt>
      <trkpt lat="46.34196" lon="5.36279">
        <ele>280.2</ele>
        <time>2022-02-08T14:24:11Z</time>
      </trkpt>
      <trkpt lat="46.342" lon="5.36295">
        <ele>280.2</ele>
        <time>2022-02-08T14:24:13Z</time>
      </trkpt>
      <trkpt lat="46.3422" lon="5.3635">
        <ele>280.6</ele>
        <time>2022-02-08T14:24:20Z</time>
      </trkpt>
      <trkpt lat="46.34238" lon="5.36405">
        <ele>280.8</ele>
        <time>2022-02-08T14:24:27Z</time>
      </trkpt>
      <trkpt lat="46.3424" lon="5.36413">
        <ele>281</ele>
        <time>2022-02-08T14:24:28Z</time>
      </trkpt>
      <trkpt lat="46.34242" lon="5.36429">
        <ele>281</ele>
        <time>2022-02-08T14:24:30Z</time>
      </trkpt>
      <trkpt lat="46.34237" lon="5.36446">
        <ele>281</ele>
        <time>2022-02-08T14:24:32Z</time>
      </trkpt>
      <trkpt lat="46.34234" lon="5.36453">
        <ele>281</ele>
        <time>2022-02-08T14:24:33Z</time>
      </trkpt>
      <trkpt lat="46.34206" lon="5.36489">
        <ele>281.2</ele>
        <time>2022-02-08T14:24:40Z</time>
      </trkpt>
      <trkpt lat="46.342" lon="5.36496">
        <ele>281.2</ele>
        <time>2022-02-08T14:24:42Z</time>
      </trkpt>
      <trkpt lat="46.34186" lon="5.36511">
        <ele>282.4</ele>
        <time>2022-02-08T14:24:46Z</time>
      </trkpt>
      <trkpt lat="46.34183" lon="5.36514">
        <ele>282.4</ele>
        <time>2022-02-08T14:24:47Z</time>
      </trkpt>
      <trkpt lat="46.34165" lon="5.36536">
        <ele>283.4</ele>
        <time>2022-02-08T14:24:53Z</time>
      </trkpt>
      <trkpt lat="46.34151" lon="5.36553">
        <ele>284.6</ele>
        <time>2022-02-08T14:24:58Z</time>
      </trkpt>
      <trkpt lat="46.34137" lon="5.36574">
        <ele>285.8</ele>
        <time>2022-02-08T14:25:04Z</time>
      </trkpt>
      <trkpt lat="46.34126" lon="5.36587">
        <ele>286.8</ele>
        <time>2022-02-08T14:25:08Z</time>
      </trkpt>
      <trkpt lat="46.34112" lon="5.36601">
        <ele>288</ele>
        <time>2022-02-08T14:25:13Z</time>
      </trkpt>
      <trkpt lat="46.34102" lon="5.36607">
        <ele>288.8</ele>
        <time>2022-02-08T14:25:16Z</time>
      </trkpt>
      <trkpt lat="46.34099" lon="5.36608">
        <ele>289</ele>
        <time>2022-02-08T14:25:17Z</time>
      </trkpt>
      <trkpt lat="46.34082" lon="5.36612">
        <ele>290.2</ele>
        <time>2022-02-08T14:25:22Z</time>
      </trkpt>
      <trkpt lat="46.34075" lon="5.36612">
        <ele>290.6</ele>
        <time>2022-02-08T14:25:24Z</time>
      </trkpt>
      <trkpt lat="46.34054" lon="5.36607">
        <ele>291.4</ele>
        <time>2022-02-08T14:25:30Z</time>
      </trkpt>
      <trkpt lat="46.3405" lon="5.36606">
        <ele>291.6</ele>
        <time>2022-02-08T14:25:31Z</time>
      </trkpt>
      <trkpt lat="46.34034" lon="5.36601">
        <ele>292.6</ele>
        <time>2022-02-08T14:25:36Z</time>
      </trkpt>
      <trkpt lat="46.34023" lon="5.36598">
        <ele>293.4</ele>
        <time>2022-02-08T14:25:39Z</time>
      </trkpt>
      <trkpt lat="46.3402" lon="5.36597">
        <ele>294</ele>
        <time>2022-02-08T14:25:40Z</time>
      </trkpt>
      <trkpt lat="46.34007" lon="5.36593">
        <ele>295</ele>
        <time>2022-02-08T14:25:44Z</time>
      </trkpt>
      <trkpt lat="46.33997" lon="5.36593">
        <ele>296</ele>
        <time>2022-02-08T14:25:47Z</time>
      </trkpt>
      <trkpt lat="46.33994" lon="5.36594">
        <ele>296.2</ele>
        <time>2022-02-08T14:25:48Z</time>
      </trkpt>
      <trkpt lat="46.33985" lon="5.36604">
        <ele>297.2</ele>
        <time>2022-02-08T14:25:51Z</time>
      </trkpt>
      <trkpt lat="46.33978" lon="5.36631">
        <ele>298.4</ele>
        <time>2022-02-08T14:25:56Z</time>
      </trkpt>
      <trkpt lat="46.33966" lon="5.36673">
        <ele>299.4</ele>
        <time>2022-02-08T14:26:04Z</time>
      </trkpt>
      <trkpt lat="46.33955" lon="5.3672">
        <ele>300.2</ele>
        <time>2022-02-08T14:26:12Z</time>
      </trkpt>
      <trkpt lat="46.33946" lon="5.36755">
        <ele>300.2</ele>
        <time>2022-02-08T14:26:17Z</time>
      </trkpt>
      <trkpt lat="46.33942" lon="5.36768">
        <ele>300</ele>
        <time>2022-02-08T14:26:19Z</time>
      </trkpt>
      <trkpt lat="46.33925" lon="5.36829">
        <ele>299.4</ele>
        <time>2022-02-08T14:26:28Z</time>
      </trkpt>
      <trkpt lat="46.33907" lon="5.36877">
        <ele>299.2</ele>
        <time>2022-02-08T14:26:35Z</time>
      </trkpt>
      <trkpt lat="46.33887" lon="5.36931">
        <ele>298.2</ele>
        <time>2022-02-08T14:26:41Z</time>
      </trkpt>
      <trkpt lat="46.33875" lon="5.36965">
        <ele>297.2</ele>
        <time>2022-02-08T14:26:45Z</time>
      </trkpt>
      <trkpt lat="46.33867" lon="5.36982">
        <ele>297</ele>
        <time>2022-02-08T14:26:47Z</time>
      </trkpt>
      <trkpt lat="46.33861" lon="5.36997">
        <ele>296.8</ele>
        <time>2022-02-08T14:26:49Z</time>
      </trkpt>
      <trkpt lat="46.33858" lon="5.37012">
        <ele>296.6</ele>
        <time>2022-02-08T14:26:51Z</time>
      </trkpt>
      <trkpt lat="46.33848" lon="5.37038">
        <ele>296.2</ele>
        <time>2022-02-08T14:26:54Z</time>
      </trkpt>
      <trkpt lat="46.33838" lon="5.37063">
        <ele>295.6</ele>
        <time>2022-02-08T14:26:57Z</time>
      </trkpt>
      <trkpt lat="46.33833" lon="5.37077">
        <ele>295.4</ele>
        <time>2022-02-08T14:26:59Z</time>
      </trkpt>
      <trkpt lat="46.33826" lon="5.37116">
        <ele>295.8</ele>
        <time>2022-02-08T14:27:05Z</time>
      </trkpt>
      <trkpt lat="46.33821" lon="5.37153">
        <ele>297.6</ele>
        <time>2022-02-08T14:27:12Z</time>
      </trkpt>
      <trkpt lat="46.33818" lon="5.37177">
        <ele>298.8</ele>
        <time>2022-02-08T14:27:17Z</time>
      </trkpt>
      <trkpt lat="46.33817" lon="5.37191">
        <ele>299.8</ele>
        <time>2022-02-08T14:27:20Z</time>
      </trkpt>
      <trkpt lat="46.33816" lon="5.37194">
        <ele>300.2</ele>
        <time>2022-02-08T14:27:21Z</time>
      </trkpt>
      <trkpt lat="46.33816" lon="5.37208">
        <ele>301</ele>
        <time>2022-02-08T14:27:24Z</time>
      </trkpt>
      <trkpt lat="46.33818" lon="5.37226">
        <ele>301.6</ele>
        <time>2022-02-08T14:27:28Z</time>
      </trkpt>
      <trkpt lat="46.33819" lon="5.37235">
        <ele>302</ele>
        <time>2022-02-08T14:27:30Z</time>
      </trkpt>
      <trkpt lat="46.33823" lon="5.37252">
        <ele>303</ele>
        <time>2022-02-08T14:27:34Z</time>
      </trkpt>
      <trkpt lat="46.33823" lon="5.37257">
        <ele>303.2</ele>
        <time>2022-02-08T14:27:35Z</time>
      </trkpt>
      <trkpt lat="46.33824" lon="5.37285">
        <ele>304.4</ele>
        <time>2022-02-08T14:27:41Z</time>
      </trkpt>
      <trkpt lat="46.33823" lon="5.3729">
        <ele>304.6</ele>
        <time>2022-02-08T14:27:42Z</time>
      </trkpt>
      <trkpt lat="46.33818" lon="5.37308">
        <ele>305.8</ele>
        <time>2022-02-08T14:27:46Z</time>
      </trkpt>
      <trkpt lat="46.33813" lon="5.37321">
        <ele>306.2</ele>
        <time>2022-02-08T14:27:49Z</time>
      </trkpt>
      <trkpt lat="46.33803" lon="5.37335">
        <ele>307</ele>
        <time>2022-02-08T14:27:53Z</time>
      </trkpt>
      <trkpt lat="46.33795" lon="5.37342">
        <ele>307.4</ele>
        <time>2022-02-08T14:27:56Z</time>
      </trkpt>
      <trkpt lat="46.33786" lon="5.37348">
        <ele>308.2</ele>
        <time>2022-02-08T14:27:59Z</time>
      </trkpt>
      <trkpt lat="46.33772" lon="5.37357">
        <ele>309.2</ele>
        <time>2022-02-08T14:28:04Z</time>
      </trkpt>
      <trkpt lat="46.33761" lon="5.37365">
        <ele>310.2</ele>
        <time>2022-02-08T14:28:08Z</time>
      </trkpt>
      <trkpt lat="46.33751" lon="5.37379">
        <ele>311</ele>
        <time>2022-02-08T14:28:12Z</time>
      </trkpt>
      <trkpt lat="46.33749" lon="5.37383">
        <ele>311.4</ele>
        <time>2022-02-08T14:28:13Z</time>
      </trkpt>
      <trkpt lat="46.33737" lon="5.374">
        <ele>312.4</ele>
        <time>2022-02-08T14:28:18Z</time>
      </trkpt>
      <trkpt lat="46.3373" lon="5.3741">
        <ele>312.8</ele>
        <time>2022-02-08T14:28:21Z</time>
      </trkpt>
      <trkpt lat="46.33724" lon="5.37419">
        <ele>313.6</ele>
        <time>2022-02-08T14:28:24Z</time>
      </trkpt>
      <trkpt lat="46.33712" lon="5.37432">
        <ele>314.6</ele>
        <time>2022-02-08T14:28:29Z</time>
      </trkpt>
      <trkpt lat="46.3371" lon="5.37435">
        <ele>314.8</ele>
        <time>2022-02-08T14:28:30Z</time>
      </trkpt>
      <trkpt lat="46.337" lon="5.37445">
        <ele>315.8</ele>
        <time>2022-02-08T14:28:34Z</time>
      </trkpt>
      <trkpt lat="46.33686" lon="5.37459">
        <ele>316.8</ele>
        <time>2022-02-08T14:28:39Z</time>
      </trkpt>
      <trkpt lat="46.33683" lon="5.37462">
        <ele>317</ele>
        <time>2022-02-08T14:28:40Z</time>
      </trkpt>
      <trkpt lat="46.33665" lon="5.37484">
        <ele>318.2</ele>
        <time>2022-02-08T14:28:47Z</time>
      </trkpt>
      <trkpt lat="46.33656" lon="5.37501">
        <ele>319.6</ele>
        <time>2022-02-08T14:28:52Z</time>
      </trkpt>
      <trkpt lat="46.3365" lon="5.37517">
        <ele>320.8</ele>
        <time>2022-02-08T14:28:56Z</time>
      </trkpt>
      <trkpt lat="46.3364" lon="5.37541">
        <ele>321.8</ele>
        <time>2022-02-08T14:29:02Z</time>
      </trkpt>
      <trkpt lat="46.33638" lon="5.37545">
        <ele>322</ele>
        <time>2022-02-08T14:29:03Z</time>
      </trkpt>
      <trkpt lat="46.33632" lon="5.37555">
        <ele>322.8</ele>
        <time>2022-02-08T14:29:06Z</time>
      </trkpt>
      <trkpt lat="46.33621" lon="5.37577">
        <ele>323.8</ele>
        <time>2022-02-08T14:29:12Z</time>
      </trkpt>
      <trkpt lat="46.3361" lon="5.37602">
        <ele>325.2</ele>
        <time>2022-02-08T14:29:19Z</time>
      </trkpt>
      <trkpt lat="46.33607" lon="5.3761">
        <ele>325.8</ele>
        <time>2022-02-08T14:29:21Z</time>
      </trkpt>
      <trkpt lat="46.33603" lon="5.37621">
        <ele>326.6</ele>
        <time>2022-02-08T14:29:24Z</time>
      </trkpt>
      <trkpt lat="46.33596" lon="5.3764">
        <ele>327.6</ele>
        <time>2022-02-08T14:29:29Z</time>
      </trkpt>
      <trkpt lat="46.33595" lon="5.37644">
        <ele>327.8</ele>
        <time>2022-02-08T14:29:30Z</time>
      </trkpt>
      <trkpt lat="46.33588" lon="5.37667">
        <ele>329</ele>
        <time>2022-02-08T14:29:36Z</time>
      </trkpt>
      <trkpt lat="46.33585" lon="5.37675">
        <ele>329.4</ele>
        <time>2022-02-08T14:29:38Z</time>
      </trkpt>
      <trkpt lat="46.3358" lon="5.3769">
        <ele>330.2</ele>
        <time>2022-02-08T14:29:42Z</time>
      </trkpt>
      <trkpt lat="46.33575" lon="5.37704">
        <ele>331.2</ele>
        <time>2022-02-08T14:29:46Z</time>
      </trkpt>
      <trkpt lat="46.33574" lon="5.37707">
        <ele>331.4</ele>
        <time>2022-02-08T14:29:47Z</time>
      </trkpt>
      <trkpt lat="46.33568" lon="5.37725">
        <ele>332.6</ele>
        <time>2022-02-08T14:29:52Z</time>
      </trkpt>
      <trkpt lat="46.33564" lon="5.37738">
        <ele>333.2</ele>
        <time>2022-02-08T14:29:55Z</time>
      </trkpt>
      <trkpt lat="46.3356" lon="5.37747">
        <ele>333.6</ele>
        <time>2022-02-08T14:29:57Z</time>
      </trkpt>
      <trkpt lat="46.33554" lon="5.37764">
        <ele>334.8</ele>
        <time>2022-02-08T14:30:01Z</time>
      </trkpt>
      <trkpt lat="46.33552" lon="5.37773">
        <ele>335</ele>
        <time>2022-02-08T14:30:03Z</time>
      </trkpt>
      <trkpt lat="46.33546" lon="5.37788">
        <ele>335.8</ele>
        <time>2022-02-08T14:30:07Z</time>
      </trkpt>
      <trkpt lat="46.33541" lon="5.37804">
        <ele>336.8</ele>
        <time>2022-02-08T14:30:11Z</time>
      </trkpt>
      <trkpt lat="46.33539" lon="5.37808">
        <ele>337.2</ele>
        <time>2022-02-08T14:30:12Z</time>
      </trkpt>
      <trkpt lat="46.33535" lon="5.3782">
        <ele>338</ele>
        <time>2022-02-08T14:30:15Z</time>
      </trkpt>
      <trkpt lat="46.33527" lon="5.37844">
        <ele>339.2</ele>
        <time>2022-02-08T14:30:21Z</time>
      </trkpt>
      <trkpt lat="46.33522" lon="5.3786">
        <ele>340.2</ele>
        <time>2022-02-08T14:30:25Z</time>
      </trkpt>
      <trkpt lat="46.33516" lon="5.37876">
        <ele>341</ele>
        <time>2022-02-08T14:30:29Z</time>
      </trkpt>
      <trkpt lat="46.33513" lon="5.37885">
        <ele>341.4</ele>
        <time>2022-02-08T14:30:31Z</time>
      </trkpt>
      <trkpt lat="46.33506" lon="5.37909">
        <ele>342.4</ele>
        <time>2022-02-08T14:30:36Z</time>
      </trkpt>
      <trkpt lat="46.33506" lon="5.37936">
        <ele>343.2</ele>
        <time>2022-02-08T14:30:41Z</time>
      </trkpt>
      <trkpt lat="46.3351" lon="5.37948">
        <ele>343.6</ele>
        <time>2022-02-08T14:30:44Z</time>
      </trkpt>
      <trkpt lat="46.33516" lon="5.37959">
        <ele>343.8</ele>
        <time>2022-02-08T14:30:47Z</time>
      </trkpt>
      <trkpt lat="46.33527" lon="5.37971">
        <ele>345</ele>
        <time>2022-02-08T14:30:51Z</time>
      </trkpt>
      <trkpt lat="46.33539" lon="5.37981">
        <ele>345.6</ele>
        <time>2022-02-08T14:30:55Z</time>
      </trkpt>
      <trkpt lat="46.33545" lon="5.37985">
        <ele>346</ele>
        <time>2022-02-08T14:30:57Z</time>
      </trkpt>
      <trkpt lat="46.33559" lon="5.37996">
        <ele>347.2</ele>
        <time>2022-02-08T14:31:02Z</time>
      </trkpt>
      <trkpt lat="46.33568" lon="5.38003">
        <ele>347.6</ele>
        <time>2022-02-08T14:31:05Z</time>
      </trkpt>
      <trkpt lat="46.33574" lon="5.38012">
        <ele>348.2</ele>
        <time>2022-02-08T14:31:08Z</time>
      </trkpt>
      <trkpt lat="46.3358" lon="5.38023">
        <ele>349</ele>
        <time>2022-02-08T14:31:11Z</time>
      </trkpt>
      <trkpt lat="46.33583" lon="5.38032">
        <ele>349.4</ele>
        <time>2022-02-08T14:31:13Z</time>
      </trkpt>
      <trkpt lat="46.33588" lon="5.38049">
        <ele>350.6</ele>
        <time>2022-02-08T14:31:17Z</time>
      </trkpt>
      <trkpt lat="46.33589" lon="5.38054">
        <ele>350.8</ele>
        <time>2022-02-08T14:31:18Z</time>
      </trkpt>
      <trkpt lat="46.33593" lon="5.38071">
        <ele>351.8</ele>
        <time>2022-02-08T14:31:22Z</time>
      </trkpt>
      <trkpt lat="46.33597" lon="5.38084">
        <ele>352.4</ele>
        <time>2022-02-08T14:31:25Z</time>
      </trkpt>
      <trkpt lat="46.33599" lon="5.38097">
        <ele>353</ele>
        <time>2022-02-08T14:31:28Z</time>
      </trkpt>
      <trkpt lat="46.33599" lon="5.38101">
        <ele>353.2</ele>
        <time>2022-02-08T14:31:29Z</time>
      </trkpt>
      <trkpt lat="46.33601" lon="5.38114">
        <ele>354</ele>
        <time>2022-02-08T14:31:32Z</time>
      </trkpt>
      <trkpt lat="46.33602" lon="5.38136">
        <ele>355</ele>
        <time>2022-02-08T14:31:37Z</time>
      </trkpt>
      <trkpt lat="46.33602" lon="5.3816">
        <ele>356</ele>
        <time>2022-02-08T14:31:42Z</time>
      </trkpt>
      <trkpt lat="46.336" lon="5.38179">
        <ele>357.2</ele>
        <time>2022-02-08T14:31:46Z</time>
      </trkpt>
      <trkpt lat="46.33599" lon="5.38184">
        <ele>357.2</ele>
        <time>2022-02-08T14:31:47Z</time>
      </trkpt>
      <trkpt lat="46.33597" lon="5.38205">
        <ele>358.2</ele>
        <time>2022-02-08T14:31:52Z</time>
      </trkpt>
      <trkpt lat="46.33596" lon="5.38218">
        <ele>358.8</ele>
        <time>2022-02-08T14:31:55Z</time>
      </trkpt>
      <trkpt lat="46.33596" lon="5.38226">
        <ele>359.2</ele>
        <time>2022-02-08T14:31:57Z</time>
      </trkpt>
      <trkpt lat="46.33596" lon="5.38248">
        <ele>360.4</ele>
        <time>2022-02-08T14:32:02Z</time>
      </trkpt>
      <trkpt lat="46.33596" lon="5.38252">
        <ele>360.4</ele>
        <time>2022-02-08T14:32:03Z</time>
      </trkpt>
      <trkpt lat="46.33598" lon="5.38279">
        <ele>361.6</ele>
        <time>2022-02-08T14:32:09Z</time>
      </trkpt>
      <trkpt lat="46.336" lon="5.38292">
        <ele>362.4</ele>
        <time>2022-02-08T14:32:12Z</time>
      </trkpt>
      <trkpt lat="46.336" lon="5.38296">
        <ele>362.6</ele>
        <time>2022-02-08T14:32:13Z</time>
      </trkpt>
      <trkpt lat="46.33603" lon="5.38315">
        <ele>363.8</ele>
        <time>2022-02-08T14:32:17Z</time>
      </trkpt>
      <trkpt lat="46.33604" lon="5.38329">
        <ele>364.6</ele>
        <time>2022-02-08T14:32:20Z</time>
      </trkpt>
      <trkpt lat="46.33604" lon="5.38338">
        <ele>365</ele>
        <time>2022-02-08T14:32:22Z</time>
      </trkpt>
      <trkpt lat="46.33603" lon="5.3836">
        <ele>366</ele>
        <time>2022-02-08T14:32:27Z</time>
      </trkpt>
      <trkpt lat="46.33603" lon="5.38373">
        <ele>366.4</ele>
        <time>2022-02-08T14:32:30Z</time>
      </trkpt>
      <trkpt lat="46.33602" lon="5.38386">
        <ele>367.2</ele>
        <time>2022-02-08T14:32:33Z</time>
      </trkpt>
      <trkpt lat="46.33601" lon="5.38409">
        <ele>368.4</ele>
        <time>2022-02-08T14:32:38Z</time>
      </trkpt>
      <trkpt lat="46.336" lon="5.38418">
        <ele>368.8</ele>
        <time>2022-02-08T14:32:40Z</time>
      </trkpt>
      <trkpt lat="46.336" lon="5.38431">
        <ele>369.4</ele>
        <time>2022-02-08T14:32:43Z</time>
      </trkpt>
      <trkpt lat="46.33597" lon="5.38453">
        <ele>370.4</ele>
        <time>2022-02-08T14:32:48Z</time>
      </trkpt>
      <trkpt lat="46.33596" lon="5.38461">
        <ele>370.8</ele>
        <time>2022-02-08T14:32:50Z</time>
      </trkpt>
      <trkpt lat="46.33593" lon="5.38474">
        <ele>371.6</ele>
        <time>2022-02-08T14:32:53Z</time>
      </trkpt>
      <trkpt lat="46.33589" lon="5.38495">
        <ele>372.6</ele>
        <time>2022-02-08T14:32:58Z</time>
      </trkpt>
      <trkpt lat="46.33584" lon="5.38516">
        <ele>373.6</ele>
        <time>2022-02-08T14:33:03Z</time>
      </trkpt>
      <trkpt lat="46.33576" lon="5.38541">
        <ele>374.6</ele>
        <time>2022-02-08T14:33:09Z</time>
      </trkpt>
      <trkpt lat="46.33566" lon="5.38566">
        <ele>375.8</ele>
        <time>2022-02-08T14:33:15Z</time>
      </trkpt>
      <trkpt lat="46.33559" lon="5.38577">
        <ele>376.4</ele>
        <time>2022-02-08T14:33:18Z</time>
      </trkpt>
      <trkpt lat="46.33553" lon="5.38588">
        <ele>376.8</ele>
        <time>2022-02-08T14:33:21Z</time>
      </trkpt>
      <trkpt lat="46.33546" lon="5.38613">
        <ele>378</ele>
        <time>2022-02-08T14:33:27Z</time>
      </trkpt>
      <trkpt lat="46.33551" lon="5.38629">
        <ele>378.6</ele>
        <time>2022-02-08T14:33:31Z</time>
      </trkpt>
      <trkpt lat="46.33554" lon="5.38632">
        <ele>379</ele>
        <time>2022-02-08T14:33:32Z</time>
      </trkpt>
      <trkpt lat="46.33565" lon="5.38639">
        <ele>380.2</ele>
        <time>2022-02-08T14:33:36Z</time>
      </trkpt>
      <trkpt lat="46.33568" lon="5.3864">
        <ele>380.8</ele>
        <time>2022-02-08T14:33:37Z</time>
      </trkpt>
      <trkpt lat="46.33576" lon="5.3864">
        <ele>381.4</ele>
        <time>2022-02-08T14:33:40Z</time>
      </trkpt>
      <trkpt lat="46.33586" lon="5.38636">
        <ele>382</ele>
        <time>2022-02-08T14:33:43Z</time>
      </trkpt>
      <trkpt lat="46.33592" lon="5.38632">
        <ele>382.6</ele>
        <time>2022-02-08T14:33:45Z</time>
      </trkpt>
      <trkpt lat="46.336" lon="5.38626">
        <ele>383.6</ele>
        <time>2022-02-08T14:33:48Z</time>
      </trkpt>
      <trkpt lat="46.3361" lon="5.38616">
        <ele>384.6</ele>
        <time>2022-02-08T14:33:52Z</time>
      </trkpt>
      <trkpt lat="46.33612" lon="5.38613">
        <ele>384.8</ele>
        <time>2022-02-08T14:33:53Z</time>
      </trkpt>
      <trkpt lat="46.33622" lon="5.38601">
        <ele>386</ele>
        <time>2022-02-08T14:33:57Z</time>
      </trkpt>
      <trkpt lat="46.3363" lon="5.38592">
        <ele>386.4</ele>
        <time>2022-02-08T14:34:00Z</time>
      </trkpt>
      <trkpt lat="46.33639" lon="5.3858">
        <ele>387.2</ele>
        <time>2022-02-08T14:34:04Z</time>
      </trkpt>
      <trkpt lat="46.33646" lon="5.38571">
        <ele>387.8</ele>
        <time>2022-02-08T14:34:07Z</time>
      </trkpt>
      <trkpt lat="46.33653" lon="5.38562">
        <ele>388.2</ele>
        <time>2022-02-08T14:34:10Z</time>
      </trkpt>
      <trkpt lat="46.33661" lon="5.38551">
        <ele>389.6</ele>
        <time>2022-02-08T14:34:14Z</time>
      </trkpt>
      <trkpt lat="46.33663" lon="5.38548">
        <ele>389.6</ele>
        <time>2022-02-08T14:34:15Z</time>
      </trkpt>
      <trkpt lat="46.33672" lon="5.38536">
        <ele>390.6</ele>
        <time>2022-02-08T14:34:19Z</time>
      </trkpt>
      <trkpt lat="46.33683" lon="5.38517">
        <ele>391.8</ele>
        <time>2022-02-08T14:34:25Z</time>
      </trkpt>
      <trkpt lat="46.33685" lon="5.38514">
        <ele>391.8</ele>
        <time>2022-02-08T14:34:26Z</time>
      </trkpt>
      <trkpt lat="46.33697" lon="5.38493">
        <ele>392.8</ele>
        <time>2022-02-08T14:34:32Z</time>
      </trkpt>
      <trkpt lat="46.33703" lon="5.38481">
        <ele>393.4</ele>
        <time>2022-02-08T14:34:35Z</time>
      </trkpt>
      <trkpt lat="46.33706" lon="5.38474">
        <ele>393.8</ele>
        <time>2022-02-08T14:34:37Z</time>
      </trkpt>
      <trkpt lat="46.33722" lon="5.38448">
        <ele>394.8</ele>
        <time>2022-02-08T14:34:44Z</time>
      </trkpt>
      <trkpt lat="46.33724" lon="5.38446">
        <ele>395</ele>
        <time>2022-02-08T14:34:45Z</time>
      </trkpt>
      <trkpt lat="46.33734" lon="5.38433">
        <ele>395.8</ele>
        <time>2022-02-08T14:34:49Z</time>
      </trkpt>
      <trkpt lat="46.33746" lon="5.38417">
        <ele>397.4</ele>
        <time>2022-02-08T14:34:54Z</time>
      </trkpt>
      <trkpt lat="46.3375" lon="5.38409">
        <ele>397.6</ele>
        <time>2022-02-08T14:34:56Z</time>
      </trkpt>
      <trkpt lat="46.33756" lon="5.38394">
        <ele>398.4</ele>
        <time>2022-02-08T14:35:00Z</time>
      </trkpt>
      <trkpt lat="46.33758" lon="5.38385">
        <ele>399</ele>
        <time>2022-02-08T14:35:02Z</time>
      </trkpt>
      <trkpt lat="46.33759" lon="5.38371">
        <ele>399.6</ele>
        <time>2022-02-08T14:35:05Z</time>
      </trkpt>
      <trkpt lat="46.33762" lon="5.38347">
        <ele>400.8</ele>
        <time>2022-02-08T14:35:10Z</time>
      </trkpt>
      <trkpt lat="46.33763" lon="5.38343">
        <ele>401</ele>
        <time>2022-02-08T14:35:11Z</time>
      </trkpt>
      <trkpt lat="46.33764" lon="5.38338">
        <ele>401</ele>
        <time>2022-02-08T14:35:12Z</time>
      </trkpt>
      <trkpt lat="46.3377" lon="5.38315">
        <ele>402.2</ele>
        <time>2022-02-08T14:35:17Z</time>
      </trkpt>
      <trkpt lat="46.33776" lon="5.38305">
        <ele>403</ele>
        <time>2022-02-08T14:35:20Z</time>
      </trkpt>
      <trkpt lat="46.33778" lon="5.38301">
        <ele>403.2</ele>
        <time>2022-02-08T14:35:21Z</time>
      </trkpt>
      <trkpt lat="46.33789" lon="5.38276">
        <ele>404</ele>
        <time>2022-02-08T14:35:27Z</time>
      </trkpt>
      <trkpt lat="46.33792" lon="5.38268">
        <ele>404.6</ele>
        <time>2022-02-08T14:35:29Z</time>
      </trkpt>
      <trkpt lat="46.33798" lon="5.38253">
        <ele>405.8</ele>
        <time>2022-02-08T14:35:33Z</time>
      </trkpt>
      <trkpt lat="46.33803" lon="5.38242">
        <ele>406.6</ele>
        <time>2022-02-08T14:35:36Z</time>
      </trkpt>
      <trkpt lat="46.33805" lon="5.38238">
        <ele>406.8</ele>
        <time>2022-02-08T14:35:37Z</time>
      </trkpt>
      <trkpt lat="46.33813" lon="5.3822">
        <ele>407.8</ele>
        <time>2022-02-08T14:35:42Z</time>
      </trkpt>
      <trkpt lat="46.33815" lon="5.38217">
        <ele>408.2</ele>
        <time>2022-02-08T14:35:43Z</time>
      </trkpt>
      <trkpt lat="46.33823" lon="5.38199">
        <ele>409</ele>
        <time>2022-02-08T14:35:48Z</time>
      </trkpt>
      <trkpt lat="46.33835" lon="5.38178">
        <ele>410</ele>
        <time>2022-02-08T14:35:54Z</time>
      </trkpt>
      <trkpt lat="46.33841" lon="5.38162">
        <ele>411.2</ele>
        <time>2022-02-08T14:35:58Z</time>
      </trkpt>
      <trkpt lat="46.33847" lon="5.38149">
        <ele>412</ele>
        <time>2022-02-08T14:36:01Z</time>
      </trkpt>
      <trkpt lat="46.33851" lon="5.38141">
        <ele>412.4</ele>
        <time>2022-02-08T14:36:03Z</time>
      </trkpt>
      <trkpt lat="46.33857" lon="5.38131">
        <ele>413.4</ele>
        <time>2022-02-08T14:36:06Z</time>
      </trkpt>
      <trkpt lat="46.33863" lon="5.38129">
        <ele>413.8</ele>
        <time>2022-02-08T14:36:08Z</time>
      </trkpt>
      <trkpt lat="46.33866" lon="5.3813">
        <ele>414</ele>
        <time>2022-02-08T14:36:09Z</time>
      </trkpt>
      <trkpt lat="46.3387" lon="5.38136">
        <ele>414.6</ele>
        <time>2022-02-08T14:36:11Z</time>
      </trkpt>
      <trkpt lat="46.33868" lon="5.38149">
        <ele>415.6</ele>
        <time>2022-02-08T14:36:14Z</time>
      </trkpt>
      <trkpt lat="46.33866" lon="5.38153">
        <ele>416</ele>
        <time>2022-02-08T14:36:15Z</time>
      </trkpt>
      <trkpt lat="46.33861" lon="5.38169">
        <ele>416.8</ele>
        <time>2022-02-08T14:36:19Z</time>
      </trkpt>
      <trkpt lat="46.3386" lon="5.38178">
        <ele>417.2</ele>
        <time>2022-02-08T14:36:21Z</time>
      </trkpt>
      <trkpt lat="46.33859" lon="5.38188">
        <ele>417.8</ele>
        <time>2022-02-08T14:36:23Z</time>
      </trkpt>
      <trkpt lat="46.33855" lon="5.38216">
        <ele>418.8</ele>
        <time>2022-02-08T14:36:29Z</time>
      </trkpt>
      <trkpt lat="46.33854" lon="5.3822">
        <ele>419</ele>
        <time>2022-02-08T14:36:30Z</time>
      </trkpt>
      <trkpt lat="46.33852" lon="5.38243">
        <ele>420</ele>
        <time>2022-02-08T14:36:35Z</time>
      </trkpt>
      <trkpt lat="46.33852" lon="5.38258">
        <ele>420.6</ele>
        <time>2022-02-08T14:36:38Z</time>
      </trkpt>
      <trkpt lat="46.33852" lon="5.38278">
        <ele>421.2</ele>
        <time>2022-02-08T14:36:42Z</time>
      </trkpt>
      <trkpt lat="46.33851" lon="5.38307">
        <ele>422.2</ele>
        <time>2022-02-08T14:36:48Z</time>
      </trkpt>
      <trkpt lat="46.33851" lon="5.38312">
        <ele>422.6</ele>
        <time>2022-02-08T14:36:49Z</time>
      </trkpt>
      <trkpt lat="46.33852" lon="5.38336">
        <ele>423.6</ele>
        <time>2022-02-08T14:36:54Z</time>
      </trkpt>
      <trkpt lat="46.33854" lon="5.38355">
        <ele>424.8</ele>
        <time>2022-02-08T14:36:58Z</time>
      </trkpt>
      <trkpt lat="46.33854" lon="5.3836">
        <ele>424.8</ele>
        <time>2022-02-08T14:36:59Z</time>
      </trkpt>
      <trkpt lat="46.33854" lon="5.38383">
        <ele>425.8</ele>
        <time>2022-02-08T14:37:04Z</time>
      </trkpt>
      <trkpt lat="46.33856" lon="5.384">
        <ele>427</ele>
        <time>2022-02-08T14:37:08Z</time>
      </trkpt>
      <trkpt lat="46.33859" lon="5.38413">
        <ele>428</ele>
        <time>2022-02-08T14:37:11Z</time>
      </trkpt>
      <trkpt lat="46.33864" lon="5.38436">
        <ele>429.2</ele>
        <time>2022-02-08T14:37:16Z</time>
      </trkpt>
      <trkpt lat="46.33867" lon="5.38451">
        <ele>430.2</ele>
        <time>2022-02-08T14:37:19Z</time>
      </trkpt>
      <trkpt lat="46.33867" lon="5.38476">
        <ele>431</ele>
        <time>2022-02-08T14:37:24Z</time>
      </trkpt>
      <trkpt lat="46.33865" lon="5.38481">
        <ele>431.4</ele>
        <time>2022-02-08T14:37:25Z</time>
      </trkpt>
      <trkpt lat="46.3386" lon="5.38498">
        <ele>432.4</ele>
        <time>2022-02-08T14:37:29Z</time>
      </trkpt>
      <trkpt lat="46.33856" lon="5.38506">
        <ele>432.8</ele>
        <time>2022-02-08T14:37:31Z</time>
      </trkpt>
      <trkpt lat="46.33851" lon="5.38517">
        <ele>434</ele>
        <time>2022-02-08T14:37:34Z</time>
      </trkpt>
      <trkpt lat="46.3384" lon="5.38541">
        <ele>435</ele>
        <time>2022-02-08T14:37:40Z</time>
      </trkpt>
      <trkpt lat="46.33839" lon="5.38545">
        <ele>435.4</ele>
        <time>2022-02-08T14:37:41Z</time>
      </trkpt>
      <trkpt lat="46.33833" lon="5.3856">
        <ele>436</ele>
        <time>2022-02-08T14:37:45Z</time>
      </trkpt>
      <trkpt lat="46.33827" lon="5.38582">
        <ele>437.4</ele>
        <time>2022-02-08T14:37:50Z</time>
      </trkpt>
      <trkpt lat="46.33821" lon="5.38611">
        <ele>438.4</ele>
        <time>2022-02-08T14:37:56Z</time>
      </trkpt>
      <trkpt lat="46.3382" lon="5.3863">
        <ele>439.4</ele>
        <time>2022-02-08T14:38:00Z</time>
      </trkpt>
      <trkpt lat="46.3382" lon="5.3864">
        <ele>439.6</ele>
        <time>2022-02-08T14:38:02Z</time>
      </trkpt>
      <trkpt lat="46.33822" lon="5.38659">
        <ele>440.2</ele>
        <time>2022-02-08T14:38:06Z</time>
      </trkpt>
      <trkpt lat="46.33824" lon="5.38663">
        <ele>440.6</ele>
        <time>2022-02-08T14:38:07Z</time>
      </trkpt>
      <trkpt lat="46.33835" lon="5.38682">
        <ele>441.6</ele>
        <time>2022-02-08T14:38:12Z</time>
      </trkpt>
      <trkpt lat="46.33837" lon="5.38685">
        <ele>441.8</ele>
        <time>2022-02-08T14:38:13Z</time>
      </trkpt>
      <trkpt lat="46.33854" lon="5.38698">
        <ele>442.8</ele>
        <time>2022-02-08T14:38:19Z</time>
      </trkpt>
      <trkpt lat="46.33857" lon="5.387">
        <ele>443</ele>
        <time>2022-02-08T14:38:20Z</time>
      </trkpt>
      <trkpt lat="46.33866" lon="5.38704">
        <ele>444</ele>
        <time>2022-02-08T14:38:23Z</time>
      </trkpt>
      <trkpt lat="46.33878" lon="5.3871">
        <ele>445</ele>
        <time>2022-02-08T14:38:27Z</time>
      </trkpt>
      <trkpt lat="46.33881" lon="5.38711">
        <ele>445.2</ele>
        <time>2022-02-08T14:38:28Z</time>
      </trkpt>
      <trkpt lat="46.33902" lon="5.38718">
        <ele>446.4</ele>
        <time>2022-02-08T14:38:34Z</time>
      </trkpt>
      <trkpt lat="46.33909" lon="5.38721">
        <ele>446.8</ele>
        <time>2022-02-08T14:38:36Z</time>
      </trkpt>
      <trkpt lat="46.33923" lon="5.38725">
        <ele>447.4</ele>
        <time>2022-02-08T14:38:40Z</time>
      </trkpt>
      <trkpt lat="46.33941" lon="5.38731">
        <ele>448.2</ele>
        <time>2022-02-08T14:38:45Z</time>
      </trkpt>
      <trkpt lat="46.3395" lon="5.38734">
        <ele>448.8</ele>
        <time>2022-02-08T14:38:47Z</time>
      </trkpt>
      <trkpt lat="46.33971" lon="5.38742">
        <ele>449.6</ele>
        <time>2022-02-08T14:38:53Z</time>
      </trkpt>
      <trkpt lat="46.33975" lon="5.38744">
        <ele>449.8</ele>
        <time>2022-02-08T14:38:54Z</time>
      </trkpt>
      <trkpt lat="46.33989" lon="5.3875">
        <ele>450.8</ele>
        <time>2022-02-08T14:38:58Z</time>
      </trkpt>
      <trkpt lat="46.34" lon="5.38756">
        <ele>451.6</ele>
        <time>2022-02-08T14:39:01Z</time>
      </trkpt>
      <trkpt lat="46.34004" lon="5.38759">
        <ele>452</ele>
        <time>2022-02-08T14:39:02Z</time>
      </trkpt>
      <trkpt lat="46.34024" lon="5.38772">
        <ele>453.2</ele>
        <time>2022-02-08T14:39:07Z</time>
      </trkpt>
      <trkpt lat="46.34034" lon="5.38777">
        <ele>453.6</ele>
        <time>2022-02-08T14:39:09Z</time>
      </trkpt>
      <trkpt lat="46.34071" lon="5.38797">
        <ele>454</ele>
        <time>2022-02-08T14:39:16Z</time>
      </trkpt>
      <trkpt lat="46.34108" lon="5.38819">
        <ele>454.2</ele>
        <time>2022-02-08T14:39:23Z</time>
      </trkpt>
      <trkpt lat="46.34146" lon="5.38843">
        <ele>454.2</ele>
        <time>2022-02-08T14:39:31Z</time>
      </trkpt>
      <trkpt lat="46.3419" lon="5.38865">
        <ele>454</ele>
        <time>2022-02-08T14:39:39Z</time>
      </trkpt>
      <trkpt lat="46.34227" lon="5.38885">
        <ele>453.2</ele>
        <time>2022-02-08T14:39:44Z</time>
      </trkpt>
      <trkpt lat="46.34269" lon="5.38909">
        <ele>451.8</ele>
        <time>2022-02-08T14:39:49Z</time>
      </trkpt>
      <trkpt lat="46.34278" lon="5.38915">
        <ele>451.4</ele>
        <time>2022-02-08T14:39:50Z</time>
      </trkpt>
      <trkpt lat="46.34313" lon="5.38937">
        <ele>450.6</ele>
        <time>2022-02-08T14:39:54Z</time>
      </trkpt>
      <trkpt lat="46.34332" lon="5.38949">
        <ele>449.6</ele>
        <time>2022-02-08T14:39:56Z</time>
      </trkpt>
      <trkpt lat="46.34342" lon="5.38954">
        <ele>449</ele>
        <time>2022-02-08T14:39:57Z</time>
      </trkpt>
      <trkpt lat="46.34353" lon="5.38959">
        <ele>448.6</ele>
        <time>2022-02-08T14:39:58Z</time>
      </trkpt>
      <trkpt lat="46.34363" lon="5.38963">
        <ele>448.2</ele>
        <time>2022-02-08T14:39:59Z</time>
      </trkpt>
      <trkpt lat="46.34374" lon="5.38965">
        <ele>447.8</ele>
        <time>2022-02-08T14:40:00Z</time>
      </trkpt>
      <trkpt lat="46.34386" lon="5.38964">
        <ele>447.4</ele>
        <time>2022-02-08T14:40:01Z</time>
      </trkpt>
      <trkpt lat="46.34408" lon="5.38955">
        <ele>446</ele>
        <time>2022-02-08T14:40:03Z</time>
      </trkpt>
      <trkpt lat="46.3442" lon="5.38948">
        <ele>445.6</ele>
        <time>2022-02-08T14:40:04Z</time>
      </trkpt>
      <trkpt lat="46.34431" lon="5.3894">
        <ele>444.6</ele>
        <time>2022-02-08T14:40:05Z</time>
      </trkpt>
      <trkpt lat="46.34453" lon="5.38925">
        <ele>443</ele>
        <time>2022-02-08T14:40:07Z</time>
      </trkpt>
      <trkpt lat="46.34476" lon="5.3891">
        <ele>441.8</ele>
        <time>2022-02-08T14:40:09Z</time>
      </trkpt>
      <trkpt lat="46.34487" lon="5.38903">
        <ele>440.6</ele>
        <time>2022-02-08T14:40:10Z</time>
      </trkpt>
      <trkpt lat="46.34508" lon="5.38887">
        <ele>439.2</ele>
        <time>2022-02-08T14:40:12Z</time>
      </trkpt>
      <trkpt lat="46.3453" lon="5.38874">
        <ele>438</ele>
        <time>2022-02-08T14:40:14Z</time>
      </trkpt>
      <trkpt lat="46.34541" lon="5.3887">
        <ele>437.2</ele>
        <time>2022-02-08T14:40:15Z</time>
      </trkpt>
      <trkpt lat="46.34552" lon="5.38868">
        <ele>436.6</ele>
        <time>2022-02-08T14:40:16Z</time>
      </trkpt>
      <trkpt lat="46.34563" lon="5.38869">
        <ele>435.8</ele>
        <time>2022-02-08T14:40:17Z</time>
      </trkpt>
      <trkpt lat="46.34574" lon="5.38874">
        <ele>435.6</ele>
        <time>2022-02-08T14:40:18Z</time>
      </trkpt>
      <trkpt lat="46.34583" lon="5.38884">
        <ele>435</ele>
        <time>2022-02-08T14:40:19Z</time>
      </trkpt>
      <trkpt lat="46.34591" lon="5.38896">
        <ele>434.2</ele>
        <time>2022-02-08T14:40:20Z</time>
      </trkpt>
      <trkpt lat="46.34608" lon="5.38924">
        <ele>432.6</ele>
        <time>2022-02-08T14:40:22Z</time>
      </trkpt>
      <trkpt lat="46.34616" lon="5.38937">
        <ele>432</ele>
        <time>2022-02-08T14:40:23Z</time>
      </trkpt>
      <trkpt lat="46.34626" lon="5.3895">
        <ele>430.8</ele>
        <time>2022-02-08T14:40:24Z</time>
      </trkpt>
      <trkpt lat="46.34636" lon="5.38962">
        <ele>430.2</ele>
        <time>2022-02-08T14:40:25Z</time>
      </trkpt>
      <trkpt lat="46.34647" lon="5.38972">
        <ele>428.8</ele>
        <time>2022-02-08T14:40:26Z</time>
      </trkpt>
      <trkpt lat="46.34659" lon="5.38981">
        <ele>428.2</ele>
        <time>2022-02-08T14:40:27Z</time>
      </trkpt>
      <trkpt lat="46.3467" lon="5.38989">
        <ele>427.4</ele>
        <time>2022-02-08T14:40:28Z</time>
      </trkpt>
      <trkpt lat="46.34682" lon="5.38998">
        <ele>426</ele>
        <time>2022-02-08T14:40:29Z</time>
      </trkpt>
      <trkpt lat="46.34693" lon="5.39012">
        <ele>425.4</ele>
        <time>2022-02-08T14:40:30Z</time>
      </trkpt>
      <trkpt lat="46.347" lon="5.39023">
        <ele>424.2</ele>
        <time>2022-02-08T14:40:31Z</time>
      </trkpt>
      <trkpt lat="46.34716" lon="5.39052">
        <ele>422</ele>
        <time>2022-02-08T14:40:33Z</time>
      </trkpt>
      <trkpt lat="46.3473" lon="5.39082">
        <ele>420</ele>
        <time>2022-02-08T14:40:35Z</time>
      </trkpt>
      <trkpt lat="46.34738" lon="5.39114">
        <ele>418.8</ele>
        <time>2022-02-08T14:40:37Z</time>
      </trkpt>
      <trkpt lat="46.34741" lon="5.39131">
        <ele>417.8</ele>
        <time>2022-02-08T14:40:38Z</time>
      </trkpt>
      <trkpt lat="46.34747" lon="5.39161">
        <ele>416.6</ele>
        <time>2022-02-08T14:40:40Z</time>
      </trkpt>
      <trkpt lat="46.34754" lon="5.39186">
        <ele>415</ele>
        <time>2022-02-08T14:40:42Z</time>
      </trkpt>
      <trkpt lat="46.34761" lon="5.39207">
        <ele>414.2</ele>
        <time>2022-02-08T14:40:44Z</time>
      </trkpt>
      <trkpt lat="46.34767" lon="5.39214">
        <ele>413.2</ele>
        <time>2022-02-08T14:40:45Z</time>
      </trkpt>
      <trkpt lat="46.34772" lon="5.39217">
        <ele>412.8</ele>
        <time>2022-02-08T14:40:46Z</time>
      </trkpt>
      <trkpt lat="46.34779" lon="5.39215">
        <ele>411.6</ele>
        <time>2022-02-08T14:40:47Z</time>
      </trkpt>
      <trkpt lat="46.34785" lon="5.39209">
        <ele>411</ele>
        <time>2022-02-08T14:40:48Z</time>
      </trkpt>
      <trkpt lat="46.34789" lon="5.39199">
        <ele>410.2</ele>
        <time>2022-02-08T14:40:49Z</time>
      </trkpt>
      <trkpt lat="46.3479" lon="5.39187">
        <ele>410</ele>
        <time>2022-02-08T14:40:50Z</time>
      </trkpt>
      <trkpt lat="46.34789" lon="5.39175">
        <ele>408.2</ele>
        <time>2022-02-08T14:40:51Z</time>
      </trkpt>
      <trkpt lat="46.34788" lon="5.39162">
        <ele>407.2</ele>
        <time>2022-02-08T14:40:52Z</time>
      </trkpt>
      <trkpt lat="46.34788" lon="5.39149">
        <ele>406.8</ele>
        <time>2022-02-08T14:40:53Z</time>
      </trkpt>
      <trkpt lat="46.3479" lon="5.39121">
        <ele>406.2</ele>
        <time>2022-02-08T14:40:55Z</time>
      </trkpt>
      <trkpt lat="46.34792" lon="5.39108">
        <ele>405.4</ele>
        <time>2022-02-08T14:40:56Z</time>
      </trkpt>
      <trkpt lat="46.34799" lon="5.3907">
        <ele>404.2</ele>
        <time>2022-02-08T14:40:59Z</time>
      </trkpt>
      <trkpt lat="46.34803" lon="5.39058">
        <ele>403.6</ele>
        <time>2022-02-08T14:41:00Z</time>
      </trkpt>
      <trkpt lat="46.34809" lon="5.39049">
        <ele>403</ele>
        <time>2022-02-08T14:41:01Z</time>
      </trkpt>
      <trkpt lat="46.34817" lon="5.39041">
        <ele>402.8</ele>
        <time>2022-02-08T14:41:02Z</time>
      </trkpt>
      <trkpt lat="46.34824" lon="5.39036">
        <ele>402</ele>
        <time>2022-02-08T14:41:03Z</time>
      </trkpt>
      <trkpt lat="46.34832" lon="5.39033">
        <ele>401.8</ele>
        <time>2022-02-08T14:41:04Z</time>
      </trkpt>
      <trkpt lat="46.34842" lon="5.39031">
        <ele>400.8</ele>
        <time>2022-02-08T14:41:05Z</time>
      </trkpt>
      <trkpt lat="46.34862" lon="5.39027">
        <ele>399.6</ele>
        <time>2022-02-08T14:41:07Z</time>
      </trkpt>
      <trkpt lat="46.34893" lon="5.39017">
        <ele>398.2</ele>
        <time>2022-02-08T14:41:10Z</time>
      </trkpt>
      <trkpt lat="46.34914" lon="5.39011">
        <ele>397</ele>
        <time>2022-02-08T14:41:12Z</time>
      </trkpt>
      <trkpt lat="46.34935" lon="5.39004">
        <ele>395.6</ele>
        <time>2022-02-08T14:41:14Z</time>
      </trkpt>
      <trkpt lat="46.34956" lon="5.38994">
        <ele>394.2</ele>
        <time>2022-02-08T14:41:16Z</time>
      </trkpt>
      <trkpt lat="46.34966" lon="5.3899">
        <ele>393.4</ele>
        <time>2022-02-08T14:41:17Z</time>
      </trkpt>
      <trkpt lat="46.34976" lon="5.38985">
        <ele>393</ele>
        <time>2022-02-08T14:41:18Z</time>
      </trkpt>
      <trkpt lat="46.34995" lon="5.38975">
        <ele>392</ele>
        <time>2022-02-08T14:41:20Z</time>
      </trkpt>
      <trkpt lat="46.35011" lon="5.38965">
        <ele>390.8</ele>
        <time>2022-02-08T14:41:22Z</time>
      </trkpt>
      <trkpt lat="46.35025" lon="5.38955">
        <ele>389.8</ele>
        <time>2022-02-08T14:41:24Z</time>
      </trkpt>
      <trkpt lat="46.35032" lon="5.38952">
        <ele>389.4</ele>
        <time>2022-02-08T14:41:25Z</time>
      </trkpt>
      <trkpt lat="46.35039" lon="5.38951">
        <ele>388.8</ele>
        <time>2022-02-08T14:41:26Z</time>
      </trkpt>
      <trkpt lat="46.35052" lon="5.38953">
        <ele>388</ele>
        <time>2022-02-08T14:41:28Z</time>
      </trkpt>
      <trkpt lat="46.35063" lon="5.38958">
        <ele>387.8</ele>
        <time>2022-02-08T14:41:30Z</time>
      </trkpt>
      <trkpt lat="46.35071" lon="5.38967">
        <ele>387.6</ele>
        <time>2022-02-08T14:41:32Z</time>
      </trkpt>
      <trkpt lat="46.35073" lon="5.38976">
        <ele>387.6</ele>
        <time>2022-02-08T14:41:33Z</time>
      </trkpt>
      <trkpt lat="46.35075" lon="5.38997">
        <ele>387.4</ele>
        <time>2022-02-08T14:41:35Z</time>
      </trkpt>
      <trkpt lat="46.35076" lon="5.39021">
        <ele>387.2</ele>
        <time>2022-02-08T14:41:37Z</time>
      </trkpt>
      <trkpt lat="46.35076" lon="5.39034">
        <ele>387</ele>
        <time>2022-02-08T14:41:38Z</time>
      </trkpt>
      <trkpt lat="46.35076" lon="5.39063">
        <ele>385.6</ele>
        <time>2022-02-08T14:41:40Z</time>
      </trkpt>
      <trkpt lat="46.35075" lon="5.39077">
        <ele>385.2</ele>
        <time>2022-02-08T14:41:41Z</time>
      </trkpt>
      <trkpt lat="46.35074" lon="5.39093">
        <ele>384.2</ele>
        <time>2022-02-08T14:41:42Z</time>
      </trkpt>
      <trkpt lat="46.35073" lon="5.39124">
        <ele>382.8</ele>
        <time>2022-02-08T14:41:44Z</time>
      </trkpt>
      <trkpt lat="46.35072" lon="5.39155">
        <ele>381.6</ele>
        <time>2022-02-08T14:41:46Z</time>
      </trkpt>
      <trkpt lat="46.35072" lon="5.39186">
        <ele>380.4</ele>
        <time>2022-02-08T14:41:48Z</time>
      </trkpt>
      <trkpt lat="46.35074" lon="5.39217">
        <ele>379.2</ele>
        <time>2022-02-08T14:41:50Z</time>
      </trkpt>
      <trkpt lat="46.35078" lon="5.39263">
        <ele>378</ele>
        <time>2022-02-08T14:41:53Z</time>
      </trkpt>
      <trkpt lat="46.35079" lon="5.39278">
        <ele>377.8</ele>
        <time>2022-02-08T14:41:54Z</time>
      </trkpt>
      <trkpt lat="46.35082" lon="5.39308">
        <ele>376.6</ele>
        <time>2022-02-08T14:41:56Z</time>
      </trkpt>
      <trkpt lat="46.35083" lon="5.39353">
        <ele>375.4</ele>
        <time>2022-02-08T14:41:59Z</time>
      </trkpt>
      <trkpt lat="46.35083" lon="5.39367">
        <ele>374.8</ele>
        <time>2022-02-08T14:42:00Z</time>
      </trkpt>
      <trkpt lat="46.35081" lon="5.39396">
        <ele>374.2</ele>
        <time>2022-02-08T14:42:02Z</time>
      </trkpt>
      <trkpt lat="46.35078" lon="5.39449">
        <ele>373.8</ele>
        <time>2022-02-08T14:42:06Z</time>
      </trkpt>
      <trkpt lat="46.35079" lon="5.39522">
        <ele>373.6</ele>
        <time>2022-02-08T14:42:12Z</time>
      </trkpt>
      <trkpt lat="46.35084" lon="5.3961">
        <ele>373.2</ele>
        <time>2022-02-08T14:42:19Z</time>
      </trkpt>
      <trkpt lat="46.35084" lon="5.39623">
        <ele>372.8</ele>
        <time>2022-02-08T14:42:20Z</time>
      </trkpt>
      <trkpt lat="46.35081" lon="5.39671">
        <ele>372.4</ele>
        <time>2022-02-08T14:42:24Z</time>
      </trkpt>
      <trkpt lat="46.3508" lon="5.39695">
        <ele>372.2</ele>
        <time>2022-02-08T14:42:26Z</time>
      </trkpt>
      <trkpt lat="46.35083" lon="5.39731">
        <ele>372.2</ele>
        <time>2022-02-08T14:42:29Z</time>
      </trkpt>
      <trkpt lat="46.35085" lon="5.39742">
        <ele>372.2</ele>
        <time>2022-02-08T14:42:30Z</time>
      </trkpt>
      <trkpt lat="46.35107" lon="5.39818">
        <ele>371.8</ele>
        <time>2022-02-08T14:42:37Z</time>
      </trkpt>
      <trkpt lat="46.35138" lon="5.39888">
        <ele>371.4</ele>
        <time>2022-02-08T14:42:44Z</time>
      </trkpt>
      <trkpt lat="46.35142" lon="5.39898">
        <ele>371.4</ele>
        <time>2022-02-08T14:42:45Z</time>
      </trkpt>
      <trkpt lat="46.35172" lon="5.39956">
        <ele>370.8</ele>
        <time>2022-02-08T14:42:51Z</time>
      </trkpt>
      <trkpt lat="46.35196" lon="5.39994">
        <ele>370.2</ele>
        <time>2022-02-08T14:42:55Z</time>
      </trkpt>
      <trkpt lat="46.35207" lon="5.40014">
        <ele>370</ele>
        <time>2022-02-08T14:42:57Z</time>
      </trkpt>
      <trkpt lat="46.35237" lon="5.40071">
        <ele>370</ele>
        <time>2022-02-08T14:43:03Z</time>
      </trkpt>
      <trkpt lat="46.35268" lon="5.4012">
        <ele>370.2</ele>
        <time>2022-02-08T14:43:09Z</time>
      </trkpt>
      <trkpt lat="46.35272" lon="5.4013">
        <ele>370.2</ele>
        <time>2022-02-08T14:43:10Z</time>
      </trkpt>
      <trkpt lat="46.35274" lon="5.4014">
        <ele>370.2</ele>
        <time>2022-02-08T14:43:11Z</time>
      </trkpt>
      <trkpt lat="46.35277" lon="5.40162">
        <ele>370.2</ele>
        <time>2022-02-08T14:43:13Z</time>
      </trkpt>
      <trkpt lat="46.35277" lon="5.40174">
        <ele>370.2</ele>
        <time>2022-02-08T14:43:14Z</time>
      </trkpt>
      <trkpt lat="46.35276" lon="5.40186">
        <ele>370.2</ele>
        <time>2022-02-08T14:43:15Z</time>
      </trkpt>
      <trkpt lat="46.35275" lon="5.40209">
        <ele>370</ele>
        <time>2022-02-08T14:43:17Z</time>
      </trkpt>
      <trkpt lat="46.35277" lon="5.4026">
        <ele>369.4</ele>
        <time>2022-02-08T14:43:21Z</time>
      </trkpt>
      <trkpt lat="46.35278" lon="5.40273">
        <ele>369.4</ele>
        <time>2022-02-08T14:43:22Z</time>
      </trkpt>
      <trkpt lat="46.3528" lon="5.40298">
        <ele>369.2</ele>
        <time>2022-02-08T14:43:24Z</time>
      </trkpt>
      <trkpt lat="46.35287" lon="5.40346">
        <ele>368.2</ele>
        <time>2022-02-08T14:43:28Z</time>
      </trkpt>
      <trkpt lat="46.35295" lon="5.40367">
        <ele>368.2</ele>
        <time>2022-02-08T14:43:30Z</time>
      </trkpt>
      <trkpt lat="46.35301" lon="5.40375">
        <ele>368</ele>
        <time>2022-02-08T14:43:31Z</time>
      </trkpt>
      <trkpt lat="46.35308" lon="5.40381">
        <ele>368</ele>
        <time>2022-02-08T14:43:32Z</time>
      </trkpt>
      <trkpt lat="46.35323" lon="5.40389">
        <ele>367.8</ele>
        <time>2022-02-08T14:43:34Z</time>
      </trkpt>
      <trkpt lat="46.35366" lon="5.40405">
        <ele>367.8</ele>
        <time>2022-02-08T14:43:40Z</time>
      </trkpt>
      <trkpt lat="46.35377" lon="5.40412">
        <ele>368</ele>
        <time>2022-02-08T14:43:42Z</time>
      </trkpt>
      <trkpt lat="46.35387" lon="5.40423">
        <ele>368.4</ele>
        <time>2022-02-08T14:43:44Z</time>
      </trkpt>
      <trkpt lat="46.35393" lon="5.40437">
        <ele>368.6</ele>
        <time>2022-02-08T14:43:46Z</time>
      </trkpt>
      <trkpt lat="46.35395" lon="5.40446">
        <ele>368.8</ele>
        <time>2022-02-08T14:43:47Z</time>
      </trkpt>
      <trkpt lat="46.35399" lon="5.40465">
        <ele>369</ele>
        <time>2022-02-08T14:43:49Z</time>
      </trkpt>
      <trkpt lat="46.35406" lon="5.40506">
        <ele>369.8</ele>
        <time>2022-02-08T14:43:53Z</time>
      </trkpt>
      <trkpt lat="46.35407" lon="5.40527">
        <ele>369.8</ele>
        <time>2022-02-08T14:43:55Z</time>
      </trkpt>
      <trkpt lat="46.35406" lon="5.40547">
        <ele>370</ele>
        <time>2022-02-08T14:43:57Z</time>
      </trkpt>
      <trkpt lat="46.354" lon="5.40592">
        <ele>370</ele>
        <time>2022-02-08T14:44:02Z</time>
      </trkpt>
      <trkpt lat="46.35399" lon="5.406">
        <ele>370.2</ele>
        <time>2022-02-08T14:44:03Z</time>
      </trkpt>
      <trkpt lat="46.35393" lon="5.40639">
        <ele>371.2</ele>
        <time>2022-02-08T14:44:08Z</time>
      </trkpt>
      <trkpt lat="46.35392" lon="5.40647">
        <ele>371.4</ele>
        <time>2022-02-08T14:44:09Z</time>
      </trkpt>
      <trkpt lat="46.3539" lon="5.40654">
        <ele>371.6</ele>
        <time>2022-02-08T14:44:10Z</time>
      </trkpt>
      <trkpt lat="46.35381" lon="5.40672">
        <ele>371.8</ele>
        <time>2022-02-08T14:44:13Z</time>
      </trkpt>
      <trkpt lat="46.35378" lon="5.40677">
        <ele>372</ele>
        <time>2022-02-08T14:44:14Z</time>
      </trkpt>
      <trkpt lat="46.35375" lon="5.40681">
        <ele>372.4</ele>
        <time>2022-02-08T14:44:15Z</time>
      </trkpt>
      <trkpt lat="46.35368" lon="5.40687">
        <ele>372.8</ele>
        <time>2022-02-08T14:44:17Z</time>
      </trkpt>
      <trkpt lat="46.35356" lon="5.40695">
        <ele>373.4</ele>
        <time>2022-02-08T14:44:20Z</time>
      </trkpt>
      <trkpt lat="46.35349" lon="5.40701">
        <ele>374.4</ele>
        <time>2022-02-08T14:44:22Z</time>
      </trkpt>
      <trkpt lat="46.35345" lon="5.40704">
        <ele>374.6</ele>
        <time>2022-02-08T14:44:23Z</time>
      </trkpt>
      <trkpt lat="46.35342" lon="5.40706">
        <ele>375</ele>
        <time>2022-02-08T14:44:24Z</time>
      </trkpt>
      <trkpt lat="46.35331" lon="5.40714">
        <ele>375.6</ele>
        <time>2022-02-08T14:44:27Z</time>
      </trkpt>
      <trkpt lat="46.35328" lon="5.40718">
        <ele>376</ele>
        <time>2022-02-08T14:44:28Z</time>
      </trkpt>
      <trkpt lat="46.35319" lon="5.40731">
        <ele>377</ele>
        <time>2022-02-08T14:44:31Z</time>
      </trkpt>
      <trkpt lat="46.35314" lon="5.40746">
        <ele>378.2</ele>
        <time>2022-02-08T14:44:34Z</time>
      </trkpt>
      <trkpt lat="46.35314" lon="5.40751">
        <ele>378.4</ele>
        <time>2022-02-08T14:44:35Z</time>
      </trkpt>
      <trkpt lat="46.35317" lon="5.40761">
        <ele>379</ele>
        <time>2022-02-08T14:44:37Z</time>
      </trkpt>
      <trkpt lat="46.35319" lon="5.40765">
        <ele>379.2</ele>
        <time>2022-02-08T14:44:38Z</time>
      </trkpt>
      <trkpt lat="46.35332" lon="5.40777">
        <ele>380.6</ele>
        <time>2022-02-08T14:44:42Z</time>
      </trkpt>
      <trkpt lat="46.35346" lon="5.40784">
        <ele>381.8</ele>
        <time>2022-02-08T14:44:46Z</time>
      </trkpt>
      <trkpt lat="46.35354" lon="5.40784">
        <ele>382.4</ele>
        <time>2022-02-08T14:44:48Z</time>
      </trkpt>
      <trkpt lat="46.35363" lon="5.4078">
        <ele>382.8</ele>
        <time>2022-02-08T14:44:50Z</time>
      </trkpt>
      <trkpt lat="46.35368" lon="5.40779">
        <ele>383</ele>
        <time>2022-02-08T14:44:51Z</time>
      </trkpt>
      <trkpt lat="46.35378" lon="5.40777">
        <ele>383</ele>
        <time>2022-02-08T14:44:53Z</time>
      </trkpt>
      <trkpt lat="46.35403" lon="5.40774">
        <ele>383</ele>
        <time>2022-02-08T14:44:57Z</time>
      </trkpt>
      <trkpt lat="46.3541" lon="5.40771">
        <ele>382.8</ele>
        <time>2022-02-08T14:44:58Z</time>
      </trkpt>
      <trkpt lat="46.35437" lon="5.40754">
        <ele>382</ele>
        <time>2022-02-08T14:45:02Z</time>
      </trkpt>
      <trkpt lat="46.35444" lon="5.4075">
        <ele>381.6</ele>
        <time>2022-02-08T14:45:03Z</time>
      </trkpt>
      <trkpt lat="46.35458" lon="5.40743">
        <ele>381.2</ele>
        <time>2022-02-08T14:45:05Z</time>
      </trkpt>
      <trkpt lat="46.35474" lon="5.4074">
        <ele>380.6</ele>
        <time>2022-02-08T14:45:07Z</time>
      </trkpt>
      <trkpt lat="46.35516" lon="5.4074">
        <ele>379.4</ele>
        <time>2022-02-08T14:45:12Z</time>
      </trkpt>
      <trkpt lat="46.35525" lon="5.4074">
        <ele>379.2</ele>
        <time>2022-02-08T14:45:13Z</time>
      </trkpt>
      <trkpt lat="46.35552" lon="5.40744">
        <ele>378.4</ele>
        <time>2022-02-08T14:45:16Z</time>
      </trkpt>
      <trkpt lat="46.35571" lon="5.40749">
        <ele>377.4</ele>
        <time>2022-02-08T14:45:18Z</time>
      </trkpt>
      <trkpt lat="46.3558" lon="5.40753">
        <ele>376.8</ele>
        <time>2022-02-08T14:45:19Z</time>
      </trkpt>
      <trkpt lat="46.35605" lon="5.40764">
        <ele>375.8</ele>
        <time>2022-02-08T14:45:22Z</time>
      </trkpt>
      <trkpt lat="46.35622" lon="5.4077">
        <ele>375.2</ele>
        <time>2022-02-08T14:45:24Z</time>
      </trkpt>
      <trkpt lat="46.35631" lon="5.40771">
        <ele>375</ele>
        <time>2022-02-08T14:45:25Z</time>
      </trkpt>
      <trkpt lat="46.35639" lon="5.40773">
        <ele>374.6</ele>
        <time>2022-02-08T14:45:26Z</time>
      </trkpt>
      <trkpt lat="46.35655" lon="5.40776">
        <ele>374.2</ele>
        <time>2022-02-08T14:45:28Z</time>
      </trkpt>
      <trkpt lat="46.35696" lon="5.40776">
        <ele>373.6</ele>
        <time>2022-02-08T14:45:33Z</time>
      </trkpt>
      <trkpt lat="46.35741" lon="5.40762">
        <ele>373.2</ele>
        <time>2022-02-08T14:45:39Z</time>
      </trkpt>
      <trkpt lat="46.35762" lon="5.4075">
        <ele>372.8</ele>
        <time>2022-02-08T14:45:42Z</time>
      </trkpt>
      <trkpt lat="46.35776" lon="5.40745">
        <ele>372.8</ele>
        <time>2022-02-08T14:45:44Z</time>
      </trkpt>
      <trkpt lat="46.35804" lon="5.40748">
        <ele>373</ele>
        <time>2022-02-08T14:45:48Z</time>
      </trkpt>
      <trkpt lat="46.35858" lon="5.40762">
        <ele>373.2</ele>
        <time>2022-02-08T14:45:56Z</time>
      </trkpt>
      <trkpt lat="46.35865" lon="5.40764">
        <ele>373</ele>
        <time>2022-02-08T14:45:57Z</time>
      </trkpt>
      <trkpt lat="46.35923" lon="5.40782">
        <ele>373</ele>
        <time>2022-02-08T14:46:06Z</time>
      </trkpt>
      <trkpt lat="46.35934" lon="5.40792">
        <ele>373</ele>
        <time>2022-02-08T14:46:08Z</time>
      </trkpt>
      <trkpt lat="46.35944" lon="5.40805">
        <ele>373.2</ele>
        <time>2022-02-08T14:46:10Z</time>
      </trkpt>
      <trkpt lat="46.35981" lon="5.40844">
        <ele>373.6</ele>
        <time>2022-02-08T14:46:17Z</time>
      </trkpt>
      <trkpt lat="46.36005" lon="5.40874">
        <ele>373.8</ele>
        <time>2022-02-08T14:46:22Z</time>
      </trkpt>
      <trkpt lat="46.36027" lon="5.40909">
        <ele>374.2</ele>
        <time>2022-02-08T14:46:27Z</time>
      </trkpt>
      <trkpt lat="46.36032" lon="5.40914">
        <ele>374.4</ele>
        <time>2022-02-08T14:46:28Z</time>
      </trkpt>
      <trkpt lat="46.36038" lon="5.40918">
        <ele>374.4</ele>
        <time>2022-02-08T14:46:29Z</time>
      </trkpt>
      <trkpt lat="46.36066" lon="5.40934">
        <ele>374.8</ele>
        <time>2022-02-08T14:46:34Z</time>
      </trkpt>
      <trkpt lat="46.36097" lon="5.40945">
        <ele>375.2</ele>
        <time>2022-02-08T14:46:39Z</time>
      </trkpt>
      <trkpt lat="46.36103" lon="5.40945">
        <ele>375.2</ele>
        <time>2022-02-08T14:46:40Z</time>
      </trkpt>
      <trkpt lat="46.36132" lon="5.40942">
        <ele>375.8</ele>
        <time>2022-02-08T14:46:45Z</time>
      </trkpt>
      <trkpt lat="46.36144" lon="5.40943">
        <ele>376</ele>
        <time>2022-02-08T14:46:47Z</time>
      </trkpt>
      <trkpt lat="46.362" lon="5.40957">
        <ele>376.8</ele>
        <time>2022-02-08T14:46:57Z</time>
      </trkpt>
      <trkpt lat="46.36251" lon="5.40964">
        <ele>377.2</ele>
        <time>2022-02-08T14:47:06Z</time>
      </trkpt>
      <trkpt lat="46.36291" lon="5.40953">
        <ele>378</ele>
        <time>2022-02-08T14:47:13Z</time>
      </trkpt>
      <trkpt lat="46.36329" lon="5.40937">
        <ele>378.6</ele>
        <time>2022-02-08T14:47:20Z</time>
      </trkpt>
      <trkpt lat="46.36367" lon="5.40937">
        <ele>379</ele>
        <time>2022-02-08T14:47:27Z</time>
      </trkpt>
      <trkpt lat="46.36426" lon="5.40941">
        <ele>379.8</ele>
        <time>2022-02-08T14:47:37Z</time>
      </trkpt>
      <trkpt lat="46.36449" lon="5.40947">
        <ele>380</ele>
        <time>2022-02-08T14:47:41Z</time>
      </trkpt>
      <trkpt lat="46.36461" lon="5.4095">
        <ele>380.2</ele>
        <time>2022-02-08T14:47:43Z</time>
      </trkpt>
      <trkpt lat="46.36467" lon="5.40951">
        <ele>380.2</ele>
        <time>2022-02-08T14:47:44Z</time>
      </trkpt>
      <trkpt lat="46.36514" lon="5.40954">
        <ele>380.6</ele>
        <time>2022-02-08T14:47:52Z</time>
      </trkpt>
      <trkpt lat="46.36548" lon="5.40955">
        <ele>381</ele>
        <time>2022-02-08T14:47:58Z</time>
      </trkpt>
      <trkpt lat="46.36565" lon="5.40956">
        <ele>381.4</ele>
        <time>2022-02-08T14:48:01Z</time>
      </trkpt>
      <trkpt lat="46.36598" lon="5.40959">
        <ele>382.2</ele>
        <time>2022-02-08T14:48:07Z</time>
      </trkpt>
      <trkpt lat="46.36618" lon="5.40961">
        <ele>382.6</ele>
        <time>2022-02-08T14:48:11Z</time>
      </trkpt>
      <trkpt lat="46.3664" lon="5.40966">
        <ele>383.2</ele>
        <time>2022-02-08T14:48:15Z</time>
      </trkpt>
      <trkpt lat="46.36652" lon="5.4097">
        <ele>383.4</ele>
        <time>2022-02-08T14:48:17Z</time>
      </trkpt>
      <trkpt lat="46.36657" lon="5.40973">
        <ele>383.6</ele>
        <time>2022-02-08T14:48:18Z</time>
      </trkpt>
      <trkpt lat="46.36682" lon="5.40982">
        <ele>384</ele>
        <time>2022-02-08T14:48:23Z</time>
      </trkpt>
      <trkpt lat="46.36686" lon="5.40983">
        <ele>384</ele>
        <time>2022-02-08T14:48:24Z</time>
      </trkpt>
      <trkpt lat="46.36696" lon="5.40984">
        <ele>384.2</ele>
        <time>2022-02-08T14:48:26Z</time>
      </trkpt>
      <trkpt lat="46.36732" lon="5.40987">
        <ele>385.2</ele>
        <time>2022-02-08T14:48:33Z</time>
      </trkpt>
      <trkpt lat="46.36741" lon="5.40987">
        <ele>385.4</ele>
        <time>2022-02-08T14:48:35Z</time>
      </trkpt>
      <trkpt lat="46.36749" lon="5.40987">
        <ele>385.8</ele>
        <time>2022-02-08T14:48:37Z</time>
      </trkpt>
      <trkpt lat="46.36769" lon="5.40991">
        <ele>386.4</ele>
        <time>2022-02-08T14:48:41Z</time>
      </trkpt>
      <trkpt lat="46.36785" lon="5.40993">
        <ele>387.4</ele>
        <time>2022-02-08T14:48:44Z</time>
      </trkpt>
      <trkpt lat="46.36806" lon="5.40994">
        <ele>388.6</ele>
        <time>2022-02-08T14:48:48Z</time>
      </trkpt>
      <trkpt lat="46.36822" lon="5.40991">
        <ele>389.2</ele>
        <time>2022-02-08T14:48:51Z</time>
      </trkpt>
      <trkpt lat="46.36842" lon="5.4099">
        <ele>389.8</ele>
        <time>2022-02-08T14:48:55Z</time>
      </trkpt>
      <trkpt lat="46.36861" lon="5.40991">
        <ele>390.2</ele>
        <time>2022-02-08T14:48:59Z</time>
      </trkpt>
      <trkpt lat="46.36874" lon="5.40993">
        <ele>390.8</ele>
        <time>2022-02-08T14:49:02Z</time>
      </trkpt>
      <trkpt lat="46.369" lon="5.40995">
        <ele>391.4</ele>
        <time>2022-02-08T14:49:07Z</time>
      </trkpt>
      <trkpt lat="46.36941" lon="5.40995">
        <ele>391.8</ele>
        <time>2022-02-08T14:49:14Z</time>
      </trkpt>
      <trkpt lat="46.36965" lon="5.40987">
        <ele>391.8</ele>
        <time>2022-02-08T14:49:18Z</time>
      </trkpt>
      <trkpt lat="46.36984" lon="5.4098">
        <ele>391.6</ele>
        <time>2022-02-08T14:49:21Z</time>
      </trkpt>
      <trkpt lat="46.37037" lon="5.40964">
        <ele>391</ele>
        <time>2022-02-08T14:49:30Z</time>
      </trkpt>
      <trkpt lat="46.37048" lon="5.40962">
        <ele>391</ele>
        <time>2022-02-08T14:49:32Z</time>
      </trkpt>
      <trkpt lat="46.37064" lon="5.40965">
        <ele>391.2</ele>
        <time>2022-02-08T14:49:35Z</time>
      </trkpt>
      <trkpt lat="46.3707" lon="5.40967">
        <ele>391.2</ele>
        <time>2022-02-08T14:49:36Z</time>
      </trkpt>
      <trkpt lat="46.37099" lon="5.40983">
        <ele>391.8</ele>
        <time>2022-02-08T14:49:41Z</time>
      </trkpt>
      <trkpt lat="46.37113" lon="5.40987">
        <ele>391.8</ele>
        <time>2022-02-08T14:49:43Z</time>
      </trkpt>
      <trkpt lat="46.37171" lon="5.41008">
        <ele>391.6</ele>
        <time>2022-02-08T14:49:52Z</time>
      </trkpt>
      <trkpt lat="46.37197" lon="5.41021">
        <ele>391.8</ele>
        <time>2022-02-08T14:49:57Z</time>
      </trkpt>
      <trkpt lat="46.37231" lon="5.41035">
        <ele>393</ele>
        <time>2022-02-08T14:50:04Z</time>
      </trkpt>
      <trkpt lat="46.37241" lon="5.41039">
        <ele>394</ele>
        <time>2022-02-08T14:50:06Z</time>
      </trkpt>
      <trkpt lat="46.37246" lon="5.41041">
        <ele>394.2</ele>
        <time>2022-02-08T14:50:07Z</time>
      </trkpt>
      <trkpt lat="46.3727" lon="5.41049">
        <ele>395.4</ele>
        <time>2022-02-08T14:50:12Z</time>
      </trkpt>
      <trkpt lat="46.37289" lon="5.41054">
        <ele>396.2</ele>
        <time>2022-02-08T14:50:16Z</time>
      </trkpt>
      <trkpt lat="46.37293" lon="5.41055">
        <ele>396.4</ele>
        <time>2022-02-08T14:50:17Z</time>
      </trkpt>
      <trkpt lat="46.37316" lon="5.4106">
        <ele>397.4</ele>
        <time>2022-02-08T14:50:22Z</time>
      </trkpt>
      <trkpt lat="46.37329" lon="5.41062">
        <ele>398.4</ele>
        <time>2022-02-08T14:50:25Z</time>
      </trkpt>
      <trkpt lat="46.37334" lon="5.41062">
        <ele>398.6</ele>
        <time>2022-02-08T14:50:26Z</time>
      </trkpt>
      <trkpt lat="46.37346" lon="5.41059">
        <ele>399.6</ele>
        <time>2022-02-08T14:50:29Z</time>
      </trkpt>
      <trkpt lat="46.37354" lon="5.41055">
        <ele>400</ele>
        <time>2022-02-08T14:50:31Z</time>
      </trkpt>
      <trkpt lat="46.37364" lon="5.41045">
        <ele>400.8</ele>
        <time>2022-02-08T14:50:34Z</time>
      </trkpt>
      <trkpt lat="46.37367" lon="5.41042">
        <ele>401</ele>
        <time>2022-02-08T14:50:35Z</time>
      </trkpt>
      <trkpt lat="46.37376" lon="5.41028">
        <ele>401.6</ele>
        <time>2022-02-08T14:50:38Z</time>
      </trkpt>
      <trkpt lat="46.37382" lon="5.41015">
        <ele>401.6</ele>
        <time>2022-02-08T14:50:40Z</time>
      </trkpt>
      <trkpt lat="46.37392" lon="5.40992">
        <ele>401.4</ele>
        <time>2022-02-08T14:50:43Z</time>
      </trkpt>
      <trkpt lat="46.37393" lon="5.40982">
        <ele>401.2</ele>
        <time>2022-02-08T14:50:44Z</time>
      </trkpt>
      <trkpt lat="46.37393" lon="5.40971">
        <ele>401</ele>
        <time>2022-02-08T14:50:45Z</time>
      </trkpt>
      <trkpt lat="46.37389" lon="5.40949">
        <ele>400.2</ele>
        <time>2022-02-08T14:50:47Z</time>
      </trkpt>
      <trkpt lat="46.37383" lon="5.40927">
        <ele>400</ele>
        <time>2022-02-08T14:50:49Z</time>
      </trkpt>
      <trkpt lat="46.37376" lon="5.4089">
        <ele>398.8</ele>
        <time>2022-02-08T14:50:52Z</time>
      </trkpt>
      <trkpt lat="46.37373" lon="5.40877">
        <ele>398.6</ele>
        <time>2022-02-08T14:50:53Z</time>
      </trkpt>
      <trkpt lat="46.37372" lon="5.40863">
        <ele>397.8</ele>
        <time>2022-02-08T14:50:54Z</time>
      </trkpt>
      <trkpt lat="46.37371" lon="5.40849">
        <ele>397.6</ele>
        <time>2022-02-08T14:50:55Z</time>
      </trkpt>
      <trkpt lat="46.37373" lon="5.40835">
        <ele>397.2</ele>
        <time>2022-02-08T14:50:56Z</time>
      </trkpt>
      <trkpt lat="46.37377" lon="5.40822">
        <ele>397</ele>
        <time>2022-02-08T14:50:57Z</time>
      </trkpt>
      <trkpt lat="46.37387" lon="5.40797">
        <ele>396.4</ele>
        <time>2022-02-08T14:50:59Z</time>
      </trkpt>
      <trkpt lat="46.37392" lon="5.40784">
        <ele>395.8</ele>
        <time>2022-02-08T14:51:00Z</time>
      </trkpt>
      <trkpt lat="46.37396" lon="5.40772">
        <ele>395</ele>
        <time>2022-02-08T14:51:01Z</time>
      </trkpt>
      <trkpt lat="46.37404" lon="5.40746">
        <ele>393.2</ele>
        <time>2022-02-08T14:51:03Z</time>
      </trkpt>
      <trkpt lat="46.3741" lon="5.40721">
        <ele>392.2</ele>
        <time>2022-02-08T14:51:05Z</time>
      </trkpt>
      <trkpt lat="46.37412" lon="5.40709">
        <ele>391.8</ele>
        <time>2022-02-08T14:51:06Z</time>
      </trkpt>
      <trkpt lat="46.37417" lon="5.40659">
        <ele>391.2</ele>
        <time>2022-02-08T14:51:10Z</time>
      </trkpt>
      <trkpt lat="46.37419" lon="5.40623">
        <ele>390.8</ele>
        <time>2022-02-08T14:51:13Z</time>
      </trkpt>
      <trkpt lat="46.37418" lon="5.40587">
        <ele>390.6</ele>
        <time>2022-02-08T14:51:16Z</time>
      </trkpt>
      <trkpt lat="46.37413" lon="5.4055">
        <ele>389.6</ele>
        <time>2022-02-08T14:51:19Z</time>
      </trkpt>
      <trkpt lat="46.37407" lon="5.4051">
        <ele>389</ele>
        <time>2022-02-08T14:51:22Z</time>
      </trkpt>
      <trkpt lat="46.37405" lon="5.40497">
        <ele>388.2</ele>
        <time>2022-02-08T14:51:23Z</time>
      </trkpt>
      <trkpt lat="46.37399" lon="5.40455">
        <ele>387</ele>
        <time>2022-02-08T14:51:26Z</time>
      </trkpt>
      <trkpt lat="46.37394" lon="5.40414">
        <ele>386</ele>
        <time>2022-02-08T14:51:29Z</time>
      </trkpt>
      <trkpt lat="46.3739" lon="5.40372">
        <ele>384.8</ele>
        <time>2022-02-08T14:51:32Z</time>
      </trkpt>
      <trkpt lat="46.37385" lon="5.40329">
        <ele>383.6</ele>
        <time>2022-02-08T14:51:35Z</time>
      </trkpt>
      <trkpt lat="46.37381" lon="5.40301">
        <ele>382.6</ele>
        <time>2022-02-08T14:51:37Z</time>
      </trkpt>
      <trkpt lat="46.37378" lon="5.40274">
        <ele>381.4</ele>
        <time>2022-02-08T14:51:39Z</time>
      </trkpt>
      <trkpt lat="46.37369" lon="5.40209">
        <ele>380</ele>
        <time>2022-02-08T14:51:44Z</time>
      </trkpt>
      <trkpt lat="46.37364" lon="5.40185">
        <ele>379.8</ele>
        <time>2022-02-08T14:51:46Z</time>
      </trkpt>
      <trkpt lat="46.3735" lon="5.40117">
        <ele>379.4</ele>
        <time>2022-02-08T14:51:52Z</time>
      </trkpt>
      <trkpt lat="46.3734" lon="5.40055">
        <ele>379</ele>
        <time>2022-02-08T14:51:58Z</time>
      </trkpt>
      <trkpt lat="46.37339" lon="5.40034">
        <ele>379</ele>
        <time>2022-02-08T14:52:00Z</time>
      </trkpt>
      <trkpt lat="46.37332" lon="5.39996">
        <ele>379</ele>
        <time>2022-02-08T14:52:04Z</time>
      </trkpt>
      <trkpt lat="46.37323" lon="5.39952">
        <ele>379.4</ele>
        <time>2022-02-08T14:52:09Z</time>
      </trkpt>
      <trkpt lat="46.37322" lon="5.39944">
        <ele>379.4</ele>
        <time>2022-02-08T14:52:10Z</time>
      </trkpt>
      <trkpt lat="46.37322" lon="5.39937">
        <ele>379.6</ele>
        <time>2022-02-08T14:52:11Z</time>
      </trkpt>
      <trkpt lat="46.37327" lon="5.39914">
        <ele>380.2</ele>
        <time>2022-02-08T14:52:14Z</time>
      </trkpt>
      <trkpt lat="46.37329" lon="5.39907">
        <ele>380.4</ele>
        <time>2022-02-08T14:52:15Z</time>
      </trkpt>
      <trkpt lat="46.37333" lon="5.39901">
        <ele>380.6</ele>
        <time>2022-02-08T14:52:16Z</time>
      </trkpt>
      <trkpt lat="46.37341" lon="5.39894">
        <ele>381.2</ele>
        <time>2022-02-08T14:52:18Z</time>
      </trkpt>
      <trkpt lat="46.37346" lon="5.39892">
        <ele>381.4</ele>
        <time>2022-02-08T14:52:19Z</time>
      </trkpt>
      <trkpt lat="46.37351" lon="5.3989">
        <ele>381.8</ele>
        <time>2022-02-08T14:52:20Z</time>
      </trkpt>
      <trkpt lat="46.37364" lon="5.39888">
        <ele>382.8</ele>
        <time>2022-02-08T14:52:23Z</time>
      </trkpt>
      <trkpt lat="46.37383" lon="5.3989">
        <ele>384</ele>
        <time>2022-02-08T14:52:27Z</time>
      </trkpt>
      <trkpt lat="46.37398" lon="5.39894">
        <ele>384.6</ele>
        <time>2022-02-08T14:52:30Z</time>
      </trkpt>
      <trkpt lat="46.37407" lon="5.39895">
        <ele>385.4</ele>
        <time>2022-02-08T14:52:32Z</time>
      </trkpt>
      <trkpt lat="46.37417" lon="5.39897">
        <ele>385.6</ele>
        <time>2022-02-08T14:52:34Z</time>
      </trkpt>
      <trkpt lat="46.37425" lon="5.39894">
        <ele>386.2</ele>
        <time>2022-02-08T14:52:36Z</time>
      </trkpt>
      <trkpt lat="46.37429" lon="5.39892">
        <ele>386.4</ele>
        <time>2022-02-08T14:52:37Z</time>
      </trkpt>
      <trkpt lat="46.37441" lon="5.39884">
        <ele>386.8</ele>
        <time>2022-02-08T14:52:40Z</time>
      </trkpt>
      <trkpt lat="46.37445" lon="5.39883">
        <ele>387</ele>
        <time>2022-02-08T14:52:41Z</time>
      </trkpt>
      <trkpt lat="46.37449" lon="5.39884">
        <ele>387.2</ele>
        <time>2022-02-08T14:52:42Z</time>
      </trkpt>
      <trkpt lat="46.37453" lon="5.39885">
        <ele>387.4</ele>
        <time>2022-02-08T14:52:43Z</time>
      </trkpt>
      <trkpt lat="46.37457" lon="5.39887">
        <ele>387.8</ele>
        <time>2022-02-08T14:52:44Z</time>
      </trkpt>
      <trkpt lat="46.37466" lon="5.39894">
        <ele>388</ele>
        <time>2022-02-08T14:52:46Z</time>
      </trkpt>
      <trkpt lat="46.37494" lon="5.39917">
        <ele>388.2</ele>
        <time>2022-02-08T14:52:52Z</time>
      </trkpt>
      <trkpt lat="46.37527" lon="5.39935">
        <ele>387.6</ele>
        <time>2022-02-08T14:52:57Z</time>
      </trkpt>
      <trkpt lat="46.37569" lon="5.39951">
        <ele>386.2</ele>
        <time>2022-02-08T14:53:02Z</time>
      </trkpt>
      <trkpt lat="46.37598" lon="5.39961">
        <ele>385.2</ele>
        <time>2022-02-08T14:53:05Z</time>
      </trkpt>
      <trkpt lat="46.37627" lon="5.3997">
        <ele>383.6</ele>
        <time>2022-02-08T14:53:08Z</time>
      </trkpt>
      <trkpt lat="46.37646" lon="5.39972">
        <ele>382.6</ele>
        <time>2022-02-08T14:53:10Z</time>
      </trkpt>
      <trkpt lat="46.37674" lon="5.39972">
        <ele>382</ele>
        <time>2022-02-08T14:53:13Z</time>
      </trkpt>
      <trkpt lat="46.37718" lon="5.39975">
        <ele>381.4</ele>
        <time>2022-02-08T14:53:18Z</time>
      </trkpt>
      <trkpt lat="46.37726" lon="5.39977">
        <ele>381.4</ele>
        <time>2022-02-08T14:53:19Z</time>
      </trkpt>
      <trkpt lat="46.37764" lon="5.39998">
        <ele>381</ele>
        <time>2022-02-08T14:53:24Z</time>
      </trkpt>
      <trkpt lat="46.37787" lon="5.40006">
        <ele>381</ele>
        <time>2022-02-08T14:53:27Z</time>
      </trkpt>
      <trkpt lat="46.37794" lon="5.40007">
        <ele>381</ele>
        <time>2022-02-08T14:53:28Z</time>
      </trkpt>
      <trkpt lat="46.37836" lon="5.40004">
        <ele>382.2</ele>
        <time>2022-02-08T14:53:34Z</time>
      </trkpt>
      <trkpt lat="46.37894" lon="5.39989">
        <ele>382.6</ele>
        <time>2022-02-08T14:53:42Z</time>
      </trkpt>
      <trkpt lat="46.37901" lon="5.39986">
        <ele>382.6</ele>
        <time>2022-02-08T14:53:43Z</time>
      </trkpt>
      <trkpt lat="46.37936" lon="5.39975">
        <ele>382.6</ele>
        <time>2022-02-08T14:53:48Z</time>
      </trkpt>
      <trkpt lat="46.37971" lon="5.39962">
        <ele>382.8</ele>
        <time>2022-02-08T14:53:53Z</time>
      </trkpt>
      <trkpt lat="46.38011" lon="5.39947">
        <ele>383</ele>
        <time>2022-02-08T14:53:59Z</time>
      </trkpt>
      <trkpt lat="46.38031" lon="5.39941">
        <ele>383</ele>
        <time>2022-02-08T14:54:02Z</time>
      </trkpt>
      <trkpt lat="46.38084" lon="5.39918">
        <ele>383</ele>
        <time>2022-02-08T14:54:10Z</time>
      </trkpt>
      <trkpt lat="46.38117" lon="5.39888">
        <ele>383.2</ele>
        <time>2022-02-08T14:54:16Z</time>
      </trkpt>
      <trkpt lat="46.38138" lon="5.39867">
        <ele>383.4</ele>
        <time>2022-02-08T14:54:20Z</time>
      </trkpt>
      <trkpt lat="46.3815" lon="5.3986">
        <ele>383.6</ele>
        <time>2022-02-08T14:54:22Z</time>
      </trkpt>
      <trkpt lat="46.38162" lon="5.39858">
        <ele>383.8</ele>
        <time>2022-02-08T14:54:24Z</time>
      </trkpt>
      <trkpt lat="46.38174" lon="5.39859">
        <ele>383.8</ele>
        <time>2022-02-08T14:54:26Z</time>
      </trkpt>
      <trkpt lat="46.38219" lon="5.39874">
        <ele>384.2</ele>
        <time>2022-02-08T14:54:34Z</time>
      </trkpt>
      <trkpt lat="46.38235" lon="5.39879">
        <ele>384.8</ele>
        <time>2022-02-08T14:54:37Z</time>
      </trkpt>
      <trkpt lat="46.38261" lon="5.39884">
        <ele>385.4</ele>
        <time>2022-02-08T14:54:42Z</time>
      </trkpt>
      <trkpt lat="46.38267" lon="5.39884">
        <ele>385.4</ele>
        <time>2022-02-08T14:54:43Z</time>
      </trkpt>
      <trkpt lat="46.38283" lon="5.39883">
        <ele>385.8</ele>
        <time>2022-02-08T14:54:46Z</time>
      </trkpt>
      <trkpt lat="46.38288" lon="5.39884">
        <ele>386</ele>
        <time>2022-02-08T14:54:47Z</time>
      </trkpt>
      <trkpt lat="46.38293" lon="5.39887">
        <ele>386.2</ele>
        <time>2022-02-08T14:54:48Z</time>
      </trkpt>
      <trkpt lat="46.38298" lon="5.39889">
        <ele>386.4</ele>
        <time>2022-02-08T14:54:49Z</time>
      </trkpt>
      <trkpt lat="46.38311" lon="5.39898">
        <ele>386.8</ele>
        <time>2022-02-08T14:54:52Z</time>
      </trkpt>
      <trkpt lat="46.38316" lon="5.39899">
        <ele>387</ele>
        <time>2022-02-08T14:54:53Z</time>
      </trkpt>
      <trkpt lat="46.38321" lon="5.39897">
        <ele>387.2</ele>
        <time>2022-02-08T14:54:54Z</time>
      </trkpt>
      <trkpt lat="46.38328" lon="5.3989">
        <ele>387.6</ele>
        <time>2022-02-08T14:54:56Z</time>
      </trkpt>
      <trkpt lat="46.38336" lon="5.39879">
        <ele>388.2</ele>
        <time>2022-02-08T14:54:59Z</time>
      </trkpt>
      <trkpt lat="46.38345" lon="5.3987">
        <ele>389.6</ele>
        <time>2022-02-08T14:55:02Z</time>
      </trkpt>
      <trkpt lat="46.3835" lon="5.39867">
        <ele>390.2</ele>
        <time>2022-02-08T14:55:03Z</time>
      </trkpt>
      <trkpt lat="46.38357" lon="5.39863">
        <ele>391</ele>
        <time>2022-02-08T14:55:05Z</time>
      </trkpt>
      <trkpt lat="46.38374" lon="5.39855">
        <ele>392</ele>
        <time>2022-02-08T14:55:09Z</time>
      </trkpt>
      <trkpt lat="46.38381" lon="5.39851">
        <ele>392.6</ele>
        <time>2022-02-08T14:55:11Z</time>
      </trkpt>
      <trkpt lat="46.38385" lon="5.39849">
        <ele>393</ele>
        <time>2022-02-08T14:55:12Z</time>
      </trkpt>
      <trkpt lat="46.38394" lon="5.39844">
        <ele>393.6</ele>
        <time>2022-02-08T14:55:14Z</time>
      </trkpt>
      <trkpt lat="46.38405" lon="5.39839">
        <ele>394.2</ele>
        <time>2022-02-08T14:55:17Z</time>
      </trkpt>
      <trkpt lat="46.38411" lon="5.39837">
        <ele>394.4</ele>
        <time>2022-02-08T14:55:18Z</time>
      </trkpt>
      <trkpt lat="46.3844" lon="5.39827">
        <ele>395.4</ele>
        <time>2022-02-08T14:55:25Z</time>
      </trkpt>
      <trkpt lat="46.38467" lon="5.39823">
        <ele>395.8</ele>
        <time>2022-02-08T14:55:31Z</time>
      </trkpt>
      <trkpt lat="46.3848" lon="5.39822">
        <ele>396.4</ele>
        <time>2022-02-08T14:55:34Z</time>
      </trkpt>
      <trkpt lat="46.38493" lon="5.39822">
        <ele>397.2</ele>
        <time>2022-02-08T14:55:37Z</time>
      </trkpt>
      <trkpt lat="46.38498" lon="5.39823">
        <ele>397.2</ele>
        <time>2022-02-08T14:55:38Z</time>
      </trkpt>
      <trkpt lat="46.3851" lon="5.39825">
        <ele>397.6</ele>
        <time>2022-02-08T14:55:41Z</time>
      </trkpt>
      <trkpt lat="46.38533" lon="5.39828">
        <ele>398.6</ele>
        <time>2022-02-08T14:55:46Z</time>
      </trkpt>
      <trkpt lat="46.38538" lon="5.39828">
        <ele>398.8</ele>
        <time>2022-02-08T14:55:47Z</time>
      </trkpt>
      <trkpt lat="46.38566" lon="5.39832">
        <ele>400</ele>
        <time>2022-02-08T14:55:53Z</time>
      </trkpt>
      <trkpt lat="46.3857" lon="5.39832">
        <ele>400.2</ele>
        <time>2022-02-08T14:55:54Z</time>
      </trkpt>
      <trkpt lat="46.38623" lon="5.39837">
        <ele>400.8</ele>
        <time>2022-02-08T14:56:03Z</time>
      </trkpt>
      <trkpt lat="46.38676" lon="5.39843">
        <ele>400.8</ele>
        <time>2022-02-08T14:56:12Z</time>
      </trkpt>
      <trkpt lat="46.38736" lon="5.39849">
        <ele>400.4</ele>
        <time>2022-02-08T14:56:21Z</time>
      </trkpt>
      <trkpt lat="46.38743" lon="5.39849">
        <ele>400.2</ele>
        <time>2022-02-08T14:56:22Z</time>
      </trkpt>
      <trkpt lat="46.388" lon="5.39853">
        <ele>399</ele>
        <time>2022-02-08T14:56:29Z</time>
      </trkpt>
      <trkpt lat="46.38855" lon="5.39856">
        <ele>398.2</ele>
        <time>2022-02-08T14:56:36Z</time>
      </trkpt>
      <trkpt lat="46.38862" lon="5.39856">
        <ele>398.2</ele>
        <time>2022-02-08T14:56:37Z</time>
      </trkpt>
      <trkpt lat="46.38911" lon="5.39859">
        <ele>398.6</ele>
        <time>2022-02-08T14:56:44Z</time>
      </trkpt>
      <trkpt lat="46.38966" lon="5.39862">
        <ele>399</ele>
        <time>2022-02-08T14:56:52Z</time>
      </trkpt>
      <trkpt lat="46.38975" lon="5.39864">
        <ele>399</ele>
        <time>2022-02-08T14:56:53Z</time>
      </trkpt>
      <trkpt lat="46.39015" lon="5.39871">
        <ele>398.6</ele>
        <time>2022-02-08T14:56:58Z</time>
      </trkpt>
      <trkpt lat="46.39056" lon="5.39878">
        <ele>398</ele>
        <time>2022-02-08T14:57:03Z</time>
      </trkpt>
      <trkpt lat="46.39073" lon="5.39881">
        <ele>397.8</ele>
        <time>2022-02-08T14:57:05Z</time>
      </trkpt>
      <trkpt lat="46.39133" lon="5.39892">
        <ele>397.6</ele>
        <time>2022-02-08T14:57:13Z</time>
      </trkpt>
      <trkpt lat="46.39148" lon="5.39894">
        <ele>397.8</ele>
        <time>2022-02-08T14:57:15Z</time>
      </trkpt>
      <trkpt lat="46.39205" lon="5.39904">
        <ele>398.6</ele>
        <time>2022-02-08T14:57:23Z</time>
      </trkpt>
      <trkpt lat="46.39218" lon="5.39905">
        <ele>398.8</ele>
        <time>2022-02-08T14:57:25Z</time>
      </trkpt>
      <trkpt lat="46.39225" lon="5.39907">
        <ele>399</ele>
        <time>2022-02-08T14:57:26Z</time>
      </trkpt>
      <trkpt lat="46.39284" lon="5.39916">
        <ele>400</ele>
        <time>2022-02-08T14:57:35Z</time>
      </trkpt>
      <trkpt lat="46.39291" lon="5.39918">
        <ele>400</ele>
        <time>2022-02-08T14:57:36Z</time>
      </trkpt>
      <trkpt lat="46.39312" lon="5.39921">
        <ele>400.2</ele>
        <time>2022-02-08T14:57:39Z</time>
      </trkpt>
      <trkpt lat="46.39353" lon="5.39929">
        <ele>400.8</ele>
        <time>2022-02-08T14:57:45Z</time>
      </trkpt>
      <trkpt lat="46.39407" lon="5.39937">
        <ele>401</ele>
        <time>2022-02-08T14:57:53Z</time>
      </trkpt>
      <trkpt lat="46.3942" lon="5.39939">
        <ele>401</ele>
        <time>2022-02-08T14:57:55Z</time>
      </trkpt>
      <trkpt lat="46.39433" lon="5.39941">
        <ele>401.2</ele>
        <time>2022-02-08T14:57:57Z</time>
      </trkpt>
      <trkpt lat="46.39478" lon="5.39948">
        <ele>401.6</ele>
        <time>2022-02-08T14:58:04Z</time>
      </trkpt>
      <trkpt lat="46.39503" lon="5.3995">
        <ele>402.2</ele>
        <time>2022-02-08T14:58:08Z</time>
      </trkpt>
      <trkpt lat="46.39554" lon="5.39952">
        <ele>403</ele>
        <time>2022-02-08T14:58:16Z</time>
      </trkpt>
      <trkpt lat="46.39611" lon="5.39951">
        <ele>403.2</ele>
        <time>2022-02-08T14:58:24Z</time>
      </trkpt>
      <trkpt lat="46.39617" lon="5.3995">
        <ele>403.2</ele>
        <time>2022-02-08T14:58:25Z</time>
      </trkpt>
      <trkpt lat="46.39678" lon="5.3994">
        <ele>403.4</ele>
        <time>2022-02-08T14:58:33Z</time>
      </trkpt>
      <trkpt lat="46.39683" lon="5.39939">
        <ele>403.4</ele>
        <time>2022-02-08T14:58:34Z</time>
      </trkpt>
      <trkpt lat="46.39743" lon="5.39929">
        <ele>404</ele>
        <time>2022-02-08T14:58:42Z</time>
      </trkpt>
      <trkpt lat="46.39772" lon="5.39924">
        <ele>404</ele>
        <time>2022-02-08T14:58:46Z</time>
      </trkpt>
      <trkpt lat="46.39792" lon="5.39921">
        <ele>404.2</ele>
        <time>2022-02-08T14:58:49Z</time>
      </trkpt>
      <trkpt lat="46.39833" lon="5.39914">
        <ele>405</ele>
        <time>2022-02-08T14:58:55Z</time>
      </trkpt>
      <trkpt lat="46.39853" lon="5.3991">
        <ele>405.6</ele>
        <time>2022-02-08T14:58:58Z</time>
      </trkpt>
      <trkpt lat="46.39895" lon="5.39907">
        <ele>405.8</ele>
        <time>2022-02-08T14:59:04Z</time>
      </trkpt>
      <trkpt lat="46.39952" lon="5.39908">
        <ele>405.2</ele>
        <time>2022-02-08T14:59:11Z</time>
      </trkpt>
      <trkpt lat="46.40014" lon="5.39912">
        <ele>405</ele>
        <time>2022-02-08T14:59:19Z</time>
      </trkpt>
      <trkpt lat="46.40021" lon="5.39912">
        <ele>405.2</ele>
        <time>2022-02-08T14:59:20Z</time>
      </trkpt>
      <trkpt lat="46.40062" lon="5.39908">
        <ele>405.2</ele>
        <time>2022-02-08T14:59:26Z</time>
      </trkpt>
      <trkpt lat="46.40074" lon="5.39903">
        <ele>405.2</ele>
        <time>2022-02-08T14:59:28Z</time>
      </trkpt>
      <trkpt lat="46.40091" lon="5.39892">
        <ele>405.4</ele>
        <time>2022-02-08T14:59:31Z</time>
      </trkpt>
      <trkpt lat="46.40135" lon="5.3986">
        <ele>406.6</ele>
        <time>2022-02-08T14:59:39Z</time>
      </trkpt>
      <trkpt lat="46.40157" lon="5.39844">
        <ele>407.8</ele>
        <time>2022-02-08T14:59:43Z</time>
      </trkpt>
      <trkpt lat="46.40181" lon="5.39831">
        <ele>408</ele>
        <time>2022-02-08T14:59:47Z</time>
      </trkpt>
      <trkpt lat="46.40227" lon="5.3982">
        <ele>408.2</ele>
        <time>2022-02-08T14:59:54Z</time>
      </trkpt>
      <trkpt lat="46.40276" lon="5.39827">
        <ele>407.6</ele>
        <time>2022-02-08T15:00:01Z</time>
      </trkpt>
      <trkpt lat="46.40307" lon="5.39845">
        <ele>407.4</ele>
        <time>2022-02-08T15:00:06Z</time>
      </trkpt>
      <trkpt lat="46.40347" lon="5.39866">
        <ele>407.6</ele>
        <time>2022-02-08T15:00:13Z</time>
      </trkpt>
      <trkpt lat="46.40372" lon="5.39874">
        <ele>408.2</ele>
        <time>2022-02-08T15:00:18Z</time>
      </trkpt>
      <trkpt lat="46.40404" lon="5.39883">
        <ele>409</ele>
        <time>2022-02-08T15:00:24Z</time>
      </trkpt>
      <trkpt lat="46.40415" lon="5.39887">
        <ele>409.4</ele>
        <time>2022-02-08T15:00:26Z</time>
      </trkpt>
      <trkpt lat="46.40459" lon="5.39903">
        <ele>409.8</ele>
        <time>2022-02-08T15:00:34Z</time>
      </trkpt>
      <trkpt lat="46.40475" lon="5.39908">
        <ele>410</ele>
        <time>2022-02-08T15:00:37Z</time>
      </trkpt>
      <trkpt lat="46.405" lon="5.39921">
        <ele>410.4</ele>
        <time>2022-02-08T15:00:42Z</time>
      </trkpt>
      <trkpt lat="46.40524" lon="5.39938">
        <ele>411.2</ele>
        <time>2022-02-08T15:00:47Z</time>
      </trkpt>
      <trkpt lat="46.40538" lon="5.39951">
        <ele>411.4</ele>
        <time>2022-02-08T15:00:50Z</time>
      </trkpt>
      <trkpt lat="46.40582" lon="5.39989">
        <ele>412</ele>
        <time>2022-02-08T15:00:59Z</time>
      </trkpt>
      <trkpt lat="46.40587" lon="5.39991">
        <ele>412</ele>
        <time>2022-02-08T15:01:00Z</time>
      </trkpt>
      <trkpt lat="46.40594" lon="5.39994">
        <ele>412</ele>
        <time>2022-02-08T15:01:01Z</time>
      </trkpt>
      <trkpt lat="46.40615" lon="5.39999">
        <ele>412.2</ele>
        <time>2022-02-08T15:01:05Z</time>
      </trkpt>
      <trkpt lat="46.40628" lon="5.40002">
        <ele>412.2</ele>
        <time>2022-02-08T15:01:07Z</time>
      </trkpt>
      <trkpt lat="46.40634" lon="5.40003">
        <ele>412.2</ele>
        <time>2022-02-08T15:01:08Z</time>
      </trkpt>
      <trkpt lat="46.40654" lon="5.40015">
        <ele>412.2</ele>
        <time>2022-02-08T15:01:12Z</time>
      </trkpt>
      <trkpt lat="46.40691" lon="5.40041">
        <ele>412.6</ele>
        <time>2022-02-08T15:01:19Z</time>
      </trkpt>
      <trkpt lat="46.40737" lon="5.40073">
        <ele>412.8</ele>
        <time>2022-02-08T15:01:28Z</time>
      </trkpt>
      <trkpt lat="46.40769" lon="5.40093">
        <ele>413.2</ele>
        <time>2022-02-08T15:01:34Z</time>
      </trkpt>
      <trkpt lat="46.40784" lon="5.40103">
        <ele>413.4</ele>
        <time>2022-02-08T15:01:37Z</time>
      </trkpt>
      <trkpt lat="46.4079" lon="5.40107">
        <ele>413.4</ele>
        <time>2022-02-08T15:01:38Z</time>
      </trkpt>
      <trkpt lat="46.40808" lon="5.40121">
        <ele>413.8</ele>
        <time>2022-02-08T15:01:42Z</time>
      </trkpt>
      <trkpt lat="46.40814" lon="5.40125">
        <ele>413.8</ele>
        <time>2022-02-08T15:01:43Z</time>
      </trkpt>
      <trkpt lat="46.40835" lon="5.40134">
        <ele>414.2</ele>
        <time>2022-02-08T15:01:47Z</time>
      </trkpt>
      <trkpt lat="46.40841" lon="5.40135">
        <ele>414.4</ele>
        <time>2022-02-08T15:01:48Z</time>
      </trkpt>
      <trkpt lat="46.40874" lon="5.4014">
        <ele>415.2</ele>
        <time>2022-02-08T15:01:54Z</time>
      </trkpt>
      <trkpt lat="46.40885" lon="5.40141">
        <ele>415.2</ele>
        <time>2022-02-08T15:01:56Z</time>
      </trkpt>
      <trkpt lat="46.40921" lon="5.40148">
        <ele>415.8</ele>
        <time>2022-02-08T15:02:03Z</time>
      </trkpt>
      <trkpt lat="46.40935" lon="5.40152">
        <ele>416.4</ele>
        <time>2022-02-08T15:02:06Z</time>
      </trkpt>
      <trkpt lat="46.4095" lon="5.40156">
        <ele>417.2</ele>
        <time>2022-02-08T15:02:09Z</time>
      </trkpt>
      <trkpt lat="46.40955" lon="5.40158">
        <ele>417.4</ele>
        <time>2022-02-08T15:02:10Z</time>
      </trkpt>
      <trkpt lat="46.4096" lon="5.40159">
        <ele>417.4</ele>
        <time>2022-02-08T15:02:11Z</time>
      </trkpt>
      <trkpt lat="46.41002" lon="5.40169">
        <ele>418.4</ele>
        <time>2022-02-08T15:02:19Z</time>
      </trkpt>
      <trkpt lat="46.41048" lon="5.40178">
        <ele>418.8</ele>
        <time>2022-02-08T15:02:27Z</time>
      </trkpt>
      <trkpt lat="46.41097" lon="5.40184">
        <ele>419</ele>
        <time>2022-02-08T15:02:36Z</time>
      </trkpt>
      <trkpt lat="46.41103" lon="5.40184">
        <ele>419</ele>
        <time>2022-02-08T15:02:37Z</time>
      </trkpt>
      <trkpt lat="46.41134" lon="5.40173">
        <ele>419.4</ele>
        <time>2022-02-08T15:02:43Z</time>
      </trkpt>
      <trkpt lat="46.41139" lon="5.40171">
        <ele>419.6</ele>
        <time>2022-02-08T15:02:44Z</time>
      </trkpt>
      <trkpt lat="46.41189" lon="5.40145">
        <ele>420.2</ele>
        <time>2022-02-08T15:02:53Z</time>
      </trkpt>
      <trkpt lat="46.41233" lon="5.40124">
        <ele>420.6</ele>
        <time>2022-02-08T15:03:01Z</time>
      </trkpt>
      <trkpt lat="46.41245" lon="5.40121">
        <ele>420.4</ele>
        <time>2022-02-08T15:03:03Z</time>
      </trkpt>
      <trkpt lat="46.41276" lon="5.40115">
        <ele>421.6</ele>
        <time>2022-02-08T15:03:09Z</time>
      </trkpt>
      <trkpt lat="46.41282" lon="5.40115">
        <ele>421.6</ele>
        <time>2022-02-08T15:03:10Z</time>
      </trkpt>
      <trkpt lat="46.41317" lon="5.40113">
        <ele>422.4</ele>
        <time>2022-02-08T15:03:17Z</time>
      </trkpt>
      <trkpt lat="46.41332" lon="5.40113">
        <ele>422.6</ele>
        <time>2022-02-08T15:03:20Z</time>
      </trkpt>
      <trkpt lat="46.41361" lon="5.40114">
        <ele>423.4</ele>
        <time>2022-02-08T15:03:26Z</time>
      </trkpt>
      <trkpt lat="46.41385" lon="5.40115">
        <ele>424</ele>
        <time>2022-02-08T15:03:31Z</time>
      </trkpt>
      <trkpt lat="46.41406" lon="5.40114">
        <ele>424.8</ele>
        <time>2022-02-08T15:03:36Z</time>
      </trkpt>
      <trkpt lat="46.41416" lon="5.40114">
        <ele>425.2</ele>
        <time>2022-02-08T15:03:38Z</time>
      </trkpt>
      <trkpt lat="46.41443" lon="5.40113">
        <ele>426.2</ele>
        <time>2022-02-08T15:03:44Z</time>
      </trkpt>
      <trkpt lat="46.41451" lon="5.40113">
        <ele>426.4</ele>
        <time>2022-02-08T15:03:46Z</time>
      </trkpt>
      <trkpt lat="46.4148" lon="5.4011">
        <ele>427.2</ele>
        <time>2022-02-08T15:03:53Z</time>
      </trkpt>
      <trkpt lat="46.41501" lon="5.40109">
        <ele>427.8</ele>
        <time>2022-02-08T15:03:58Z</time>
      </trkpt>
      <trkpt lat="46.4151" lon="5.40109">
        <ele>428.2</ele>
        <time>2022-02-08T15:04:00Z</time>
      </trkpt>
      <trkpt lat="46.4154" lon="5.40106">
        <ele>429.4</ele>
        <time>2022-02-08T15:04:07Z</time>
      </trkpt>
      <trkpt lat="46.41572" lon="5.401">
        <ele>430.4</ele>
        <time>2022-02-08T15:04:15Z</time>
      </trkpt>
      <trkpt lat="46.41575" lon="5.401">
        <ele>430.6</ele>
        <time>2022-02-08T15:04:16Z</time>
      </trkpt>
      <trkpt lat="46.41596" lon="5.40094">
        <ele>431.4</ele>
        <time>2022-02-08T15:04:21Z</time>
      </trkpt>
      <trkpt lat="46.41614" lon="5.40086">
        <ele>432.4</ele>
        <time>2022-02-08T15:04:26Z</time>
      </trkpt>
      <trkpt lat="46.4164" lon="5.40074">
        <ele>433.6</ele>
        <time>2022-02-08T15:04:33Z</time>
      </trkpt>
      <trkpt lat="46.41646" lon="5.40069">
        <ele>434</ele>
        <time>2022-02-08T15:04:35Z</time>
      </trkpt>
      <trkpt lat="46.41657" lon="5.40061">
        <ele>434.6</ele>
        <time>2022-02-08T15:04:38Z</time>
      </trkpt>
      <trkpt lat="46.41674" lon="5.40048">
        <ele>435.8</ele>
        <time>2022-02-08T15:04:43Z</time>
      </trkpt>
      <trkpt lat="46.41687" lon="5.40038">
        <ele>436.6</ele>
        <time>2022-02-08T15:04:47Z</time>
      </trkpt>
      <trkpt lat="46.41693" lon="5.40034">
        <ele>437.2</ele>
        <time>2022-02-08T15:04:49Z</time>
      </trkpt>
      <trkpt lat="46.4171" lon="5.40025">
        <ele>438</ele>
        <time>2022-02-08T15:04:54Z</time>
      </trkpt>
      <trkpt lat="46.41713" lon="5.40024">
        <ele>438.2</ele>
        <time>2022-02-08T15:04:55Z</time>
      </trkpt>
      <trkpt lat="46.41729" lon="5.4002">
        <ele>439.2</ele>
        <time>2022-02-08T15:05:00Z</time>
      </trkpt>
      <trkpt lat="46.41739" lon="5.40018">
        <ele>439.8</ele>
        <time>2022-02-08T15:05:03Z</time>
      </trkpt>
      <trkpt lat="46.41746" lon="5.40019">
        <ele>440.4</ele>
        <time>2022-02-08T15:05:05Z</time>
      </trkpt>
      <trkpt lat="46.41765" lon="5.40022">
        <ele>441.4</ele>
        <time>2022-02-08T15:05:11Z</time>
      </trkpt>
      <trkpt lat="46.41771" lon="5.40024">
        <ele>441.6</ele>
        <time>2022-02-08T15:05:13Z</time>
      </trkpt>
      <trkpt lat="46.41782" lon="5.40027">
        <ele>442.4</ele>
        <time>2022-02-08T15:05:16Z</time>
      </trkpt>
      <trkpt lat="46.41803" lon="5.40034">
        <ele>443.4</ele>
        <time>2022-02-08T15:05:22Z</time>
      </trkpt>
      <trkpt lat="46.41806" lon="5.40035">
        <ele>443.6</ele>
        <time>2022-02-08T15:05:23Z</time>
      </trkpt>
      <trkpt lat="46.4183" lon="5.40043">
        <ele>444.6</ele>
        <time>2022-02-08T15:05:30Z</time>
      </trkpt>
      <trkpt lat="46.4185" lon="5.40049">
        <ele>445.4</ele>
        <time>2022-02-08T15:05:36Z</time>
      </trkpt>
      <trkpt lat="46.41853" lon="5.4005">
        <ele>445.8</ele>
        <time>2022-02-08T15:05:37Z</time>
      </trkpt>
      <trkpt lat="46.41875" lon="5.40054">
        <ele>447</ele>
        <time>2022-02-08T15:05:43Z</time>
      </trkpt>
      <trkpt lat="46.41892" lon="5.40057">
        <ele>447.6</ele>
        <time>2022-02-08T15:05:48Z</time>
      </trkpt>
      <trkpt lat="46.41898" lon="5.40057">
        <ele>448</ele>
        <time>2022-02-08T15:05:50Z</time>
      </trkpt>
      <trkpt lat="46.41924" lon="5.40059">
        <ele>449.2</ele>
        <time>2022-02-08T15:05:57Z</time>
      </trkpt>
      <trkpt lat="46.41931" lon="5.40058">
        <ele>449.4</ele>
        <time>2022-02-08T15:05:59Z</time>
      </trkpt>
      <trkpt lat="46.41952" lon="5.40055">
        <ele>450.4</ele>
        <time>2022-02-08T15:06:04Z</time>
      </trkpt>
      <trkpt lat="46.41972" lon="5.40055">
        <ele>451.2</ele>
        <time>2022-02-08T15:06:09Z</time>
      </trkpt>
      <trkpt lat="46.41975" lon="5.40055">
        <ele>451.6</ele>
        <time>2022-02-08T15:06:10Z</time>
      </trkpt>
      <trkpt lat="46.41993" lon="5.40057">
        <ele>452.8</ele>
        <time>2022-02-08T15:06:15Z</time>
      </trkpt>
      <trkpt lat="46.42008" lon="5.4006">
        <ele>453.6</ele>
        <time>2022-02-08T15:06:19Z</time>
      </trkpt>
      <trkpt lat="46.42015" lon="5.40061">
        <ele>453.8</ele>
        <time>2022-02-08T15:06:21Z</time>
      </trkpt>
      <trkpt lat="46.42034" lon="5.40065">
        <ele>454.8</ele>
        <time>2022-02-08T15:06:26Z</time>
      </trkpt>
      <trkpt lat="46.42049" lon="5.4007">
        <ele>455.8</ele>
        <time>2022-02-08T15:06:30Z</time>
      </trkpt>
      <trkpt lat="46.42052" lon="5.40071">
        <ele>455.8</ele>
        <time>2022-02-08T15:06:31Z</time>
      </trkpt>
      <trkpt lat="46.42075" lon="5.40079">
        <ele>457</ele>
        <time>2022-02-08T15:06:37Z</time>
      </trkpt>
      <trkpt lat="46.4209" lon="5.40083">
        <ele>458</ele>
        <time>2022-02-08T15:06:41Z</time>
      </trkpt>
      <trkpt lat="46.42094" lon="5.40085">
        <ele>458.2</ele>
        <time>2022-02-08T15:06:42Z</time>
      </trkpt>
      <trkpt lat="46.42122" lon="5.40088">
        <ele>459.4</ele>
        <time>2022-02-08T15:06:49Z</time>
      </trkpt>
      <trkpt lat="46.42146" lon="5.40083">
        <ele>460.4</ele>
        <time>2022-02-08T15:06:55Z</time>
      </trkpt>
      <trkpt lat="46.42153" lon="5.40081">
        <ele>460.8</ele>
        <time>2022-02-08T15:06:57Z</time>
      </trkpt>
      <trkpt lat="46.42164" lon="5.40077">
        <ele>461.6</ele>
        <time>2022-02-08T15:07:00Z</time>
      </trkpt>
      <trkpt lat="46.42183" lon="5.4007">
        <ele>462.4</ele>
        <time>2022-02-08T15:07:05Z</time>
      </trkpt>
      <trkpt lat="46.42191" lon="5.40067">
        <ele>462.6</ele>
        <time>2022-02-08T15:07:07Z</time>
      </trkpt>
      <trkpt lat="46.42215" lon="5.40059">
        <ele>463.8</ele>
        <time>2022-02-08T15:07:13Z</time>
      </trkpt>
      <trkpt lat="46.42227" lon="5.40055">
        <ele>464.2</ele>
        <time>2022-02-08T15:07:16Z</time>
      </trkpt>
      <trkpt lat="46.4225" lon="5.40049">
        <ele>464.8</ele>
        <time>2022-02-08T15:07:21Z</time>
      </trkpt>
      <trkpt lat="46.42269" lon="5.40044">
        <ele>465</ele>
        <time>2022-02-08T15:07:25Z</time>
      </trkpt>
      <trkpt lat="46.4232" lon="5.40029">
        <ele>465.4</ele>
        <time>2022-02-08T15:07:36Z</time>
      </trkpt>
      <trkpt lat="46.42356" lon="5.40016">
        <ele>465.8</ele>
        <time>2022-02-08T15:07:44Z</time>
      </trkpt>
      <trkpt lat="46.42365" lon="5.40014">
        <ele>466</ele>
        <time>2022-02-08T15:07:46Z</time>
      </trkpt>
      <trkpt lat="46.42385" lon="5.40003">
        <ele>466.6</ele>
        <time>2022-02-08T15:07:51Z</time>
      </trkpt>
      <trkpt lat="46.42388" lon="5.39999">
        <ele>466.8</ele>
        <time>2022-02-08T15:07:52Z</time>
      </trkpt>
      <trkpt lat="46.4239" lon="5.39994">
        <ele>467</ele>
        <time>2022-02-08T15:07:53Z</time>
      </trkpt>
      <trkpt lat="46.42395" lon="5.39973">
        <ele>467.4</ele>
        <time>2022-02-08T15:07:56Z</time>
      </trkpt>
      <trkpt lat="46.42397" lon="5.39931">
        <ele>468</ele>
        <time>2022-02-08T15:08:01Z</time>
      </trkpt>
      <trkpt lat="46.42397" lon="5.39923">
        <ele>468</ele>
        <time>2022-02-08T15:08:02Z</time>
      </trkpt>
      <trkpt lat="46.42398" lon="5.39862">
        <ele>468.6</ele>
        <time>2022-02-08T15:08:10Z</time>
      </trkpt>
      <trkpt lat="46.42399" lon="5.39828">
        <ele>469</ele>
        <time>2022-02-08T15:08:15Z</time>
      </trkpt>
      <trkpt lat="46.42401" lon="5.39815">
        <ele>469.2</ele>
        <time>2022-02-08T15:08:17Z</time>
      </trkpt>
      <trkpt lat="46.42404" lon="5.39803">
        <ele>469.4</ele>
        <time>2022-02-08T15:08:19Z</time>
      </trkpt>
      <trkpt lat="46.42407" lon="5.39798">
        <ele>469.8</ele>
        <time>2022-02-08T15:08:20Z</time>
      </trkpt>
      <trkpt lat="46.4241" lon="5.39796">
        <ele>470</ele>
        <time>2022-02-08T15:08:21Z</time>
      </trkpt>
      <trkpt lat="46.42419" lon="5.39793">
        <ele>470.8</ele>
        <time>2022-02-08T15:08:23Z</time>
      </trkpt>
      <trkpt lat="46.42427" lon="5.39794">
        <ele>471</ele>
        <time>2022-02-08T15:08:25Z</time>
      </trkpt>
      <trkpt lat="46.42441" lon="5.39798">
        <ele>471.2</ele>
        <time>2022-02-08T15:08:28Z</time>
      </trkpt>
      <trkpt lat="46.42446" lon="5.398">
        <ele>471.2</ele>
        <time>2022-02-08T15:08:29Z</time>
      </trkpt>
      <trkpt lat="46.42457" lon="5.39807">
        <ele>471.2</ele>
        <time>2022-02-08T15:08:31Z</time>
      </trkpt>
      <trkpt lat="46.42467" lon="5.39818">
        <ele>471</ele>
        <time>2022-02-08T15:08:33Z</time>
      </trkpt>
      <trkpt lat="46.42495" lon="5.39855">
        <ele>470.6</ele>
        <time>2022-02-08T15:08:39Z</time>
      </trkpt>
      <trkpt lat="46.42526" lon="5.39888">
        <ele>470.6</ele>
        <time>2022-02-08T15:08:45Z</time>
      </trkpt>
      <trkpt lat="46.42573" lon="5.39923">
        <ele>470.2</ele>
        <time>2022-02-08T15:08:53Z</time>
      </trkpt>
      <trkpt lat="46.42594" lon="5.39939">
        <ele>470.2</ele>
        <time>2022-02-08T15:08:57Z</time>
      </trkpt>
      <trkpt lat="46.42611" lon="5.39947">
        <ele>470.6</ele>
        <time>2022-02-08T15:09:00Z</time>
      </trkpt>
      <trkpt lat="46.42659" lon="5.39969">
        <ele>471.4</ele>
        <time>2022-02-08T15:09:09Z</time>
      </trkpt>
      <trkpt lat="46.42705" lon="5.3999">
        <ele>471.8</ele>
        <time>2022-02-08T15:09:17Z</time>
      </trkpt>
      <trkpt lat="46.42744" lon="5.40005">
        <ele>471.6</ele>
        <time>2022-02-08T15:09:24Z</time>
      </trkpt>
      <trkpt lat="46.42755" lon="5.40011">
        <ele>471.6</ele>
        <time>2022-02-08T15:09:26Z</time>
      </trkpt>
      <trkpt lat="46.42786" lon="5.40025">
        <ele>472.4</ele>
        <time>2022-02-08T15:09:32Z</time>
      </trkpt>
      <trkpt lat="46.42796" lon="5.40029">
        <ele>472.4</ele>
        <time>2022-02-08T15:09:34Z</time>
      </trkpt>
      <trkpt lat="46.42838" lon="5.40044">
        <ele>472.4</ele>
        <time>2022-02-08T15:09:41Z</time>
      </trkpt>
      <trkpt lat="46.42882" lon="5.40054">
        <ele>471.8</ele>
        <time>2022-02-08T15:09:48Z</time>
      </trkpt>
      <trkpt lat="46.42916" lon="5.40057">
        <ele>472</ele>
        <time>2022-02-08T15:09:54Z</time>
      </trkpt>
      <trkpt lat="46.42958" lon="5.40059">
        <ele>472.8</ele>
        <time>2022-02-08T15:10:02Z</time>
      </trkpt>
      <trkpt lat="46.42978" lon="5.40063">
        <ele>473.6</ele>
        <time>2022-02-08T15:10:06Z</time>
      </trkpt>
      <trkpt lat="46.43006" lon="5.40069">
        <ele>474.4</ele>
        <time>2022-02-08T15:10:11Z</time>
      </trkpt>
      <trkpt lat="46.43012" lon="5.4007">
        <ele>474.6</ele>
        <time>2022-02-08T15:10:12Z</time>
      </trkpt>
      <trkpt lat="46.43062" lon="5.40075">
        <ele>475.4</ele>
        <time>2022-02-08T15:10:21Z</time>
      </trkpt>
      <trkpt lat="46.431" lon="5.40081">
        <ele>475.4</ele>
        <time>2022-02-08T15:10:27Z</time>
      </trkpt>
      <trkpt lat="46.43146" lon="5.40089">
        <ele>474.4</ele>
        <time>2022-02-08T15:10:33Z</time>
      </trkpt>
      <trkpt lat="46.43167" lon="5.40092">
        <ele>473.4</ele>
        <time>2022-02-08T15:10:36Z</time>
      </trkpt>
      <trkpt lat="46.43187" lon="5.40097">
        <ele>473.2</ele>
        <time>2022-02-08T15:10:39Z</time>
      </trkpt>
      <trkpt lat="46.4322" lon="5.40116">
        <ele>472.8</ele>
        <time>2022-02-08T15:10:44Z</time>
      </trkpt>
      <trkpt lat="46.43233" lon="5.4012">
        <ele>472.8</ele>
        <time>2022-02-08T15:10:46Z</time>
      </trkpt>
      <trkpt lat="46.43254" lon="5.40121">
        <ele>472.6</ele>
        <time>2022-02-08T15:10:49Z</time>
      </trkpt>
      <trkpt lat="46.43275" lon="5.40118">
        <ele>472.4</ele>
        <time>2022-02-08T15:10:52Z</time>
      </trkpt>
      <trkpt lat="46.43296" lon="5.40116">
        <ele>472.2</ele>
        <time>2022-02-08T15:10:55Z</time>
      </trkpt>
      <trkpt lat="46.43351" lon="5.40116">
        <ele>472</ele>
        <time>2022-02-08T15:11:03Z</time>
      </trkpt>
      <trkpt lat="46.43364" lon="5.40117">
        <ele>472</ele>
        <time>2022-02-08T15:11:05Z</time>
      </trkpt>
      <trkpt lat="46.43409" lon="5.40132">
        <ele>472</ele>
        <time>2022-02-08T15:11:12Z</time>
      </trkpt>
      <trkpt lat="46.43442" lon="5.40145">
        <ele>471.6</ele>
        <time>2022-02-08T15:11:17Z</time>
      </trkpt>
      <trkpt lat="46.43465" lon="5.40156">
        <ele>471.4</ele>
        <time>2022-02-08T15:11:21Z</time>
      </trkpt>
      <trkpt lat="46.43502" lon="5.40172">
        <ele>471.8</ele>
        <time>2022-02-08T15:11:27Z</time>
      </trkpt>
      <trkpt lat="46.43557" lon="5.40177">
        <ele>472.6</ele>
        <time>2022-02-08T15:11:36Z</time>
      </trkpt>
      <trkpt lat="46.43597" lon="5.40186">
        <ele>472.6</ele>
        <time>2022-02-08T15:11:42Z</time>
      </trkpt>
      <trkpt lat="46.43642" lon="5.40186">
        <ele>472.4</ele>
        <time>2022-02-08T15:11:49Z</time>
      </trkpt>
      <trkpt lat="46.43684" lon="5.4018">
        <ele>472.8</ele>
        <time>2022-02-08T15:11:56Z</time>
      </trkpt>
      <trkpt lat="46.43725" lon="5.40172">
        <ele>473.6</ele>
        <time>2022-02-08T15:12:03Z</time>
      </trkpt>
      <trkpt lat="46.43736" lon="5.4017">
        <ele>474</ele>
        <time>2022-02-08T15:12:05Z</time>
      </trkpt>
      <trkpt lat="46.43755" lon="5.40166">
        <ele>474.6</ele>
        <time>2022-02-08T15:12:08Z</time>
      </trkpt>
      <trkpt lat="46.43775" lon="5.40161">
        <ele>474.8</ele>
        <time>2022-02-08T15:12:11Z</time>
      </trkpt>
      <trkpt lat="46.43813" lon="5.40149">
        <ele>475.2</ele>
        <time>2022-02-08T15:12:17Z</time>
      </trkpt>
      <trkpt lat="46.43856" lon="5.40136">
        <ele>475.4</ele>
        <time>2022-02-08T15:12:24Z</time>
      </trkpt>
      <trkpt lat="46.43865" lon="5.40132">
        <ele>475.4</ele>
        <time>2022-02-08T15:12:25Z</time>
      </trkpt>
      <trkpt lat="46.43878" lon="5.40124">
        <ele>475.2</ele>
        <time>2022-02-08T15:12:27Z</time>
      </trkpt>
      <trkpt lat="46.43885" lon="5.40119">
        <ele>474.6</ele>
        <time>2022-02-08T15:12:28Z</time>
      </trkpt>
      <trkpt lat="46.43922" lon="5.4009">
        <ele>474</ele>
        <time>2022-02-08T15:12:34Z</time>
      </trkpt>
      <trkpt lat="46.43941" lon="5.40084">
        <ele>474</ele>
        <time>2022-02-08T15:12:37Z</time>
      </trkpt>
      <trkpt lat="46.43955" lon="5.40084">
        <ele>473.8</ele>
        <time>2022-02-08T15:12:39Z</time>
      </trkpt>
      <trkpt lat="46.43976" lon="5.40085">
        <ele>473.6</ele>
        <time>2022-02-08T15:12:42Z</time>
      </trkpt>
      <trkpt lat="46.43993" lon="5.40084">
        <ele>473.4</ele>
        <time>2022-02-08T15:12:44Z</time>
      </trkpt>
      <trkpt lat="46.44033" lon="5.40076">
        <ele>473.2</ele>
        <time>2022-02-08T15:12:50Z</time>
      </trkpt>
      <trkpt lat="46.44075" lon="5.40064">
        <ele>473.8</ele>
        <time>2022-02-08T15:12:57Z</time>
      </trkpt>
      <trkpt lat="46.44127" lon="5.40049">
        <ele>474.4</ele>
        <time>2022-02-08T15:13:05Z</time>
      </trkpt>
      <trkpt lat="46.44159" lon="5.40026">
        <ele>474.6</ele>
        <time>2022-02-08T15:13:11Z</time>
      </trkpt>
      <trkpt lat="46.44187" lon="5.4">
        <ele>475.8</ele>
        <time>2022-02-08T15:13:17Z</time>
      </trkpt>
      <trkpt lat="46.44207" lon="5.39982">
        <ele>476.2</ele>
        <time>2022-02-08T15:13:21Z</time>
      </trkpt>
      <trkpt lat="46.44242" lon="5.39957">
        <ele>476.2</ele>
        <time>2022-02-08T15:13:27Z</time>
      </trkpt>
      <trkpt lat="46.4427" lon="5.39952">
        <ele>476.2</ele>
        <time>2022-02-08T15:13:31Z</time>
      </trkpt>
      <trkpt lat="46.44306" lon="5.39951">
        <ele>476</ele>
        <time>2022-02-08T15:13:37Z</time>
      </trkpt>
      <trkpt lat="46.44312" lon="5.39951">
        <ele>476.2</ele>
        <time>2022-02-08T15:13:38Z</time>
      </trkpt>
      <trkpt lat="46.44329" lon="5.39952">
        <ele>476.8</ele>
        <time>2022-02-08T15:13:41Z</time>
      </trkpt>
      <trkpt lat="46.44351" lon="5.39954">
        <ele>477.8</ele>
        <time>2022-02-08T15:13:45Z</time>
      </trkpt>
      <trkpt lat="46.44369" lon="5.39954">
        <ele>478.4</ele>
        <time>2022-02-08T15:13:48Z</time>
      </trkpt>
      <trkpt lat="46.44393" lon="5.39951">
        <ele>479.6</ele>
        <time>2022-02-08T15:13:52Z</time>
      </trkpt>
      <trkpt lat="46.44399" lon="5.39951">
        <ele>479.6</ele>
        <time>2022-02-08T15:13:53Z</time>
      </trkpt>
      <trkpt lat="46.44442" lon="5.39943">
        <ele>479.2</ele>
        <time>2022-02-08T15:13:59Z</time>
      </trkpt>
      <trkpt lat="46.44485" lon="5.39922">
        <ele>479.2</ele>
        <time>2022-02-08T15:14:06Z</time>
      </trkpt>
      <trkpt lat="46.44528" lon="5.399">
        <ele>479.6</ele>
        <time>2022-02-08T15:14:14Z</time>
      </trkpt>
      <trkpt lat="46.44583" lon="5.39874">
        <ele>480.2</ele>
        <time>2022-02-08T15:14:24Z</time>
      </trkpt>
      <trkpt lat="46.44609" lon="5.39849">
        <ele>480.2</ele>
        <time>2022-02-08T15:14:30Z</time>
      </trkpt>
      <trkpt lat="46.4463" lon="5.39822">
        <ele>480.6</ele>
        <time>2022-02-08T15:14:35Z</time>
      </trkpt>
      <trkpt lat="46.44641" lon="5.39812">
        <ele>480.6</ele>
        <time>2022-02-08T15:14:37Z</time>
      </trkpt>
      <trkpt lat="46.44654" lon="5.39803">
        <ele>480.6</ele>
        <time>2022-02-08T15:14:39Z</time>
      </trkpt>
      <trkpt lat="46.4467" lon="5.39797">
        <ele>480.4</ele>
        <time>2022-02-08T15:14:41Z</time>
      </trkpt>
      <trkpt lat="46.44685" lon="5.39795">
        <ele>480</ele>
        <time>2022-02-08T15:14:43Z</time>
      </trkpt>
      <trkpt lat="46.447" lon="5.39796">
        <ele>479.4</ele>
        <time>2022-02-08T15:14:45Z</time>
      </trkpt>
      <trkpt lat="46.44707" lon="5.39796">
        <ele>479.4</ele>
        <time>2022-02-08T15:14:46Z</time>
      </trkpt>
      <trkpt lat="46.44737" lon="5.39797">
        <ele>479.2</ele>
        <time>2022-02-08T15:14:51Z</time>
      </trkpt>
      <trkpt lat="46.44742" lon="5.39798">
        <ele>479.4</ele>
        <time>2022-02-08T15:14:52Z</time>
      </trkpt>
      <trkpt lat="46.44762" lon="5.39799">
        <ele>480.2</ele>
        <time>2022-02-08T15:14:56Z</time>
      </trkpt>
      <trkpt lat="46.44771" lon="5.398">
        <ele>480.6</ele>
        <time>2022-02-08T15:14:58Z</time>
      </trkpt>
      <trkpt lat="46.4479" lon="5.39798">
        <ele>481.6</ele>
        <time>2022-02-08T15:15:02Z</time>
      </trkpt>
      <trkpt lat="46.44802" lon="5.39795">
        <ele>481.8</ele>
        <time>2022-02-08T15:15:04Z</time>
      </trkpt>
      <trkpt lat="46.44814" lon="5.39789">
        <ele>482</ele>
        <time>2022-02-08T15:15:06Z</time>
      </trkpt>
      <trkpt lat="46.44834" lon="5.39775">
        <ele>482.2</ele>
        <time>2022-02-08T15:15:09Z</time>
      </trkpt>
      <trkpt lat="46.44848" lon="5.39766">
        <ele>482.2</ele>
        <time>2022-02-08T15:15:11Z</time>
      </trkpt>
      <trkpt lat="46.44868" lon="5.39756">
        <ele>481.8</ele>
        <time>2022-02-08T15:15:14Z</time>
      </trkpt>
      <trkpt lat="46.4488" lon="5.39753">
        <ele>481.6</ele>
        <time>2022-02-08T15:15:16Z</time>
      </trkpt>
      <trkpt lat="46.44911" lon="5.39747">
        <ele>481.8</ele>
        <time>2022-02-08T15:15:22Z</time>
      </trkpt>
      <trkpt lat="46.44931" lon="5.39739">
        <ele>483</ele>
        <time>2022-02-08T15:15:26Z</time>
      </trkpt>
      <trkpt lat="46.44943" lon="5.39736">
        <ele>483</ele>
        <time>2022-02-08T15:15:28Z</time>
      </trkpt>
      <trkpt lat="46.44974" lon="5.39728">
        <ele>483</ele>
        <time>2022-02-08T15:15:33Z</time>
      </trkpt>
      <trkpt lat="46.4498" lon="5.39725">
        <ele>482.8</ele>
        <time>2022-02-08T15:15:34Z</time>
      </trkpt>
      <trkpt lat="46.4499" lon="5.39716">
        <ele>482.8</ele>
        <time>2022-02-08T15:15:36Z</time>
      </trkpt>
      <trkpt lat="46.45003" lon="5.39703">
        <ele>482.6</ele>
        <time>2022-02-08T15:15:39Z</time>
      </trkpt>
      <trkpt lat="46.45032" lon="5.39672">
        <ele>483.4</ele>
        <time>2022-02-08T15:15:46Z</time>
      </trkpt>
      <trkpt lat="46.45053" lon="5.39655">
        <ele>484.2</ele>
        <time>2022-02-08T15:15:51Z</time>
      </trkpt>
      <trkpt lat="46.45062" lon="5.39648">
        <ele>484.4</ele>
        <time>2022-02-08T15:15:53Z</time>
      </trkpt>
      <trkpt lat="46.45084" lon="5.39631">
        <ele>485.4</ele>
        <time>2022-02-08T15:15:58Z</time>
      </trkpt>
      <trkpt lat="46.45093" lon="5.39624">
        <ele>485.6</ele>
        <time>2022-02-08T15:16:00Z</time>
      </trkpt>
      <trkpt lat="46.45111" lon="5.39612">
        <ele>486.4</ele>
        <time>2022-02-08T15:16:04Z</time>
      </trkpt>
      <trkpt lat="46.45137" lon="5.39599">
        <ele>487</ele>
        <time>2022-02-08T15:16:09Z</time>
      </trkpt>
      <trkpt lat="46.45179" lon="5.39579">
        <ele>487.2</ele>
        <time>2022-02-08T15:16:16Z</time>
      </trkpt>
      <trkpt lat="46.45229" lon="5.39556">
        <ele>486</ele>
        <time>2022-02-08T15:16:23Z</time>
      </trkpt>
      <trkpt lat="46.45244" lon="5.39549">
        <ele>485.4</ele>
        <time>2022-02-08T15:16:25Z</time>
      </trkpt>
      <trkpt lat="46.45266" lon="5.39532">
        <ele>484.6</ele>
        <time>2022-02-08T15:16:28Z</time>
      </trkpt>
      <trkpt lat="46.45273" lon="5.39524">
        <ele>484</ele>
        <time>2022-02-08T15:16:29Z</time>
      </trkpt>
      <trkpt lat="46.45301" lon="5.39491">
        <ele>482.8</ele>
        <time>2022-02-08T15:16:34Z</time>
      </trkpt>
      <trkpt lat="46.45328" lon="5.39441">
        <ele>482</ele>
        <time>2022-02-08T15:16:40Z</time>
      </trkpt>
      <trkpt lat="46.45336" lon="5.39421">
        <ele>481.8</ele>
        <time>2022-02-08T15:16:42Z</time>
      </trkpt>
      <trkpt lat="46.45355" lon="5.39368">
        <ele>481.2</ele>
        <time>2022-02-08T15:16:47Z</time>
      </trkpt>
      <trkpt lat="46.45368" lon="5.39332">
        <ele>480.4</ele>
        <time>2022-02-08T15:16:50Z</time>
      </trkpt>
      <trkpt lat="46.45377" lon="5.39308">
        <ele>479.4</ele>
        <time>2022-02-08T15:16:52Z</time>
      </trkpt>
      <trkpt lat="46.45386" lon="5.39284">
        <ele>478.4</ele>
        <time>2022-02-08T15:16:54Z</time>
      </trkpt>
      <trkpt lat="46.4539" lon="5.39272">
        <ele>478</ele>
        <time>2022-02-08T15:16:55Z</time>
      </trkpt>
      <trkpt lat="46.45402" lon="5.39236">
        <ele>476.8</ele>
        <time>2022-02-08T15:16:58Z</time>
      </trkpt>
      <trkpt lat="46.45414" lon="5.39203">
        <ele>475.6</ele>
        <time>2022-02-08T15:17:01Z</time>
      </trkpt>
      <trkpt lat="46.45426" lon="5.39169">
        <ele>474.8</ele>
        <time>2022-02-08T15:17:04Z</time>
      </trkpt>
      <trkpt lat="46.4543" lon="5.39158">
        <ele>474.6</ele>
        <time>2022-02-08T15:17:05Z</time>
      </trkpt>
      <trkpt lat="46.45447" lon="5.39113">
        <ele>473.8</ele>
        <time>2022-02-08T15:17:09Z</time>
      </trkpt>
      <trkpt lat="46.45453" lon="5.39103">
        <ele>473.4</ele>
        <time>2022-02-08T15:17:10Z</time>
      </trkpt>
      <trkpt lat="46.4546" lon="5.39096">
        <ele>473.4</ele>
        <time>2022-02-08T15:17:11Z</time>
      </trkpt>
      <trkpt lat="46.45469" lon="5.39091">
        <ele>473</ele>
        <time>2022-02-08T15:17:12Z</time>
      </trkpt>
      <trkpt lat="46.45478" lon="5.39091">
        <ele>472.8</ele>
        <time>2022-02-08T15:17:13Z</time>
      </trkpt>
      <trkpt lat="46.45485" lon="5.39095">
        <ele>472.8</ele>
        <time>2022-02-08T15:17:14Z</time>
      </trkpt>
      <trkpt lat="46.45492" lon="5.39101">
        <ele>472</ele>
        <time>2022-02-08T15:17:15Z</time>
      </trkpt>
      <trkpt lat="46.4551" lon="5.39122">
        <ele>471</ele>
        <time>2022-02-08T15:17:18Z</time>
      </trkpt>
      <trkpt lat="46.45516" lon="5.39128">
        <ele>470.8</ele>
        <time>2022-02-08T15:17:19Z</time>
      </trkpt>
      <trkpt lat="46.45551" lon="5.39163">
        <ele>471.6</ele>
        <time>2022-02-08T15:17:25Z</time>
      </trkpt>
      <trkpt lat="46.45556" lon="5.39169">
        <ele>472</ele>
        <time>2022-02-08T15:17:26Z</time>
      </trkpt>
      <trkpt lat="46.45581" lon="5.39193">
        <ele>473</ele>
        <time>2022-02-08T15:17:31Z</time>
      </trkpt>
      <trkpt lat="46.45585" lon="5.39197">
        <ele>473</ele>
        <time>2022-02-08T15:17:32Z</time>
      </trkpt>
      <trkpt lat="46.45607" lon="5.39219">
        <ele>474.4</ele>
        <time>2022-02-08T15:17:37Z</time>
      </trkpt>
      <trkpt lat="46.45611" lon="5.39223">
        <ele>474.8</ele>
        <time>2022-02-08T15:17:38Z</time>
      </trkpt>
      <trkpt lat="46.45626" lon="5.39239">
        <ele>475.6</ele>
        <time>2022-02-08T15:17:42Z</time>
      </trkpt>
      <trkpt lat="46.45637" lon="5.3925">
        <ele>476.2</ele>
        <time>2022-02-08T15:17:45Z</time>
      </trkpt>
      <trkpt lat="46.45643" lon="5.39258">
        <ele>476.8</ele>
        <time>2022-02-08T15:17:47Z</time>
      </trkpt>
      <trkpt lat="46.45657" lon="5.39272">
        <ele>478</ele>
        <time>2022-02-08T15:17:51Z</time>
      </trkpt>
      <trkpt lat="46.45666" lon="5.39283">
        <ele>478.2</ele>
        <time>2022-02-08T15:17:54Z</time>
      </trkpt>
      <trkpt lat="46.45688" lon="5.39308">
        <ele>479</ele>
        <time>2022-02-08T15:18:01Z</time>
      </trkpt>
      <trkpt lat="46.45698" lon="5.39318">
        <ele>479.6</ele>
        <time>2022-02-08T15:18:04Z</time>
      </trkpt>
      <trkpt lat="46.45707" lon="5.39327">
        <ele>480.4</ele>
        <time>2022-02-08T15:18:07Z</time>
      </trkpt>
      <trkpt lat="46.45718" lon="5.3934">
        <ele>481.6</ele>
        <time>2022-02-08T15:18:11Z</time>
      </trkpt>
      <trkpt lat="46.45726" lon="5.39349">
        <ele>482</ele>
        <time>2022-02-08T15:18:14Z</time>
      </trkpt>
      <trkpt lat="46.45736" lon="5.3936">
        <ele>482.8</ele>
        <time>2022-02-08T15:18:18Z</time>
      </trkpt>
      <trkpt lat="46.4575" lon="5.39381">
        <ele>484</ele>
        <time>2022-02-08T15:18:24Z</time>
      </trkpt>
      <trkpt lat="46.4576" lon="5.39402">
        <ele>485.2</ele>
        <time>2022-02-08T15:18:29Z</time>
      </trkpt>
      <trkpt lat="46.45764" lon="5.39416">
        <ele>485.8</ele>
        <time>2022-02-08T15:18:32Z</time>
      </trkpt>
      <trkpt lat="46.45768" lon="5.3943">
        <ele>486.4</ele>
        <time>2022-02-08T15:18:35Z</time>
      </trkpt>
      <trkpt lat="46.45771" lon="5.39448">
        <ele>487.4</ele>
        <time>2022-02-08T15:18:39Z</time>
      </trkpt>
      <trkpt lat="46.45772" lon="5.39453">
        <ele>487.6</ele>
        <time>2022-02-08T15:18:40Z</time>
      </trkpt>
      <trkpt lat="46.45772" lon="5.39477">
        <ele>488.4</ele>
        <time>2022-02-08T15:18:45Z</time>
      </trkpt>
      <trkpt lat="46.45772" lon="5.39486">
        <ele>488.8</ele>
        <time>2022-02-08T15:18:47Z</time>
      </trkpt>
      <trkpt lat="46.4577" lon="5.39502">
        <ele>489.6</ele>
        <time>2022-02-08T15:18:50Z</time>
      </trkpt>
      <trkpt lat="46.45767" lon="5.39531">
        <ele>490</ele>
        <time>2022-02-08T15:18:55Z</time>
      </trkpt>
      <trkpt lat="46.45764" lon="5.39558">
        <ele>490.8</ele>
        <time>2022-02-08T15:18:59Z</time>
      </trkpt>
      <trkpt lat="46.45763" lon="5.39586">
        <ele>491.2</ele>
        <time>2022-02-08T15:19:03Z</time>
      </trkpt>
      <trkpt lat="46.45767" lon="5.39636">
        <ele>491.6</ele>
        <time>2022-02-08T15:19:10Z</time>
      </trkpt>
      <trkpt lat="46.4577" lon="5.39649">
        <ele>491.8</ele>
        <time>2022-02-08T15:19:12Z</time>
      </trkpt>
      <trkpt lat="46.45772" lon="5.39654">
        <ele>492</ele>
        <time>2022-02-08T15:19:13Z</time>
      </trkpt>
      <trkpt lat="46.45779" lon="5.39672">
        <ele>492.6</ele>
        <time>2022-02-08T15:19:16Z</time>
      </trkpt>
      <trkpt lat="46.45784" lon="5.39683">
        <ele>493</ele>
        <time>2022-02-08T15:19:18Z</time>
      </trkpt>
      <trkpt lat="46.45791" lon="5.39694">
        <ele>493.2</ele>
        <time>2022-02-08T15:19:20Z</time>
      </trkpt>
      <trkpt lat="46.45798" lon="5.39704">
        <ele>493.8</ele>
        <time>2022-02-08T15:19:22Z</time>
      </trkpt>
      <trkpt lat="46.45806" lon="5.39713">
        <ele>494.4</ele>
        <time>2022-02-08T15:19:24Z</time>
      </trkpt>
      <trkpt lat="46.45829" lon="5.39734">
        <ele>495.4</ele>
        <time>2022-02-08T15:19:30Z</time>
      </trkpt>
      <trkpt lat="46.45833" lon="5.39737">
        <ele>495.6</ele>
        <time>2022-02-08T15:19:31Z</time>
      </trkpt>
      <trkpt lat="46.45866" lon="5.39763">
        <ele>496.8</ele>
        <time>2022-02-08T15:19:39Z</time>
      </trkpt>
      <trkpt lat="46.45875" lon="5.3977">
        <ele>497</ele>
        <time>2022-02-08T15:19:41Z</time>
      </trkpt>
      <trkpt lat="46.45911" lon="5.39801">
        <ele>497.8</ele>
        <time>2022-02-08T15:19:49Z</time>
      </trkpt>
      <trkpt lat="46.45925" lon="5.39813">
        <ele>498.2</ele>
        <time>2022-02-08T15:19:52Z</time>
      </trkpt>
      <trkpt lat="46.45967" lon="5.39849">
        <ele>498.8</ele>
        <time>2022-02-08T15:20:01Z</time>
      </trkpt>
      <trkpt lat="46.45971" lon="5.39853">
        <ele>498.8</ele>
        <time>2022-02-08T15:20:02Z</time>
      </trkpt>
      <trkpt lat="46.46004" lon="5.39881">
        <ele>499.2</ele>
        <time>2022-02-08T15:20:09Z</time>
      </trkpt>
      <trkpt lat="46.46034" lon="5.39906">
        <ele>500</ele>
        <time>2022-02-08T15:20:15Z</time>
      </trkpt>
      <trkpt lat="46.46048" lon="5.39918">
        <ele>500.2</ele>
        <time>2022-02-08T15:20:18Z</time>
      </trkpt>
      <trkpt lat="46.46088" lon="5.39953">
        <ele>500.8</ele>
        <time>2022-02-08T15:20:27Z</time>
      </trkpt>
      <trkpt lat="46.46103" lon="5.39966">
        <ele>501</ele>
        <time>2022-02-08T15:20:30Z</time>
      </trkpt>
      <trkpt lat="46.46128" lon="5.39987">
        <ele>501.2</ele>
        <time>2022-02-08T15:20:35Z</time>
      </trkpt>
      <trkpt lat="46.46169" lon="5.40028">
        <ele>502</ele>
        <time>2022-02-08T15:20:44Z</time>
      </trkpt>
      <trkpt lat="46.46173" lon="5.40034">
        <ele>502</ele>
        <time>2022-02-08T15:20:45Z</time>
      </trkpt>
      <trkpt lat="46.4618" lon="5.40046">
        <ele>502.2</ele>
        <time>2022-02-08T15:20:47Z</time>
      </trkpt>
      <trkpt lat="46.46184" lon="5.4006">
        <ele>502.6</ele>
        <time>2022-02-08T15:20:49Z</time>
      </trkpt>
      <trkpt lat="46.4619" lon="5.4008">
        <ele>502.8</ele>
        <time>2022-02-08T15:20:52Z</time>
      </trkpt>
      <trkpt lat="46.46192" lon="5.40095">
        <ele>503.2</ele>
        <time>2022-02-08T15:20:54Z</time>
      </trkpt>
      <trkpt lat="46.46193" lon="5.40102">
        <ele>503.4</ele>
        <time>2022-02-08T15:20:55Z</time>
      </trkpt>
      <trkpt lat="46.46194" lon="5.40129">
        <ele>503.8</ele>
        <time>2022-02-08T15:20:59Z</time>
      </trkpt>
      <trkpt lat="46.46196" lon="5.40135">
        <ele>503.8</ele>
        <time>2022-02-08T15:21:00Z</time>
      </trkpt>
      <trkpt lat="46.46199" lon="5.4014">
        <ele>504</ele>
        <time>2022-02-08T15:21:01Z</time>
      </trkpt>
      <trkpt lat="46.46204" lon="5.40141">
        <ele>504</ele>
        <time>2022-02-08T15:21:02Z</time>
      </trkpt>
      <trkpt lat="46.46209" lon="5.4014">
        <ele>504.2</ele>
        <time>2022-02-08T15:21:03Z</time>
      </trkpt>
      <trkpt lat="46.46213" lon="5.40137">
        <ele>504.4</ele>
        <time>2022-02-08T15:21:04Z</time>
      </trkpt>
      <trkpt lat="46.46218" lon="5.40133">
        <ele>504.6</ele>
        <time>2022-02-08T15:21:05Z</time>
      </trkpt>
      <trkpt lat="46.46238" lon="5.40112">
        <ele>505.2</ele>
        <time>2022-02-08T15:21:10Z</time>
      </trkpt>
      <trkpt lat="46.46242" lon="5.40108">
        <ele>505.4</ele>
        <time>2022-02-08T15:21:11Z</time>
      </trkpt>
      <trkpt lat="46.46251" lon="5.40101">
        <ele>505.4</ele>
        <time>2022-02-08T15:21:13Z</time>
      </trkpt>
      <trkpt lat="46.46273" lon="5.40093">
        <ele>506</ele>
        <time>2022-02-08T15:21:18Z</time>
      </trkpt>
      <trkpt lat="46.46277" lon="5.40093">
        <ele>506.2</ele>
        <time>2022-02-08T15:21:19Z</time>
      </trkpt>
      <trkpt lat="46.46286" lon="5.40093">
        <ele>506.4</ele>
        <time>2022-02-08T15:21:21Z</time>
      </trkpt>
      <trkpt lat="46.46312" lon="5.40096">
        <ele>507.8</ele>
        <time>2022-02-08T15:21:27Z</time>
      </trkpt>
      <trkpt lat="46.46332" lon="5.40097">
        <ele>509</ele>
        <time>2022-02-08T15:21:32Z</time>
      </trkpt>
      <trkpt lat="46.4634" lon="5.40096">
        <ele>509.4</ele>
        <time>2022-02-08T15:21:34Z</time>
      </trkpt>
      <trkpt lat="46.46358" lon="5.40093">
        <ele>510.2</ele>
        <time>2022-02-08T15:21:38Z</time>
      </trkpt>
      <trkpt lat="46.46382" lon="5.40088">
        <ele>511.6</ele>
        <time>2022-02-08T15:21:44Z</time>
      </trkpt>
      <trkpt lat="46.46414" lon="5.40081">
        <ele>512.8</ele>
        <time>2022-02-08T15:21:52Z</time>
      </trkpt>
      <trkpt lat="46.46421" lon="5.40079">
        <ele>513.2</ele>
        <time>2022-02-08T15:21:54Z</time>
      </trkpt>
      <trkpt lat="46.46441" lon="5.40076">
        <ele>514</ele>
        <time>2022-02-08T15:21:59Z</time>
      </trkpt>
      <trkpt lat="46.46461" lon="5.40072">
        <ele>514.6</ele>
        <time>2022-02-08T15:22:04Z</time>
      </trkpt>
      <trkpt lat="46.46469" lon="5.40071">
        <ele>515</ele>
        <time>2022-02-08T15:22:06Z</time>
      </trkpt>
      <trkpt lat="46.46494" lon="5.4007">
        <ele>515.8</ele>
        <time>2022-02-08T15:22:12Z</time>
      </trkpt>
      <trkpt lat="46.46498" lon="5.40071">
        <ele>516</ele>
        <time>2022-02-08T15:22:13Z</time>
      </trkpt>
      <trkpt lat="46.46523" lon="5.4008">
        <ele>516.6</ele>
        <time>2022-02-08T15:22:19Z</time>
      </trkpt>
      <trkpt lat="46.46535" lon="5.40086">
        <ele>517</ele>
        <time>2022-02-08T15:22:22Z</time>
      </trkpt>
      <trkpt lat="46.46551" lon="5.40095">
        <ele>517.4</ele>
        <time>2022-02-08T15:22:26Z</time>
      </trkpt>
      <trkpt lat="46.46571" lon="5.40105">
        <ele>518.2</ele>
        <time>2022-02-08T15:22:31Z</time>
      </trkpt>
      <trkpt lat="46.46586" lon="5.40113">
        <ele>518.8</ele>
        <time>2022-02-08T15:22:35Z</time>
      </trkpt>
      <trkpt lat="46.46594" lon="5.40117">
        <ele>519.2</ele>
        <time>2022-02-08T15:22:37Z</time>
      </trkpt>
      <trkpt lat="46.46617" lon="5.4013">
        <ele>520.4</ele>
        <time>2022-02-08T15:22:43Z</time>
      </trkpt>
      <trkpt lat="46.46621" lon="5.40132">
        <ele>520.4</ele>
        <time>2022-02-08T15:22:44Z</time>
      </trkpt>
      <trkpt lat="46.46644" lon="5.40145">
        <ele>521.4</ele>
        <time>2022-02-08T15:22:50Z</time>
      </trkpt>
      <trkpt lat="46.46663" lon="5.40156">
        <ele>522.4</ele>
        <time>2022-02-08T15:22:55Z</time>
      </trkpt>
      <trkpt lat="46.46667" lon="5.40158">
        <ele>523</ele>
        <time>2022-02-08T15:22:56Z</time>
      </trkpt>
      <trkpt lat="46.46675" lon="5.40161">
        <ele>523.4</ele>
        <time>2022-02-08T15:22:58Z</time>
      </trkpt>
      <trkpt lat="46.46695" lon="5.40169">
        <ele>524.8</ele>
        <time>2022-02-08T15:23:03Z</time>
      </trkpt>
      <trkpt lat="46.46707" lon="5.40174">
        <ele>525.6</ele>
        <time>2022-02-08T15:23:06Z</time>
      </trkpt>
      <trkpt lat="46.46714" lon="5.40178">
        <ele>526.2</ele>
        <time>2022-02-08T15:23:08Z</time>
      </trkpt>
      <trkpt lat="46.46729" lon="5.40184">
        <ele>527.4</ele>
        <time>2022-02-08T15:23:12Z</time>
      </trkpt>
      <trkpt lat="46.46732" lon="5.40185">
        <ele>527.6</ele>
        <time>2022-02-08T15:23:13Z</time>
      </trkpt>
      <trkpt lat="46.46745" lon="5.40192">
        <ele>528.6</ele>
        <time>2022-02-08T15:23:17Z</time>
      </trkpt>
      <trkpt lat="46.46761" lon="5.40201">
        <ele>529.8</ele>
        <time>2022-02-08T15:23:22Z</time>
      </trkpt>
      <trkpt lat="46.46779" lon="5.40211">
        <ele>531</ele>
        <time>2022-02-08T15:23:28Z</time>
      </trkpt>
      <trkpt lat="46.46792" lon="5.40217">
        <ele>531.6</ele>
        <time>2022-02-08T15:23:32Z</time>
      </trkpt>
      <trkpt lat="46.46795" lon="5.40219">
        <ele>532.2</ele>
        <time>2022-02-08T15:23:33Z</time>
      </trkpt>
      <trkpt lat="46.46808" lon="5.40226">
        <ele>533.2</ele>
        <time>2022-02-08T15:23:37Z</time>
      </trkpt>
      <trkpt lat="46.46823" lon="5.40234">
        <ele>534.4</ele>
        <time>2022-02-08T15:23:42Z</time>
      </trkpt>
      <trkpt lat="46.46827" lon="5.40236">
        <ele>534.6</ele>
        <time>2022-02-08T15:23:43Z</time>
      </trkpt>
      <trkpt lat="46.46847" lon="5.40246">
        <ele>535.6</ele>
        <time>2022-02-08T15:23:49Z</time>
      </trkpt>
      <trkpt lat="46.4686" lon="5.40253">
        <ele>536.4</ele>
        <time>2022-02-08T15:23:53Z</time>
      </trkpt>
      <trkpt lat="46.46867" lon="5.40256">
        <ele>536.8</ele>
        <time>2022-02-08T15:23:55Z</time>
      </trkpt>
      <trkpt lat="46.46883" lon="5.40264">
        <ele>537.6</ele>
        <time>2022-02-08T15:23:59Z</time>
      </trkpt>
      <trkpt lat="46.46895" lon="5.4027">
        <ele>538</ele>
        <time>2022-02-08T15:24:02Z</time>
      </trkpt>
      <trkpt lat="46.46912" lon="5.40278">
        <ele>538.4</ele>
        <time>2022-02-08T15:24:06Z</time>
      </trkpt>
      <trkpt lat="46.46924" lon="5.40285">
        <ele>539</ele>
        <time>2022-02-08T15:24:09Z</time>
      </trkpt>
      <trkpt lat="46.46948" lon="5.40297">
        <ele>539.8</ele>
        <time>2022-02-08T15:24:15Z</time>
      </trkpt>
      <trkpt lat="46.46952" lon="5.40298">
        <ele>540.2</ele>
        <time>2022-02-08T15:24:16Z</time>
      </trkpt>
      <trkpt lat="46.46971" lon="5.40307">
        <ele>541.2</ele>
        <time>2022-02-08T15:24:21Z</time>
      </trkpt>
      <trkpt lat="46.46996" lon="5.40315">
        <ele>542.4</ele>
        <time>2022-02-08T15:24:27Z</time>
      </trkpt>
      <trkpt lat="46.47013" lon="5.4032">
        <ele>543</ele>
        <time>2022-02-08T15:24:31Z</time>
      </trkpt>
      <trkpt lat="46.47023" lon="5.40321">
        <ele>543.2</ele>
        <time>2022-02-08T15:24:33Z</time>
      </trkpt>
      <trkpt lat="46.47028" lon="5.4032">
        <ele>543.2</ele>
        <time>2022-02-08T15:24:34Z</time>
      </trkpt>
      <trkpt lat="46.4706" lon="5.40321">
        <ele>543.4</ele>
        <time>2022-02-08T15:24:39Z</time>
      </trkpt>
      <trkpt lat="46.47094" lon="5.40324">
        <ele>543.4</ele>
        <time>2022-02-08T15:24:43Z</time>
      </trkpt>
      <trkpt lat="46.47122" lon="5.40328">
        <ele>542.4</ele>
        <time>2022-02-08T15:24:46Z</time>
      </trkpt>
      <trkpt lat="46.4714" lon="5.40332">
        <ele>540.8</ele>
        <time>2022-02-08T15:24:48Z</time>
      </trkpt>
      <trkpt lat="46.47149" lon="5.40333">
        <ele>540.4</ele>
        <time>2022-02-08T15:24:49Z</time>
      </trkpt>
      <trkpt lat="46.47158" lon="5.40335">
        <ele>539.8</ele>
        <time>2022-02-08T15:24:50Z</time>
      </trkpt>
      <trkpt lat="46.47168" lon="5.40338">
        <ele>539.6</ele>
        <time>2022-02-08T15:24:51Z</time>
      </trkpt>
      <trkpt lat="46.47187" lon="5.40348">
        <ele>539</ele>
        <time>2022-02-08T15:24:53Z</time>
      </trkpt>
      <trkpt lat="46.47197" lon="5.40355">
        <ele>538.6</ele>
        <time>2022-02-08T15:24:54Z</time>
      </trkpt>
      <trkpt lat="46.47213" lon="5.40372">
        <ele>538.2</ele>
        <time>2022-02-08T15:24:56Z</time>
      </trkpt>
      <trkpt lat="46.4723" lon="5.40395">
        <ele>537.4</ele>
        <time>2022-02-08T15:24:58Z</time>
      </trkpt>
      <trkpt lat="46.4724" lon="5.40405">
        <ele>536.6</ele>
        <time>2022-02-08T15:24:59Z</time>
      </trkpt>
      <trkpt lat="46.47249" lon="5.40413">
        <ele>536.2</ele>
        <time>2022-02-08T15:25:00Z</time>
      </trkpt>
      <trkpt lat="46.47259" lon="5.4042">
        <ele>535.8</ele>
        <time>2022-02-08T15:25:01Z</time>
      </trkpt>
      <trkpt lat="46.4728" lon="5.40429">
        <ele>535.2</ele>
        <time>2022-02-08T15:25:03Z</time>
      </trkpt>
      <trkpt lat="46.47291" lon="5.40435">
        <ele>534</ele>
        <time>2022-02-08T15:25:04Z</time>
      </trkpt>
      <trkpt lat="46.47313" lon="5.40441">
        <ele>532.8</ele>
        <time>2022-02-08T15:25:06Z</time>
      </trkpt>
      <trkpt lat="46.47335" lon="5.40446">
        <ele>531.6</ele>
        <time>2022-02-08T15:25:08Z</time>
      </trkpt>
      <trkpt lat="46.47345" lon="5.40448">
        <ele>531</ele>
        <time>2022-02-08T15:25:09Z</time>
      </trkpt>
      <trkpt lat="46.47355" lon="5.40449">
        <ele>530.2</ele>
        <time>2022-02-08T15:25:10Z</time>
      </trkpt>
      <trkpt lat="46.47388" lon="5.40452">
        <ele>528.6</ele>
        <time>2022-02-08T15:25:13Z</time>
      </trkpt>
      <trkpt lat="46.4741" lon="5.40451">
        <ele>527.6</ele>
        <time>2022-02-08T15:25:15Z</time>
      </trkpt>
      <trkpt lat="46.47432" lon="5.4045">
        <ele>526.4</ele>
        <time>2022-02-08T15:25:17Z</time>
      </trkpt>
      <trkpt lat="46.47454" lon="5.4045">
        <ele>525.4</ele>
        <time>2022-02-08T15:25:19Z</time>
      </trkpt>
      <trkpt lat="46.47465" lon="5.40451">
        <ele>524.8</ele>
        <time>2022-02-08T15:25:20Z</time>
      </trkpt>
      <trkpt lat="46.47475" lon="5.40453">
        <ele>524.4</ele>
        <time>2022-02-08T15:25:21Z</time>
      </trkpt>
      <trkpt lat="46.47485" lon="5.40455">
        <ele>524</ele>
        <time>2022-02-08T15:25:22Z</time>
      </trkpt>
      <trkpt lat="46.47495" lon="5.40458">
        <ele>523.4</ele>
        <time>2022-02-08T15:25:23Z</time>
      </trkpt>
      <trkpt lat="46.47504" lon="5.40463">
        <ele>521.8</ele>
        <time>2022-02-08T15:25:24Z</time>
      </trkpt>
      <trkpt lat="46.47511" lon="5.4047">
        <ele>521.4</ele>
        <time>2022-02-08T15:25:25Z</time>
      </trkpt>
      <trkpt lat="46.47517" lon="5.40477">
        <ele>520.4</ele>
        <time>2022-02-08T15:25:26Z</time>
      </trkpt>
      <trkpt lat="46.47525" lon="5.40481">
        <ele>519.8</ele>
        <time>2022-02-08T15:25:27Z</time>
      </trkpt>
      <trkpt lat="46.47541" lon="5.40477">
        <ele>519.2</ele>
        <time>2022-02-08T15:25:29Z</time>
      </trkpt>
      <trkpt lat="46.47548" lon="5.40459">
        <ele>518</ele>
        <time>2022-02-08T15:25:31Z</time>
      </trkpt>
      <trkpt lat="46.47548" lon="5.40432">
        <ele>516.6</ele>
        <time>2022-02-08T15:25:33Z</time>
      </trkpt>
      <trkpt lat="46.47546" lon="5.40418">
        <ele>515.8</ele>
        <time>2022-02-08T15:25:34Z</time>
      </trkpt>
      <trkpt lat="46.47541" lon="5.40404">
        <ele>515.6</ele>
        <time>2022-02-08T15:25:35Z</time>
      </trkpt>
      <trkpt lat="46.47533" lon="5.40377">
        <ele>514.6</ele>
        <time>2022-02-08T15:25:37Z</time>
      </trkpt>
      <trkpt lat="46.47531" lon="5.40362">
        <ele>514</ele>
        <time>2022-02-08T15:25:38Z</time>
      </trkpt>
      <trkpt lat="46.47532" lon="5.40346">
        <ele>513.6</ele>
        <time>2022-02-08T15:25:39Z</time>
      </trkpt>
      <trkpt lat="46.47535" lon="5.40332">
        <ele>513.2</ele>
        <time>2022-02-08T15:25:40Z</time>
      </trkpt>
      <trkpt lat="46.4754" lon="5.40319">
        <ele>512.6</ele>
        <time>2022-02-08T15:25:41Z</time>
      </trkpt>
      <trkpt lat="46.47547" lon="5.40307">
        <ele>511.6</ele>
        <time>2022-02-08T15:25:42Z</time>
      </trkpt>
      <trkpt lat="46.47556" lon="5.40296">
        <ele>510.6</ele>
        <time>2022-02-08T15:25:43Z</time>
      </trkpt>
      <trkpt lat="46.47566" lon="5.40285">
        <ele>510.2</ele>
        <time>2022-02-08T15:25:44Z</time>
      </trkpt>
      <trkpt lat="46.47575" lon="5.40277">
        <ele>509.6</ele>
        <time>2022-02-08T15:25:45Z</time>
      </trkpt>
      <trkpt lat="46.47597" lon="5.40265">
        <ele>508.8</ele>
        <time>2022-02-08T15:25:47Z</time>
      </trkpt>
      <trkpt lat="46.47608" lon="5.40262">
        <ele>508.6</ele>
        <time>2022-02-08T15:25:48Z</time>
      </trkpt>
      <trkpt lat="46.47632" lon="5.40257">
        <ele>507.6</ele>
        <time>2022-02-08T15:25:50Z</time>
      </trkpt>
      <trkpt lat="46.47656" lon="5.40253">
        <ele>506</ele>
        <time>2022-02-08T15:25:52Z</time>
      </trkpt>
      <trkpt lat="46.47667" lon="5.40253">
        <ele>505.8</ele>
        <time>2022-02-08T15:25:53Z</time>
      </trkpt>
      <trkpt lat="46.47678" lon="5.40254">
        <ele>505</ele>
        <time>2022-02-08T15:25:54Z</time>
      </trkpt>
      <trkpt lat="46.47689" lon="5.40251">
        <ele>504.8</ele>
        <time>2022-02-08T15:25:55Z</time>
      </trkpt>
      <trkpt lat="46.47699" lon="5.40245">
        <ele>504.2</ele>
        <time>2022-02-08T15:25:56Z</time>
      </trkpt>
      <trkpt lat="46.47708" lon="5.40234">
        <ele>503.8</ele>
        <time>2022-02-08T15:25:57Z</time>
      </trkpt>
      <trkpt lat="46.4772" lon="5.40207">
        <ele>502.8</ele>
        <time>2022-02-08T15:25:59Z</time>
      </trkpt>
      <trkpt lat="46.47727" lon="5.40173">
        <ele>502</ele>
        <time>2022-02-08T15:26:01Z</time>
      </trkpt>
      <trkpt lat="46.47734" lon="5.4016">
        <ele>501.8</ele>
        <time>2022-02-08T15:26:02Z</time>
      </trkpt>
      <trkpt lat="46.47751" lon="5.4014">
        <ele>500.6</ele>
        <time>2022-02-08T15:26:04Z</time>
      </trkpt>
      <trkpt lat="46.47763" lon="5.40119">
        <ele>499.4</ele>
        <time>2022-02-08T15:26:06Z</time>
      </trkpt>
      <trkpt lat="46.47769" lon="5.40101">
        <ele>498.4</ele>
        <time>2022-02-08T15:26:07Z</time>
      </trkpt>
      <trkpt lat="46.4777" lon="5.40084">
        <ele>497.4</ele>
        <time>2022-02-08T15:26:08Z</time>
      </trkpt>
      <trkpt lat="46.4777" lon="5.40067">
        <ele>497</ele>
        <time>2022-02-08T15:26:09Z</time>
      </trkpt>
      <trkpt lat="46.47769" lon="5.40055">
        <ele>496.2</ele>
        <time>2022-02-08T15:26:10Z</time>
      </trkpt>
      <trkpt lat="46.47768" lon="5.40038">
        <ele>495.8</ele>
        <time>2022-02-08T15:26:11Z</time>
      </trkpt>
      <trkpt lat="46.4777" lon="5.40028">
        <ele>495</ele>
        <time>2022-02-08T15:26:12Z</time>
      </trkpt>
      <trkpt lat="46.47773" lon="5.40016">
        <ele>494.8</ele>
        <time>2022-02-08T15:26:13Z</time>
      </trkpt>
      <trkpt lat="46.47777" lon="5.40008">
        <ele>494.2</ele>
        <time>2022-02-08T15:26:14Z</time>
      </trkpt>
      <trkpt lat="46.47783" lon="5.40001">
        <ele>493.8</ele>
        <time>2022-02-08T15:26:15Z</time>
      </trkpt>
      <trkpt lat="46.4779" lon="5.39996">
        <ele>492.6</ele>
        <time>2022-02-08T15:26:16Z</time>
      </trkpt>
      <trkpt lat="46.47807" lon="5.39987">
        <ele>491.4</ele>
        <time>2022-02-08T15:26:18Z</time>
      </trkpt>
      <trkpt lat="46.47816" lon="5.39982">
        <ele>490.2</ele>
        <time>2022-02-08T15:26:19Z</time>
      </trkpt>
      <trkpt lat="46.47836" lon="5.39973">
        <ele>489</ele>
        <time>2022-02-08T15:26:21Z</time>
      </trkpt>
      <trkpt lat="46.47856" lon="5.39961">
        <ele>487.6</ele>
        <time>2022-02-08T15:26:23Z</time>
      </trkpt>
      <trkpt lat="46.47887" lon="5.39945">
        <ele>486.2</ele>
        <time>2022-02-08T15:26:26Z</time>
      </trkpt>
      <trkpt lat="46.47919" lon="5.39928">
        <ele>484.8</ele>
        <time>2022-02-08T15:26:29Z</time>
      </trkpt>
      <trkpt lat="46.4794" lon="5.39917">
        <ele>483.6</ele>
        <time>2022-02-08T15:26:31Z</time>
      </trkpt>
      <trkpt lat="46.4795" lon="5.39912">
        <ele>483.2</ele>
        <time>2022-02-08T15:26:32Z</time>
      </trkpt>
      <trkpt lat="46.4796" lon="5.39906">
        <ele>482.2</ele>
        <time>2022-02-08T15:26:33Z</time>
      </trkpt>
      <trkpt lat="46.48" lon="5.39888">
        <ele>480.6</ele>
        <time>2022-02-08T15:26:37Z</time>
      </trkpt>
      <trkpt lat="46.4801" lon="5.39884">
        <ele>480.2</ele>
        <time>2022-02-08T15:26:38Z</time>
      </trkpt>
      <trkpt lat="46.48029" lon="5.39885">
        <ele>479.6</ele>
        <time>2022-02-08T15:26:40Z</time>
      </trkpt>
      <trkpt lat="46.48038" lon="5.39889">
        <ele>479.2</ele>
        <time>2022-02-08T15:26:41Z</time>
      </trkpt>
      <trkpt lat="46.48063" lon="5.39905">
        <ele>479</ele>
        <time>2022-02-08T15:26:44Z</time>
      </trkpt>
      <trkpt lat="46.48079" lon="5.3991">
        <ele>479</ele>
        <time>2022-02-08T15:26:46Z</time>
      </trkpt>
      <trkpt lat="46.4812" lon="5.39909">
        <ele>478.8</ele>
        <time>2022-02-08T15:26:51Z</time>
      </trkpt>
      <trkpt lat="46.48158" lon="5.39892">
        <ele>479</ele>
        <time>2022-02-08T15:26:56Z</time>
      </trkpt>
      <trkpt lat="46.48188" lon="5.3987">
        <ele>478.8</ele>
        <time>2022-02-08T15:27:00Z</time>
      </trkpt>
      <trkpt lat="46.48194" lon="5.39863">
        <ele>478.8</ele>
        <time>2022-02-08T15:27:01Z</time>
      </trkpt>
      <trkpt lat="46.48198" lon="5.39853">
        <ele>478.6</ele>
        <time>2022-02-08T15:27:02Z</time>
      </trkpt>
      <trkpt lat="46.482" lon="5.39844">
        <ele>478.6</ele>
        <time>2022-02-08T15:27:03Z</time>
      </trkpt>
      <trkpt lat="46.482" lon="5.39831">
        <ele>478.4</ele>
        <time>2022-02-08T15:27:04Z</time>
      </trkpt>
      <trkpt lat="46.48198" lon="5.39819">
        <ele>478.4</ele>
        <time>2022-02-08T15:27:05Z</time>
      </trkpt>
      <trkpt lat="46.48194" lon="5.39796">
        <ele>478.2</ele>
        <time>2022-02-08T15:27:07Z</time>
      </trkpt>
      <trkpt lat="46.48184" lon="5.39738">
        <ele>477.8</ele>
        <time>2022-02-08T15:27:12Z</time>
      </trkpt>
      <trkpt lat="46.4818" lon="5.3969">
        <ele>477.2</ele>
        <time>2022-02-08T15:27:16Z</time>
      </trkpt>
      <trkpt lat="46.48181" lon="5.39677">
        <ele>477</ele>
        <time>2022-02-08T15:27:17Z</time>
      </trkpt>
      <trkpt lat="46.48182" lon="5.39664">
        <ele>477</ele>
        <time>2022-02-08T15:27:18Z</time>
      </trkpt>
      <trkpt lat="46.48184" lon="5.3965">
        <ele>476.8</ele>
        <time>2022-02-08T15:27:19Z</time>
      </trkpt>
      <trkpt lat="46.48192" lon="5.39625">
        <ele>476.2</ele>
        <time>2022-02-08T15:27:21Z</time>
      </trkpt>
      <trkpt lat="46.48202" lon="5.396">
        <ele>474.8</ele>
        <time>2022-02-08T15:27:23Z</time>
      </trkpt>
      <trkpt lat="46.48212" lon="5.39572">
        <ele>473.2</ele>
        <time>2022-02-08T15:27:25Z</time>
      </trkpt>
      <trkpt lat="46.48215" lon="5.39557">
        <ele>472.6</ele>
        <time>2022-02-08T15:27:26Z</time>
      </trkpt>
      <trkpt lat="46.48219" lon="5.39542">
        <ele>471.8</ele>
        <time>2022-02-08T15:27:27Z</time>
      </trkpt>
      <trkpt lat="46.48226" lon="5.39511">
        <ele>470.8</ele>
        <time>2022-02-08T15:27:29Z</time>
      </trkpt>
      <trkpt lat="46.48231" lon="5.39497">
        <ele>469.6</ele>
        <time>2022-02-08T15:27:30Z</time>
      </trkpt>
      <trkpt lat="46.48237" lon="5.39485">
        <ele>469</ele>
        <time>2022-02-08T15:27:31Z</time>
      </trkpt>
      <trkpt lat="46.48244" lon="5.39476">
        <ele>467.8</ele>
        <time>2022-02-08T15:27:32Z</time>
      </trkpt>
      <trkpt lat="46.48253" lon="5.3947">
        <ele>467.2</ele>
        <time>2022-02-08T15:27:33Z</time>
      </trkpt>
      <trkpt lat="46.48262" lon="5.39469">
        <ele>466</ele>
        <time>2022-02-08T15:27:34Z</time>
      </trkpt>
      <trkpt lat="46.4828" lon="5.39469">
        <ele>464.4</ele>
        <time>2022-02-08T15:27:36Z</time>
      </trkpt>
      <trkpt lat="46.4829" lon="5.39464">
        <ele>463.8</ele>
        <time>2022-02-08T15:27:37Z</time>
      </trkpt>
      <trkpt lat="46.48299" lon="5.39456">
        <ele>462</ele>
        <time>2022-02-08T15:27:38Z</time>
      </trkpt>
      <trkpt lat="46.48307" lon="5.39447">
        <ele>460.8</ele>
        <time>2022-02-08T15:27:39Z</time>
      </trkpt>
      <trkpt lat="46.48309" lon="5.39429">
        <ele>460.2</ele>
        <time>2022-02-08T15:27:40Z</time>
      </trkpt>
      <trkpt lat="46.48311" lon="5.39414">
        <ele>459.8</ele>
        <time>2022-02-08T15:27:41Z</time>
      </trkpt>
      <trkpt lat="46.48318" lon="5.3938">
        <ele>458</ele>
        <time>2022-02-08T15:27:43Z</time>
      </trkpt>
      <trkpt lat="46.48322" lon="5.39366">
        <ele>457.6</ele>
        <time>2022-02-08T15:27:44Z</time>
      </trkpt>
      <trkpt lat="46.48329" lon="5.3935">
        <ele>456.6</ele>
        <time>2022-02-08T15:27:45Z</time>
      </trkpt>
      <trkpt lat="46.48336" lon="5.39338">
        <ele>456.2</ele>
        <time>2022-02-08T15:27:46Z</time>
      </trkpt>
      <trkpt lat="46.48353" lon="5.39318">
        <ele>454.4</ele>
        <time>2022-02-08T15:27:48Z</time>
      </trkpt>
      <trkpt lat="46.48363" lon="5.39313">
        <ele>453.8</ele>
        <time>2022-02-08T15:27:49Z</time>
      </trkpt>
      <trkpt lat="46.48374" lon="5.39311">
        <ele>452.4</ele>
        <time>2022-02-08T15:27:50Z</time>
      </trkpt>
      <trkpt lat="46.48398" lon="5.39315">
        <ele>450.8</ele>
        <time>2022-02-08T15:27:52Z</time>
      </trkpt>
      <trkpt lat="46.48423" lon="5.3932">
        <ele>448.8</ele>
        <time>2022-02-08T15:27:54Z</time>
      </trkpt>
      <trkpt lat="46.48436" lon="5.3932">
        <ele>447.2</ele>
        <time>2022-02-08T15:27:55Z</time>
      </trkpt>
      <trkpt lat="46.48449" lon="5.39319">
        <ele>446.6</ele>
        <time>2022-02-08T15:27:56Z</time>
      </trkpt>
      <trkpt lat="46.48462" lon="5.39315">
        <ele>445.6</ele>
        <time>2022-02-08T15:27:57Z</time>
      </trkpt>
      <trkpt lat="46.48488" lon="5.39309">
        <ele>443.2</ele>
        <time>2022-02-08T15:27:59Z</time>
      </trkpt>
      <trkpt lat="46.48502" lon="5.39306">
        <ele>442.6</ele>
        <time>2022-02-08T15:28:00Z</time>
      </trkpt>
      <trkpt lat="46.48516" lon="5.39303">
        <ele>442</ele>
        <time>2022-02-08T15:28:01Z</time>
      </trkpt>
      <trkpt lat="46.48544" lon="5.39296">
        <ele>440</ele>
        <time>2022-02-08T15:28:03Z</time>
      </trkpt>
      <trkpt lat="46.48558" lon="5.39294">
        <ele>438.4</ele>
        <time>2022-02-08T15:28:04Z</time>
      </trkpt>
      <trkpt lat="46.48572" lon="5.39291">
        <ele>437.8</ele>
        <time>2022-02-08T15:28:05Z</time>
      </trkpt>
      <trkpt lat="46.48586" lon="5.39289">
        <ele>436.6</ele>
        <time>2022-02-08T15:28:06Z</time>
      </trkpt>
      <trkpt lat="46.48612" lon="5.39285">
        <ele>434.8</ele>
        <time>2022-02-08T15:28:08Z</time>
      </trkpt>
      <trkpt lat="46.48642" lon="5.3928">
        <ele>432.8</ele>
        <time>2022-02-08T15:28:10Z</time>
      </trkpt>
      <trkpt lat="46.48655" lon="5.3928">
        <ele>432.4</ele>
        <time>2022-02-08T15:28:11Z</time>
      </trkpt>
      <trkpt lat="46.48668" lon="5.39281">
        <ele>430.6</ele>
        <time>2022-02-08T15:28:12Z</time>
      </trkpt>
      <trkpt lat="46.4868" lon="5.39284">
        <ele>429</ele>
        <time>2022-02-08T15:28:13Z</time>
      </trkpt>
      <trkpt lat="46.48691" lon="5.39288">
        <ele>428.6</ele>
        <time>2022-02-08T15:28:14Z</time>
      </trkpt>
      <trkpt lat="46.48701" lon="5.39293">
        <ele>427</ele>
        <time>2022-02-08T15:28:15Z</time>
      </trkpt>
      <trkpt lat="46.4871" lon="5.39298">
        <ele>426.6</ele>
        <time>2022-02-08T15:28:16Z</time>
      </trkpt>
      <trkpt lat="46.48718" lon="5.39304">
        <ele>425.8</ele>
        <time>2022-02-08T15:28:17Z</time>
      </trkpt>
      <trkpt lat="46.48725" lon="5.39307">
        <ele>425.4</ele>
        <time>2022-02-08T15:28:18Z</time>
      </trkpt>
      <trkpt lat="46.48734" lon="5.39308">
        <ele>424</ele>
        <time>2022-02-08T15:28:19Z</time>
      </trkpt>
      <trkpt lat="46.48738" lon="5.39305">
        <ele>421.8</ele>
        <time>2022-02-08T15:28:20Z</time>
      </trkpt>
      <trkpt lat="46.48739" lon="5.39287">
        <ele>419.4</ele>
        <time>2022-02-08T15:28:22Z</time>
      </trkpt>
      <trkpt lat="46.48727" lon="5.39264">
        <ele>417.2</ele>
        <time>2022-02-08T15:28:24Z</time>
      </trkpt>
      <trkpt lat="46.4871" lon="5.39239">
        <ele>415.6</ele>
        <time>2022-02-08T15:28:26Z</time>
      </trkpt>
      <trkpt lat="46.48701" lon="5.39226">
        <ele>415.2</ele>
        <time>2022-02-08T15:28:27Z</time>
      </trkpt>
      <trkpt lat="46.48691" lon="5.39213">
        <ele>414.2</ele>
        <time>2022-02-08T15:28:28Z</time>
      </trkpt>
      <trkpt lat="46.48684" lon="5.39202">
        <ele>412.6</ele>
        <time>2022-02-08T15:28:29Z</time>
      </trkpt>
      <trkpt lat="46.48663" lon="5.39171">
        <ele>410.8</ele>
        <time>2022-02-08T15:28:31Z</time>
      </trkpt>
      <trkpt lat="46.48653" lon="5.39157">
        <ele>410.2</ele>
        <time>2022-02-08T15:28:32Z</time>
      </trkpt>
      <trkpt lat="46.48642" lon="5.39145">
        <ele>409.2</ele>
        <time>2022-02-08T15:28:33Z</time>
      </trkpt>
      <trkpt lat="46.48618" lon="5.39124">
        <ele>407.8</ele>
        <time>2022-02-08T15:28:35Z</time>
      </trkpt>
      <trkpt lat="46.48593" lon="5.39105">
        <ele>405.4</ele>
        <time>2022-02-08T15:28:37Z</time>
      </trkpt>
      <trkpt lat="46.48582" lon="5.39098">
        <ele>404.4</ele>
        <time>2022-02-08T15:28:38Z</time>
      </trkpt>
      <trkpt lat="46.48554" lon="5.3908">
        <ele>402.2</ele>
        <time>2022-02-08T15:28:40Z</time>
      </trkpt>
      <trkpt lat="46.48541" lon="5.39072">
        <ele>401.6</ele>
        <time>2022-02-08T15:28:41Z</time>
      </trkpt>
      <trkpt lat="46.48528" lon="5.39062">
        <ele>400</ele>
        <time>2022-02-08T15:28:42Z</time>
      </trkpt>
      <trkpt lat="46.48507" lon="5.39032">
        <ele>398.4</ele>
        <time>2022-02-08T15:28:44Z</time>
      </trkpt>
      <trkpt lat="46.48501" lon="5.39017">
        <ele>396.2</ele>
        <time>2022-02-08T15:28:45Z</time>
      </trkpt>
      <trkpt lat="46.48489" lon="5.38974">
        <ele>393.6</ele>
        <time>2022-02-08T15:28:47Z</time>
      </trkpt>
      <trkpt lat="46.48483" lon="5.38957">
        <ele>392.4</ele>
        <time>2022-02-08T15:28:48Z</time>
      </trkpt>
      <trkpt lat="46.48476" lon="5.38944">
        <ele>391</ele>
        <time>2022-02-08T15:28:49Z</time>
      </trkpt>
      <trkpt lat="46.48468" lon="5.38928">
        <ele>390.4</ele>
        <time>2022-02-08T15:28:50Z</time>
      </trkpt>
      <trkpt lat="46.48462" lon="5.38915">
        <ele>389.2</ele>
        <time>2022-02-08T15:28:51Z</time>
      </trkpt>
      <trkpt lat="46.48459" lon="5.38901">
        <ele>388.6</ele>
        <time>2022-02-08T15:28:52Z</time>
      </trkpt>
      <trkpt lat="46.48458" lon="5.38886">
        <ele>386.8</ele>
        <time>2022-02-08T15:28:53Z</time>
      </trkpt>
      <trkpt lat="46.4846" lon="5.38872">
        <ele>385.6</ele>
        <time>2022-02-08T15:28:54Z</time>
      </trkpt>
      <trkpt lat="46.48465" lon="5.3886">
        <ele>385</ele>
        <time>2022-02-08T15:28:55Z</time>
      </trkpt>
      <trkpt lat="46.48472" lon="5.38852">
        <ele>384.2</ele>
        <time>2022-02-08T15:28:56Z</time>
      </trkpt>
      <trkpt lat="46.48481" lon="5.38844">
        <ele>383.6</ele>
        <time>2022-02-08T15:28:57Z</time>
      </trkpt>
      <trkpt lat="46.48488" lon="5.38839">
        <ele>382.6</ele>
        <time>2022-02-08T15:28:58Z</time>
      </trkpt>
      <trkpt lat="46.48509" lon="5.38825">
        <ele>381.4</ele>
        <time>2022-02-08T15:29:00Z</time>
      </trkpt>
      <trkpt lat="46.48537" lon="5.38807">
        <ele>379.6</ele>
        <time>2022-02-08T15:29:03Z</time>
      </trkpt>
      <trkpt lat="46.48559" lon="5.38793">
        <ele>378.4</ele>
        <time>2022-02-08T15:29:05Z</time>
      </trkpt>
      <trkpt lat="46.48578" lon="5.3878">
        <ele>376.8</ele>
        <time>2022-02-08T15:29:07Z</time>
      </trkpt>
      <trkpt lat="46.48592" lon="5.38776">
        <ele>375</ele>
        <time>2022-02-08T15:29:09Z</time>
      </trkpt>
      <trkpt lat="46.486" lon="5.38779">
        <ele>374</ele>
        <time>2022-02-08T15:29:10Z</time>
      </trkpt>
      <trkpt lat="46.48606" lon="5.3878">
        <ele>373.6</ele>
        <time>2022-02-08T15:29:11Z</time>
      </trkpt>
      <trkpt lat="46.48613" lon="5.38776">
        <ele>372.4</ele>
        <time>2022-02-08T15:29:12Z</time>
      </trkpt>
      <trkpt lat="46.4862" lon="5.38768">
        <ele>371.6</ele>
        <time>2022-02-08T15:29:13Z</time>
      </trkpt>
      <trkpt lat="46.48624" lon="5.3876">
        <ele>370.2</ele>
        <time>2022-02-08T15:29:14Z</time>
      </trkpt>
      <trkpt lat="46.48635" lon="5.38735">
        <ele>368.4</ele>
        <time>2022-02-08T15:29:16Z</time>
      </trkpt>
      <trkpt lat="46.48639" lon="5.38721">
        <ele>367.8</ele>
        <time>2022-02-08T15:29:17Z</time>
      </trkpt>
      <trkpt lat="46.48643" lon="5.38694">
        <ele>366.8</ele>
        <time>2022-02-08T15:29:18Z</time>
      </trkpt>
      <trkpt lat="46.48643" lon="5.38674">
        <ele>365.4</ele>
        <time>2022-02-08T15:29:20Z</time>
      </trkpt>
      <trkpt lat="46.48642" lon="5.38658">
        <ele>364.2</ele>
        <time>2022-02-08T15:29:21Z</time>
      </trkpt>
      <trkpt lat="46.48639" lon="5.38645">
        <ele>363.8</ele>
        <time>2022-02-08T15:29:22Z</time>
      </trkpt>
      <trkpt lat="46.48631" lon="5.38611">
        <ele>363</ele>
        <time>2022-02-08T15:29:24Z</time>
      </trkpt>
      <trkpt lat="46.48624" lon="5.3858">
        <ele>362</ele>
        <time>2022-02-08T15:29:26Z</time>
      </trkpt>
      <trkpt lat="46.48616" lon="5.38551">
        <ele>361.2</ele>
        <time>2022-02-08T15:29:27Z</time>
      </trkpt>
      <trkpt lat="46.48612" lon="5.38535">
        <ele>360.2</ele>
        <time>2022-02-08T15:29:28Z</time>
      </trkpt>
      <trkpt lat="46.48601" lon="5.385">
        <ele>358.8</ele>
        <time>2022-02-08T15:29:30Z</time>
      </trkpt>
    </trkseg>
  </trk>
</gpx>